<?xml version="1.0" encoding="UTF-8" standalone="no" ?>
<gpx xmlns="http://www.topografix.com/GPX/1/1" xmlns:xsi="http://www.w3.org/2001/XMLSchema-instance" xsi:schemaLocation="http://www.topografix.com/GPX/1/1 http://www.topografix.com/GPX/1/1/gpx.xsd" version="1.1" creator="VisuGPX - https://www.visugpx.com">
  <metadata>
    <name>?Tour du Cotentin</name>
  </metadata>
  <trk>
    <name><![CDATA[👽Tour du Cotentin]]></name>
    <trkseg>
      <trkpt lat="49.51278" lon="-1.28474">
        <ele>3.400121</ele>
        <time>2022-01-19T20:12:21.439Z</time>
      </trkpt>
      <trkpt lat="49.5127" lon="-1.28462">
        <ele>3.400121</ele>
        <time>2022-01-19T20:12:23.391Z</time>
      </trkpt>
      <trkpt lat="49.51232" lon="-1.28407">
        <ele>3.400121</ele>
        <time>2022-01-19T20:12:32.272Z</time>
      </trkpt>
      <trkpt lat="49.51223" lon="-1.28409">
        <ele>3.400121</ele>
        <time>2022-01-19T20:12:33.742Z</time>
      </trkpt>
      <trkpt lat="49.51141" lon="-1.28346">
        <ele>3.28722</ele>
        <time>2022-01-19T20:12:49.800Z</time>
      </trkpt>
      <trkpt lat="49.51126" lon="-1.28334">
        <ele>3.260845</ele>
        <time>2022-01-19T20:12:52.795Z</time>
      </trkpt>
      <trkpt lat="49.51041" lon="-1.28267">
        <ele>3.126347</ele>
        <time>2022-01-19T20:13:09.456Z</time>
      </trkpt>
      <trkpt lat="49.50986" lon="-1.28232">
        <ele>3.115857</ele>
        <time>2022-01-19T20:13:19.900Z</time>
      </trkpt>
      <trkpt lat="49.51009" lon="-1.28181">
        <ele>3.108829</ele>
        <time>2022-01-19T20:13:31.028Z</time>
      </trkpt>
      <trkpt lat="49.50951" lon="-1.28135">
        <ele>3.097351</ele>
        <time>2022-01-19T20:13:42.073Z</time>
      </trkpt>
      <trkpt lat="49.50889" lon="-1.28081">
        <ele>2.970106</ele>
        <time>2022-01-19T20:13:54.231Z</time>
      </trkpt>
      <trkpt lat="49.50847" lon="-1.28041">
        <ele>2.871101</ele>
        <time>2022-01-19T20:14:02.442Z</time>
      </trkpt>
      <trkpt lat="49.50815" lon="-1.27998">
        <ele>2.7863</ele>
        <time>2022-01-19T20:14:09.472Z</time>
      </trkpt>
      <trkpt lat="49.50778" lon="-1.27923">
        <ele>2.644248</ele>
        <time>2022-01-19T20:14:19.597Z</time>
      </trkpt>
      <trkpt lat="49.50773" lon="-1.27912">
        <ele>2.622033</ele>
        <time>2022-01-19T20:14:21.027Z</time>
      </trkpt>
      <trkpt lat="49.50742" lon="-1.27844">
        <ele>2.482352</ele>
        <time>2022-01-19T20:14:30.096Z</time>
      </trkpt>
      <trkpt lat="49.50704" lon="-1.27787">
        <ele>2.346995</ele>
        <time>2022-01-19T20:14:38.885Z</time>
      </trkpt>
      <trkpt lat="49.50497" lon="-1.27556">
        <ele>1.978231</ele>
        <time>2022-01-19T20:15:21.789Z</time>
      </trkpt>
      <trkpt lat="49.50386" lon="-1.27434">
        <ele>1.757369</ele>
        <time>2022-01-19T20:15:44.741Z</time>
      </trkpt>
      <trkpt lat="49.5039" lon="-1.27422">
        <ele>1.739641</ele>
        <time>2022-01-19T20:15:47.237Z</time>
      </trkpt>
      <trkpt lat="49.50385" lon="-1.27415">
        <ele>1.726004</ele>
        <time>2022-01-19T20:15:49.161Z</time>
      </trkpt>
      <trkpt lat="49.50215" lon="-1.27211">
        <ele>1.370157</ele>
        <time>2022-01-19T20:16:49.469Z</time>
      </trkpt>
      <trkpt lat="49.5018" lon="-1.27168">
        <ele>1.338686</ele>
        <time>2022-01-19T20:17:02.025Z</time>
      </trkpt>
      <trkpt lat="49.5009" lon="-1.27062">
        <ele>1.233873</ele>
        <time>2022-01-19T20:17:33.651Z</time>
      </trkpt>
      <trkpt lat="49.49914" lon="-1.26896">
        <ele>0.992147</ele>
        <time>2022-01-19T20:18:31.272Z</time>
      </trkpt>
      <trkpt lat="49.49588" lon="-1.26629">
        <ele>0.988254</ele>
        <time>2022-01-19T20:20:14.378Z</time>
      </trkpt>
      <trkpt lat="49.49461" lon="-1.26517">
        <ele>0.992095</ele>
        <time>2022-01-19T20:20:55.346Z</time>
      </trkpt>
      <trkpt lat="49.49401" lon="-1.26462">
        <ele>0.977114</ele>
        <time>2022-01-19T20:21:14.736Z</time>
      </trkpt>
      <trkpt lat="49.49232" lon="-1.2632">
        <ele>0.921732</ele>
        <time>2022-01-19T20:22:08.317Z</time>
      </trkpt>
      <trkpt lat="49.49228" lon="-1.26316">
        <ele>0.920106</ele>
        <time>2022-01-19T20:22:09.691Z</time>
      </trkpt>
      <trkpt lat="49.4905" lon="-1.26155">
        <ele>0.996996</ele>
        <time>2022-01-19T20:23:07.318Z</time>
      </trkpt>
      <trkpt lat="49.4884" lon="-1.25973">
        <ele>1.561689</ele>
        <time>2022-01-19T20:24:14.953Z</time>
      </trkpt>
      <trkpt lat="49.48692" lon="-1.25844">
        <ele>1.911334</ele>
        <time>2022-01-19T20:25:02.742Z</time>
      </trkpt>
      <trkpt lat="49.48599" lon="-1.25767">
        <ele>2.143457</ele>
        <time>2022-01-19T20:25:32.318Z</time>
      </trkpt>
      <trkpt lat="49.48584" lon="-1.25797">
        <ele>2.19729</ele>
        <time>2022-01-19T20:25:39.210Z</time>
      </trkpt>
      <trkpt lat="49.48568" lon="-1.25778">
        <ele>2.242122</ele>
        <time>2022-01-19T20:25:44.924Z</time>
      </trkpt>
      <trkpt lat="49.48428" lon="-1.25632">
        <ele>2.754207</ele>
        <time>2022-01-19T20:26:32.585Z</time>
      </trkpt>
      <trkpt lat="49.48402" lon="-1.25613">
        <ele>2.822261</ele>
        <time>2022-01-19T20:26:40.536Z</time>
      </trkpt>
      <trkpt lat="49.48369" lon="-1.25571">
        <ele>2.872367</ele>
        <time>2022-01-19T20:26:52.565Z</time>
      </trkpt>
      <trkpt lat="49.48339" lon="-1.25522">
        <ele>2.923728</ele>
        <time>2022-01-19T20:27:04.897Z</time>
      </trkpt>
      <trkpt lat="49.4826" lon="-1.25439">
        <ele>3.020516</ele>
        <time>2022-01-19T20:27:31.584Z</time>
      </trkpt>
      <trkpt lat="49.48198" lon="-1.2536">
        <ele>3.021188</ele>
        <time>2022-01-19T20:27:53.977Z</time>
      </trkpt>
      <trkpt lat="49.48155" lon="-1.25314">
        <ele>3.021628</ele>
        <time>2022-01-19T20:28:08.618Z</time>
      </trkpt>
      <trkpt lat="49.48101" lon="-1.25272">
        <ele>2.934981</ele>
        <time>2022-01-19T20:28:25.477Z</time>
      </trkpt>
      <trkpt lat="49.48094" lon="-1.25272">
        <ele>2.90862</ele>
        <time>2022-01-19T20:28:27.658Z</time>
      </trkpt>
      <trkpt lat="49.48092" lon="-1.25267">
        <ele>2.896298</ele>
        <time>2022-01-19T20:28:28.234Z</time>
      </trkpt>
      <trkpt lat="49.48094" lon="-1.25272">
        <ele>2.883977</ele>
        <time>2022-01-19T20:28:28.933Z</time>
      </trkpt>
      <trkpt lat="49.48093" lon="-1.25279">
        <ele>2.869483</ele>
        <time>2022-01-19T20:28:29.650Z</time>
      </trkpt>
      <trkpt lat="49.48042" lon="-1.25427">
        <ele>2.500759</ele>
        <time>2022-01-19T20:28:48.511Z</time>
      </trkpt>
      <trkpt lat="49.48049" lon="-1.25458">
        <ele>2.429975</ele>
        <time>2022-01-19T20:28:52.168Z</time>
      </trkpt>
      <trkpt lat="49.4805" lon="-1.25466">
        <ele>2.410313</ele>
        <time>2022-01-19T20:28:53.068Z</time>
      </trkpt>
      <trkpt lat="49.48047" lon="-1.25476">
        <ele>2.384927</ele>
        <time>2022-01-19T20:28:54.292Z</time>
      </trkpt>
      <trkpt lat="49.47999" lon="-1.25539">
        <ele>2.160987</ele>
        <time>2022-01-19T20:29:05.081Z</time>
      </trkpt>
      <trkpt lat="49.47962" lon="-1.25606">
        <ele>1.956949</ele>
        <time>2022-01-19T20:29:14.950Z</time>
      </trkpt>
      <trkpt lat="49.47927" lon="-1.25657">
        <ele>1.784958</ele>
        <time>2022-01-19T20:29:23.304Z</time>
      </trkpt>
      <trkpt lat="49.47771" lon="-1.25891">
        <ele>1.735025</ele>
        <time>2022-01-19T20:30:00.122Z</time>
      </trkpt>
      <trkpt lat="49.47705" lon="-1.2599">
        <ele>1.967831</ele>
        <time>2022-01-19T20:30:16.458Z</time>
      </trkpt>
      <trkpt lat="49.47684" lon="-1.26039">
        <ele>2.06335</ele>
        <time>2022-01-19T20:30:23.207Z</time>
      </trkpt>
      <trkpt lat="49.47657" lon="-1.26115">
        <ele>2.162678</ele>
        <time>2022-01-19T20:30:33.238Z</time>
      </trkpt>
      <trkpt lat="49.47634" lon="-1.26164">
        <ele>2.221426</ele>
        <time>2022-01-19T20:30:40.213Z</time>
      </trkpt>
      <trkpt lat="49.47608" lon="-1.26267">
        <ele>2.328123</ele>
        <time>2022-01-19T20:30:52.569Z</time>
      </trkpt>
      <trkpt lat="49.47602" lon="-1.2639">
        <ele>2.10804</ele>
        <time>2022-01-19T20:31:05.942Z</time>
      </trkpt>
      <trkpt lat="49.47591" lon="-1.26427">
        <ele>1.978495</ele>
        <time>2022-01-19T20:31:10.208Z</time>
      </trkpt>
      <trkpt lat="49.47529" lon="-1.26483">
        <ele>1.616309</ele>
        <time>2022-01-19T20:31:22.052Z</time>
      </trkpt>
      <trkpt lat="49.47504" lon="-1.26529">
        <ele>1.426089</ele>
        <time>2022-01-19T20:31:28.266Z</time>
      </trkpt>
      <trkpt lat="49.47494" lon="-1.26566">
        <ele>1.298598</ele>
        <time>2022-01-19T20:31:32.568Z</time>
      </trkpt>
      <trkpt lat="49.47487" lon="-1.26707">
        <ele>0.856297</ele>
        <time>2022-01-19T20:31:47.611Z</time>
      </trkpt>
      <trkpt lat="49.47485" lon="-1.26765">
        <ele>0.674093</ele>
        <time>2022-01-19T20:31:53.897Z</time>
      </trkpt>
      <trkpt lat="49.47468" lon="-1.26778">
        <ele>0.609285</ele>
        <time>2022-01-19T20:31:59.141Z</time>
      </trkpt>
      <trkpt lat="49.47444" lon="-1.26798">
        <ele>0.63676</ele>
        <time>2022-01-19T20:32:06.900Z</time>
      </trkpt>
      <trkpt lat="49.47432" lon="-1.26837">
        <ele>0.664422</ele>
        <time>2022-01-19T20:32:14.692Z</time>
      </trkpt>
      <trkpt lat="49.47425" lon="-1.26921">
        <ele>0.719026</ele>
        <time>2022-01-19T20:32:30.170Z</time>
      </trkpt>
      <trkpt lat="49.47351" lon="-1.27107">
        <ele>0.901379</ele>
        <time>2022-01-19T20:33:09.917Z</time>
      </trkpt>
      <trkpt lat="49.47333" lon="-1.27225">
        <ele>1.022725</ele>
        <time>2022-01-19T20:33:31.977Z</time>
      </trkpt>
      <trkpt lat="49.47326" lon="-1.27242">
        <ele>1.043196</ele>
        <time>2022-01-19T20:33:35.688Z</time>
      </trkpt>
      <trkpt lat="49.47295" lon="-1.27283">
        <ele>1.076006</ele>
        <time>2022-01-19T20:33:47.138Z</time>
      </trkpt>
      <trkpt lat="49.4727" lon="-1.27327">
        <ele>1.096355</ele>
        <time>2022-01-19T20:33:57.684Z</time>
      </trkpt>
      <trkpt lat="49.47235" lon="-1.27408">
        <ele>1.130499</ele>
        <time>2022-01-19T20:34:15.372Z</time>
      </trkpt>
      <trkpt lat="49.47147" lon="-1.27481">
        <ele>1.247622</ele>
        <time>2022-01-19T20:34:43.203Z</time>
      </trkpt>
      <trkpt lat="49.47108" lon="-1.27545">
        <ele>1.349805</ele>
        <time>2022-01-19T20:34:59.272Z</time>
      </trkpt>
      <trkpt lat="49.47039" lon="-1.27608">
        <ele>1.494085</ele>
        <time>2022-01-19T20:35:21.622Z</time>
      </trkpt>
      <trkpt lat="49.47011" lon="-1.27656">
        <ele>1.580794</ele>
        <time>2022-01-19T20:35:33.465Z</time>
      </trkpt>
      <trkpt lat="49.46937" lon="-1.27823">
        <ele>1.85157</ele>
        <time>2022-01-19T20:36:10.203Z</time>
      </trkpt>
      <trkpt lat="49.46923" lon="-1.27946">
        <ele>2.084577</ele>
        <time>2022-01-19T20:36:33.000Z</time>
      </trkpt>
      <trkpt lat="49.46888" lon="-1.28027">
        <ele>2.264498</ele>
        <time>2022-01-19T20:36:50.678Z</time>
      </trkpt>
      <trkpt lat="49.46862" lon="-1.2807">
        <ele>2.403971</ele>
        <time>2022-01-19T20:37:01.481Z</time>
      </trkpt>
      <trkpt lat="49.46814" lon="-1.28123">
        <ele>2.965485</ele>
        <time>2022-01-19T20:37:18.113Z</time>
      </trkpt>
      <trkpt lat="49.46753" lon="-1.28206">
        <ele>3.743137</ele>
        <time>2022-01-19T20:37:33.982Z</time>
      </trkpt>
      <trkpt lat="49.46749" lon="-1.28217">
        <ele>3.821858</ele>
        <time>2022-01-19T20:37:35.693Z</time>
      </trkpt>
      <trkpt lat="49.4675" lon="-1.28231">
        <ele>3.908775</ele>
        <time>2022-01-19T20:37:37.452Z</time>
      </trkpt>
      <trkpt lat="49.46761" lon="-1.28266">
        <ele>4.194852</ele>
        <time>2022-01-19T20:37:42.490Z</time>
      </trkpt>
      <trkpt lat="49.46758" lon="-1.2828">
        <ele>4.335415</ele>
        <time>2022-01-19T20:37:44.323Z</time>
      </trkpt>
      <trkpt lat="49.46717" lon="-1.28346">
        <ele>5.251183</ele>
        <time>2022-01-19T20:37:56.393Z</time>
      </trkpt>
      <trkpt lat="49.46682" lon="-1.28443">
        <ele>6.370193</ele>
        <time>2022-01-19T20:38:11.096Z</time>
      </trkpt>
      <trkpt lat="49.46718" lon="-1.28471">
        <ele>7.012108</ele>
        <time>2022-01-19T20:38:19.101Z</time>
      </trkpt>
      <trkpt lat="49.46802" lon="-1.28536">
        <ele>8.590181</ele>
        <time>2022-01-19T20:38:37.842Z</time>
      </trkpt>
      <trkpt lat="49.46909" lon="-1.28646">
        <ele>10.914749</ele>
        <time>2022-01-19T20:39:03.324Z</time>
      </trkpt>
      <trkpt lat="49.47057" lon="-1.28764">
        <ele>14.477262</ele>
        <time>2022-01-19T20:39:37.458Z</time>
      </trkpt>
      <trkpt lat="49.47112" lon="-1.28818">
        <ele>16.137627</ele>
        <time>2022-01-19T20:39:51.206Z</time>
      </trkpt>
      <trkpt lat="49.47094" lon="-1.28878">
        <ele>17.235307</ele>
        <time>2022-01-19T20:40:01.890Z</time>
      </trkpt>
      <trkpt lat="49.47086" lon="-1.28917">
        <ele>17.897305</ele>
        <time>2022-01-19T20:40:08.372Z</time>
      </trkpt>
      <trkpt lat="49.47099" lon="-1.28948">
        <ele>18.515051</ele>
        <time>2022-01-19T20:40:14.410Z</time>
      </trkpt>
      <trkpt lat="49.47118" lon="-1.28973">
        <ele>19.148836</ele>
        <time>2022-01-19T20:40:20.595Z</time>
      </trkpt>
      <trkpt lat="49.47129" lon="-1.28987">
        <ele>19.509963</ele>
        <time>2022-01-19T20:40:24.150Z</time>
      </trkpt>
      <trkpt lat="49.4717" lon="-1.29023">
        <ele>20.712337</ele>
        <time>2022-01-19T20:40:35.751Z</time>
      </trkpt>
      <trkpt lat="49.47211" lon="-1.29041">
        <ele>21.781619</ele>
        <time>2022-01-19T20:40:46.082Z</time>
      </trkpt>
      <trkpt lat="49.47248" lon="-1.29062">
        <ele>22.751758</ele>
        <time>2022-01-19T20:40:55.758Z</time>
      </trkpt>
      <trkpt lat="49.4725" lon="-1.29074">
        <ele>22.92258</ele>
        <time>2022-01-19T20:40:57.581Z</time>
      </trkpt>
      <trkpt lat="49.4726" lon="-1.29081">
        <ele>23.149445</ele>
        <time>2022-01-19T20:40:59.922Z</time>
      </trkpt>
      <trkpt lat="49.47227" lon="-1.29158">
        <ele>24.38657</ele>
        <time>2022-01-19T20:41:17.036Z</time>
      </trkpt>
      <trkpt lat="49.47168" lon="-1.29277">
        <ele>26.36307</ele>
        <time>2022-01-19T20:41:44.675Z</time>
      </trkpt>
      <trkpt lat="49.47149" lon="-1.29338">
        <ele>26.843557</ele>
        <time>2022-01-19T20:41:57.203Z</time>
      </trkpt>
      <trkpt lat="49.471" lon="-1.29567">
        <ele>28.314471</ele>
        <time>2022-01-19T20:42:41.500Z</time>
      </trkpt>
      <trkpt lat="49.47094" lon="-1.29699">
        <ele>28.386491</ele>
        <time>2022-01-19T20:43:05.536Z</time>
      </trkpt>
      <trkpt lat="49.47128" lon="-1.29913">
        <ele>28.179173</ele>
        <time>2022-01-19T20:43:45.662Z</time>
      </trkpt>
      <trkpt lat="49.47136" lon="-1.29929">
        <ele>28.131523</ele>
        <time>2022-01-19T20:43:49.298Z</time>
      </trkpt>
      <trkpt lat="49.47182" lon="-1.29938">
        <ele>27.960105</ele>
        <time>2022-01-19T20:44:02.418Z</time>
      </trkpt>
      <trkpt lat="49.47369" lon="-1.29928">
        <ele>27.222476</ele>
        <time>2022-01-19T20:44:54.794Z</time>
      </trkpt>
      <trkpt lat="49.47477" lon="-1.29936">
        <ele>26.870206</ele>
        <time>2022-01-19T20:45:25.024Z</time>
      </trkpt>
      <trkpt lat="49.47493" lon="-1.29955">
        <ele>26.814397</ele>
        <time>2022-01-19T20:45:30.597Z</time>
      </trkpt>
      <trkpt lat="49.47504" lon="-1.29947">
        <ele>26.780586</ele>
        <time>2022-01-19T20:45:32.609Z</time>
      </trkpt>
      <trkpt lat="49.4758" lon="-1.29927">
        <ele>26.564644</ele>
        <time>2022-01-19T20:45:45.489Z</time>
      </trkpt>
      <trkpt lat="49.47691" lon="-1.29893">
        <ele>26.521423</ele>
        <time>2022-01-19T20:46:04.716Z</time>
      </trkpt>
      <trkpt lat="49.47708" lon="-1.29938">
        <ele>26.511027</ele>
        <time>2022-01-19T20:46:10.395Z</time>
      </trkpt>
      <trkpt lat="49.47691" lon="-1.29893">
        <ele>26.50063</ele>
        <time>2022-01-19T20:46:16.087Z</time>
      </trkpt>
      <trkpt lat="49.4758" lon="-1.29927">
        <ele>26.623683</ele>
        <time>2022-01-19T20:46:35.508Z</time>
      </trkpt>
      <trkpt lat="49.47504" lon="-1.29947">
        <ele>26.725734</ele>
        <time>2022-01-19T20:46:49.033Z</time>
      </trkpt>
      <trkpt lat="49.47493" lon="-1.29955">
        <ele>26.761332</ele>
        <time>2022-01-19T20:46:51.172Z</time>
      </trkpt>
      <trkpt lat="49.47477" lon="-1.29936">
        <ele>26.820091</ele>
        <time>2022-01-19T20:46:56.763Z</time>
      </trkpt>
      <trkpt lat="49.47369" lon="-1.29928">
        <ele>27.138178</ele>
        <time>2022-01-19T20:47:27.123Z</time>
      </trkpt>
      <trkpt lat="49.47182" lon="-1.29938">
        <ele>27.315819</ele>
        <time>2022-01-19T20:48:19.498Z</time>
      </trkpt>
      <trkpt lat="49.47136" lon="-1.29929">
        <ele>27.15137</ele>
        <time>2022-01-19T20:48:32.615Z</time>
      </trkpt>
      <trkpt lat="49.47137" lon="-1.30138">
        <ele>26.100754</ele>
        <time>2022-01-19T20:49:10.444Z</time>
      </trkpt>
      <trkpt lat="49.4711" lon="-1.30336">
        <ele>24.43179</ele>
        <time>2022-01-19T20:49:46.058Z</time>
      </trkpt>
      <trkpt lat="49.47097" lon="-1.30387">
        <ele>23.939307</ele>
        <time>2022-01-19T20:49:55.731Z</time>
      </trkpt>
      <trkpt lat="49.47176" lon="-1.30463">
        <ele>22.608456</ele>
        <time>2022-01-19T20:50:20.568Z</time>
      </trkpt>
      <trkpt lat="49.47177" lon="-1.305">
        <ele>22.248708</ele>
        <time>2022-01-19T20:50:27.094Z</time>
      </trkpt>
      <trkpt lat="49.47168" lon="-1.30613">
        <ele>21.168161</ele>
        <time>2022-01-19T20:50:46.716Z</time>
      </trkpt>
      <trkpt lat="49.4719" lon="-1.30719">
        <ele>20.614565</ele>
        <time>2022-01-19T20:51:06.562Z</time>
      </trkpt>
      <trkpt lat="49.47197" lon="-1.30823">
        <ele>20.30161</ele>
        <time>2022-01-19T20:51:25.551Z</time>
      </trkpt>
      <trkpt lat="49.47188" lon="-1.30825">
        <ele>20.259157</ele>
        <time>2022-01-19T20:51:27.174Z</time>
      </trkpt>
      <trkpt lat="49.47082" lon="-1.30765">
        <ele>20.455636</ele>
        <time>2022-01-19T20:51:47.152Z</time>
      </trkpt>
      <trkpt lat="49.47063" lon="-1.3076">
        <ele>20.591681</ele>
        <time>2022-01-19T20:51:50.607Z</time>
      </trkpt>
      <trkpt lat="49.47018" lon="-1.30772">
        <ele>20.921664</ele>
        <time>2022-01-19T20:51:59.318Z</time>
      </trkpt>
      <trkpt lat="49.46937" lon="-1.3078">
        <ele>21.649724</ele>
        <time>2022-01-19T20:52:14.798Z</time>
      </trkpt>
      <trkpt lat="49.46824" lon="-1.30769">
        <ele>23.0415</ele>
        <time>2022-01-19T20:52:36.501Z</time>
      </trkpt>
      <trkpt lat="49.46779" lon="-1.30752">
        <ele>23.632599</ele>
        <time>2022-01-19T20:52:45.514Z</time>
      </trkpt>
      <trkpt lat="49.46537" lon="-1.30541">
        <ele>27.83518</ele>
        <time>2022-01-19T20:53:40.505Z</time>
      </trkpt>
      <trkpt lat="49.46488" lon="-1.30495">
        <ele>28.692727</ele>
        <time>2022-01-19T20:53:51.811Z</time>
      </trkpt>
      <trkpt lat="49.4643" lon="-1.30427">
        <ele>29.419036</ele>
        <time>2022-01-19T20:54:05.934Z</time>
      </trkpt>
      <trkpt lat="49.46318" lon="-1.30299">
        <ele>30.475901</ele>
        <time>2022-01-19T20:54:31.750Z</time>
      </trkpt>
      <trkpt lat="49.46215" lon="-1.3052">
        <ele>30.481721</ele>
        <time>2022-01-19T20:55:01.534Z</time>
      </trkpt>
      <trkpt lat="49.46167" lon="-1.30628">
        <ele>30.096973</ele>
        <time>2022-01-19T20:55:15.559Z</time>
      </trkpt>
      <trkpt lat="49.46135" lon="-1.30681">
        <ele>29.884096</ele>
        <time>2022-01-19T20:55:23.258Z</time>
      </trkpt>
      <trkpt lat="49.46113" lon="-1.30701">
        <ele>29.767228</ele>
        <time>2022-01-19T20:55:27.506Z</time>
      </trkpt>
      <trkpt lat="49.46097" lon="-1.30716">
        <ele>29.654845</ele>
        <time>2022-01-19T20:55:30.589Z</time>
      </trkpt>
      <trkpt lat="49.46095" lon="-1.30721">
        <ele>29.626871</ele>
        <time>2022-01-19T20:55:31.239Z</time>
      </trkpt>
      <trkpt lat="49.4608" lon="-1.30754">
        <ele>29.433098</ele>
        <time>2022-01-19T20:55:35.468Z</time>
      </trkpt>
      <trkpt lat="49.46024" lon="-1.30874">
        <ele>28.720827</ele>
        <time>2022-01-19T20:55:51.112Z</time>
      </trkpt>
      <trkpt lat="49.45996" lon="-1.30973">
        <ele>28.04681</ele>
        <time>2022-01-19T20:56:02.301Z</time>
      </trkpt>
      <trkpt lat="49.45986" lon="-1.31013">
        <ele>27.681097</ele>
        <time>2022-01-19T20:56:06.599Z</time>
      </trkpt>
      <trkpt lat="49.45968" lon="-1.3109">
        <ele>26.969743</ele>
        <time>2022-01-19T20:56:14.895Z</time>
      </trkpt>
      <trkpt lat="49.45966" lon="-1.31101">
        <ele>26.874528</ele>
        <time>2022-01-19T20:56:15.961Z</time>
      </trkpt>
      <trkpt lat="49.45951" lon="-1.31189">
        <ele>26.088125</ele>
        <time>2022-01-19T20:56:25.042Z</time>
      </trkpt>
      <trkpt lat="49.45939" lon="-1.31249">
        <ele>25.527804</ele>
        <time>2022-01-19T20:56:31.241Z</time>
      </trkpt>
      <trkpt lat="49.45925" lon="-1.31314">
        <ele>24.908401</ele>
        <time>2022-01-19T20:56:37.996Z</time>
      </trkpt>
      <trkpt lat="49.45918" lon="-1.31335">
        <ele>24.696971</ele>
        <time>2022-01-19T20:56:40.312Z</time>
      </trkpt>
      <trkpt lat="49.45911" lon="-1.31356">
        <ele>24.486176</ele>
        <time>2022-01-19T20:56:42.641Z</time>
      </trkpt>
      <trkpt lat="49.45886" lon="-1.31379">
        <ele>24.080717</ele>
        <time>2022-01-19T20:56:47.135Z</time>
      </trkpt>
      <trkpt lat="49.45878" lon="-1.3141">
        <ele>23.773979</ele>
        <time>2022-01-19T20:56:50.554Z</time>
      </trkpt>
      <trkpt lat="49.45876" lon="-1.31455">
        <ele>23.356059</ele>
        <time>2022-01-19T20:56:55.091Z</time>
      </trkpt>
      <trkpt lat="49.45868" lon="-1.31487">
        <ele>23.016081</ele>
        <time>2022-01-19T20:56:58.554Z</time>
      </trkpt>
      <trkpt lat="49.45839" lon="-1.31566">
        <ele>22.103335</ele>
        <time>2022-01-19T20:57:07.861Z</time>
      </trkpt>
      <trkpt lat="49.45827" lon="-1.3161">
        <ele>21.632672</ele>
        <time>2022-01-19T20:57:12.558Z</time>
      </trkpt>
      <trkpt lat="49.45818" lon="-1.31725">
        <ele>20.434455</ele>
        <time>2022-01-19T20:57:23.569Z</time>
      </trkpt>
      <trkpt lat="49.45801" lon="-1.3181">
        <ele>19.378192</ele>
        <time>2022-01-19T20:57:32.107Z</time>
      </trkpt>
      <trkpt lat="49.45795" lon="-1.31835">
        <ele>19.067763</ele>
        <time>2022-01-19T20:57:34.559Z</time>
      </trkpt>
      <trkpt lat="49.45811" lon="-1.31893">
        <ele>18.314437</ele>
        <time>2022-01-19T20:57:40.640Z</time>
      </trkpt>
      <trkpt lat="49.45923" lon="-1.32237">
        <ele>15.444335</ele>
        <time>2022-01-19T20:58:19.508Z</time>
      </trkpt>
      <trkpt lat="49.45934" lon="-1.3232">
        <ele>15.60639</ele>
        <time>2022-01-19T20:58:29.131Z</time>
      </trkpt>
      <trkpt lat="49.45936" lon="-1.32411">
        <ele>15.779613</ele>
        <time>2022-01-19T20:58:40.101Z</time>
      </trkpt>
      <trkpt lat="49.45943" lon="-1.32501">
        <ele>16.01556</ele>
        <time>2022-01-19T20:58:51.440Z</time>
      </trkpt>
      <trkpt lat="49.45977" lon="-1.32663">
        <ele>16.722425</ele>
        <time>2022-01-19T20:59:11.942Z</time>
      </trkpt>
      <trkpt lat="49.45889" lon="-1.3274">
        <ele>16.978751</ele>
        <time>2022-01-19T20:59:29.498Z</time>
      </trkpt>
      <trkpt lat="49.45679" lon="-1.32946">
        <ele>16.304758</ele>
        <time>2022-01-19T21:00:10.948Z</time>
      </trkpt>
      <trkpt lat="49.45664" lon="-1.32967">
        <ele>16.224509</ele>
        <time>2022-01-19T21:00:14.311Z</time>
      </trkpt>
      <trkpt lat="49.45561" lon="-1.33216">
        <ele>14.804117</ele>
        <time>2022-01-19T21:00:45.510Z</time>
      </trkpt>
      <trkpt lat="49.4555" lon="-1.33229">
        <ele>14.691088</ele>
        <time>2022-01-19T21:00:47.591Z</time>
      </trkpt>
      <trkpt lat="49.4555" lon="-1.33238">
        <ele>14.64084</ele>
        <time>2022-01-19T21:00:48.496Z</time>
      </trkpt>
      <trkpt lat="49.45546" lon="-1.33268">
        <ele>14.460164</ele>
        <time>2022-01-19T21:00:51.667Z</time>
      </trkpt>
      <trkpt lat="49.45545" lon="-1.33291">
        <ele>14.309739</ele>
        <time>2022-01-19T21:00:53.967Z</time>
      </trkpt>
      <trkpt lat="49.45522" lon="-1.33308">
        <ele>14.057834</ele>
        <time>2022-01-19T21:00:58.192Z</time>
      </trkpt>
      <trkpt lat="49.45511" lon="-1.33327">
        <ele>13.891809</ele>
        <time>2022-01-19T21:01:00.877Z</time>
      </trkpt>
      <trkpt lat="49.455" lon="-1.33365">
        <ele>13.630175</ele>
        <time>2022-01-19T21:01:05.263Z</time>
      </trkpt>
      <trkpt lat="49.45493" lon="-1.3337">
        <ele>13.552452</ele>
        <time>2022-01-19T21:01:06.497Z</time>
      </trkpt>
      <trkpt lat="49.45399" lon="-1.33396">
        <ele>12.924997</ele>
        <time>2022-01-19T21:01:33.079Z</time>
      </trkpt>
      <trkpt lat="49.45377" lon="-1.3341">
        <ele>13.10536</ele>
        <time>2022-01-19T21:01:39.822Z</time>
      </trkpt>
      <trkpt lat="49.45312" lon="-1.33476">
        <ele>13.684584</ele>
        <time>2022-01-19T21:02:01.773Z</time>
      </trkpt>
      <trkpt lat="49.45293" lon="-1.33532">
        <ele>13.993223</ele>
        <time>2022-01-19T21:02:13.510Z</time>
      </trkpt>
      <trkpt lat="49.45275" lon="-1.3357">
        <ele>14.367937</ele>
        <time>2022-01-19T21:02:22.093Z</time>
      </trkpt>
      <trkpt lat="49.45263" lon="-1.33578">
        <ele>14.633041</ele>
        <time>2022-01-19T21:02:25.830Z</time>
      </trkpt>
      <trkpt lat="49.45114" lon="-1.33642">
        <ele>17.777867</ele>
        <time>2022-01-19T21:03:09.871Z</time>
      </trkpt>
      <trkpt lat="49.45073" lon="-1.33593">
        <ele>18.119877</ele>
        <time>2022-01-19T21:03:24.627Z</time>
      </trkpt>
      <trkpt lat="49.4504" lon="-1.33563">
        <ele>18.365999</ele>
        <time>2022-01-19T21:03:35.592Z</time>
      </trkpt>
      <trkpt lat="49.44976" lon="-1.33538">
        <ele>18.782262</ele>
        <time>2022-01-19T21:03:54.055Z</time>
      </trkpt>
      <trkpt lat="49.44821" lon="-1.33509">
        <ele>17.51179</ele>
        <time>2022-01-19T21:04:37.389Z</time>
      </trkpt>
      <trkpt lat="49.44815" lon="-1.33503">
        <ele>17.430545</ele>
        <time>2022-01-19T21:04:39.327Z</time>
      </trkpt>
      <trkpt lat="49.44813" lon="-1.33497">
        <ele>17.381871</ele>
        <time>2022-01-19T21:04:40.535Z</time>
      </trkpt>
      <trkpt lat="49.44806" lon="-1.33502">
        <ele>17.30402</ele>
        <time>2022-01-19T21:04:41.636Z</time>
      </trkpt>
      <trkpt lat="49.44717" lon="-1.33445">
        <ele>15.615997</ele>
        <time>2022-01-19T21:04:56.677Z</time>
      </trkpt>
      <trkpt lat="49.44677" lon="-1.33411">
        <ele>14.681511</ele>
        <time>2022-01-19T21:05:03.583Z</time>
      </trkpt>
      <trkpt lat="49.44525" lon="-1.33288">
        <ele>11.094937</ele>
        <time>2022-01-19T21:05:29.572Z</time>
      </trkpt>
      <trkpt lat="49.44427" lon="-1.33211">
        <ele>8.989816</ele>
        <time>2022-01-19T21:05:46.470Z</time>
      </trkpt>
      <trkpt lat="49.44319" lon="-1.33087">
        <ele>7.052989</ele>
        <time>2022-01-19T21:06:08.380Z</time>
      </trkpt>
      <trkpt lat="49.44296" lon="-1.33067">
        <ele>6.860281</ele>
        <time>2022-01-19T21:06:12.777Z</time>
      </trkpt>
      <trkpt lat="49.44226" lon="-1.3304">
        <ele>6.647523</ele>
        <time>2022-01-19T21:06:25.160Z</time>
      </trkpt>
      <trkpt lat="49.44142" lon="-1.33014">
        <ele>6.39399</ele>
        <time>2022-01-19T21:06:40.545Z</time>
      </trkpt>
      <trkpt lat="49.44139" lon="-1.32987">
        <ele>6.4352</ele>
        <time>2022-01-19T21:06:43.637Z</time>
      </trkpt>
      <trkpt lat="49.44115" lon="-1.32929">
        <ele>6.652706</ele>
        <time>2022-01-19T21:06:51.455Z</time>
      </trkpt>
      <trkpt lat="49.44113" lon="-1.32925">
        <ele>6.668959</ele>
        <time>2022-01-19T21:06:52.110Z</time>
      </trkpt>
      <trkpt lat="49.44106" lon="-1.32909">
        <ele>6.731531</ele>
        <time>2022-01-19T21:06:54.409Z</time>
      </trkpt>
      <trkpt lat="49.44085" lon="-1.32884">
        <ele>6.859093</ele>
        <time>2022-01-19T21:07:01.776Z</time>
      </trkpt>
      <trkpt lat="49.44013" lon="-1.32813">
        <ele>7.287481</ele>
        <time>2022-01-19T21:07:26.109Z</time>
      </trkpt>
      <trkpt lat="49.43928" lon="-1.32752">
        <ele>7.888472</ele>
        <time>2022-01-19T21:07:52.439Z</time>
      </trkpt>
      <trkpt lat="49.43865" lon="-1.32723">
        <ele>8.312075</ele>
        <time>2022-01-19T21:08:11.004Z</time>
      </trkpt>
      <trkpt lat="49.43824" lon="-1.32705">
        <ele>8.462092</ele>
        <time>2022-01-19T21:08:23.012Z</time>
      </trkpt>
      <trkpt lat="49.43766" lon="-1.32681">
        <ele>8.569275</ele>
        <time>2022-01-19T21:08:40.136Z</time>
      </trkpt>
      <trkpt lat="49.43644" lon="-1.32549">
        <ele>8.698169</ele>
        <time>2022-01-19T21:09:21.639Z</time>
      </trkpt>
      <trkpt lat="49.43622" lon="-1.32501">
        <ele>8.674985</ele>
        <time>2022-01-19T21:09:32.488Z</time>
      </trkpt>
      <trkpt lat="49.43586" lon="-1.32398">
        <ele>8.629584</ele>
        <time>2022-01-19T21:09:53.687Z</time>
      </trkpt>
      <trkpt lat="49.43548" lon="-1.3237">
        <ele>8.855174</ele>
        <time>2022-01-19T21:10:05.364Z</time>
      </trkpt>
      <trkpt lat="49.43484" lon="-1.32356">
        <ele>9.312037</ele>
        <time>2022-01-19T21:10:23.563Z</time>
      </trkpt>
      <trkpt lat="49.43443" lon="-1.32333">
        <ele>9.623872</ele>
        <time>2022-01-19T21:10:36.017Z</time>
      </trkpt>
      <trkpt lat="49.43404" lon="-1.3231">
        <ele>9.942895</ele>
        <time>2022-01-19T21:10:47.997Z</time>
      </trkpt>
      <trkpt lat="49.43314" lon="-1.32236">
        <ele>11.233742</ele>
        <time>2022-01-19T21:11:12.072Z</time>
      </trkpt>
      <trkpt lat="49.43218" lon="-1.32177">
        <ele>12.474161</ele>
        <time>2022-01-19T21:11:36.471Z</time>
      </trkpt>
      <trkpt lat="49.43197" lon="-1.32167">
        <ele>12.710886</ele>
        <time>2022-01-19T21:11:42.883Z</time>
      </trkpt>
      <trkpt lat="49.43173" lon="-1.32159">
        <ele>12.961428</ele>
        <time>2022-01-19T21:11:49.671Z</time>
      </trkpt>
      <trkpt lat="49.43135" lon="-1.32146">
        <ele>13.370604</ele>
        <time>2022-01-19T21:12:00.789Z</time>
      </trkpt>
      <trkpt lat="49.42918" lon="-1.32066">
        <ele>15.487781</ele>
        <time>2022-01-19T21:13:03.908Z</time>
      </trkpt>
      <trkpt lat="49.42783" lon="-1.3194">
        <ele>17.279264</ele>
        <time>2022-01-19T21:13:48.729Z</time>
      </trkpt>
      <trkpt lat="49.4272" lon="-1.31904">
        <ele>18.025223</ele>
        <time>2022-01-19T21:14:07.769Z</time>
      </trkpt>
      <trkpt lat="49.4268" lon="-1.31867">
        <ele>18.48165</ele>
        <time>2022-01-19T21:14:20.777Z</time>
      </trkpt>
      <trkpt lat="49.42643" lon="-1.31857">
        <ele>18.855562</ele>
        <time>2022-01-19T21:14:31.436Z</time>
      </trkpt>
      <trkpt lat="49.42594" lon="-1.31848">
        <ele>19.353118</ele>
        <time>2022-01-19T21:14:45.610Z</time>
      </trkpt>
      <trkpt lat="49.42559" lon="-1.31844">
        <ele>19.636363</ele>
        <time>2022-01-19T21:14:55.309Z</time>
      </trkpt>
      <trkpt lat="49.4241" lon="-1.31783">
        <ele>20.362903</ele>
        <time>2022-01-19T21:15:38.850Z</time>
      </trkpt>
      <trkpt lat="49.42299" lon="-1.3172">
        <ele>20.872715</ele>
        <time>2022-01-19T21:16:12.216Z</time>
      </trkpt>
      <trkpt lat="49.42145" lon="-1.31723">
        <ele>21.764051</ele>
        <time>2022-01-19T21:16:55.710Z</time>
      </trkpt>
      <trkpt lat="49.42051" lon="-1.31715">
        <ele>22.444217</ele>
        <time>2022-01-19T21:17:22.243Z</time>
      </trkpt>
      <trkpt lat="49.41904" lon="-1.31719">
        <ele>24.329548</ele>
        <time>2022-01-19T21:18:03.996Z</time>
      </trkpt>
      <trkpt lat="49.41884" lon="-1.31723">
        <ele>24.590934</ele>
        <time>2022-01-19T21:18:09.673Z</time>
      </trkpt>
      <trkpt lat="49.41855" lon="-1.31734">
        <ele>25.01821</ele>
        <time>2022-01-19T21:18:18.035Z</time>
      </trkpt>
      <trkpt lat="49.41752" lon="-1.31787">
        <ele>26.902248</ele>
        <time>2022-01-19T21:18:48.946Z</time>
      </trkpt>
      <trkpt lat="49.41742" lon="-1.31791">
        <ele>27.074093</ele>
        <time>2022-01-19T21:18:51.770Z</time>
      </trkpt>
      <trkpt lat="49.4165" lon="-1.31827">
        <ele>28.681559</ele>
        <time>2022-01-19T21:19:18.836Z</time>
      </trkpt>
      <trkpt lat="49.41577" lon="-1.3185">
        <ele>29.89183</ele>
        <time>2022-01-19T21:19:39.966Z</time>
      </trkpt>
      <trkpt lat="49.41476" lon="-1.3185">
        <ele>31.007287</ele>
        <time>2022-01-19T21:20:08.633Z</time>
      </trkpt>
      <trkpt lat="49.41465" lon="-1.31853">
        <ele>31.037734</ele>
        <time>2022-01-19T21:20:11.828Z</time>
      </trkpt>
      <trkpt lat="49.41458" lon="-1.31845">
        <ele>31.059942</ele>
        <time>2022-01-19T21:20:13.312Z</time>
      </trkpt>
      <trkpt lat="49.41432" lon="-1.31844">
        <ele>31.132468</ele>
        <time>2022-01-19T21:20:18.289Z</time>
      </trkpt>
      <trkpt lat="49.41421" lon="-1.3184">
        <ele>31.160619</ele>
        <time>2022-01-19T21:20:20.153Z</time>
      </trkpt>
      <trkpt lat="49.41399" lon="-1.31833">
        <ele>31.223821</ele>
        <time>2022-01-19T21:20:24.277Z</time>
      </trkpt>
      <trkpt lat="49.41354" lon="-1.31827">
        <ele>31.345156</ele>
        <time>2022-01-19T21:20:32.069Z</time>
      </trkpt>
      <trkpt lat="49.4134" lon="-1.31831">
        <ele>31.384063</ele>
        <time>2022-01-19T21:20:34.451Z</time>
      </trkpt>
      <trkpt lat="49.41322" lon="-1.31845">
        <ele>31.110397</ele>
        <time>2022-01-19T21:20:37.907Z</time>
      </trkpt>
      <trkpt lat="49.41298" lon="-1.31882">
        <ele>30.616338</ele>
        <time>2022-01-19T21:20:43.492Z</time>
      </trkpt>
      <trkpt lat="49.41235" lon="-1.3182">
        <ele>29.520199</ele>
        <time>2022-01-19T21:20:55.253Z</time>
      </trkpt>
      <trkpt lat="49.41206" lon="-1.31791">
        <ele>29.004247</ele>
        <time>2022-01-19T21:21:00.749Z</time>
      </trkpt>
      <trkpt lat="49.41204" lon="-1.31789">
        <ele>28.971095</ele>
        <time>2022-01-19T21:21:01.114Z</time>
      </trkpt>
      <trkpt lat="49.41201" lon="-1.31786">
        <ele>28.922239</ele>
        <time>2022-01-19T21:21:01.630Z</time>
      </trkpt>
      <trkpt lat="49.41156" lon="-1.31729">
        <ele>27.997963</ele>
        <time>2022-01-19T21:21:10.612Z</time>
      </trkpt>
      <trkpt lat="49.41152" lon="-1.31723">
        <ele>27.898925</ele>
        <time>2022-01-19T21:21:11.534Z</time>
      </trkpt>
      <trkpt lat="49.4115" lon="-1.31721">
        <ele>27.859452</ele>
        <time>2022-01-19T21:21:11.901Z</time>
      </trkpt>
      <trkpt lat="49.41143" lon="-1.31711">
        <ele>27.70396</ele>
        <time>2022-01-19T21:21:13.475Z</time>
      </trkpt>
      <trkpt lat="49.4114" lon="-1.31707">
        <ele>27.641033</ele>
        <time>2022-01-19T21:21:14.073Z</time>
      </trkpt>
      <trkpt lat="49.41136" lon="-1.31704">
        <ele>27.578651</ele>
        <time>2022-01-19T21:21:14.626Z</time>
      </trkpt>
      <trkpt lat="49.41123" lon="-1.31702">
        <ele>27.364</ele>
        <time>2022-01-19T21:21:16.800Z</time>
      </trkpt>
      <trkpt lat="49.41083" lon="-1.31727">
        <ele>26.66262</ele>
        <time>2022-01-19T21:21:23.597Z</time>
      </trkpt>
      <trkpt lat="49.41071" lon="-1.31732">
        <ele>26.449048</ele>
        <time>2022-01-19T21:21:25.693Z</time>
      </trkpt>
      <trkpt lat="49.41058" lon="-1.31719">
        <ele>26.207364</ele>
        <time>2022-01-19T21:21:28.133Z</time>
      </trkpt>
      <trkpt lat="49.41054" lon="-1.31712">
        <ele>26.102609</ele>
        <time>2022-01-19T21:21:29.115Z</time>
      </trkpt>
      <trkpt lat="49.41047" lon="-1.31722">
        <ele>25.938256</ele>
        <time>2022-01-19T21:21:31.257Z</time>
      </trkpt>
      <trkpt lat="49.41041" lon="-1.31727">
        <ele>25.832063</ele>
        <time>2022-01-19T21:21:32.557Z</time>
      </trkpt>
      <trkpt lat="49.4104" lon="-1.31735">
        <ele>25.766316</ele>
        <time>2022-01-19T21:21:33.703Z</time>
      </trkpt>
      <trkpt lat="49.41024" lon="-1.31771">
        <ele>25.408988</ele>
        <time>2022-01-19T21:21:39.695Z</time>
      </trkpt>
      <trkpt lat="49.41016" lon="-1.31777">
        <ele>25.299269</ele>
        <time>2022-01-19T21:21:41.588Z</time>
      </trkpt>
      <trkpt lat="49.41013" lon="-1.31783">
        <ele>25.239738</ele>
        <time>2022-01-19T21:21:42.633Z</time>
      </trkpt>
      <trkpt lat="49.40981" lon="-1.31864">
        <ele>24.476817</ele>
        <time>2022-01-19T21:21:55.743Z</time>
      </trkpt>
      <trkpt lat="49.40955" lon="-1.31843">
        <ele>24.108454</ele>
        <time>2022-01-19T21:22:00.328Z</time>
      </trkpt>
      <trkpt lat="49.40895" lon="-1.31797">
        <ele>23.190513</ele>
        <time>2022-01-19T21:22:10.769Z</time>
      </trkpt>
      <trkpt lat="49.40887" lon="-1.3179">
        <ele>23.040439</ele>
        <time>2022-01-19T21:22:12.265Z</time>
      </trkpt>
      <trkpt lat="49.40885" lon="-1.31795">
        <ele>22.989506</ele>
        <time>2022-01-19T21:22:12.725Z</time>
      </trkpt>
      <trkpt lat="49.40882" lon="-1.31805">
        <ele>22.872905</ele>
        <time>2022-01-19T21:22:13.895Z</time>
      </trkpt>
      <trkpt lat="49.40873" lon="-1.31831">
        <ele>22.576764</ele>
        <time>2022-01-19T21:22:16.801Z</time>
      </trkpt>
      <trkpt lat="49.40857" lon="-1.31884">
        <ele>21.975266</ele>
        <time>2022-01-19T21:22:22.593Z</time>
      </trkpt>
      <trkpt lat="49.40839" lon="-1.31947">
        <ele>21.270931</ele>
        <time>2022-01-19T21:22:29.309Z</time>
      </trkpt>
      <trkpt lat="49.40803" lon="-1.3204">
        <ele>20.132561</ele>
        <time>2022-01-19T21:22:39.689Z</time>
      </trkpt>
      <trkpt lat="49.40799" lon="-1.32055">
        <ele>19.964128</ele>
        <time>2022-01-19T21:22:41.188Z</time>
      </trkpt>
      <trkpt lat="49.40776" lon="-1.32155">
        <ele>18.83498</ele>
        <time>2022-01-19T21:22:51.619Z</time>
      </trkpt>
      <trkpt lat="49.40769" lon="-1.32172">
        <ele>18.618056</ele>
        <time>2022-01-19T21:22:53.704Z</time>
      </trkpt>
      <trkpt lat="49.40758" lon="-1.3219">
        <ele>18.347157</ele>
        <time>2022-01-19T21:22:56.188Z</time>
      </trkpt>
      <trkpt lat="49.40748" lon="-1.32199">
        <ele>18.165849</ele>
        <time>2022-01-19T21:22:57.836Z</time>
      </trkpt>
      <trkpt lat="49.40717" lon="-1.32223">
        <ele>17.686752</ele>
        <time>2022-01-19T21:23:03.086Z</time>
      </trkpt>
      <trkpt lat="49.40672" lon="-1.32257">
        <ele>17.185359</ele>
        <time>2022-01-19T21:23:11.019Z</time>
      </trkpt>
      <trkpt lat="49.40652" lon="-1.3228">
        <ele>16.938605</ele>
        <time>2022-01-19T21:23:14.928Z</time>
      </trkpt>
      <trkpt lat="49.40637" lon="-1.32295">
        <ele>16.759655</ele>
        <time>2022-01-19T21:23:17.850Z</time>
      </trkpt>
      <trkpt lat="49.40644" lon="-1.32319">
        <ele>16.585596</ele>
        <time>2022-01-19T21:23:22.727Z</time>
      </trkpt>
      <trkpt lat="49.40616" lon="-1.32404">
        <ele>15.985236</ele>
        <time>2022-01-19T21:23:39.951Z</time>
      </trkpt>
      <trkpt lat="49.40561" lon="-1.32466">
        <ele>15.433394</ele>
        <time>2022-01-19T21:23:59.008Z</time>
      </trkpt>
      <trkpt lat="49.4055" lon="-1.32499">
        <ele>15.235931</ele>
        <time>2022-01-19T21:24:05.816Z</time>
      </trkpt>
      <trkpt lat="49.40512" lon="-1.32555">
        <ele>14.810982</ele>
        <time>2022-01-19T21:24:14.706Z</time>
      </trkpt>
      <trkpt lat="49.40472" lon="-1.32638">
        <ele>13.870963</ele>
        <time>2022-01-19T21:24:25.940Z</time>
      </trkpt>
      <trkpt lat="49.40448" lon="-1.32707">
        <ele>12.931887</ele>
        <time>2022-01-19T21:24:33.936Z</time>
      </trkpt>
      <trkpt lat="49.40424" lon="-1.32758">
        <ele>12.171497</ele>
        <time>2022-01-19T21:24:40.153Z</time>
      </trkpt>
      <trkpt lat="49.4038" lon="-1.32819">
        <ele>11.035361</ele>
        <time>2022-01-19T21:24:48.967Z</time>
      </trkpt>
      <trkpt lat="49.40371" lon="-1.32844">
        <ele>10.585489</ele>
        <time>2022-01-19T21:24:51.669Z</time>
      </trkpt>
      <trkpt lat="49.40359" lon="-1.32872">
        <ele>10.06926</ele>
        <time>2022-01-19T21:24:54.944Z</time>
      </trkpt>
      <trkpt lat="49.40356" lon="-1.32888">
        <ele>9.81082</ele>
        <time>2022-01-19T21:24:56.457Z</time>
      </trkpt>
      <trkpt lat="49.40359" lon="-1.3291">
        <ele>9.463357</ele>
        <time>2022-01-19T21:24:58.734Z</time>
      </trkpt>
      <trkpt lat="49.40377" lon="-1.3296">
        <ele>8.580875</ele>
        <time>2022-01-19T21:25:04.211Z</time>
      </trkpt>
      <trkpt lat="49.40376" lon="-1.3299">
        <ele>8.126191</ele>
        <time>2022-01-19T21:25:06.952Z</time>
      </trkpt>
      <trkpt lat="49.40359" lon="-1.33017">
        <ele>7.53909</ele>
        <time>2022-01-19T21:25:13.350Z</time>
      </trkpt>
      <trkpt lat="49.40286" lon="-1.33155">
        <ele>5.96293</ele>
        <time>2022-01-19T21:25:43.798Z</time>
      </trkpt>
      <trkpt lat="49.40144" lon="-1.33487">
        <ele>4.571078</ele>
        <time>2022-01-19T21:26:56.313Z</time>
      </trkpt>
      <trkpt lat="49.40096" lon="-1.33617">
        <ele>4.990455</ele>
        <time>2022-01-19T21:27:23.644Z</time>
      </trkpt>
      <trkpt lat="49.40103" lon="-1.33635">
        <ele>5.060273</ele>
        <time>2022-01-19T21:27:27.551Z</time>
      </trkpt>
      <trkpt lat="49.40132" lon="-1.33783">
        <ele>5.625796</ele>
        <time>2022-01-19T21:27:55.854Z</time>
      </trkpt>
      <trkpt lat="49.40143" lon="-1.33938">
        <ele>6.417514</ele>
        <time>2022-01-19T21:28:24.607Z</time>
      </trkpt>
      <trkpt lat="49.40117" lon="-1.34182">
        <ele>8.016722</ele>
        <time>2022-01-19T21:29:10.128Z</time>
      </trkpt>
      <trkpt lat="49.40171" lon="-1.34389">
        <ele>9.948508</ele>
        <time>2022-01-19T21:29:51.259Z</time>
      </trkpt>
      <trkpt lat="49.40161" lon="-1.34406">
        <ele>10.178648</ele>
        <time>2022-01-19T21:29:54.260Z</time>
      </trkpt>
      <trkpt lat="49.40133" lon="-1.3458">
        <ele>11.881084</ele>
        <time>2022-01-19T21:30:18.149Z</time>
      </trkpt>
      <trkpt lat="49.40124" lon="-1.3472">
        <ele>12.72015</ele>
        <time>2022-01-19T21:30:36.120Z</time>
      </trkpt>
      <trkpt lat="49.40084" lon="-1.35045">
        <ele>13.761387</ele>
        <time>2022-01-19T21:31:15.770Z</time>
      </trkpt>
      <trkpt lat="49.40081" lon="-1.35067">
        <ele>13.802574</ele>
        <time>2022-01-19T21:31:18.281Z</time>
      </trkpt>
      <trkpt lat="49.40077" lon="-1.3509">
        <ele>13.84744</ele>
        <time>2022-01-19T21:31:21.121Z</time>
      </trkpt>
      <trkpt lat="49.40077" lon="-1.35099">
        <ele>13.872844</ele>
        <time>2022-01-19T21:31:22.766Z</time>
      </trkpt>
      <trkpt lat="49.40078" lon="-1.35106">
        <ele>13.89378</ele>
        <time>2022-01-19T21:31:23.958Z</time>
      </trkpt>
      <trkpt lat="49.4008" lon="-1.35112">
        <ele>13.915364</ele>
        <time>2022-01-19T21:31:25.217Z</time>
      </trkpt>
      <trkpt lat="49.40103" lon="-1.35162">
        <ele>14.110045</ele>
        <time>2022-01-19T21:31:36.407Z</time>
      </trkpt>
      <trkpt lat="49.40117" lon="-1.35236">
        <ele>14.35392</ele>
        <time>2022-01-19T21:31:50.496Z</time>
      </trkpt>
      <trkpt lat="49.40131" lon="-1.35352">
        <ele>14.727226</ele>
        <time>2022-01-19T21:32:12.157Z</time>
      </trkpt>
      <trkpt lat="49.40146" lon="-1.35534">
        <ele>16.12063</ele>
        <time>2022-01-19T21:32:46.146Z</time>
      </trkpt>
      <trkpt lat="49.40149" lon="-1.35583">
        <ele>16.489656</ele>
        <time>2022-01-19T21:32:55.157Z</time>
      </trkpt>
      <trkpt lat="49.4014" lon="-1.35925">
        <ele>17.491563</ele>
        <time>2022-01-19T21:33:58.102Z</time>
      </trkpt>
      <trkpt lat="49.40144" lon="-1.36005">
        <ele>16.245685</ele>
        <time>2022-01-19T21:34:12.168Z</time>
      </trkpt>
      <trkpt lat="49.40145" lon="-1.36008">
        <ele>16.181795</ele>
        <time>2022-01-19T21:34:12.829Z</time>
      </trkpt>
      <trkpt lat="49.40134" lon="-1.36027">
        <ele>15.786673</ele>
        <time>2022-01-19T21:34:15.135Z</time>
      </trkpt>
      <trkpt lat="49.40073" lon="-1.36166">
        <ele>12.942232</ele>
        <time>2022-01-19T21:34:29.780Z</time>
      </trkpt>
      <trkpt lat="49.40069" lon="-1.36193">
        <ele>12.224783</ele>
        <time>2022-01-19T21:34:32.125Z</time>
      </trkpt>
      <trkpt lat="49.40073" lon="-1.36242">
        <ele>10.932925</ele>
        <time>2022-01-19T21:34:36.258Z</time>
      </trkpt>
      <trkpt lat="49.40093" lon="-1.36371">
        <ele>7.506669</ele>
        <time>2022-01-19T21:34:47.438Z</time>
      </trkpt>
      <trkpt lat="49.40096" lon="-1.36369">
        <ele>7.380085</ele>
        <time>2022-01-19T21:34:48.004Z</time>
      </trkpt>
      <trkpt lat="49.40106" lon="-1.36362">
        <ele>6.945678</ele>
        <time>2022-01-19T21:34:49.550Z</time>
      </trkpt>
      <trkpt lat="49.40096" lon="-1.36369">
        <ele>6.511271</ele>
        <time>2022-01-19T21:34:50.955Z</time>
      </trkpt>
      <trkpt lat="49.40093" lon="-1.36371">
        <ele>6.384686</ele>
        <time>2022-01-19T21:34:51.330Z</time>
      </trkpt>
      <trkpt lat="49.40097" lon="-1.36396">
        <ele>6.038362</ele>
        <time>2022-01-19T21:34:53.782Z</time>
      </trkpt>
      <trkpt lat="49.401" lon="-1.3642">
        <ele>5.726407</ele>
        <time>2022-01-19T21:34:55.901Z</time>
      </trkpt>
      <trkpt lat="49.40116" lon="-1.36544">
        <ele>4.095612</ele>
        <time>2022-01-19T21:35:07.641Z</time>
      </trkpt>
      <trkpt lat="49.4014" lon="-1.36632">
        <ele>2.874857</ele>
        <time>2022-01-19T21:35:17.467Z</time>
      </trkpt>
      <trkpt lat="49.40261" lon="-1.37017">
        <ele>3.874204</ele>
        <time>2022-01-19T21:36:07.089Z</time>
      </trkpt>
      <trkpt lat="49.40271" lon="-1.37048">
        <ele>4.041893</ele>
        <time>2022-01-19T21:36:11.251Z</time>
      </trkpt>
      <trkpt lat="49.40275" lon="-1.37071">
        <ele>4.160374</ele>
        <time>2022-01-19T21:36:14.349Z</time>
      </trkpt>
      <trkpt lat="49.40293" lon="-1.37156">
        <ele>4.658057</ele>
        <time>2022-01-19T21:36:25.462Z</time>
      </trkpt>
      <trkpt lat="49.40296" lon="-1.37197">
        <ele>5.007502</ele>
        <time>2022-01-19T21:36:30.663Z</time>
      </trkpt>
      <trkpt lat="49.40295" lon="-1.37213">
        <ele>5.145241</ele>
        <time>2022-01-19T21:36:32.782Z</time>
      </trkpt>
      <trkpt lat="49.40294" lon="-1.3722">
        <ele>5.204962</ele>
        <time>2022-01-19T21:36:33.734Z</time>
      </trkpt>
      <trkpt lat="49.40286" lon="-1.37253">
        <ele>5.504332</ele>
        <time>2022-01-19T21:36:38.145Z</time>
      </trkpt>
      <trkpt lat="49.40241" lon="-1.3737">
        <ele>6.642047</ele>
        <time>2022-01-19T21:36:55.372Z</time>
      </trkpt>
      <trkpt lat="49.40194" lon="-1.37568">
        <ele>7.810618</ele>
        <time>2022-01-19T21:37:21.237Z</time>
      </trkpt>
      <trkpt lat="49.40189" lon="-1.37587">
        <ele>7.921223</ele>
        <time>2022-01-19T21:37:23.865Z</time>
      </trkpt>
      <trkpt lat="49.40189" lon="-1.37621">
        <ele>8.094825</ele>
        <time>2022-01-19T21:37:29.997Z</time>
      </trkpt>
      <trkpt lat="49.40154" lon="-1.37765">
        <ele>8.545928</ele>
        <time>2022-01-19T21:37:58.107Z</time>
      </trkpt>
      <trkpt lat="49.40042" lon="-1.38135">
        <ele>9.400899</ele>
        <time>2022-01-19T21:39:12.837Z</time>
      </trkpt>
      <trkpt lat="49.40031" lon="-1.38286">
        <ele>9.594953</ele>
        <time>2022-01-19T21:39:40.628Z</time>
      </trkpt>
      <trkpt lat="49.4003" lon="-1.38324">
        <ele>9.638706</ele>
        <time>2022-01-19T21:39:47.621Z</time>
      </trkpt>
      <trkpt lat="49.40027" lon="-1.38387">
        <ele>9.71024</ele>
        <time>2022-01-19T21:39:58.995Z</time>
      </trkpt>
      <trkpt lat="49.39997" lon="-1.38587">
        <ele>9.683398</ele>
        <time>2022-01-19T21:40:36.265Z</time>
      </trkpt>
      <trkpt lat="49.39965" lon="-1.38884">
        <ele>9.65147</ele>
        <time>2022-01-19T21:41:31.092Z</time>
      </trkpt>
      <trkpt lat="49.39918" lon="-1.39059">
        <ele>10.138309</ele>
        <time>2022-01-19T21:42:05.669Z</time>
      </trkpt>
      <trkpt lat="49.39905" lon="-1.391">
        <ele>10.368296</ele>
        <time>2022-01-19T21:42:14.134Z</time>
      </trkpt>
      <trkpt lat="49.39903" lon="-1.3911">
        <ele>10.419455</ele>
        <time>2022-01-19T21:42:16.007Z</time>
      </trkpt>
      <trkpt lat="49.39879" lon="-1.39154">
        <ele>10.706732</ele>
        <time>2022-01-19T21:42:26.602Z</time>
      </trkpt>
      <trkpt lat="49.39816" lon="-1.39305">
        <ele>12.079386</ele>
        <time>2022-01-19T21:42:59.577Z</time>
      </trkpt>
      <trkpt lat="49.39794" lon="-1.39381">
        <ele>12.862123</ele>
        <time>2022-01-19T21:43:15.050Z</time>
      </trkpt>
      <trkpt lat="49.39732" lon="-1.39587">
        <ele>14.199226</ele>
        <time>2022-01-19T21:43:56.808Z</time>
      </trkpt>
      <trkpt lat="49.39651" lon="-1.39512">
        <ele>14.72689</ele>
        <time>2022-01-19T21:44:23.184Z</time>
      </trkpt>
      <trkpt lat="49.39571" lon="-1.39439">
        <ele>14.805914</ele>
        <time>2022-01-19T21:44:49.361Z</time>
      </trkpt>
      <trkpt lat="49.39541" lon="-1.39419">
        <ele>14.833561</ele>
        <time>2022-01-19T21:44:58.474Z</time>
      </trkpt>
      <trkpt lat="49.39507" lon="-1.39409">
        <ele>14.862642</ele>
        <time>2022-01-19T21:45:08.188Z</time>
      </trkpt>
      <trkpt lat="49.39475" lon="-1.39364">
        <ele>15.347725</ele>
        <time>2022-01-19T21:45:20.483Z</time>
      </trkpt>
      <trkpt lat="49.39491" lon="-1.39333">
        <ele>15.725385</ele>
        <time>2022-01-19T21:45:25.611Z</time>
      </trkpt>
      <trkpt lat="49.39454" lon="-1.3929">
        <ele>16.404061</ele>
        <time>2022-01-19T21:45:34.916Z</time>
      </trkpt>
      <trkpt lat="49.39436" lon="-1.39282">
        <ele>16.686888</ele>
        <time>2022-01-19T21:45:38.914Z</time>
      </trkpt>
      <trkpt lat="49.3937" lon="-1.39194">
        <ele>17.836037</ele>
        <time>2022-01-19T21:46:03.666Z</time>
      </trkpt>
      <trkpt lat="49.39337" lon="-1.39145">
        <ele>18.311404</ele>
        <time>2022-01-19T21:46:16.769Z</time>
      </trkpt>
      <trkpt lat="49.39322" lon="-1.3909">
        <ele>18.710719</ele>
        <time>2022-01-19T21:46:27.710Z</time>
      </trkpt>
      <trkpt lat="49.39264" lon="-1.39006">
        <ele>19.396653</ele>
        <time>2022-01-19T21:46:50.027Z</time>
      </trkpt>
      <trkpt lat="49.39178" lon="-1.38912">
        <ele>19.530706</ele>
        <time>2022-01-19T21:47:19.548Z</time>
      </trkpt>
      <trkpt lat="49.39147" lon="-1.38888">
        <ele>19.575098</ele>
        <time>2022-01-19T21:47:29.369Z</time>
      </trkpt>
      <trkpt lat="49.39097" lon="-1.38856">
        <ele>19.741575</ele>
        <time>2022-01-19T21:47:44.377Z</time>
      </trkpt>
      <trkpt lat="49.39087" lon="-1.389">
        <ele>19.883169</ele>
        <time>2022-01-19T21:47:49.810Z</time>
      </trkpt>
      <trkpt lat="49.3907" lon="-1.38956">
        <ele>20.068833</ele>
        <time>2022-01-19T21:47:56.904Z</time>
      </trkpt>
      <trkpt lat="49.39057" lon="-1.38996">
        <ele>20.206348</ele>
        <time>2022-01-19T21:48:02.287Z</time>
      </trkpt>
      <trkpt lat="49.3903" lon="-1.38981">
        <ele>20.342997</ele>
        <time>2022-01-19T21:48:10.560Z</time>
      </trkpt>
      <trkpt lat="49.38909" lon="-1.38887">
        <ele>21.072327</ele>
        <time>2022-01-19T21:48:48.702Z</time>
      </trkpt>
      <trkpt lat="49.38723" lon="-1.38717">
        <ele>21.907213</ele>
        <time>2022-01-19T21:49:49.590Z</time>
      </trkpt>
      <trkpt lat="49.38678" lon="-1.3867">
        <ele>21.897202</ele>
        <time>2022-01-19T21:50:04.872Z</time>
      </trkpt>
      <trkpt lat="49.38663" lon="-1.38649">
        <ele>21.808328</ele>
        <time>2022-01-19T21:50:10.585Z</time>
      </trkpt>
      <trkpt lat="49.38587" lon="-1.38594">
        <ele>21.443521</ele>
        <time>2022-01-19T21:50:34.136Z</time>
      </trkpt>
      <trkpt lat="49.38559" lon="-1.38568">
        <ele>21.302018</ele>
        <time>2022-01-19T21:50:43.257Z</time>
      </trkpt>
      <trkpt lat="49.38518" lon="-1.38553">
        <ele>20.659462</ele>
        <time>2022-01-19T21:50:54.720Z</time>
      </trkpt>
      <trkpt lat="49.3844" lon="-1.38545">
        <ele>18.799391</ele>
        <time>2022-01-19T21:51:14.946Z</time>
      </trkpt>
      <trkpt lat="49.384" lon="-1.38541">
        <ele>17.830179</ele>
        <time>2022-01-19T21:51:25.063Z</time>
      </trkpt>
      <trkpt lat="49.38247" lon="-1.3855">
        <ele>12.820283</ele>
        <time>2022-01-19T21:52:01.840Z</time>
      </trkpt>
      <trkpt lat="49.38207" lon="-1.3854">
        <ele>11.378208</ele>
        <time>2022-01-19T21:52:11.389Z</time>
      </trkpt>
      <trkpt lat="49.38144" lon="-1.38491">
        <ele>9.839391</ele>
        <time>2022-01-19T21:52:29.168Z</time>
      </trkpt>
      <trkpt lat="49.38094" lon="-1.38501">
        <ele>9.136358</ele>
        <time>2022-01-19T21:52:42.641Z</time>
      </trkpt>
      <trkpt lat="49.38073" lon="-1.38501">
        <ele>8.850367</ele>
        <time>2022-01-19T21:52:48.038Z</time>
      </trkpt>
      <trkpt lat="49.38065" lon="-1.38508">
        <ele>8.720964</ele>
        <time>2022-01-19T21:52:50.644Z</time>
      </trkpt>
      <trkpt lat="49.38008" lon="-1.38533">
        <ele>8.01585</ele>
        <time>2022-01-19T21:53:07.362Z</time>
      </trkpt>
      <trkpt lat="49.37776" lon="-1.38539">
        <ele>9.012691</ele>
        <time>2022-01-19T21:54:12.902Z</time>
      </trkpt>
      <trkpt lat="49.37548" lon="-1.38567">
        <ele>7.232787</ele>
        <time>2022-01-19T21:55:16.232Z</time>
      </trkpt>
      <trkpt lat="49.37485" lon="-1.38559">
        <ele>6.43979</ele>
        <time>2022-01-19T21:55:32.968Z</time>
      </trkpt>
      <trkpt lat="49.37407" lon="-1.38573">
        <ele>5.591469</ele>
        <time>2022-01-19T21:55:53.878Z</time>
      </trkpt>
      <trkpt lat="49.37399" lon="-1.38553">
        <ele>5.421911</ele>
        <time>2022-01-19T21:55:56.313Z</time>
      </trkpt>
      <trkpt lat="49.37396" lon="-1.38545">
        <ele>5.36073</ele>
        <time>2022-01-19T21:55:57.168Z</time>
      </trkpt>
      <trkpt lat="49.37375" lon="-1.38479">
        <ele>4.846983</ele>
        <time>2022-01-19T21:56:04.865Z</time>
      </trkpt>
      <trkpt lat="49.3737" lon="-1.38451">
        <ele>4.649211</ele>
        <time>2022-01-19T21:56:07.795Z</time>
      </trkpt>
      <trkpt lat="49.37364" lon="-1.38438">
        <ele>4.541976</ele>
        <time>2022-01-19T21:56:09.477Z</time>
      </trkpt>
      <trkpt lat="49.37336" lon="-1.38398">
        <ele>4.492634</ele>
        <time>2022-01-19T21:56:16.011Z</time>
      </trkpt>
      <trkpt lat="49.37364" lon="-1.38438">
        <ele>4.619763</ele>
        <time>2022-01-19T21:56:22.722Z</time>
      </trkpt>
      <trkpt lat="49.3737" lon="-1.38451">
        <ele>4.652468</ele>
        <time>2022-01-19T21:56:24.410Z</time>
      </trkpt>
      <trkpt lat="49.37375" lon="-1.38479">
        <ele>4.712786</ele>
        <time>2022-01-19T21:56:27.850Z</time>
      </trkpt>
      <trkpt lat="49.37396" lon="-1.38545">
        <ele>4.869471</ele>
        <time>2022-01-19T21:56:36.517Z</time>
      </trkpt>
      <trkpt lat="49.37399" lon="-1.38553">
        <ele>4.88813</ele>
        <time>2022-01-19T21:56:37.604Z</time>
      </trkpt>
      <trkpt lat="49.3739" lon="-1.38592">
        <ele>4.976554</ele>
        <time>2022-01-19T21:56:42.817Z</time>
      </trkpt>
      <trkpt lat="49.37379" lon="-1.38723">
        <ele>5.938984</ele>
        <time>2022-01-19T21:56:59.575Z</time>
      </trkpt>
      <trkpt lat="49.37381" lon="-1.38835">
        <ele>6.793557</ele>
        <time>2022-01-19T21:57:14.009Z</time>
      </trkpt>
      <trkpt lat="49.37397" lon="-1.39049">
        <ele>9.259844</ele>
        <time>2022-01-19T21:57:42.720Z</time>
      </trkpt>
      <trkpt lat="49.37391" lon="-1.39065">
        <ele>9.481349</ele>
        <time>2022-01-19T21:57:45.188Z</time>
      </trkpt>
      <trkpt lat="49.37337" lon="-1.39083">
        <ele>10.531191</ele>
        <time>2022-01-19T21:57:56.892Z</time>
      </trkpt>
      <trkpt lat="49.3733" lon="-1.39098">
        <ele>10.819193</ele>
        <time>2022-01-19T21:57:59.529Z</time>
      </trkpt>
      <trkpt lat="49.37331" lon="-1.39182">
        <ele>12.091952</ele>
        <time>2022-01-19T21:58:11.202Z</time>
      </trkpt>
      <trkpt lat="49.37347" lon="-1.39245">
        <ele>13.117182</ele>
        <time>2022-01-19T21:58:20.618Z</time>
      </trkpt>
      <trkpt lat="49.37351" lon="-1.39402">
        <ele>15.270762</ele>
        <time>2022-01-19T21:58:42.107Z</time>
      </trkpt>
      <trkpt lat="49.37347" lon="-1.39529">
        <ele>16.692544</ele>
        <time>2022-01-19T21:58:59.029Z</time>
      </trkpt>
      <trkpt lat="49.37324" lon="-1.39823">
        <ele>19.212824</ele>
        <time>2022-01-19T21:59:37.449Z</time>
      </trkpt>
      <trkpt lat="49.37299" lon="-1.39861">
        <ele>19.601162</ele>
        <time>2022-01-19T21:59:44.268Z</time>
      </trkpt>
      <trkpt lat="49.37305" lon="-1.39882">
        <ele>19.762073</ele>
        <time>2022-01-19T21:59:47.080Z</time>
      </trkpt>
      <trkpt lat="49.37315" lon="-1.39914">
        <ele>19.853218</ele>
        <time>2022-01-19T21:59:51.400Z</time>
      </trkpt>
      <trkpt lat="49.37341" lon="-1.40007">
        <ele>20.114267</ele>
        <time>2022-01-19T22:00:03.468Z</time>
      </trkpt>
      <trkpt lat="49.37268" lon="-1.40001">
        <ele>20.402688</ele>
        <time>2022-01-19T22:00:23.917Z</time>
      </trkpt>
      <trkpt lat="49.37238" lon="-1.40001">
        <ele>20.441108</ele>
        <time>2022-01-19T22:00:32.399Z</time>
      </trkpt>
      <trkpt lat="49.37156" lon="-1.40036">
        <ele>20.259242</ele>
        <time>2022-01-19T22:00:56.053Z</time>
      </trkpt>
      <trkpt lat="49.37105" lon="-1.40062">
        <ele>20.143611</ele>
        <time>2022-01-19T22:01:11.117Z</time>
      </trkpt>
      <trkpt lat="49.37119" lon="-1.40143">
        <ele>20.099693</ele>
        <time>2022-01-19T22:01:26.408Z</time>
      </trkpt>
      <trkpt lat="49.3711" lon="-1.40156">
        <ele>20.107709</ele>
        <time>2022-01-19T22:01:29.937Z</time>
      </trkpt>
      <trkpt lat="49.3711" lon="-1.40171">
        <ele>20.114062</ele>
        <time>2022-01-19T22:01:32.720Z</time>
      </trkpt>
      <trkpt lat="49.37125" lon="-1.40294">
        <ele>20.165677</ele>
        <time>2022-01-19T22:01:55.338Z</time>
      </trkpt>
      <trkpt lat="49.37116" lon="-1.40342">
        <ele>20.186472</ele>
        <time>2022-01-19T22:02:04.527Z</time>
      </trkpt>
      <trkpt lat="49.37124" lon="-1.405">
        <ele>20.740603</ele>
        <time>2022-01-19T22:02:33.673Z</time>
      </trkpt>
      <trkpt lat="49.3712" lon="-1.40525">
        <ele>20.847868</ele>
        <time>2022-01-19T22:02:38.480Z</time>
      </trkpt>
      <trkpt lat="49.37151" lon="-1.40523">
        <ele>21.040552</ele>
        <time>2022-01-19T22:02:44.341Z</time>
      </trkpt>
      <trkpt lat="49.3727" lon="-1.40553">
        <ele>21.783834</ele>
        <time>2022-01-19T22:03:07.688Z</time>
      </trkpt>
      <trkpt lat="49.37379" lon="-1.40607">
        <ele>22.341872</ele>
        <time>2022-01-19T22:03:29.168Z</time>
      </trkpt>
      <trkpt lat="49.37385" lon="-1.4061">
        <ele>22.29188</ele>
        <time>2022-01-19T22:03:30.201Z</time>
      </trkpt>
      <trkpt lat="49.37373" lon="-1.40648">
        <ele>22.048996</ele>
        <time>2022-01-19T22:03:35.104Z</time>
      </trkpt>
      <trkpt lat="49.37339" lon="-1.4071">
        <ele>21.587417</ele>
        <time>2022-01-19T22:03:44.075Z</time>
      </trkpt>
      <trkpt lat="49.37298" lon="-1.40748">
        <ele>21.167046</ele>
        <time>2022-01-19T22:03:51.934Z</time>
      </trkpt>
      <trkpt lat="49.37249" lon="-1.40785">
        <ele>20.303147</ele>
        <time>2022-01-19T22:04:00.439Z</time>
      </trkpt>
      <trkpt lat="49.37229" lon="-1.408">
        <ele>19.618243</ele>
        <time>2022-01-19T22:04:03.730Z</time>
      </trkpt>
      <trkpt lat="49.37171" lon="-1.40845">
        <ele>17.608513</ele>
        <time>2022-01-19T22:04:13.186Z</time>
      </trkpt>
      <trkpt lat="49.3712" lon="-1.40872">
        <ele>15.940338</ele>
        <time>2022-01-19T22:04:20.729Z</time>
      </trkpt>
      <trkpt lat="49.37105" lon="-1.40872">
        <ele>15.466938</ele>
        <time>2022-01-19T22:04:22.827Z</time>
      </trkpt>
      <trkpt lat="49.37059" lon="-1.40984">
        <ele>11.910929</ele>
        <time>2022-01-19T22:04:34.628Z</time>
      </trkpt>
      <trkpt lat="49.3703" lon="-1.40989">
        <ele>10.679035</ele>
        <time>2022-01-19T22:04:38.602Z</time>
      </trkpt>
      <trkpt lat="49.37019" lon="-1.41004">
        <ele>10.078829</ele>
        <time>2022-01-19T22:04:40.492Z</time>
      </trkpt>
      <trkpt lat="49.36972" lon="-1.41117">
        <ele>7.037345</ele>
        <time>2022-01-19T22:04:52.756Z</time>
      </trkpt>
      <trkpt lat="49.36958" lon="-1.4114">
        <ele>6.588063</ele>
        <time>2022-01-19T22:04:55.574Z</time>
      </trkpt>
      <trkpt lat="49.36985" lon="-1.41178">
        <ele>5.781067</ele>
        <time>2022-01-19T22:05:00.947Z</time>
      </trkpt>
      <trkpt lat="49.37047" lon="-1.41201">
        <ele>4.350909</ele>
        <time>2022-01-19T22:05:11.040Z</time>
      </trkpt>
      <trkpt lat="49.3711" lon="-1.41242">
        <ele>3.551487</ele>
        <time>2022-01-19T22:05:22.620Z</time>
      </trkpt>
      <trkpt lat="49.37141" lon="-1.41273">
        <ele>3.384038</ele>
        <time>2022-01-19T22:05:29.271Z</time>
      </trkpt>
      <trkpt lat="49.3719" lon="-1.4135">
        <ele>3.065981</ele>
        <time>2022-01-19T22:05:41.469Z</time>
      </trkpt>
      <trkpt lat="49.37255" lon="-1.41431">
        <ele>2.647616</ele>
        <time>2022-01-19T22:05:55.827Z</time>
      </trkpt>
      <trkpt lat="49.3728" lon="-1.41453">
        <ele>2.495541</ele>
        <time>2022-01-19T22:06:00.726Z</time>
      </trkpt>
      <trkpt lat="49.37301" lon="-1.41462">
        <ele>2.379593</ele>
        <time>2022-01-19T22:06:06.881Z</time>
      </trkpt>
      <trkpt lat="49.37331" lon="-1.41474">
        <ele>2.216175</ele>
        <time>2022-01-19T22:06:15.526Z</time>
      </trkpt>
      <trkpt lat="49.37341" lon="-1.4149">
        <ele>2.136612</ele>
        <time>2022-01-19T22:06:19.739Z</time>
      </trkpt>
      <trkpt lat="49.3737" lon="-1.41589">
        <ele>1.916047</ele>
        <time>2022-01-19T22:06:39.536Z</time>
      </trkpt>
      <trkpt lat="49.37406" lon="-1.41646">
        <ele>1.845939</ele>
        <time>2022-01-19T22:06:53.949Z</time>
      </trkpt>
      <trkpt lat="49.3747" lon="-1.4169">
        <ele>1.750027</ele>
        <time>2022-01-19T22:07:13.697Z</time>
      </trkpt>
      <trkpt lat="49.37597" lon="-1.41758">
        <ele>1.663864</ele>
        <time>2022-01-19T22:07:51.123Z</time>
      </trkpt>
      <trkpt lat="49.37631" lon="-1.41791">
        <ele>1.642782</ele>
        <time>2022-01-19T22:08:02.340Z</time>
      </trkpt>
      <trkpt lat="49.3766" lon="-1.41842">
        <ele>1.576697</ele>
        <time>2022-01-19T22:08:14.729Z</time>
      </trkpt>
      <trkpt lat="49.3768" lon="-1.41986">
        <ele>1.319977</ele>
        <time>2022-01-19T22:08:41.561Z</time>
      </trkpt>
      <trkpt lat="49.37682" lon="-1.42031">
        <ele>1.240396</ele>
        <time>2022-01-19T22:08:49.879Z</time>
      </trkpt>
      <trkpt lat="49.3769" lon="-1.42037">
        <ele>1.216219</ele>
        <time>2022-01-19T22:08:52.390Z</time>
      </trkpt>
      <trkpt lat="49.3768" lon="-1.42063">
        <ele>1.163108</ele>
        <time>2022-01-19T22:08:57.923Z</time>
      </trkpt>
      <trkpt lat="49.37624" lon="-1.42334">
        <ele>1.007801</ele>
        <time>2022-01-19T22:09:49.488Z</time>
      </trkpt>
      <trkpt lat="49.37625" lon="-1.42394">
        <ele>0.900211</ele>
        <time>2022-01-19T22:10:00.402Z</time>
      </trkpt>
      <trkpt lat="49.37623" lon="-1.4242">
        <ele>0.851888</ele>
        <time>2022-01-19T22:10:05.222Z</time>
      </trkpt>
      <trkpt lat="49.37623" lon="-1.42443">
        <ele>0.810625</ele>
        <time>2022-01-19T22:10:08.497Z</time>
      </trkpt>
      <trkpt lat="49.37601" lon="-1.42444">
        <ele>0.748366</ele>
        <time>2022-01-19T22:10:12.229Z</time>
      </trkpt>
      <trkpt lat="49.37564" lon="-1.42447">
        <ele>0.64353</ele>
        <time>2022-01-19T22:10:18.478Z</time>
      </trkpt>
      <trkpt lat="49.37176" lon="-1.42479">
        <ele>-0.987612</ele>
        <time>2022-01-19T22:11:21.998Z</time>
      </trkpt>
      <trkpt lat="49.37129" lon="-1.4248">
        <ele>-0.741615</ele>
        <time>2022-01-19T22:11:30.314Z</time>
      </trkpt>
      <trkpt lat="49.3676" lon="-1.42479">
        <ele>5.268565</ele>
        <time>2022-01-19T22:12:43.029Z</time>
      </trkpt>
      <trkpt lat="49.36634" lon="-1.42494">
        <ele>9.671625</ele>
        <time>2022-01-19T22:13:11.328Z</time>
      </trkpt>
      <trkpt lat="49.36611" lon="-1.42494">
        <ele>10.54111</ele>
        <time>2022-01-19T22:13:17.063Z</time>
      </trkpt>
      <trkpt lat="49.36522" lon="-1.42494">
        <ele>14.812694</ele>
        <time>2022-01-19T22:13:38.832Z</time>
      </trkpt>
      <trkpt lat="49.365" lon="-1.425">
        <ele>15.869199</ele>
        <time>2022-01-19T22:13:44.420Z</time>
      </trkpt>
      <trkpt lat="49.364" lon="-1.42546">
        <ele>20.037456</ele>
        <time>2022-01-19T22:14:08.712Z</time>
      </trkpt>
      <trkpt lat="49.36394" lon="-1.4256">
        <ele>20.319868</ele>
        <time>2022-01-19T22:14:11.109Z</time>
      </trkpt>
      <trkpt lat="49.36382" lon="-1.4258">
        <ele>20.800555</ele>
        <time>2022-01-19T22:14:15.030Z</time>
      </trkpt>
      <trkpt lat="49.36344" lon="-1.42709">
        <ele>23.29004</ele>
        <time>2022-01-19T22:14:34.481Z</time>
      </trkpt>
      <trkpt lat="49.3635" lon="-1.42777">
        <ele>23.98211</ele>
        <time>2022-01-19T22:14:43.229Z</time>
      </trkpt>
      <trkpt lat="49.36348" lon="-1.43005">
        <ele>25.119472</ele>
        <time>2022-01-19T22:15:11.440Z</time>
      </trkpt>
      <trkpt lat="49.36338" lon="-1.43031">
        <ele>25.160357</ele>
        <time>2022-01-19T22:15:14.936Z</time>
      </trkpt>
      <trkpt lat="49.36322" lon="-1.43042">
        <ele>25.16556</ele>
        <time>2022-01-19T22:15:18.132Z</time>
      </trkpt>
      <trkpt lat="49.36319" lon="-1.43052">
        <ele>25.167725</ele>
        <time>2022-01-19T22:15:19.481Z</time>
      </trkpt>
      <trkpt lat="49.36305" lon="-1.43113">
        <ele>25.180412</ele>
        <time>2022-01-19T22:15:27.094Z</time>
      </trkpt>
      <trkpt lat="49.36298" lon="-1.43134">
        <ele>25.184867</ele>
        <time>2022-01-19T22:15:29.781Z</time>
      </trkpt>
      <trkpt lat="49.36349" lon="-1.43252">
        <ele>25.210544</ele>
        <time>2022-01-19T22:15:45.214Z</time>
      </trkpt>
      <trkpt lat="49.36392" lon="-1.43342">
        <ele>25.217661</ele>
        <time>2022-01-19T22:15:57.363Z</time>
      </trkpt>
      <trkpt lat="49.36429" lon="-1.43411">
        <ele>25.223287</ele>
        <time>2022-01-19T22:16:07.400Z</time>
      </trkpt>
      <trkpt lat="49.36435" lon="-1.43407">
        <ele>25.223976</ele>
        <time>2022-01-19T22:16:08.693Z</time>
      </trkpt>
      <trkpt lat="49.36476" lon="-1.43399">
        <ele>25.258256</ele>
        <time>2022-01-19T22:16:15.929Z</time>
      </trkpt>
      <trkpt lat="49.36487" lon="-1.43408">
        <ele>25.30333</ele>
        <time>2022-01-19T22:16:17.972Z</time>
      </trkpt>
      <trkpt lat="49.3649" lon="-1.43411">
        <ele>25.317006</ele>
        <time>2022-01-19T22:16:18.632Z</time>
      </trkpt>
      <trkpt lat="49.36501" lon="-1.43421">
        <ele>25.365855</ele>
        <time>2022-01-19T22:16:21.019Z</time>
      </trkpt>
      <trkpt lat="49.36503" lon="-1.43423">
        <ele>25.374271</ele>
        <time>2022-01-19T22:16:21.430Z</time>
      </trkpt>
      <trkpt lat="49.36521" lon="-1.43442">
        <ele>25.455716</ele>
        <time>2022-01-19T22:16:26.317Z</time>
      </trkpt>
      <trkpt lat="49.36527" lon="-1.43452">
        <ele>25.489208</ele>
        <time>2022-01-19T22:16:28.390Z</time>
      </trkpt>
      <trkpt lat="49.36532" lon="-1.4346">
        <ele>25.517228</ele>
        <time>2022-01-19T22:16:30.121Z</time>
      </trkpt>
      <trkpt lat="49.36537" lon="-1.43469">
        <ele>25.545679</ele>
        <time>2022-01-19T22:16:31.394Z</time>
      </trkpt>
      <trkpt lat="49.36557" lon="-1.43534">
        <ele>25.719969</ele>
        <time>2022-01-19T22:16:39.865Z</time>
      </trkpt>
      <trkpt lat="49.36549" lon="-1.43714">
        <ele>25.977748</ele>
        <time>2022-01-19T22:17:00.868Z</time>
      </trkpt>
      <trkpt lat="49.36537" lon="-1.43811">
        <ele>26.050606</ele>
        <time>2022-01-19T22:17:11.763Z</time>
      </trkpt>
      <trkpt lat="49.36536" lon="-1.43821">
        <ele>26.058408</ele>
        <time>2022-01-19T22:17:12.952Z</time>
      </trkpt>
      <trkpt lat="49.3653" lon="-1.43971">
        <ele>25.745337</ele>
        <time>2022-01-19T22:17:29.382Z</time>
      </trkpt>
      <trkpt lat="49.36525" lon="-1.44022">
        <ele>25.542359</ele>
        <time>2022-01-19T22:17:34.923Z</time>
      </trkpt>
      <trkpt lat="49.36518" lon="-1.44045">
        <ele>25.442547</ele>
        <time>2022-01-19T22:17:37.645Z</time>
      </trkpt>
      <trkpt lat="49.36511" lon="-1.44084">
        <ele>25.284303</ele>
        <time>2022-01-19T22:17:41.867Z</time>
      </trkpt>
      <trkpt lat="49.36506" lon="-1.44248">
        <ele>23.905669</ele>
        <time>2022-01-19T22:17:58.562Z</time>
      </trkpt>
      <trkpt lat="49.36522" lon="-1.44335">
        <ele>22.858045</ele>
        <time>2022-01-19T22:18:07.258Z</time>
      </trkpt>
      <trkpt lat="49.36538" lon="-1.44602">
        <ele>19.564836</ele>
        <time>2022-01-19T22:18:32.514Z</time>
      </trkpt>
      <trkpt lat="49.36534" lon="-1.44649">
        <ele>18.96999</ele>
        <time>2022-01-19T22:18:37.053Z</time>
      </trkpt>
      <trkpt lat="49.36502" lon="-1.44815">
        <ele>17.304241</ele>
        <time>2022-01-19T22:18:54.219Z</time>
      </trkpt>
      <trkpt lat="49.36501" lon="-1.4484">
        <ele>17.094217</ele>
        <time>2022-01-19T22:18:56.855Z</time>
      </trkpt>
      <trkpt lat="49.36493" lon="-1.44881">
        <ele>16.739847</ele>
        <time>2022-01-19T22:19:01.190Z</time>
      </trkpt>
      <trkpt lat="49.36454" lon="-1.44986">
        <ele>15.795134</ele>
        <time>2022-01-19T22:19:13.698Z</time>
      </trkpt>
      <trkpt lat="49.36426" lon="-1.45174">
        <ele>14.553677</ele>
        <time>2022-01-19T22:19:33.511Z</time>
      </trkpt>
      <trkpt lat="49.36404" lon="-1.45251">
        <ele>14.173649</ele>
        <time>2022-01-19T22:19:42.399Z</time>
      </trkpt>
      <trkpt lat="49.36401" lon="-1.45265">
        <ele>14.14485</ele>
        <time>2022-01-19T22:19:43.988Z</time>
      </trkpt>
      <trkpt lat="49.36375" lon="-1.454">
        <ele>13.874412</ele>
        <time>2022-01-19T22:19:59.248Z</time>
      </trkpt>
      <trkpt lat="49.36366" lon="-1.45509">
        <ele>13.549535</ele>
        <time>2022-01-19T22:20:11.833Z</time>
      </trkpt>
      <trkpt lat="49.36359" lon="-1.45551">
        <ele>13.276204</ele>
        <time>2022-01-19T22:20:16.452Z</time>
      </trkpt>
      <trkpt lat="49.36346" lon="-1.45593">
        <ele>12.979338</ele>
        <time>2022-01-19T22:20:21.458Z</time>
      </trkpt>
      <trkpt lat="49.36315" lon="-1.45682">
        <ele>12.336007</ele>
        <time>2022-01-19T22:20:31.858Z</time>
      </trkpt>
      <trkpt lat="49.36323" lon="-1.45693">
        <ele>12.231605</ele>
        <time>2022-01-19T22:20:33.308Z</time>
      </trkpt>
      <trkpt lat="49.36334" lon="-1.45721">
        <ele>12.022866</ele>
        <time>2022-01-19T22:20:36.638Z</time>
      </trkpt>
      <trkpt lat="49.36338" lon="-1.45775">
        <ele>11.223402</ele>
        <time>2022-01-19T22:20:41.827Z</time>
      </trkpt>
      <trkpt lat="49.36336" lon="-1.45825">
        <ele>10.384168</ele>
        <time>2022-01-19T22:20:46.435Z</time>
      </trkpt>
      <trkpt lat="49.3632" lon="-1.45922">
        <ele>8.710055</ele>
        <time>2022-01-19T22:20:55.230Z</time>
      </trkpt>
      <trkpt lat="49.36322" lon="-1.4596">
        <ele>8.084916</ele>
        <time>2022-01-19T22:20:58.652Z</time>
      </trkpt>
      <trkpt lat="49.36331" lon="-1.45992">
        <ele>7.485836</ele>
        <time>2022-01-19T22:21:01.923Z</time>
      </trkpt>
      <trkpt lat="49.36377" lon="-1.46048">
        <ele>7.279342</ele>
        <time>2022-01-19T22:21:10.671Z</time>
      </trkpt>
      <trkpt lat="49.36378" lon="-1.46052">
        <ele>7.276547</ele>
        <time>2022-01-19T22:21:11.112Z</time>
      </trkpt>
      <trkpt lat="49.36377" lon="-1.46059">
        <ele>7.272767</ele>
        <time>2022-01-19T22:21:11.878Z</time>
      </trkpt>
      <trkpt lat="49.36296" lon="-1.46166">
        <ele>7.180738</ele>
        <time>2022-01-19T22:21:31.197Z</time>
      </trkpt>
      <trkpt lat="49.36276" lon="-1.46191">
        <ele>7.500184</ele>
        <time>2022-01-19T22:21:36.376Z</time>
      </trkpt>
      <trkpt lat="49.36268" lon="-1.462">
        <ele>7.776537</ele>
        <time>2022-01-19T22:21:38.386Z</time>
      </trkpt>
      <trkpt lat="49.36262" lon="-1.4621">
        <ele>8.012108</ele>
        <time>2022-01-19T22:21:40.271Z</time>
      </trkpt>
      <trkpt lat="49.36256" lon="-1.46228">
        <ele>8.36684</ele>
        <time>2022-01-19T22:21:43.101Z</time>
      </trkpt>
      <trkpt lat="49.36229" lon="-1.46287">
        <ele>9.643262</ele>
        <time>2022-01-19T22:21:53.302Z</time>
      </trkpt>
      <trkpt lat="49.36211" lon="-1.46312">
        <ele>10.302166</ele>
        <time>2022-01-19T22:21:58.724Z</time>
      </trkpt>
      <trkpt lat="49.36132" lon="-1.46349">
        <ele>12.619132</ele>
        <time>2022-01-19T22:22:17.260Z</time>
      </trkpt>
      <trkpt lat="49.36053" lon="-1.46354">
        <ele>15.048222</ele>
        <time>2022-01-19T22:22:34.591Z</time>
      </trkpt>
      <trkpt lat="49.35988" lon="-1.46393">
        <ele>17.207794</ele>
        <time>2022-01-19T22:22:50.044Z</time>
      </trkpt>
      <trkpt lat="49.3592" lon="-1.465">
        <ele>18.81225</ele>
        <time>2022-01-19T22:23:10.786Z</time>
      </trkpt>
      <trkpt lat="49.35839" lon="-1.46594">
        <ele>20.11209</ele>
        <time>2022-01-19T22:23:30.199Z</time>
      </trkpt>
      <trkpt lat="49.35796" lon="-1.46679">
        <ele>19.351601</ele>
        <time>2022-01-19T22:23:42.098Z</time>
      </trkpt>
      <trkpt lat="49.35772" lon="-1.46783">
        <ele>18.571583</ele>
        <time>2022-01-19T22:23:53.496Z</time>
      </trkpt>
      <trkpt lat="49.35744" lon="-1.46858">
        <ele>17.849727</ele>
        <time>2022-01-19T22:24:02.148Z</time>
      </trkpt>
      <trkpt lat="49.35729" lon="-1.46919">
        <ele>17.203673</ele>
        <time>2022-01-19T22:24:08.714Z</time>
      </trkpt>
      <trkpt lat="49.35642" lon="-1.47036">
        <ele>15.458371</ele>
        <time>2022-01-19T22:24:27.492Z</time>
      </trkpt>
      <trkpt lat="49.35623" lon="-1.47078">
        <ele>15.242315</ele>
        <time>2022-01-19T22:24:33.146Z</time>
      </trkpt>
      <trkpt lat="49.35593" lon="-1.4712">
        <ele>14.987626</ele>
        <time>2022-01-19T22:24:39.931Z</time>
      </trkpt>
      <trkpt lat="49.35555" lon="-1.47203">
        <ele>14.566181</ele>
        <time>2022-01-19T22:24:51.304Z</time>
      </trkpt>
      <trkpt lat="49.35533" lon="-1.4725">
        <ele>14.328249</ele>
        <time>2022-01-19T22:24:57.827Z</time>
      </trkpt>
      <trkpt lat="49.3548" lon="-1.47374">
        <ele>14.205284</ele>
        <time>2022-01-19T22:25:14.724Z</time>
      </trkpt>
      <trkpt lat="49.35431" lon="-1.47455">
        <ele>14.11428</ele>
        <time>2022-01-19T22:25:27.293Z</time>
      </trkpt>
      <trkpt lat="49.35358" lon="-1.47608">
        <ele>14.268763</ele>
        <time>2022-01-19T22:25:49.172Z</time>
      </trkpt>
      <trkpt lat="49.35341" lon="-1.47667">
        <ele>14.331524</ele>
        <time>2022-01-19T22:25:56.853Z</time>
      </trkpt>
      <trkpt lat="49.35349" lon="-1.4772">
        <ele>14.450302</ele>
        <time>2022-01-19T22:26:03.526Z</time>
      </trkpt>
      <trkpt lat="49.35339" lon="-1.47853">
        <ele>15.090278</ele>
        <time>2022-01-19T22:26:20.143Z</time>
      </trkpt>
      <trkpt lat="49.35318" lon="-1.47947">
        <ele>15.565986</ele>
        <time>2022-01-19T22:26:32.623Z</time>
      </trkpt>
      <trkpt lat="49.35289" lon="-1.4802">
        <ele>16.121794</ele>
        <time>2022-01-19T22:26:43.559Z</time>
      </trkpt>
      <trkpt lat="49.35264" lon="-1.48128">
        <ele>16.943407</ele>
        <time>2022-01-19T22:26:58.307Z</time>
      </trkpt>
      <trkpt lat="49.35235" lon="-1.48221">
        <ele>17.677644</ele>
        <time>2022-01-19T22:27:11.587Z</time>
      </trkpt>
      <trkpt lat="49.35192" lon="-1.48358">
        <ele>18.466807</ele>
        <time>2022-01-19T22:27:31.161Z</time>
      </trkpt>
      <trkpt lat="49.35115" lon="-1.48556">
        <ele>18.753204</ele>
        <time>2022-01-19T22:27:58.969Z</time>
      </trkpt>
      <trkpt lat="49.34975" lon="-1.48799">
        <ele>17.027285</ele>
        <time>2022-01-19T22:28:34.076Z</time>
      </trkpt>
      <trkpt lat="49.34956" lon="-1.48845">
        <ele>16.624862</ele>
        <time>2022-01-19T22:28:39.606Z</time>
      </trkpt>
      <trkpt lat="49.34935" lon="-1.48878">
        <ele>16.276657</ele>
        <time>2022-01-19T22:28:44.524Z</time>
      </trkpt>
      <trkpt lat="49.34847" lon="-1.48936">
        <ele>16.18079</ele>
        <time>2022-01-19T22:29:00.773Z</time>
      </trkpt>
      <trkpt lat="49.34824" lon="-1.48972">
        <ele>16.201944</ele>
        <time>2022-01-19T22:29:06.716Z</time>
      </trkpt>
      <trkpt lat="49.34786" lon="-1.49102">
        <ele>16.732318</ele>
        <time>2022-01-19T22:29:24.756Z</time>
      </trkpt>
      <trkpt lat="49.3467" lon="-1.49276">
        <ele>19.392124</ele>
        <time>2022-01-19T22:29:58.616Z</time>
      </trkpt>
      <trkpt lat="49.3459" lon="-1.4938">
        <ele>20.231421</ele>
        <time>2022-01-19T22:30:19.123Z</time>
      </trkpt>
      <trkpt lat="49.34576" lon="-1.49382">
        <ele>20.344066</ele>
        <time>2022-01-19T22:30:21.687Z</time>
      </trkpt>
      <trkpt lat="49.34573" lon="-1.49388">
        <ele>20.385749</ele>
        <time>2022-01-19T22:30:22.734Z</time>
      </trkpt>
      <trkpt lat="49.34555" lon="-1.49427">
        <ele>20.63226</ele>
        <time>2022-01-19T22:30:28.149Z</time>
      </trkpt>
      <trkpt lat="49.3453" lon="-1.49444">
        <ele>20.602725</ele>
        <time>2022-01-19T22:30:32.977Z</time>
      </trkpt>
      <trkpt lat="49.34472" lon="-1.49469">
        <ele>19.983285</ele>
        <time>2022-01-19T22:30:43.294Z</time>
      </trkpt>
      <trkpt lat="49.34347" lon="-1.49565">
        <ele>18.098423</ele>
        <time>2022-01-19T22:31:05.956Z</time>
      </trkpt>
      <trkpt lat="49.34261" lon="-1.49667">
        <ele>15.532994</ele>
        <time>2022-01-19T22:31:22.199Z</time>
      </trkpt>
      <trkpt lat="49.34199" lon="-1.49711">
        <ele>14.05372</ele>
        <time>2022-01-19T22:31:32.038Z</time>
      </trkpt>
      <trkpt lat="49.34179" lon="-1.49733">
        <ele>13.567027</ele>
        <time>2022-01-19T22:31:35.703Z</time>
      </trkpt>
      <trkpt lat="49.34111" lon="-1.49829">
        <ele>11.754016</ele>
        <time>2022-01-19T22:31:49.828Z</time>
      </trkpt>
      <trkpt lat="49.34061" lon="-1.49845">
        <ele>11.119473</ele>
        <time>2022-01-19T22:31:58.295Z</time>
      </trkpt>
      <trkpt lat="49.33958" lon="-1.49826">
        <ele>11.06488</ele>
        <time>2022-01-19T22:32:16.932Z</time>
      </trkpt>
      <trkpt lat="49.33901" lon="-1.49802">
        <ele>11.054585</ele>
        <time>2022-01-19T22:32:27.741Z</time>
      </trkpt>
      <trkpt lat="49.33889" lon="-1.49797">
        <ele>11.165219</ele>
        <time>2022-01-19T22:32:30.077Z</time>
      </trkpt>
      <trkpt lat="49.33884" lon="-1.49791">
        <ele>11.221302</ele>
        <time>2022-01-19T22:32:31.312Z</time>
      </trkpt>
      <trkpt lat="49.33878" lon="-1.49786">
        <ele>11.277384</ele>
        <time>2022-01-19T22:32:32.464Z</time>
      </trkpt>
      <trkpt lat="49.33826" lon="-1.49767">
        <ele>11.757548</ele>
        <time>2022-01-19T22:32:42.555Z</time>
      </trkpt>
      <trkpt lat="49.33822" lon="-1.49777">
        <ele>11.828122</ele>
        <time>2022-01-19T22:32:44.796Z</time>
      </trkpt>
      <trkpt lat="49.33801" lon="-1.4983">
        <ele>12.184597</ele>
        <time>2022-01-19T22:32:56.126Z</time>
      </trkpt>
      <trkpt lat="49.33796" lon="-1.49848">
        <ele>12.298326</ele>
        <time>2022-01-19T22:32:59.723Z</time>
      </trkpt>
      <trkpt lat="49.33793" lon="-1.49861">
        <ele>12.380242</ele>
        <time>2022-01-19T22:33:02.318Z</time>
      </trkpt>
      <trkpt lat="49.33787" lon="-1.49885">
        <ele>12.528604</ele>
        <time>2022-01-19T22:33:07.052Z</time>
      </trkpt>
      <trkpt lat="49.33771" lon="-1.49917">
        <ele>13.02536</ele>
        <time>2022-01-19T22:33:14.325Z</time>
      </trkpt>
      <trkpt lat="49.33731" lon="-1.49986">
        <ele>14.78799</ele>
        <time>2022-01-19T22:33:31.649Z</time>
      </trkpt>
      <trkpt lat="49.33742" lon="-1.50019">
        <ele>15.490147</ele>
        <time>2022-01-19T22:33:36.893Z</time>
      </trkpt>
      <trkpt lat="49.33759" lon="-1.5011">
        <ele>17.265716</ele>
        <time>2022-01-19T22:33:50.527Z</time>
      </trkpt>
      <trkpt lat="49.33707" lon="-1.50154">
        <ele>19.522206</ele>
        <time>2022-01-19T22:34:08.372Z</time>
      </trkpt>
      <trkpt lat="49.3365" lon="-1.50209">
        <ele>22.399002</ele>
        <time>2022-01-19T22:34:28.729Z</time>
      </trkpt>
      <trkpt lat="49.33603" lon="-1.50282">
        <ele>25.291991</ele>
        <time>2022-01-19T22:34:49.404Z</time>
      </trkpt>
      <trkpt lat="49.3356" lon="-1.50379">
        <ele>27.496141</ele>
        <time>2022-01-19T22:35:11.629Z</time>
      </trkpt>
      <trkpt lat="49.3356" lon="-1.50394">
        <ele>27.763649</ele>
        <time>2022-01-19T22:35:14.405Z</time>
      </trkpt>
      <trkpt lat="49.33556" lon="-1.5042">
        <ele>28.238242</ele>
        <time>2022-01-19T22:35:19.423Z</time>
      </trkpt>
      <trkpt lat="49.3358" lon="-1.50444">
        <ele>29.028593</ele>
        <time>2022-01-19T22:35:25.519Z</time>
      </trkpt>
      <trkpt lat="49.33606" lon="-1.50493">
        <ele>30.146645</ele>
        <time>2022-01-19T22:35:34.107Z</time>
      </trkpt>
      <trkpt lat="49.33621" lon="-1.50558">
        <ele>31.186687</ele>
        <time>2022-01-19T22:35:43.468Z</time>
      </trkpt>
      <trkpt lat="49.33622" lon="-1.50583">
        <ele>31.53587</ele>
        <time>2022-01-19T22:35:46.846Z</time>
      </trkpt>
      <trkpt lat="49.33625" lon="-1.50598">
        <ele>31.745098</ele>
        <time>2022-01-19T22:35:48.862Z</time>
      </trkpt>
      <trkpt lat="49.33623" lon="-1.506">
        <ele>31.796443</ele>
        <time>2022-01-19T22:35:49.381Z</time>
      </trkpt>
      <trkpt lat="49.3362" lon="-1.50605">
        <ele>31.888242</ele>
        <time>2022-01-19T22:35:50.201Z</time>
      </trkpt>
      <trkpt lat="49.33608" lon="-1.50605">
        <ele>32.144707</ele>
        <time>2022-01-19T22:35:53.658Z</time>
      </trkpt>
      <trkpt lat="49.33543" lon="-1.50617">
        <ele>33.541099</ele>
        <time>2022-01-19T22:36:12.377Z</time>
      </trkpt>
      <trkpt lat="49.33484" lon="-1.5065">
        <ele>35.077871</ele>
        <time>2022-01-19T22:36:30.443Z</time>
      </trkpt>
      <trkpt lat="49.33456" lon="-1.50671">
        <ele>35.979836</ele>
        <time>2022-01-19T22:36:39.588Z</time>
      </trkpt>
      <trkpt lat="49.33382" lon="-1.5075">
        <ele>38.595431</ele>
        <time>2022-01-19T22:37:05.752Z</time>
      </trkpt>
      <trkpt lat="49.33363" lon="-1.50755">
        <ele>39.163575</ele>
        <time>2022-01-19T22:37:11.349Z</time>
      </trkpt>
      <trkpt lat="49.33298" lon="-1.50824">
        <ele>39.931591</ele>
        <time>2022-01-19T22:37:33.841Z</time>
      </trkpt>
      <trkpt lat="49.33303" lon="-1.50846">
        <ele>40.014458</ele>
        <time>2022-01-19T22:37:37.978Z</time>
      </trkpt>
      <trkpt lat="49.33305" lon="-1.50885">
        <ele>40.159065</ele>
        <time>2022-01-19T22:37:45.216Z</time>
      </trkpt>
      <trkpt lat="49.33299" lon="-1.51113">
        <ele>39.698694</ele>
        <time>2022-01-19T22:38:26.201Z</time>
      </trkpt>
      <trkpt lat="49.33303" lon="-1.51153">
        <ele>39.385145</ele>
        <time>2022-01-19T22:38:33.103Z</time>
      </trkpt>
      <trkpt lat="49.33335" lon="-1.51267">
        <ele>38.44585</ele>
        <time>2022-01-19T22:38:55.011Z</time>
      </trkpt>
      <trkpt lat="49.33377" lon="-1.51322">
        <ele>38.407133</ele>
        <time>2022-01-19T22:39:10.510Z</time>
      </trkpt>
      <trkpt lat="49.33385" lon="-1.5134">
        <ele>38.397289</ele>
        <time>2022-01-19T22:39:14.450Z</time>
      </trkpt>
      <trkpt lat="49.33344" lon="-1.51468">
        <ele>38.332724</ele>
        <time>2022-01-19T22:39:30.799Z</time>
      </trkpt>
      <trkpt lat="49.33311" lon="-1.51536">
        <ele>38.813865</ele>
        <time>2022-01-19T22:39:41.156Z</time>
      </trkpt>
      <trkpt lat="49.33245" lon="-1.51695">
        <ele>40.330748</ele>
        <time>2022-01-19T22:40:05.038Z</time>
      </trkpt>
      <trkpt lat="49.33209" lon="-1.5171">
        <ele>40.929573</ele>
        <time>2022-01-19T22:40:12.504Z</time>
      </trkpt>
      <trkpt lat="49.33172" lon="-1.51744">
        <ele>41.742783</ele>
        <time>2022-01-19T22:40:21.059Z</time>
      </trkpt>
      <trkpt lat="49.33147" lon="-1.51787">
        <ele>42.450916</ele>
        <time>2022-01-19T22:40:28.583Z</time>
      </trkpt>
      <trkpt lat="49.33131" lon="-1.51873">
        <ele>43.561535</ele>
        <time>2022-01-19T22:40:40.491Z</time>
      </trkpt>
      <trkpt lat="49.33049" lon="-1.52337">
        <ele>49.543071</ele>
        <time>2022-01-19T22:41:44.508Z</time>
      </trkpt>
      <trkpt lat="49.32988" lon="-1.52675">
        <ele>50.814212</ele>
        <time>2022-01-19T22:42:26.422Z</time>
      </trkpt>
      <trkpt lat="49.32775" lon="-1.53448">
        <ele>39.570409</ele>
        <time>2022-01-19T22:43:46.278Z</time>
      </trkpt>
      <trkpt lat="49.32772" lon="-1.53465">
        <ele>39.278049</ele>
        <time>2022-01-19T22:43:47.725Z</time>
      </trkpt>
      <trkpt lat="49.32832" lon="-1.53446">
        <ele>36.356344</ele>
        <time>2022-01-19T22:43:55.519Z</time>
      </trkpt>
      <trkpt lat="49.32841" lon="-1.53511">
        <ele>34.289455</ele>
        <time>2022-01-19T22:44:05.183Z</time>
      </trkpt>
      <trkpt lat="49.32843" lon="-1.53529">
        <ele>33.724541</ele>
        <time>2022-01-19T22:44:07.907Z</time>
      </trkpt>
      <trkpt lat="49.32869" lon="-1.53549">
        <ele>32.296168</ele>
        <time>2022-01-19T22:44:14.590Z</time>
      </trkpt>
      <trkpt lat="49.32911" lon="-1.53583">
        <ele>30.253882</ele>
        <time>2022-01-19T22:44:25.670Z</time>
      </trkpt>
      <trkpt lat="49.32929" lon="-1.53597">
        <ele>29.663032</ele>
        <time>2022-01-19T22:44:30.285Z</time>
      </trkpt>
      <trkpt lat="49.32925" lon="-1.536">
        <ele>29.535478</ele>
        <time>2022-01-19T22:44:31.331Z</time>
      </trkpt>
      <trkpt lat="49.32844" lon="-1.53717">
        <ele>26.255592</ele>
        <time>2022-01-19T22:44:59.109Z</time>
      </trkpt>
      <trkpt lat="49.32816" lon="-1.53749">
        <ele>25.325245</ele>
        <time>2022-01-19T22:45:08.334Z</time>
      </trkpt>
      <trkpt lat="49.32735" lon="-1.53828">
        <ele>25.040425</ele>
        <time>2022-01-19T22:45:35.012Z</time>
      </trkpt>
      <trkpt lat="49.32598" lon="-1.53947">
        <ele>24.765734</ele>
        <time>2022-01-19T22:46:18.941Z</time>
      </trkpt>
      <trkpt lat="49.32532" lon="-1.54066">
        <ele>24.721259</ele>
        <time>2022-01-19T22:46:47.505Z</time>
      </trkpt>
      <trkpt lat="49.3251" lon="-1.54079">
        <ele>24.713293</ele>
        <time>2022-01-19T22:46:54.027Z</time>
      </trkpt>
      <trkpt lat="49.32493" lon="-1.54129">
        <ele>24.700756</ele>
        <time>2022-01-19T22:47:04.486Z</time>
      </trkpt>
      <trkpt lat="49.32458" lon="-1.54167">
        <ele>24.686597</ele>
        <time>2022-01-19T22:47:16.303Z</time>
      </trkpt>
      <trkpt lat="49.32439" lon="-1.5422">
        <ele>24.673295</ele>
        <time>2022-01-19T22:47:27.344Z</time>
      </trkpt>
      <trkpt lat="49.3241" lon="-1.5427">
        <ele>24.663493</ele>
        <time>2022-01-19T22:47:39.673Z</time>
      </trkpt>
      <trkpt lat="49.32388" lon="-1.54318">
        <ele>24.690144</ele>
        <time>2022-01-19T22:47:50.352Z</time>
      </trkpt>
      <trkpt lat="49.32342" lon="-1.54381">
        <ele>24.732669</ele>
        <time>2022-01-19T22:48:07.419Z</time>
      </trkpt>
      <trkpt lat="49.32341" lon="-1.54384">
        <ele>24.734193</ele>
        <time>2022-01-19T22:48:07.888Z</time>
      </trkpt>
      <trkpt lat="49.32346" lon="-1.5441">
        <ele>24.746701</ele>
        <time>2022-01-19T22:48:12.983Z</time>
      </trkpt>
      <trkpt lat="49.32346" lon="-1.54456">
        <ele>24.767408</ele>
        <time>2022-01-19T22:48:21.341Z</time>
      </trkpt>
      <trkpt lat="49.32337" lon="-1.54539">
        <ele>25.525119</ele>
        <time>2022-01-19T22:48:36.951Z</time>
      </trkpt>
      <trkpt lat="49.32335" lon="-1.54552">
        <ele>25.73423</ele>
        <time>2022-01-19T22:48:39.222Z</time>
      </trkpt>
      <trkpt lat="49.32334" lon="-1.54561">
        <ele>25.898285</ele>
        <time>2022-01-19T22:48:41.064Z</time>
      </trkpt>
      <trkpt lat="49.32345" lon="-1.54582">
        <ele>26.332971</ele>
        <time>2022-01-19T22:48:46.020Z</time>
      </trkpt>
      <trkpt lat="49.32377" lon="-1.54652">
        <ele>27.751895</ele>
        <time>2022-01-19T22:49:02.125Z</time>
      </trkpt>
      <trkpt lat="49.32376" lon="-1.54726">
        <ele>28.96624</ele>
        <time>2022-01-19T22:49:16.363Z</time>
      </trkpt>
      <trkpt lat="49.32422" lon="-1.54825">
        <ele>31.580243</ele>
        <time>2022-01-19T22:49:39.998Z</time>
      </trkpt>
      <trkpt lat="49.32427" lon="-1.54831">
        <ele>31.797232</ele>
        <time>2022-01-19T22:49:41.833Z</time>
      </trkpt>
      <trkpt lat="49.32426" lon="-1.54834">
        <ele>31.865381</ele>
        <time>2022-01-19T22:49:42.583Z</time>
      </trkpt>
      <trkpt lat="49.32468" lon="-1.54936">
        <ele>34.594859</ele>
        <time>2022-01-19T22:50:05.483Z</time>
      </trkpt>
      <trkpt lat="49.32494" lon="-1.55086">
        <ele>36.802378</ele>
        <time>2022-01-19T22:50:34.610Z</time>
      </trkpt>
      <trkpt lat="49.32501" lon="-1.55179">
        <ele>37.809104</ele>
        <time>2022-01-19T22:50:51.867Z</time>
      </trkpt>
      <trkpt lat="49.32509" lon="-1.55219">
        <ele>38.254876</ele>
        <time>2022-01-19T22:50:59.453Z</time>
      </trkpt>
      <trkpt lat="49.32508" lon="-1.55228">
        <ele>38.360734</ele>
        <time>2022-01-19T22:51:01.281Z</time>
      </trkpt>
      <trkpt lat="49.32512" lon="-1.55233">
        <ele>38.440976</ele>
        <time>2022-01-19T22:51:02.638Z</time>
      </trkpt>
      <trkpt lat="49.32515" lon="-1.55231">
        <ele>38.486247</ele>
        <time>2022-01-19T22:51:03.046Z</time>
      </trkpt>
      <trkpt lat="49.32607" lon="-1.55216">
        <ele>39.203985</ele>
        <time>2022-01-19T22:51:19.945Z</time>
      </trkpt>
      <trkpt lat="49.32626" lon="-1.55225">
        <ele>39.342912</ele>
        <time>2022-01-19T22:51:23.390Z</time>
      </trkpt>
      <trkpt lat="49.32637" lon="-1.55248">
        <ele>39.480054</ele>
        <time>2022-01-19T22:51:26.864Z</time>
      </trkpt>
      <trkpt lat="49.32648" lon="-1.55302">
        <ele>39.745615</ele>
        <time>2022-01-19T22:51:33.402Z</time>
      </trkpt>
      <trkpt lat="49.32661" lon="-1.55319">
        <ele>39.876447</ele>
        <time>2022-01-19T22:51:36.774Z</time>
      </trkpt>
      <trkpt lat="49.32726" lon="-1.55487">
        <ele>45.502438</ele>
        <time>2022-01-19T22:52:05.394Z</time>
      </trkpt>
      <trkpt lat="49.32717" lon="-1.55651">
        <ele>53.443544</ele>
        <time>2022-01-19T22:52:43.074Z</time>
      </trkpt>
      <trkpt lat="49.32696" lon="-1.55767">
        <ele>61.526158</ele>
        <time>2022-01-19T22:53:17.545Z</time>
      </trkpt>
      <trkpt lat="49.32678" lon="-1.55894">
        <ele>69.478378</ele>
        <time>2022-01-19T22:53:54.540Z</time>
      </trkpt>
      <trkpt lat="49.32675" lon="-1.55925">
        <ele>71.200609</ele>
        <time>2022-01-19T22:54:03.748Z</time>
      </trkpt>
      <trkpt lat="49.32663" lon="-1.55967">
        <ele>73.674807</ele>
        <time>2022-01-19T22:54:15.022Z</time>
      </trkpt>
      <trkpt lat="49.32661" lon="-1.56009">
        <ele>75.995511</ele>
        <time>2022-01-19T22:54:24.734Z</time>
      </trkpt>
      <trkpt lat="49.32672" lon="-1.56031">
        <ele>77.513581</ele>
        <time>2022-01-19T22:54:31.890Z</time>
      </trkpt>
      <trkpt lat="49.32713" lon="-1.56042">
        <ele>81.05616</ele>
        <time>2022-01-19T22:54:45.838Z</time>
      </trkpt>
      <trkpt lat="49.32895" lon="-1.56099">
        <ele>85.848211</ele>
        <time>2022-01-19T22:55:38.514Z</time>
      </trkpt>
      <trkpt lat="49.32973" lon="-1.56113">
        <ele>89.059499</ele>
        <time>2022-01-19T22:56:01.174Z</time>
      </trkpt>
      <trkpt lat="49.3302" lon="-1.5613">
        <ele>91.051224</ele>
        <time>2022-01-19T22:56:16.164Z</time>
      </trkpt>
      <trkpt lat="49.3304" lon="-1.56137">
        <ele>91.882309</ele>
        <time>2022-01-19T22:56:22.005Z</time>
      </trkpt>
      <trkpt lat="49.33032" lon="-1.56161">
        <ele>92.579651</ele>
        <time>2022-01-19T22:56:27.864Z</time>
      </trkpt>
      <trkpt lat="49.33028" lon="-1.56174">
        <ele>92.966315</ele>
        <time>2022-01-19T22:56:30.550Z</time>
      </trkpt>
      <trkpt lat="49.33023" lon="-1.56193">
        <ele>93.785302</ele>
        <time>2022-01-19T22:56:35.116Z</time>
      </trkpt>
      <trkpt lat="49.33019" lon="-1.56212">
        <ele>94.695848</ele>
        <time>2022-01-19T22:56:39.705Z</time>
      </trkpt>
      <trkpt lat="49.3294" lon="-1.56207">
        <ele>100.482547</ele>
        <time>2022-01-19T22:57:06.442Z</time>
      </trkpt>
      <trkpt lat="49.3291" lon="-1.56214">
        <ele>102.661515</ele>
        <time>2022-01-19T22:57:18.168Z</time>
      </trkpt>
      <trkpt lat="49.32883" lon="-1.56214">
        <ele>104.572136</ele>
        <time>2022-01-19T22:57:27.816Z</time>
      </trkpt>
      <trkpt lat="49.32873" lon="-1.56214">
        <ele>105.339279</ele>
        <time>2022-01-19T22:57:31.837Z</time>
      </trkpt>
      <trkpt lat="49.32844" lon="-1.56216">
        <ele>107.381946</ele>
        <time>2022-01-19T22:57:41.672Z</time>
      </trkpt>
      <trkpt lat="49.32838" lon="-1.56216">
        <ele>107.841663</ele>
        <time>2022-01-19T22:57:43.873Z</time>
      </trkpt>
      <trkpt lat="49.32832" lon="-1.56217">
        <ele>108.280217</ele>
        <time>2022-01-19T22:57:46.915Z</time>
      </trkpt>
      <trkpt lat="49.32802" lon="-1.56224">
        <ele>110.418832</ele>
        <time>2022-01-19T22:57:57.104Z</time>
      </trkpt>
      <trkpt lat="49.3279" lon="-1.56225">
        <ele>111.226314</ele>
        <time>2022-01-19T22:58:01.938Z</time>
      </trkpt>
      <trkpt lat="49.32787" lon="-1.56238">
        <ele>111.861744</ele>
        <time>2022-01-19T22:58:04.799Z</time>
      </trkpt>
      <trkpt lat="49.32784" lon="-1.56252">
        <ele>112.52551</ele>
        <time>2022-01-19T22:58:07.655Z</time>
      </trkpt>
      <trkpt lat="49.32779" lon="-1.5627">
        <ele>113.439601</ele>
        <time>2022-01-19T22:58:12.915Z</time>
      </trkpt>
      <trkpt lat="49.32768" lon="-1.5631">
        <ele>115.456504</ele>
        <time>2022-01-19T22:58:21.983Z</time>
      </trkpt>
      <trkpt lat="49.32765" lon="-1.56316">
        <ele>115.788789</ele>
        <time>2022-01-19T22:58:24.274Z</time>
      </trkpt>
      <trkpt lat="49.32756" lon="-1.56335">
        <ele>116.846903</ele>
        <time>2022-01-19T22:58:29.123Z</time>
      </trkpt>
      <trkpt lat="49.32742" lon="-1.56365">
        <ele>118.579986</ele>
        <time>2022-01-19T22:58:37.220Z</time>
      </trkpt>
      <trkpt lat="49.32739" lon="-1.56372">
        <ele>118.902666</ele>
        <time>2022-01-19T22:58:38.831Z</time>
      </trkpt>
      <trkpt lat="49.32729" lon="-1.56393">
        <ele>119.320085</ele>
        <time>2022-01-19T22:58:43.945Z</time>
      </trkpt>
      <trkpt lat="49.32721" lon="-1.56412">
        <ele>119.678771</ele>
        <time>2022-01-19T22:58:48.968Z</time>
      </trkpt>
      <trkpt lat="49.32714" lon="-1.56407">
        <ele>119.879717</ele>
        <time>2022-01-19T22:58:51.537Z</time>
      </trkpt>
      <trkpt lat="49.32684" lon="-1.56392">
        <ele>120.627892</ele>
        <time>2022-01-19T22:59:00.982Z</time>
      </trkpt>
      <trkpt lat="49.32681" lon="-1.56392">
        <ele>120.710056</ele>
        <time>2022-01-19T22:59:01.953Z</time>
      </trkpt>
      <trkpt lat="49.32684" lon="-1.56392">
        <ele>120.792219</ele>
        <time>2022-01-19T22:59:02.922Z</time>
      </trkpt>
      <trkpt lat="49.32714" lon="-1.56407">
        <ele>121.540394</ele>
        <time>2022-01-19T22:59:11.755Z</time>
      </trkpt>
      <trkpt lat="49.32721" lon="-1.56412">
        <ele>121.74134</ele>
        <time>2022-01-19T22:59:14.099Z</time>
      </trkpt>
      <trkpt lat="49.32717" lon="-1.56423">
        <ele>121.945809</ele>
        <time>2022-01-19T22:59:16.469Z</time>
      </trkpt>
      <trkpt lat="49.32714" lon="-1.56427">
        <ele>122.042567</ele>
        <time>2022-01-19T22:59:17.591Z</time>
      </trkpt>
      <trkpt lat="49.3271" lon="-1.56431">
        <ele>122.153708</ele>
        <time>2022-01-19T22:59:18.893Z</time>
      </trkpt>
      <trkpt lat="49.32686" lon="-1.56493">
        <ele>123.193305</ele>
        <time>2022-01-19T22:59:32.046Z</time>
      </trkpt>
      <trkpt lat="49.32685" lon="-1.56505">
        <ele>123.020469</ele>
        <time>2022-01-19T22:59:34.232Z</time>
      </trkpt>
      <trkpt lat="49.32684" lon="-1.56519">
        <ele>122.825173</ele>
        <time>2022-01-19T22:59:36.738Z</time>
      </trkpt>
      <trkpt lat="49.32696" lon="-1.56542">
        <ele>122.408664</ele>
        <time>2022-01-19T22:59:42.025Z</time>
      </trkpt>
      <trkpt lat="49.32705" lon="-1.56558">
        <ele>122.120777</ele>
        <time>2022-01-19T22:59:45.478Z</time>
      </trkpt>
      <trkpt lat="49.32728" lon="-1.56593">
        <ele>121.4097</ele>
        <time>2022-01-19T22:59:54.111Z</time>
      </trkpt>
      <trkpt lat="49.32745" lon="-1.56687">
        <ele>120.054265</ele>
        <time>2022-01-19T23:00:10.010Z</time>
      </trkpt>
      <trkpt lat="49.32743" lon="-1.56735">
        <ele>119.381663</ele>
        <time>2022-01-19T23:00:17.926Z</time>
      </trkpt>
      <trkpt lat="49.32742" lon="-1.56743">
        <ele>119.167473</ele>
        <time>2022-01-19T23:00:19.073Z</time>
      </trkpt>
      <trkpt lat="49.32741" lon="-1.5675">
        <ele>118.956055</ele>
        <time>2022-01-19T23:00:20.283Z</time>
      </trkpt>
      <trkpt lat="49.32737" lon="-1.56758">
        <ele>118.66309</ele>
        <time>2022-01-19T23:00:21.924Z</time>
      </trkpt>
      <trkpt lat="49.32721" lon="-1.56762">
        <ele>118.009284</ele>
        <time>2022-01-19T23:00:25.770Z</time>
      </trkpt>
      <trkpt lat="49.32725" lon="-1.56776">
        <ele>117.584296</ele>
        <time>2022-01-19T23:00:28.097Z</time>
      </trkpt>
      <trkpt lat="49.32731" lon="-1.56816">
        <ele>116.434619</ele>
        <time>2022-01-19T23:00:34.595Z</time>
      </trkpt>
      <trkpt lat="49.32738" lon="-1.56862">
        <ele>115.140481</ele>
        <time>2022-01-19T23:00:41.626Z</time>
      </trkpt>
      <trkpt lat="49.32748" lon="-1.56942">
        <ele>112.863459</ele>
        <time>2022-01-19T23:00:53.953Z</time>
      </trkpt>
      <trkpt lat="49.32751" lon="-1.5696">
        <ele>112.356903</ele>
        <time>2022-01-19T23:00:56.671Z</time>
      </trkpt>
      <trkpt lat="49.32759" lon="-1.57001">
        <ele>111.166787</ele>
        <time>2022-01-19T23:01:03.184Z</time>
      </trkpt>
      <trkpt lat="49.32758" lon="-1.57034">
        <ele>110.201341</ele>
        <time>2022-01-19T23:01:08.403Z</time>
      </trkpt>
      <trkpt lat="49.32762" lon="-1.57066">
        <ele>109.253792</ele>
        <time>2022-01-19T23:01:13.438Z</time>
      </trkpt>
      <trkpt lat="49.32755" lon="-1.57106">
        <ele>108.089648</ele>
        <time>2022-01-19T23:01:19.829Z</time>
      </trkpt>
      <trkpt lat="49.32754" lon="-1.5711">
        <ele>107.967606</ele>
        <time>2022-01-19T23:01:20.440Z</time>
      </trkpt>
      <trkpt lat="49.32748" lon="-1.57166">
        <ele>106.330978</ele>
        <time>2022-01-19T23:01:29.325Z</time>
      </trkpt>
      <trkpt lat="49.32712" lon="-1.57179">
        <ele>104.72153</ele>
        <time>2022-01-19T23:01:37.921Z</time>
      </trkpt>
      <trkpt lat="49.32694" lon="-1.57179">
        <ele>103.926171</ele>
        <time>2022-01-19T23:01:42.018Z</time>
      </trkpt>
      <trkpt lat="49.32689" lon="-1.57183">
        <ele>103.611529</ele>
        <time>2022-01-19T23:01:43.278Z</time>
      </trkpt>
      <trkpt lat="49.3269" lon="-1.57222">
        <ele>101.674235</ele>
        <time>2022-01-19T23:01:49.237Z</time>
      </trkpt>
      <trkpt lat="49.32685" lon="-1.57279">
        <ele>98.882265</ele>
        <time>2022-01-19T23:01:57.568Z</time>
      </trkpt>
      <trkpt lat="49.32698" lon="-1.57291">
        <ele>97.727017</ele>
        <time>2022-01-19T23:02:00.992Z</time>
      </trkpt>
      <trkpt lat="49.32729" lon="-1.57315">
        <ele>95.154224</ele>
        <time>2022-01-19T23:02:08.416Z</time>
      </trkpt>
      <trkpt lat="49.32737" lon="-1.5733">
        <ele>94.174531</ele>
        <time>2022-01-19T23:02:11.289Z</time>
      </trkpt>
      <trkpt lat="49.32748" lon="-1.57359">
        <ele>92.532388</ele>
        <time>2022-01-19T23:02:15.778Z</time>
      </trkpt>
      <trkpt lat="49.32756" lon="-1.57397">
        <ele>90.564369</ele>
        <time>2022-01-19T23:02:21.196Z</time>
      </trkpt>
      <trkpt lat="49.32754" lon="-1.57425">
        <ele>88.513821</ele>
        <time>2022-01-19T23:02:24.993Z</time>
      </trkpt>
      <trkpt lat="49.32739" lon="-1.57438">
        <ele>86.469634</ele>
        <time>2022-01-19T23:02:28.356Z</time>
      </trkpt>
      <trkpt lat="49.32731" lon="-1.57441">
        <ele>85.394347</ele>
        <time>2022-01-19T23:02:30.127Z</time>
      </trkpt>
      <trkpt lat="49.32703" lon="-1.57458">
        <ele>81.843791</ele>
        <time>2022-01-19T23:02:35.975Z</time>
      </trkpt>
      <trkpt lat="49.32697" lon="-1.57473">
        <ele>80.414043</ele>
        <time>2022-01-19T23:02:38.311Z</time>
      </trkpt>
      <trkpt lat="49.32661" lon="-1.57649">
        <ele>66.370471</ele>
        <time>2022-01-19T23:03:02.099Z</time>
      </trkpt>
      <trkpt lat="49.32645" lon="-1.57731">
        <ele>60.707461</ele>
        <time>2022-01-19T23:03:13.288Z</time>
      </trkpt>
      <trkpt lat="49.32635" lon="-1.57815">
        <ele>55.00435</ele>
        <time>2022-01-19T23:03:24.889Z</time>
      </trkpt>
      <trkpt lat="49.32625" lon="-1.5788">
        <ele>50.602352</ele>
        <time>2022-01-19T23:03:34.072Z</time>
      </trkpt>
      <trkpt lat="49.32622" lon="-1.579">
        <ele>49.756593</ele>
        <time>2022-01-19T23:03:36.262Z</time>
      </trkpt>
      <trkpt lat="49.32599" lon="-1.58003">
        <ele>46.008429</ele>
        <time>2022-01-19T23:03:48.263Z</time>
      </trkpt>
      <trkpt lat="49.32605" lon="-1.58015">
        <ele>45.471753</ele>
        <time>2022-01-19T23:03:49.555Z</time>
      </trkpt>
      <trkpt lat="49.32593" lon="-1.58072">
        <ele>43.39531</ele>
        <time>2022-01-19T23:03:54.760Z</time>
      </trkpt>
      <trkpt lat="49.32607" lon="-1.58162">
        <ele>40.448867</ele>
        <time>2022-01-19T23:04:03.335Z</time>
      </trkpt>
      <trkpt lat="49.32624" lon="-1.58424">
        <ele>35.401933</ele>
        <time>2022-01-19T23:04:28.356Z</time>
      </trkpt>
      <trkpt lat="49.32618" lon="-1.58453">
        <ele>34.94143</ele>
        <time>2022-01-19T23:04:31.267Z</time>
      </trkpt>
      <trkpt lat="49.32595" lon="-1.58493">
        <ele>34.131128</ele>
        <time>2022-01-19T23:04:36.386Z</time>
      </trkpt>
      <trkpt lat="49.32577" lon="-1.58602">
        <ele>32.432656</ele>
        <time>2022-01-19T23:04:47.329Z</time>
      </trkpt>
      <trkpt lat="49.32567" lon="-1.58635">
        <ele>31.882448</ele>
        <time>2022-01-19T23:04:50.931Z</time>
      </trkpt>
      <trkpt lat="49.3255" lon="-1.58649">
        <ele>31.438443</ele>
        <time>2022-01-19T23:04:53.941Z</time>
      </trkpt>
      <trkpt lat="49.32546" lon="-1.58647">
        <ele>31.341052</ele>
        <time>2022-01-19T23:04:54.524Z</time>
      </trkpt>
      <trkpt lat="49.32561" lon="-1.58682">
        <ele>31.122341</ele>
        <time>2022-01-19T23:05:01.921Z</time>
      </trkpt>
      <trkpt lat="49.32617" lon="-1.58814">
        <ele>30.441698</ele>
        <time>2022-01-19T23:05:30.592Z</time>
      </trkpt>
      <trkpt lat="49.32615" lon="-1.58831">
        <ele>30.36792</ele>
        <time>2022-01-19T23:05:33.707Z</time>
      </trkpt>
      <trkpt lat="49.32589" lon="-1.58877">
        <ele>30.101831</ele>
        <time>2022-01-19T23:05:44.885Z</time>
      </trkpt>
      <trkpt lat="49.32586" lon="-1.58885">
        <ele>30.070862</ele>
        <time>2022-01-19T23:05:46.500Z</time>
      </trkpt>
      <trkpt lat="49.32589" lon="-1.58889">
        <ele>30.051582</ele>
        <time>2022-01-19T23:05:47.150Z</time>
      </trkpt>
      <trkpt lat="49.3259" lon="-1.58894">
        <ele>30.033713</ele>
        <time>2022-01-19T23:05:47.788Z</time>
      </trkpt>
      <trkpt lat="49.32596" lon="-1.58916">
        <ele>29.958611</ele>
        <time>2022-01-19T23:05:50.478Z</time>
      </trkpt>
      <trkpt lat="49.32602" lon="-1.58927">
        <ele>29.910588</ele>
        <time>2022-01-19T23:05:52.176Z</time>
      </trkpt>
      <trkpt lat="49.32608" lon="-1.58933">
        <ele>29.874753</ele>
        <time>2022-01-19T23:05:53.434Z</time>
      </trkpt>
      <trkpt lat="49.32587" lon="-1.58949">
        <ele>29.758713</ele>
        <time>2022-01-19T23:05:59.979Z</time>
      </trkpt>
      <trkpt lat="49.32541" lon="-1.58971">
        <ele>29.517578</ele>
        <time>2022-01-19T23:06:13.544Z</time>
      </trkpt>
      <trkpt lat="49.32525" lon="-1.58986">
        <ele>29.424688</ele>
        <time>2022-01-19T23:06:18.779Z</time>
      </trkpt>
      <trkpt lat="49.32477" lon="-1.59073">
        <ele>28.483819</ele>
        <time>2022-01-19T23:06:39.064Z</time>
      </trkpt>
      <trkpt lat="49.32436" lon="-1.59123">
        <ele>27.195863</ele>
        <time>2022-01-19T23:06:52.492Z</time>
      </trkpt>
      <trkpt lat="49.3242" lon="-1.59144">
        <ele>26.686381</ele>
        <time>2022-01-19T23:06:57.743Z</time>
      </trkpt>
      <trkpt lat="49.32409" lon="-1.59173">
        <ele>26.140409</ele>
        <time>2022-01-19T23:07:03.242Z</time>
      </trkpt>
      <trkpt lat="49.32389" lon="-1.59305">
        <ele>23.596812</ele>
        <time>2022-01-19T23:07:24.815Z</time>
      </trkpt>
      <trkpt lat="49.3239" lon="-1.59436">
        <ele>20.542792</ele>
        <time>2022-01-19T23:07:45.444Z</time>
      </trkpt>
      <trkpt lat="49.32394" lon="-1.59479">
        <ele>19.533855</ele>
        <time>2022-01-19T23:07:52.251Z</time>
      </trkpt>
      <trkpt lat="49.32407" lon="-1.59542">
        <ele>18.092315</ele>
        <time>2022-01-19T23:08:02.750Z</time>
      </trkpt>
      <trkpt lat="49.32403" lon="-1.59579">
        <ele>17.481013</ele>
        <time>2022-01-19T23:08:08.607Z</time>
      </trkpt>
      <trkpt lat="49.32393" lon="-1.59584">
        <ele>17.209807</ele>
        <time>2022-01-19T23:08:11.341Z</time>
      </trkpt>
      <trkpt lat="49.32387" lon="-1.59585">
        <ele>17.054679</ele>
        <time>2022-01-19T23:08:12.718Z</time>
      </trkpt>
      <trkpt lat="49.32367" lon="-1.596">
        <ele>16.475202</ele>
        <time>2022-01-19T23:08:17.176Z</time>
      </trkpt>
      <trkpt lat="49.32354" lon="-1.59639">
        <ele>15.754845</ele>
        <time>2022-01-19T23:08:22.639Z</time>
      </trkpt>
      <trkpt lat="49.32335" lon="-1.59666">
        <ele>15.105176</ele>
        <time>2022-01-19T23:08:27.632Z</time>
      </trkpt>
      <trkpt lat="49.32297" lon="-1.59705">
        <ele>13.938134</ele>
        <time>2022-01-19T23:08:36.899Z</time>
      </trkpt>
      <trkpt lat="49.32261" lon="-1.59709">
        <ele>13.830999</ele>
        <time>2022-01-19T23:08:44.046Z</time>
      </trkpt>
      <trkpt lat="49.32225" lon="-1.5973">
        <ele>13.91644</ele>
        <time>2022-01-19T23:08:52.571Z</time>
      </trkpt>
      <trkpt lat="49.32199" lon="-1.59754">
        <ele>13.982781</ele>
        <time>2022-01-19T23:08:59.417Z</time>
      </trkpt>
      <trkpt lat="49.32157" lon="-1.59763">
        <ele>14.077488</ele>
        <time>2022-01-19T23:09:09.337Z</time>
      </trkpt>
      <trkpt lat="49.32133" lon="-1.59768">
        <ele>14.130645</ele>
        <time>2022-01-19T23:09:15.130Z</time>
      </trkpt>
      <trkpt lat="49.32138" lon="-1.59794">
        <ele>14.241953</ele>
        <time>2022-01-19T23:09:18.485Z</time>
      </trkpt>
      <trkpt lat="49.3213" lon="-1.59792">
        <ele>14.480546</ele>
        <time>2022-01-19T23:09:21.046Z</time>
      </trkpt>
      <trkpt lat="49.32056" lon="-1.59793">
        <ele>16.513149</ele>
        <time>2022-01-19T23:09:42.277Z</time>
      </trkpt>
      <trkpt lat="49.31989" lon="-1.5978">
        <ele>18.340661</ele>
        <time>2022-01-19T23:10:01.636Z</time>
      </trkpt>
      <trkpt lat="49.31966" lon="-1.59785">
        <ele>18.999112</ele>
        <time>2022-01-19T23:10:08.766Z</time>
      </trkpt>
      <trkpt lat="49.31871" lon="-1.59831">
        <ele>21.924477</ele>
        <time>2022-01-19T23:10:37.650Z</time>
      </trkpt>
      <trkpt lat="49.31833" lon="-1.59833">
        <ele>23.059244</ele>
        <time>2022-01-19T23:10:48.679Z</time>
      </trkpt>
      <trkpt lat="49.31783" lon="-1.59808">
        <ele>24.565341</ele>
        <time>2022-01-19T23:11:03.844Z</time>
      </trkpt>
      <trkpt lat="49.31724" lon="-1.5979">
        <ele>25.784315</ele>
        <time>2022-01-19T23:11:20.852Z</time>
      </trkpt>
      <trkpt lat="49.31649" lon="-1.59799">
        <ele>27.320987</ele>
        <time>2022-01-19T23:11:42.338Z</time>
      </trkpt>
      <trkpt lat="49.31619" lon="-1.59752">
        <ele>28.138996</ele>
        <time>2022-01-19T23:11:54.417Z</time>
      </trkpt>
      <trkpt lat="49.31605" lon="-1.59744">
        <ele>28.295551</ele>
        <time>2022-01-19T23:11:58.885Z</time>
      </trkpt>
      <trkpt lat="49.31581" lon="-1.59766">
        <ele>28.570229</ele>
        <time>2022-01-19T23:12:06.707Z</time>
      </trkpt>
      <trkpt lat="49.31529" lon="-1.59799">
        <ele>29.137344</ele>
        <time>2022-01-19T23:12:22.848Z</time>
      </trkpt>
      <trkpt lat="49.31531" lon="-1.59803">
        <ele>29.174748</ele>
        <time>2022-01-19T23:12:23.906Z</time>
      </trkpt>
      <trkpt lat="49.31568" lon="-1.59877">
        <ele>29.77488</ele>
        <time>2022-01-19T23:12:40.913Z</time>
      </trkpt>
      <trkpt lat="49.31572" lon="-1.59896">
        <ele>29.861562</ele>
        <time>2022-01-19T23:12:44.623Z</time>
      </trkpt>
      <trkpt lat="49.31524" lon="-1.59942">
        <ele>29.249489</ele>
        <time>2022-01-19T23:13:00.401Z</time>
      </trkpt>
      <trkpt lat="49.31524" lon="-1.5996">
        <ele>29.126332</ele>
        <time>2022-01-19T23:13:03.561Z</time>
      </trkpt>
      <trkpt lat="49.31571" lon="-1.60026">
        <ele>28.428034</ele>
        <time>2022-01-19T23:13:20.773Z</time>
      </trkpt>
      <trkpt lat="49.31608" lon="-1.60127">
        <ele>27.401731</ele>
        <time>2022-01-19T23:13:40.469Z</time>
      </trkpt>
      <trkpt lat="49.31637" lon="-1.60187">
        <ele>26.522785</ele>
        <time>2022-01-19T23:13:53.115Z</time>
      </trkpt>
      <trkpt lat="49.31657" lon="-1.60248">
        <ele>25.721598</ele>
        <time>2022-01-19T23:14:04.722Z</time>
      </trkpt>
      <trkpt lat="49.31681" lon="-1.60274">
        <ele>25.183884</ele>
        <time>2022-01-19T23:14:12.584Z</time>
      </trkpt>
      <trkpt lat="49.31719" lon="-1.60297">
        <ele>24.471268</ele>
        <time>2022-01-19T23:14:23.490Z</time>
      </trkpt>
      <trkpt lat="49.31744" lon="-1.60323">
        <ele>23.996155</ele>
        <time>2022-01-19T23:14:31.562Z</time>
      </trkpt>
      <trkpt lat="49.31784" lon="-1.6045">
        <ele>22.53492</ele>
        <time>2022-01-19T23:14:56.094Z</time>
      </trkpt>
      <trkpt lat="49.31799" lon="-1.6052">
        <ele>21.760666</ele>
        <time>2022-01-19T23:15:08.810Z</time>
      </trkpt>
      <trkpt lat="49.31804" lon="-1.60527">
        <ele>21.599173</ele>
        <time>2022-01-19T23:15:10.880Z</time>
      </trkpt>
      <trkpt lat="49.31813" lon="-1.60508">
        <ele>21.275042</ele>
        <time>2022-01-19T23:15:13.092Z</time>
      </trkpt>
      <trkpt lat="49.31967" lon="-1.61038">
        <ele>12.961237</ele>
        <time>2022-01-19T23:16:14.591Z</time>
      </trkpt>
      <trkpt lat="49.32033" lon="-1.61261">
        <ele>10.13899</ele>
        <time>2022-01-19T23:16:41.060Z</time>
      </trkpt>
      <trkpt lat="49.32049" lon="-1.61311">
        <ele>9.922111</ele>
        <time>2022-01-19T23:16:47.462Z</time>
      </trkpt>
      <trkpt lat="49.32074" lon="-1.61393">
        <ele>9.564654</ele>
        <time>2022-01-19T23:16:58.260Z</time>
      </trkpt>
      <trkpt lat="49.32128" lon="-1.61548">
        <ele>9.524506</ele>
        <time>2022-01-19T23:17:20.542Z</time>
      </trkpt>
      <trkpt lat="49.32278" lon="-1.61932">
        <ele>11.371749</ele>
        <time>2022-01-19T23:18:19.755Z</time>
      </trkpt>
      <trkpt lat="49.32398" lon="-1.62235">
        <ele>11.800461</ele>
        <time>2022-01-19T23:19:02.927Z</time>
      </trkpt>
      <trkpt lat="49.32648" lon="-1.62871">
        <ele>14.766878</ele>
        <time>2022-01-19T23:20:40.418Z</time>
      </trkpt>
      <trkpt lat="49.32712" lon="-1.63033">
        <ele>14.843163</ele>
        <time>2022-01-19T23:21:04.311Z</time>
      </trkpt>
      <trkpt lat="49.32805" lon="-1.63267">
        <ele>14.422537</ele>
        <time>2022-01-19T23:21:54.346Z</time>
      </trkpt>
      <trkpt lat="49.32896" lon="-1.63505">
        <ele>14.475075</ele>
        <time>2022-01-19T23:22:44.693Z</time>
      </trkpt>
      <trkpt lat="49.33022" lon="-1.6382">
        <ele>16.530324</ele>
        <time>2022-01-19T23:23:52.978Z</time>
      </trkpt>
      <trkpt lat="49.33037" lon="-1.63831">
        <ele>16.713216</ele>
        <time>2022-01-19T23:23:57.587Z</time>
      </trkpt>
      <trkpt lat="49.33088" lon="-1.63905">
        <ele>17.691103</ele>
        <time>2022-01-19T23:24:17.562Z</time>
      </trkpt>
      <trkpt lat="49.33117" lon="-1.63988">
        <ele>18.539118</ele>
        <time>2022-01-19T23:24:34.906Z</time>
      </trkpt>
      <trkpt lat="49.33118" lon="-1.64022">
        <ele>18.85128</ele>
        <time>2022-01-19T23:24:41.264Z</time>
      </trkpt>
      <trkpt lat="49.3311" lon="-1.64039">
        <ele>19.035718</ele>
        <time>2022-01-19T23:24:45.049Z</time>
      </trkpt>
      <trkpt lat="49.33103" lon="-1.64049">
        <ele>19.164172</ele>
        <time>2022-01-19T23:24:47.672Z</time>
      </trkpt>
      <trkpt lat="49.33129" lon="-1.64152">
        <ele>20.351275</ele>
        <time>2022-01-19T23:25:08.158Z</time>
      </trkpt>
      <trkpt lat="49.33155" lon="-1.64276">
        <ele>21.754209</ele>
        <time>2022-01-19T23:25:32.307Z</time>
      </trkpt>
      <trkpt lat="49.33176" lon="-1.64404">
        <ele>22.307093</ele>
        <time>2022-01-19T23:25:56.800Z</time>
      </trkpt>
      <trkpt lat="49.33199" lon="-1.64636">
        <ele>22.082213</ele>
        <time>2022-01-19T23:26:39.515Z</time>
      </trkpt>
      <trkpt lat="49.3322" lon="-1.64774">
        <ele>20.717495</ele>
        <time>2022-01-19T23:27:03.915Z</time>
      </trkpt>
      <trkpt lat="49.3328" lon="-1.65328">
        <ele>14.505525</ele>
        <time>2022-01-19T23:28:39.282Z</time>
      </trkpt>
      <trkpt lat="49.33285" lon="-1.6539">
        <ele>13.944134</ele>
        <time>2022-01-19T23:28:50.605Z</time>
      </trkpt>
      <trkpt lat="49.33276" lon="-1.65397">
        <ele>13.920126</ele>
        <time>2022-01-19T23:28:53.367Z</time>
      </trkpt>
      <trkpt lat="49.33266" lon="-1.654">
        <ele>14.063381</ele>
        <time>2022-01-19T23:28:56.231Z</time>
      </trkpt>
      <trkpt lat="49.3327" lon="-1.65464">
        <ele>14.64069</ele>
        <time>2022-01-19T23:29:07.991Z</time>
      </trkpt>
      <trkpt lat="49.33262" lon="-1.65491">
        <ele>14.910673</ele>
        <time>2022-01-19T23:29:13.505Z</time>
      </trkpt>
      <trkpt lat="49.33247" lon="-1.65506">
        <ele>15.155041</ele>
        <time>2022-01-19T23:29:18.501Z</time>
      </trkpt>
      <trkpt lat="49.33216" lon="-1.65497">
        <ele>15.590608</ele>
        <time>2022-01-19T23:29:27.410Z</time>
      </trkpt>
      <trkpt lat="49.3319" lon="-1.65506">
        <ele>15.966932</ele>
        <time>2022-01-19T23:29:35.141Z</time>
      </trkpt>
      <trkpt lat="49.33129" lon="-1.65558">
        <ele>16.728554</ele>
        <time>2022-01-19T23:29:54.990Z</time>
      </trkpt>
      <trkpt lat="49.33113" lon="-1.65572">
        <ele>16.892021</ele>
        <time>2022-01-19T23:29:58.758Z</time>
      </trkpt>
      <trkpt lat="49.3304" lon="-1.65654">
        <ele>17.693912</ele>
        <time>2022-01-19T23:30:16.437Z</time>
      </trkpt>
      <trkpt lat="49.32975" lon="-1.65795">
        <ele>17.91574</ele>
        <time>2022-01-19T23:30:35.286Z</time>
      </trkpt>
      <trkpt lat="49.32958" lon="-1.65853">
        <ele>17.894893</ele>
        <time>2022-01-19T23:30:42.380Z</time>
      </trkpt>
      <trkpt lat="49.32955" lon="-1.65865">
        <ele>17.89054</ele>
        <time>2022-01-19T23:30:43.683Z</time>
      </trkpt>
      <trkpt lat="49.32945" lon="-1.65864">
        <ele>17.885757</ele>
        <time>2022-01-19T23:30:45.912Z</time>
      </trkpt>
      <trkpt lat="49.32931" lon="-1.65857">
        <ele>17.878335</ele>
        <time>2022-01-19T23:30:49.554Z</time>
      </trkpt>
      <trkpt lat="49.32928" lon="-1.65853">
        <ele>17.876335</ele>
        <time>2022-01-19T23:30:50.559Z</time>
      </trkpt>
      <trkpt lat="49.32879" lon="-1.65956">
        <ele>19.097698</ele>
        <time>2022-01-19T23:31:14.186Z</time>
      </trkpt>
      <trkpt lat="49.32839" lon="-1.65924">
        <ele>19.9491</ele>
        <time>2022-01-19T23:31:25.082Z</time>
      </trkpt>
      <trkpt lat="49.32827" lon="-1.65914">
        <ele>20.209849</ele>
        <time>2022-01-19T23:31:28.828Z</time>
      </trkpt>
      <trkpt lat="49.3254" lon="-1.65691">
        <ele>25.498601</ele>
        <time>2022-01-19T23:32:46.296Z</time>
      </trkpt>
      <trkpt lat="49.32538" lon="-1.6573">
        <ele>25.734052</ele>
        <time>2022-01-19T23:32:50.873Z</time>
      </trkpt>
      <trkpt lat="49.3256" lon="-1.65861">
        <ele>26.286167</ele>
        <time>2022-01-19T23:33:06.066Z</time>
      </trkpt>
      <trkpt lat="49.32606" lon="-1.66103">
        <ele>25.524763</ele>
        <time>2022-01-19T23:33:32.958Z</time>
      </trkpt>
      <trkpt lat="49.32707" lon="-1.66284">
        <ele>24.835522</ele>
        <time>2022-01-19T23:33:58.429Z</time>
      </trkpt>
      <trkpt lat="49.32697" lon="-1.66334">
        <ele>24.727892</ele>
        <time>2022-01-19T23:34:04.398Z</time>
      </trkpt>
      <trkpt lat="49.32687" lon="-1.66405">
        <ele>24.682389</ele>
        <time>2022-01-19T23:34:12.732Z</time>
      </trkpt>
      <trkpt lat="49.32634" lon="-1.66546">
        <ele>24.580343</ele>
        <time>2022-01-19T23:34:31.587Z</time>
      </trkpt>
      <trkpt lat="49.32651" lon="-1.66699">
        <ele>24.098705</ele>
        <time>2022-01-19T23:34:49.056Z</time>
      </trkpt>
      <trkpt lat="49.32644" lon="-1.66799">
        <ele>23.748525</ele>
        <time>2022-01-19T23:35:00.238Z</time>
      </trkpt>
      <trkpt lat="49.3264" lon="-1.66849">
        <ele>23.561253</ele>
        <time>2022-01-19T23:35:05.715Z</time>
      </trkpt>
      <trkpt lat="49.32608" lon="-1.67041">
        <ele>22.561522</ele>
        <time>2022-01-19T23:35:27.525Z</time>
      </trkpt>
      <trkpt lat="49.3255" lon="-1.67155">
        <ele>21.829719</ele>
        <time>2022-01-19T23:35:43.472Z</time>
      </trkpt>
      <trkpt lat="49.32517" lon="-1.67204">
        <ele>21.466637</ele>
        <time>2022-01-19T23:35:51.296Z</time>
      </trkpt>
      <trkpt lat="49.32492" lon="-1.67225">
        <ele>21.237651</ele>
        <time>2022-01-19T23:35:56.244Z</time>
      </trkpt>
      <trkpt lat="49.32463" lon="-1.67261">
        <ele>20.948041</ele>
        <time>2022-01-19T23:36:02.491Z</time>
      </trkpt>
      <trkpt lat="49.32473" lon="-1.67271">
        <ele>20.857086</ele>
        <time>2022-01-19T23:36:04.375Z</time>
      </trkpt>
      <trkpt lat="49.32489" lon="-1.67301">
        <ele>20.560945</ele>
        <time>2022-01-19T23:36:08.492Z</time>
      </trkpt>
      <trkpt lat="49.32507" lon="-1.67336">
        <ele>20.191988</ele>
        <time>2022-01-19T23:36:13.073Z</time>
      </trkpt>
      <trkpt lat="49.32535" lon="-1.67394">
        <ele>19.590156</ele>
        <time>2022-01-19T23:36:20.437Z</time>
      </trkpt>
      <trkpt lat="49.32582" lon="-1.67448">
        <ele>18.833952</ele>
        <time>2022-01-19T23:36:29.524Z</time>
      </trkpt>
      <trkpt lat="49.32596" lon="-1.67464">
        <ele>18.616596</ele>
        <time>2022-01-19T23:36:32.057Z</time>
      </trkpt>
      <trkpt lat="49.32635" lon="-1.67564">
        <ele>17.213654</ele>
        <time>2022-01-19T23:36:43.371Z</time>
      </trkpt>
      <trkpt lat="49.32681" lon="-1.67689">
        <ele>15.419564</ele>
        <time>2022-01-19T23:36:56.840Z</time>
      </trkpt>
      <trkpt lat="49.32712" lon="-1.6782">
        <ele>13.954365</ele>
        <time>2022-01-19T23:37:10.780Z</time>
      </trkpt>
      <trkpt lat="49.32714" lon="-1.67848">
        <ele>13.671405</ele>
        <time>2022-01-19T23:37:13.516Z</time>
      </trkpt>
      <trkpt lat="49.32704" lon="-1.678">
        <ele>13.167794</ele>
        <time>2022-01-19T23:37:20.349Z</time>
      </trkpt>
      <trkpt lat="49.32699" lon="-1.67816">
        <ele>12.990382</ele>
        <time>2022-01-19T23:37:22.768Z</time>
      </trkpt>
      <trkpt lat="49.3265" lon="-1.6781">
        <ele>12.249448</ele>
        <time>2022-01-19T23:37:32.815Z</time>
      </trkpt>
      <trkpt lat="49.32699" lon="-1.67816">
        <ele>11.564809</ele>
        <time>2022-01-19T23:37:42.816Z</time>
      </trkpt>
      <trkpt lat="49.32704" lon="-1.678">
        <ele>11.40186</ele>
        <time>2022-01-19T23:37:45.310Z</time>
      </trkpt>
      <trkpt lat="49.32714" lon="-1.67848">
        <ele>10.939308</ele>
        <time>2022-01-19T23:37:52.437Z</time>
      </trkpt>
      <trkpt lat="49.32715" lon="-1.67854">
        <ele>10.879267</ele>
        <time>2022-01-19T23:37:53.078Z</time>
      </trkpt>
      <trkpt lat="49.32725" lon="-1.68029">
        <ele>9.321434</ele>
        <time>2022-01-19T23:38:23.410Z</time>
      </trkpt>
      <trkpt lat="49.32733" lon="-1.68157">
        <ele>8.251955</ele>
        <time>2022-01-19T23:38:46.140Z</time>
      </trkpt>
      <trkpt lat="49.32738" lon="-1.68247">
        <ele>7.508628</ele>
        <time>2022-01-19T23:39:02.301Z</time>
      </trkpt>
      <trkpt lat="49.32741" lon="-1.68313">
        <ele>7.071963</ele>
        <time>2022-01-19T23:39:14.309Z</time>
      </trkpt>
      <trkpt lat="49.32751" lon="-1.68347">
        <ele>6.827894</ele>
        <time>2022-01-19T23:39:21.091Z</time>
      </trkpt>
      <trkpt lat="49.32818" lon="-1.68495">
        <ele>5.646576</ele>
        <time>2022-01-19T23:39:53.487Z</time>
      </trkpt>
      <trkpt lat="49.32871" lon="-1.68603">
        <ele>4.633681</ele>
        <time>2022-01-19T23:40:17.274Z</time>
      </trkpt>
      <trkpt lat="49.32892" lon="-1.68632">
        <ele>4.309237</ele>
        <time>2022-01-19T23:40:36.833Z</time>
      </trkpt>
      <trkpt lat="49.32948" lon="-1.68676">
        <ele>3.591206</ele>
        <time>2022-01-19T23:41:20.928Z</time>
      </trkpt>
      <trkpt lat="49.3295" lon="-1.68677">
        <ele>3.578595</ele>
        <time>2022-01-19T23:41:22.417Z</time>
      </trkpt>
      <trkpt lat="49.32982" lon="-1.68686">
        <ele>3.39102</ele>
        <time>2022-01-19T23:41:44.495Z</time>
      </trkpt>
      <trkpt lat="49.33016" lon="-1.68691">
        <ele>3.18929</ele>
        <time>2022-01-19T23:41:53.962Z</time>
      </trkpt>
      <trkpt lat="49.3305" lon="-1.68694">
        <ele>2.9882</ele>
        <time>2022-01-19T23:42:03.489Z</time>
      </trkpt>
      <trkpt lat="49.33057" lon="-1.68695">
        <ele>2.946139</ele>
        <time>2022-01-19T23:42:05.472Z</time>
      </trkpt>
      <trkpt lat="49.33055" lon="-1.68715">
        <ele>2.869616</ele>
        <time>2022-01-19T23:42:07.573Z</time>
      </trkpt>
      <trkpt lat="49.33055" lon="-1.68728">
        <ele>2.818439</ele>
        <time>2022-01-19T23:42:09.045Z</time>
      </trkpt>
      <trkpt lat="49.33055" lon="-1.68737">
        <ele>2.783806</ele>
        <time>2022-01-19T23:42:09.993Z</time>
      </trkpt>
      <trkpt lat="49.33048" lon="-1.68766">
        <ele>2.66581</ele>
        <time>2022-01-19T23:42:15.599Z</time>
      </trkpt>
      <trkpt lat="49.33034" lon="-1.68788">
        <ele>2.548045</ele>
        <time>2022-01-19T23:42:21.177Z</time>
      </trkpt>
      <trkpt lat="49.33021" lon="-1.68828">
        <ele>2.559723</ele>
        <time>2022-01-19T23:42:29.395Z</time>
      </trkpt>
      <trkpt lat="49.32994" lon="-1.68959">
        <ele>2.603699</ele>
        <time>2022-01-19T23:42:54.306Z</time>
      </trkpt>
      <trkpt lat="49.32991" lon="-1.69003">
        <ele>2.617944</ele>
        <time>2022-01-19T23:43:02.413Z</time>
      </trkpt>
      <trkpt lat="49.32998" lon="-1.69225">
        <ele>2.73632</ele>
        <time>2022-01-19T23:43:43.037Z</time>
      </trkpt>
      <trkpt lat="49.33012" lon="-1.69256">
        <ele>2.758667</ele>
        <time>2022-01-19T23:43:49.862Z</time>
      </trkpt>
      <trkpt lat="49.33025" lon="-1.69269">
        <ele>2.773195</ele>
        <time>2022-01-19T23:43:54.312Z</time>
      </trkpt>
      <trkpt lat="49.33038" lon="-1.69283">
        <ele>2.787395</ele>
        <time>2022-01-19T23:43:57.772Z</time>
      </trkpt>
      <trkpt lat="49.33066" lon="-1.6935">
        <ele>2.853335</ele>
        <time>2022-01-19T23:44:09.328Z</time>
      </trkpt>
      <trkpt lat="49.33072" lon="-1.6938">
        <ele>2.881011</ele>
        <time>2022-01-19T23:44:13.812Z</time>
      </trkpt>
      <trkpt lat="49.3308" lon="-1.69452">
        <ele>2.94588</ele>
        <time>2022-01-19T23:44:24.335Z</time>
      </trkpt>
      <trkpt lat="49.33083" lon="-1.69473">
        <ele>2.965329</ele>
        <time>2022-01-19T23:44:26.842Z</time>
      </trkpt>
      <trkpt lat="49.33093" lon="-1.69524">
        <ele>3.012253</ele>
        <time>2022-01-19T23:44:32.742Z</time>
      </trkpt>
      <trkpt lat="49.33104" lon="-1.69555">
        <ele>3.047427</ele>
        <time>2022-01-19T23:44:36.899Z</time>
      </trkpt>
      <trkpt lat="49.33214" lon="-1.69695">
        <ele>4.021282</ele>
        <time>2022-01-19T23:45:03.427Z</time>
      </trkpt>
      <trkpt lat="49.33221" lon="-1.69704">
        <ele>4.083614</ele>
        <time>2022-01-19T23:45:05.156Z</time>
      </trkpt>
      <trkpt lat="49.33244" lon="-1.69723">
        <ele>4.262525</ele>
        <time>2022-01-19T23:45:09.965Z</time>
      </trkpt>
      <trkpt lat="49.33312" lon="-1.69783">
        <ele>4.529065</ele>
        <time>2022-01-19T23:45:24.370Z</time>
      </trkpt>
      <trkpt lat="49.33351" lon="-1.69818">
        <ele>4.679766</ele>
        <time>2022-01-19T23:45:32.829Z</time>
      </trkpt>
      <trkpt lat="49.33375" lon="-1.69855">
        <ele>4.794365</ele>
        <time>2022-01-19T23:45:38.812Z</time>
      </trkpt>
      <trkpt lat="49.33382" lon="-1.69865">
        <ele>4.825706</ele>
        <time>2022-01-19T23:45:40.368Z</time>
      </trkpt>
      <trkpt lat="49.33404" lon="-1.69897">
        <ele>4.674999</ele>
        <time>2022-01-19T23:45:45.157Z</time>
      </trkpt>
      <trkpt lat="49.33433" lon="-1.69933">
        <ele>4.205768</ele>
        <time>2022-01-19T23:45:51.089Z</time>
      </trkpt>
      <trkpt lat="49.33471" lon="-1.69964">
        <ele>3.674832</ele>
        <time>2022-01-19T23:45:57.648Z</time>
      </trkpt>
      <trkpt lat="49.33462" lon="-1.6998">
        <ele>3.506085</ele>
        <time>2022-01-19T23:45:59.634Z</time>
      </trkpt>
      <trkpt lat="49.3345" lon="-1.70002">
        <ele>3.271959</ele>
        <time>2022-01-19T23:46:02.550Z</time>
      </trkpt>
      <trkpt lat="49.33438" lon="-1.7002">
        <ele>3.063066</ele>
        <time>2022-01-19T23:46:05.049Z</time>
      </trkpt>
      <trkpt lat="49.33356" lon="-1.70142">
        <ele>2.195393</ele>
        <time>2022-01-19T23:46:22.793Z</time>
      </trkpt>
      <trkpt lat="49.3332" lon="-1.70198">
        <ele>1.911997</ele>
        <time>2022-01-19T23:46:31.097Z</time>
      </trkpt>
      <trkpt lat="49.33316" lon="-1.70193">
        <ele>1.883319</ele>
        <time>2022-01-19T23:46:32.556Z</time>
      </trkpt>
      <trkpt lat="49.33229" lon="-1.70318">
        <ele>2.151155</ele>
        <time>2022-01-19T23:47:06.154Z</time>
      </trkpt>
      <trkpt lat="49.33154" lon="-1.7043">
        <ele>2.845216</ele>
        <time>2022-01-19T23:47:35.705Z</time>
      </trkpt>
      <trkpt lat="49.32995" lon="-1.70668">
        <ele>3.619665</ele>
        <time>2022-01-19T23:48:38.139Z</time>
      </trkpt>
      <trkpt lat="49.3297" lon="-1.7073">
        <ele>3.914618</ele>
        <time>2022-01-19T23:48:51.497Z</time>
      </trkpt>
      <trkpt lat="49.32968" lon="-1.70742">
        <ele>3.966718</ele>
        <time>2022-01-19T23:48:53.870Z</time>
      </trkpt>
      <trkpt lat="49.32965" lon="-1.70766">
        <ele>4.063767</ele>
        <time>2022-01-19T23:48:58.279Z</time>
      </trkpt>
      <trkpt lat="49.32966" lon="-1.70817">
        <ele>4.271647</ele>
        <time>2022-01-19T23:49:07.714Z</time>
      </trkpt>
      <trkpt lat="49.32982" lon="-1.7091">
        <ele>4.651673</ele>
        <time>2022-01-19T23:49:25.402Z</time>
      </trkpt>
      <trkpt lat="49.32996" lon="-1.70991">
        <ele>4.977574</ele>
        <time>2022-01-19T23:49:40.956Z</time>
      </trkpt>
      <trkpt lat="49.33053" lon="-1.71347">
        <ele>5.902311</ele>
        <time>2022-01-19T23:50:48.035Z</time>
      </trkpt>
      <trkpt lat="49.33056" lon="-1.71421">
        <ele>5.99914</ele>
        <time>2022-01-19T23:51:01.633Z</time>
      </trkpt>
      <trkpt lat="49.33054" lon="-1.71485">
        <ele>6.023758</ele>
        <time>2022-01-19T23:51:13.325Z</time>
      </trkpt>
      <trkpt lat="49.33045" lon="-1.71549">
        <ele>6.04877</ele>
        <time>2022-01-19T23:51:25.190Z</time>
      </trkpt>
      <trkpt lat="49.33032" lon="-1.71605">
        <ele>6.071431</ele>
        <time>2022-01-19T23:51:35.945Z</time>
      </trkpt>
      <trkpt lat="49.33031" lon="-1.71621">
        <ele>6.077687</ele>
        <time>2022-01-19T23:51:38.930Z</time>
      </trkpt>
      <trkpt lat="49.33048" lon="-1.71643">
        <ele>6.09071</ele>
        <time>2022-01-19T23:51:42.646Z</time>
      </trkpt>
      <trkpt lat="49.331" lon="-1.71728">
        <ele>6.129192</ele>
        <time>2022-01-19T23:51:55.421Z</time>
      </trkpt>
      <trkpt lat="49.33138" lon="-1.71809">
        <ele>6.161686</ele>
        <time>2022-01-19T23:52:06.478Z</time>
      </trkpt>
      <trkpt lat="49.33156" lon="-1.71847">
        <ele>6.176698</ele>
        <time>2022-01-19T23:52:11.691Z</time>
      </trkpt>
      <trkpt lat="49.3323" lon="-1.71925">
        <ele>6.321069</ele>
        <time>2022-01-19T23:52:27.652Z</time>
      </trkpt>
      <trkpt lat="49.33266" lon="-1.71962">
        <ele>6.403532</ele>
        <time>2022-01-19T23:52:35.164Z</time>
      </trkpt>
      <trkpt lat="49.33321" lon="-1.72015">
        <ele>6.527099</ele>
        <time>2022-01-19T23:52:46.214Z</time>
      </trkpt>
      <trkpt lat="49.33375" lon="-1.7208">
        <ele>6.621656</ele>
        <time>2022-01-19T23:52:58.300Z</time>
      </trkpt>
      <trkpt lat="49.33422" lon="-1.72134">
        <ele>6.700904</ele>
        <time>2022-01-19T23:53:08.438Z</time>
      </trkpt>
      <trkpt lat="49.33473" lon="-1.72192">
        <ele>6.770606</ele>
        <time>2022-01-19T23:53:19.279Z</time>
      </trkpt>
      <trkpt lat="49.33557" lon="-1.72288">
        <ele>6.739341</ele>
        <time>2022-01-19T23:53:37.518Z</time>
      </trkpt>
      <trkpt lat="49.33736" lon="-1.72497">
        <ele>6.23859</ele>
        <time>2022-01-19T23:54:40.481Z</time>
      </trkpt>
      <trkpt lat="49.33688" lon="-1.72604">
        <ele>5.998883</ele>
        <time>2022-01-19T23:55:04.206Z</time>
      </trkpt>
      <trkpt lat="49.33746" lon="-1.72666">
        <ele>5.802692</ele>
        <time>2022-01-19T23:55:24.000Z</time>
      </trkpt>
      <trkpt lat="49.33793" lon="-1.72794">
        <ele>5.742678</ele>
        <time>2022-01-19T23:55:50.854Z</time>
      </trkpt>
      <trkpt lat="49.33679" lon="-1.73021">
        <ele>5.917398</ele>
        <time>2022-01-19T23:56:43.222Z</time>
      </trkpt>
      <trkpt lat="49.33733" lon="-1.73131">
        <ele>5.941339</ele>
        <time>2022-01-19T23:56:58.973Z</time>
      </trkpt>
      <trkpt lat="49.33771" lon="-1.73208">
        <ele>6.037032</ele>
        <time>2022-01-19T23:57:10.004Z</time>
      </trkpt>
      <trkpt lat="49.33806" lon="-1.73278">
        <ele>6.196265</ele>
        <time>2022-01-19T23:57:20.198Z</time>
      </trkpt>
      <trkpt lat="49.33821" lon="-1.73308">
        <ele>6.264593</ele>
        <time>2022-01-19T23:57:24.705Z</time>
      </trkpt>
      <trkpt lat="49.33862" lon="-1.7339">
        <ele>6.453079</ele>
        <time>2022-01-19T23:57:37.596Z</time>
      </trkpt>
      <trkpt lat="49.33872" lon="-1.73405">
        <ele>6.507848</ele>
        <time>2022-01-19T23:57:41.592Z</time>
      </trkpt>
      <trkpt lat="49.33994" lon="-1.73502">
        <ele>7.041693</ele>
        <time>2022-01-19T23:58:20.262Z</time>
      </trkpt>
      <trkpt lat="49.34081" lon="-1.73579">
        <ele>7.020688</ele>
        <time>2022-01-19T23:58:48.466Z</time>
      </trkpt>
      <trkpt lat="49.34397" lon="-1.73892">
        <ele>5.962126</ele>
        <time>2022-01-20T00:00:33.790Z</time>
      </trkpt>
      <trkpt lat="49.34502" lon="-1.74024">
        <ele>5.729537</ele>
        <time>2022-01-20T00:01:11.690Z</time>
      </trkpt>
      <trkpt lat="49.34524" lon="-1.74042">
        <ele>5.739437</ele>
        <time>2022-01-20T00:01:18.671Z</time>
      </trkpt>
      <trkpt lat="49.34585" lon="-1.74111">
        <ele>5.769258</ele>
        <time>2022-01-20T00:01:39.707Z</time>
      </trkpt>
      <trkpt lat="49.34715" lon="-1.74266">
        <ele>6.311442</ele>
        <time>2022-01-20T00:02:26.131Z</time>
      </trkpt>
      <trkpt lat="49.34754" lon="-1.74311">
        <ele>6.507767</ele>
        <time>2022-01-20T00:02:39.785Z</time>
      </trkpt>
      <trkpt lat="49.34762" lon="-1.74315">
        <ele>6.525834</ele>
        <time>2022-01-20T00:02:42.320Z</time>
      </trkpt>
      <trkpt lat="49.34812" lon="-1.74378">
        <ele>6.634642</ele>
        <time>2022-01-20T00:03:00.460Z</time>
      </trkpt>
      <trkpt lat="49.34842" lon="-1.7441">
        <ele>6.69674</ele>
        <time>2022-01-20T00:03:10.771Z</time>
      </trkpt>
      <trkpt lat="49.34862" lon="-1.74441">
        <ele>6.744354</ele>
        <time>2022-01-20T00:03:18.659Z</time>
      </trkpt>
      <trkpt lat="49.34873" lon="-1.74457">
        <ele>6.769702</ele>
        <time>2022-01-20T00:03:22.854Z</time>
      </trkpt>
      <trkpt lat="49.34927" lon="-1.74512">
        <ele>6.853915</ele>
        <time>2022-01-20T00:03:41.104Z</time>
      </trkpt>
      <trkpt lat="49.34957" lon="-1.7455">
        <ele>6.893116</ele>
        <time>2022-01-20T00:03:52.039Z</time>
      </trkpt>
      <trkpt lat="49.34982" lon="-1.74586">
        <ele>6.926833</ele>
        <time>2022-01-20T00:04:01.453Z</time>
      </trkpt>
      <trkpt lat="49.35005" lon="-1.74597">
        <ele>6.950809</ele>
        <time>2022-01-20T00:04:08.144Z</time>
      </trkpt>
      <trkpt lat="49.35019" lon="-1.74612">
        <ele>6.968433</ele>
        <time>2022-01-20T00:04:13.102Z</time>
      </trkpt>
      <trkpt lat="49.35032" lon="-1.7463">
        <ele>6.986248</ele>
        <time>2022-01-20T00:04:18.099Z</time>
      </trkpt>
      <trkpt lat="49.35143" lon="-1.74788">
        <ele>7.987429</ele>
        <time>2022-01-20T00:05:00.795Z</time>
      </trkpt>
      <trkpt lat="49.35153" lon="-1.74799">
        <ele>8.070508</ele>
        <time>2022-01-20T00:05:04.147Z</time>
      </trkpt>
      <trkpt lat="49.35159" lon="-1.74805">
        <ele>8.120457</ele>
        <time>2022-01-20T00:05:05.798Z</time>
      </trkpt>
      <trkpt lat="49.35156" lon="-1.7482">
        <ele>8.191977</ele>
        <time>2022-01-20T00:05:07.780Z</time>
      </trkpt>
      <trkpt lat="49.35166" lon="-1.74837">
        <ele>8.311278</ele>
        <time>2022-01-20T00:05:11.906Z</time>
      </trkpt>
      <trkpt lat="49.35208" lon="-1.74873">
        <ele>8.81088</ele>
        <time>2022-01-20T00:05:25.429Z</time>
      </trkpt>
      <trkpt lat="49.35254" lon="-1.74944">
        <ele>9.497204</ele>
        <time>2022-01-20T00:05:44.031Z</time>
      </trkpt>
      <trkpt lat="49.35277" lon="-1.74974">
        <ele>9.812987</ele>
        <time>2022-01-20T00:05:52.566Z</time>
      </trkpt>
      <trkpt lat="49.35303" lon="-1.75057">
        <ele>10.225527</ele>
        <time>2022-01-20T00:06:09.526Z</time>
      </trkpt>
      <trkpt lat="49.3532" lon="-1.7508">
        <ele>10.292515</ele>
        <time>2022-01-20T00:06:15.860Z</time>
      </trkpt>
      <trkpt lat="49.35327" lon="-1.7509">
        <ele>10.321323</ele>
        <time>2022-01-20T00:06:18.596Z</time>
      </trkpt>
      <trkpt lat="49.35387" lon="-1.75148">
        <ele>10.533628</ele>
        <time>2022-01-20T00:06:38.586Z</time>
      </trkpt>
      <trkpt lat="49.35412" lon="-1.75151">
        <ele>10.607625</ele>
        <time>2022-01-20T00:06:45.510Z</time>
      </trkpt>
      <trkpt lat="49.35523" lon="-1.75304">
        <ele>9.956818</ele>
        <time>2022-01-20T00:07:27.444Z</time>
      </trkpt>
      <trkpt lat="49.35677" lon="-1.75471">
        <ele>9.231171</ele>
        <time>2022-01-20T00:08:20.269Z</time>
      </trkpt>
      <trkpt lat="49.35751" lon="-1.75546">
        <ele>9.163375</ele>
        <time>2022-01-20T00:08:44.923Z</time>
      </trkpt>
      <trkpt lat="49.35893" lon="-1.75691">
        <ele>9.300018</ele>
        <time>2022-01-20T00:09:32.936Z</time>
      </trkpt>
      <trkpt lat="49.35958" lon="-1.75789">
        <ele>9.062183</ele>
        <time>2022-01-20T00:09:58.315Z</time>
      </trkpt>
      <trkpt lat="49.35998" lon="-1.75847">
        <ele>8.916632</ele>
        <time>2022-01-20T00:10:10.311Z</time>
      </trkpt>
      <trkpt lat="49.36079" lon="-1.75957">
        <ele>7.800098</ele>
        <time>2022-01-20T00:10:33.075Z</time>
      </trkpt>
      <trkpt lat="49.36137" lon="-1.75905">
        <ele>7.103282</ele>
        <time>2022-01-20T00:10:44.315Z</time>
      </trkpt>
      <trkpt lat="49.36202" lon="-1.75842">
        <ele>6.930273</ele>
        <time>2022-01-20T00:10:57.308Z</time>
      </trkpt>
      <trkpt lat="49.36322" lon="-1.75727">
        <ele>6.807075</ele>
        <time>2022-01-20T00:11:23.192Z</time>
      </trkpt>
      <trkpt lat="49.36352" lon="-1.75695">
        <ele>6.881232</ele>
        <time>2022-01-20T00:11:29.757Z</time>
      </trkpt>
      <trkpt lat="49.36368" lon="-1.75681">
        <ele>6.921099</ele>
        <time>2022-01-20T00:11:33.308Z</time>
      </trkpt>
      <trkpt lat="49.36403" lon="-1.75646">
        <ele>7.007101</ele>
        <time>2022-01-20T00:11:40.825Z</time>
      </trkpt>
      <trkpt lat="49.36468" lon="-1.7558">
        <ele>7.028254</ele>
        <time>2022-01-20T00:11:54.866Z</time>
      </trkpt>
      <trkpt lat="49.36539" lon="-1.75509">
        <ele>6.802794</ele>
        <time>2022-01-20T00:12:09.445Z</time>
      </trkpt>
      <trkpt lat="49.36575" lon="-1.75505">
        <ele>6.705835</ele>
        <time>2022-01-20T00:12:15.701Z</time>
      </trkpt>
      <trkpt lat="49.36598" lon="-1.7549">
        <ele>6.639675</ele>
        <time>2022-01-20T00:12:19.990Z</time>
      </trkpt>
      <trkpt lat="49.36661" lon="-1.75425">
        <ele>6.382916</ele>
        <time>2022-01-20T00:12:33.187Z</time>
      </trkpt>
      <trkpt lat="49.36804" lon="-1.75297">
        <ele>5.95481</ele>
        <time>2022-01-20T00:13:01.764Z</time>
      </trkpt>
      <trkpt lat="49.36853" lon="-1.75251">
        <ele>5.896501</ele>
        <time>2022-01-20T00:13:11.850Z</time>
      </trkpt>
      <trkpt lat="49.36899" lon="-1.75207">
        <ele>5.841582</ele>
        <time>2022-01-20T00:13:21.434Z</time>
      </trkpt>
      <trkpt lat="49.36924" lon="-1.75184">
        <ele>5.887881</ele>
        <time>2022-01-20T00:13:26.649Z</time>
      </trkpt>
      <trkpt lat="49.37033" lon="-1.75077">
        <ele>6.316589</ele>
        <time>2022-01-20T00:13:50.665Z</time>
      </trkpt>
      <trkpt lat="49.371" lon="-1.75021">
        <ele>6.513261</ele>
        <time>2022-01-20T00:14:04.816Z</time>
      </trkpt>
      <trkpt lat="49.37088" lon="-1.74983">
        <ele>6.570543</ele>
        <time>2022-01-20T00:14:09.886Z</time>
      </trkpt>
      <trkpt lat="49.37079" lon="-1.74962">
        <ele>6.604158</ele>
        <time>2022-01-20T00:14:12.851Z</time>
      </trkpt>
      <trkpt lat="49.37057" lon="-1.74943">
        <ele>6.654859</ele>
        <time>2022-01-20T00:14:17.274Z</time>
      </trkpt>
      <trkpt lat="49.3707" lon="-1.74927">
        <ele>6.6886</ele>
        <time>2022-01-20T00:14:20.189Z</time>
      </trkpt>
      <trkpt lat="49.37089" lon="-1.74893">
        <ele>6.748981</ele>
        <time>2022-01-20T00:14:25.401Z</time>
      </trkpt>
      <trkpt lat="49.37096" lon="-1.74857">
        <ele>6.793196</ele>
        <time>2022-01-20T00:14:29.701Z</time>
      </trkpt>
      <trkpt lat="49.37099" lon="-1.74777">
        <ele>6.769555</ele>
        <time>2022-01-20T00:14:38.943Z</time>
      </trkpt>
      <trkpt lat="49.37102" lon="-1.74765">
        <ele>6.766013</ele>
        <time>2022-01-20T00:14:40.326Z</time>
      </trkpt>
      <trkpt lat="49.37121" lon="-1.74795">
        <ele>6.753897</ele>
        <time>2022-01-20T00:14:47.853Z</time>
      </trkpt>
      <trkpt lat="49.37329" lon="-1.75152">
        <ele>6.60518</ele>
        <time>2022-01-20T00:16:15.036Z</time>
      </trkpt>
      <trkpt lat="49.37507" lon="-1.75458">
        <ele>6.978081</ele>
        <time>2022-01-20T00:17:29.841Z</time>
      </trkpt>
      <trkpt lat="49.37565" lon="-1.75558">
        <ele>7.211493</ele>
        <time>2022-01-20T00:17:49.526Z</time>
      </trkpt>
      <trkpt lat="49.3763" lon="-1.75639">
        <ele>7.545211</ele>
        <time>2022-01-20T00:18:08.357Z</time>
      </trkpt>
      <trkpt lat="49.37656" lon="-1.75678">
        <ele>7.689701</ele>
        <time>2022-01-20T00:18:16.690Z</time>
      </trkpt>
      <trkpt lat="49.37726" lon="-1.75601">
        <ele>8.76462</ele>
        <time>2022-01-20T00:18:33.023Z</time>
      </trkpt>
      <trkpt lat="49.378" lon="-1.75534">
        <ele>10.091796</ele>
        <time>2022-01-20T00:18:49.957Z</time>
      </trkpt>
      <trkpt lat="49.37942" lon="-1.7543">
        <ele>14.482456</ele>
        <time>2022-01-20T00:19:23.003Z</time>
      </trkpt>
      <trkpt lat="49.37968" lon="-1.75408">
        <ele>15.393473</ele>
        <time>2022-01-20T00:19:29.740Z</time>
      </trkpt>
      <trkpt lat="49.37995" lon="-1.75473">
        <ele>17.280398</ele>
        <time>2022-01-20T00:19:41.777Z</time>
      </trkpt>
      <trkpt lat="49.38069" lon="-1.75398">
        <ele>21.17095</ele>
        <time>2022-01-20T00:20:02.662Z</time>
      </trkpt>
      <trkpt lat="49.38107" lon="-1.75366">
        <ele>23.061204</ele>
        <time>2022-01-20T00:20:13.225Z</time>
      </trkpt>
      <trkpt lat="49.3812" lon="-1.75421">
        <ele>24.283647</ele>
        <time>2022-01-20T00:20:22.256Z</time>
      </trkpt>
      <trkpt lat="49.38129" lon="-1.75457">
        <ele>24.700962</ele>
        <time>2022-01-20T00:20:27.858Z</time>
      </trkpt>
      <trkpt lat="49.38151" lon="-1.75447">
        <ele>25.08545</ele>
        <time>2022-01-20T00:20:32.935Z</time>
      </trkpt>
      <trkpt lat="49.38164" lon="-1.75444">
        <ele>25.300896</ele>
        <time>2022-01-20T00:20:35.808Z</time>
      </trkpt>
      <trkpt lat="49.3817" lon="-1.75445">
        <ele>25.402638</ele>
        <time>2022-01-20T00:20:37.217Z</time>
      </trkpt>
      <trkpt lat="49.38189" lon="-1.75425">
        <ele>25.787058</ele>
        <time>2022-01-20T00:20:41.726Z</time>
      </trkpt>
      <trkpt lat="49.38194" lon="-1.75418">
        <ele>25.908979</ele>
        <time>2022-01-20T00:20:43.279Z</time>
      </trkpt>
      <trkpt lat="49.38197" lon="-1.75419">
        <ele>25.953949</ele>
        <time>2022-01-20T00:20:43.844Z</time>
      </trkpt>
      <trkpt lat="49.38202" lon="-1.75426">
        <ele>26.065533</ele>
        <time>2022-01-20T00:20:45.170Z</time>
      </trkpt>
      <trkpt lat="49.38236" lon="-1.75505">
        <ele>26.868661</ele>
        <time>2022-01-20T00:20:54.913Z</time>
      </trkpt>
      <trkpt lat="49.38252" lon="-1.75588">
        <ele>25.371191</ele>
        <time>2022-01-20T00:21:03.537Z</time>
      </trkpt>
      <trkpt lat="49.38252" lon="-1.75594">
        <ele>25.27233</ele>
        <time>2022-01-20T00:21:04.011Z</time>
      </trkpt>
      <trkpt lat="49.38263" lon="-1.75762">
        <ele>22.391941</ele>
        <time>2022-01-20T00:21:18.908Z</time>
      </trkpt>
      <trkpt lat="49.38265" lon="-1.75807">
        <ele>21.511348</ele>
        <time>2022-01-20T00:21:22.871Z</time>
      </trkpt>
      <trkpt lat="49.38284" lon="-1.75847">
        <ele>20.520747</ele>
        <time>2022-01-20T00:21:28.779Z</time>
      </trkpt>
      <trkpt lat="49.38298" lon="-1.75856">
        <ele>20.042009</ele>
        <time>2022-01-20T00:21:31.694Z</time>
      </trkpt>
      <trkpt lat="49.38317" lon="-1.75856">
        <ele>19.467984</ele>
        <time>2022-01-20T00:21:35.192Z</time>
      </trkpt>
      <trkpt lat="49.38348" lon="-1.75852">
        <ele>18.500806</ele>
        <time>2022-01-20T00:21:41.193Z</time>
      </trkpt>
      <trkpt lat="49.38377" lon="-1.75846">
        <ele>17.607255</ele>
        <time>2022-01-20T00:21:46.792Z</time>
      </trkpt>
      <trkpt lat="49.38394" lon="-1.75881">
        <ele>16.740462</ele>
        <time>2022-01-20T00:21:52.366Z</time>
      </trkpt>
      <trkpt lat="49.38419" lon="-1.76033">
        <ele>14.752102</ele>
        <time>2022-01-20T00:22:12.274Z</time>
      </trkpt>
      <trkpt lat="49.3843" lon="-1.76052">
        <ele>14.424549</ele>
        <time>2022-01-20T00:22:15.459Z</time>
      </trkpt>
      <trkpt lat="49.38486" lon="-1.76098">
        <ele>13.35062</ele>
        <time>2022-01-20T00:22:28.499Z</time>
      </trkpt>
      <trkpt lat="49.38533" lon="-1.76129">
        <ele>14.90153</ele>
        <time>2022-01-20T00:22:40.144Z</time>
      </trkpt>
      <trkpt lat="49.38573" lon="-1.76155">
        <ele>16.22153</ele>
        <time>2022-01-20T00:22:50.657Z</time>
      </trkpt>
      <trkpt lat="49.38742" lon="-1.76252">
        <ele>26.230782</ele>
        <time>2022-01-20T00:23:42.936Z</time>
      </trkpt>
      <trkpt lat="49.38751" lon="-1.76251">
        <ele>26.921203</ele>
        <time>2022-01-20T00:23:46.462Z</time>
      </trkpt>
      <trkpt lat="49.38809" lon="-1.76171">
        <ele>32.884634</ele>
        <time>2022-01-20T00:24:14.183Z</time>
      </trkpt>
      <trkpt lat="49.38854" lon="-1.76132">
        <ele>37.014984</ele>
        <time>2022-01-20T00:24:32.097Z</time>
      </trkpt>
      <trkpt lat="49.3886" lon="-1.76147">
        <ele>37.962856</ele>
        <time>2022-01-20T00:24:37.197Z</time>
      </trkpt>
      <trkpt lat="49.38865" lon="-1.76208">
        <ele>41.191748</ele>
        <time>2022-01-20T00:24:51.920Z</time>
      </trkpt>
      <trkpt lat="49.38869" lon="-1.76283">
        <ele>45.085333</ele>
        <time>2022-01-20T00:25:09.313Z</time>
      </trkpt>
      <trkpt lat="49.39032" lon="-1.7613">
        <ele>54.213216</ele>
        <time>2022-01-20T00:26:07.965Z</time>
      </trkpt>
      <trkpt lat="49.39336" lon="-1.75831">
        <ele>56.21826</ele>
        <time>2022-01-20T00:27:49.774Z</time>
      </trkpt>
      <trkpt lat="49.39465" lon="-1.75879">
        <ele>51.804108</ele>
        <time>2022-01-20T00:28:22.543Z</time>
      </trkpt>
      <trkpt lat="49.39533" lon="-1.7586">
        <ele>49.173038</ele>
        <time>2022-01-20T00:28:38.121Z</time>
      </trkpt>
      <trkpt lat="49.39569" lon="-1.75794">
        <ele>46.290712</ele>
        <time>2022-01-20T00:28:50.992Z</time>
      </trkpt>
      <trkpt lat="49.39571" lon="-1.75828">
        <ele>45.139574</ele>
        <time>2022-01-20T00:28:56.067Z</time>
      </trkpt>
      <trkpt lat="49.39565" lon="-1.7588">
        <ele>43.381971</ele>
        <time>2022-01-20T00:29:03.960Z</time>
      </trkpt>
      <trkpt lat="49.39568" lon="-1.7589">
        <ele>43.034374</ele>
        <time>2022-01-20T00:29:05.458Z</time>
      </trkpt>
      <trkpt lat="49.39609" lon="-1.75939">
        <ele>40.476564</ele>
        <time>2022-01-20T00:29:17.556Z</time>
      </trkpt>
      <trkpt lat="49.3969" lon="-1.75984">
        <ele>38.935634</ele>
        <time>2022-01-20T00:29:38.292Z</time>
      </trkpt>
      <trkpt lat="49.3969" lon="-1.75991">
        <ele>38.854465</ele>
        <time>2022-01-20T00:29:39.401Z</time>
      </trkpt>
      <trkpt lat="49.39698" lon="-1.75988">
        <ele>38.721546</ele>
        <time>2022-01-20T00:29:41.482Z</time>
      </trkpt>
      <trkpt lat="49.39705" lon="-1.75985">
        <ele>38.588951</ele>
        <time>2022-01-20T00:29:43.530Z</time>
      </trkpt>
      <trkpt lat="49.39706" lon="-1.75974">
        <ele>38.457014</ele>
        <time>2022-01-20T00:29:45.485Z</time>
      </trkpt>
      <trkpt lat="49.39687" lon="-1.75912">
        <ele>37.662032</ele>
        <time>2022-01-20T00:29:57.832Z</time>
      </trkpt>
      <trkpt lat="49.39681" lon="-1.75798">
        <ele>39.946707</ele>
        <time>2022-01-20T00:30:18.927Z</time>
      </trkpt>
      <trkpt lat="49.39699" lon="-1.7581">
        <ele>40.866736</ele>
        <time>2022-01-20T00:30:24.679Z</time>
      </trkpt>
      <trkpt lat="49.39873" lon="-1.75798">
        <ele>50.630723</ele>
        <time>2022-01-20T00:31:23.506Z</time>
      </trkpt>
      <trkpt lat="49.39915" lon="-1.75794">
        <ele>53.577846</ele>
        <time>2022-01-20T00:31:38.307Z</time>
      </trkpt>
      <trkpt lat="49.40018" lon="-1.76041">
        <ele>66.206609</ele>
        <time>2022-01-20T00:32:43.177Z</time>
      </trkpt>
      <trkpt lat="49.40023" lon="-1.7589">
        <ele>71.930788</ele>
        <time>2022-01-20T00:33:14.673Z</time>
      </trkpt>
      <trkpt lat="49.40037" lon="-1.75861">
        <ele>73.105517</ele>
        <time>2022-01-20T00:33:22.082Z</time>
      </trkpt>
      <trkpt lat="49.40044" lon="-1.75806">
        <ele>74.8953</ele>
        <time>2022-01-20T00:33:33.166Z</time>
      </trkpt>
      <trkpt lat="49.40044" lon="-1.75711">
        <ele>77.973435</ele>
        <time>2022-01-20T00:33:51.924Z</time>
      </trkpt>
      <trkpt lat="49.40054" lon="-1.7565">
        <ele>80.010021</ele>
        <time>2022-01-20T00:34:04.440Z</time>
      </trkpt>
      <trkpt lat="49.40066" lon="-1.75537">
        <ele>83.728335</ele>
        <time>2022-01-20T00:34:27.125Z</time>
      </trkpt>
      <trkpt lat="49.40127" lon="-1.75529">
        <ele>86.741125</ele>
        <time>2022-01-20T00:34:46.047Z</time>
      </trkpt>
      <trkpt lat="49.40196" lon="-1.75525">
        <ele>90.844123</ele>
        <time>2022-01-20T00:35:08.136Z</time>
      </trkpt>
      <trkpt lat="49.40267" lon="-1.75532">
        <ele>95.384502</ele>
        <time>2022-01-20T00:35:32.328Z</time>
      </trkpt>
      <trkpt lat="49.40302" lon="-1.75627">
        <ele>99.949366</ele>
        <time>2022-01-20T00:35:51.409Z</time>
      </trkpt>
      <trkpt lat="49.40384" lon="-1.75555">
        <ele>106.414006</ele>
        <time>2022-01-20T00:36:23.330Z</time>
      </trkpt>
      <trkpt lat="49.40437" lon="-1.75514">
        <ele>110.480482</ele>
        <time>2022-01-20T00:36:44.309Z</time>
      </trkpt>
      <trkpt lat="49.40451" lon="-1.75517">
        <ele>111.467302</ele>
        <time>2022-01-20T00:36:49.006Z</time>
      </trkpt>
      <trkpt lat="49.40457" lon="-1.75494">
        <ele>112.249704</ele>
        <time>2022-01-20T00:36:54.347Z</time>
      </trkpt>
      <trkpt lat="49.40469" lon="-1.75475">
        <ele>113.054805</ele>
        <time>2022-01-20T00:36:59.919Z</time>
      </trkpt>
      <trkpt lat="49.40494" lon="-1.75467">
        <ele>114.262374</ele>
        <time>2022-01-20T00:37:08.224Z</time>
      </trkpt>
      <trkpt lat="49.4051" lon="-1.75442">
        <ele>115.342926</ele>
        <time>2022-01-20T00:37:15.018Z</time>
      </trkpt>
      <trkpt lat="49.40521" lon="-1.7544">
        <ele>115.869811</ele>
        <time>2022-01-20T00:37:18.824Z</time>
      </trkpt>
      <trkpt lat="49.40529" lon="-1.75428">
        <ele>116.408513</ele>
        <time>2022-01-20T00:37:22.160Z</time>
      </trkpt>
      <trkpt lat="49.40527" lon="-1.75402">
        <ele>117.194624</ele>
        <time>2022-01-20T00:37:27.065Z</time>
      </trkpt>
      <trkpt lat="49.40536" lon="-1.75306">
        <ele>120.145265</ele>
        <time>2022-01-20T00:37:45.834Z</time>
      </trkpt>
      <trkpt lat="49.40539" lon="-1.75283">
        <ele>120.247902</ele>
        <time>2022-01-20T00:37:50.253Z</time>
      </trkpt>
      <trkpt lat="49.40549" lon="-1.75263">
        <ele>120.361548</ele>
        <time>2022-01-20T00:37:54.993Z</time>
      </trkpt>
      <trkpt lat="49.40576" lon="-1.75222">
        <ele>120.61727</ele>
        <time>2022-01-20T00:38:05.658Z</time>
      </trkpt>
      <trkpt lat="49.40588" lon="-1.75196">
        <ele>120.762295</ele>
        <time>2022-01-20T00:38:11.588Z</time>
      </trkpt>
      <trkpt lat="49.40613" lon="-1.75162">
        <ele>120.986181</ele>
        <time>2022-01-20T00:38:20.779Z</time>
      </trkpt>
      <trkpt lat="49.4062" lon="-1.75133">
        <ele>121.123629</ele>
        <time>2022-01-20T00:38:26.407Z</time>
      </trkpt>
      <trkpt lat="49.40622" lon="-1.75125">
        <ele>121.163334</ele>
        <time>2022-01-20T00:38:27.945Z</time>
      </trkpt>
      <trkpt lat="49.40639" lon="-1.75089">
        <ele>121.359264</ele>
        <time>2022-01-20T00:38:35.978Z</time>
      </trkpt>
      <trkpt lat="49.40693" lon="-1.75038">
        <ele>119.641221</ele>
        <time>2022-01-20T00:38:52.873Z</time>
      </trkpt>
      <trkpt lat="49.40732" lon="-1.74984">
        <ele>118.236239</ele>
        <time>2022-01-20T00:39:05.886Z</time>
      </trkpt>
      <trkpt lat="49.40791" lon="-1.74865">
        <ele>114.82269</ele>
        <time>2022-01-20T00:39:29.212Z</time>
      </trkpt>
      <trkpt lat="49.40816" lon="-1.74784">
        <ele>111.841981</ele>
        <time>2022-01-20T00:39:42.855Z</time>
      </trkpt>
      <trkpt lat="49.40847" lon="-1.74617">
        <ele>105.968238</ele>
        <time>2022-01-20T00:40:08.204Z</time>
      </trkpt>
      <trkpt lat="49.40886" lon="-1.74351">
        <ele>96.561453</ele>
        <time>2022-01-20T00:40:47.884Z</time>
      </trkpt>
      <trkpt lat="49.40893" lon="-1.74291">
        <ele>95.770118</ele>
        <time>2022-01-20T00:40:57.645Z</time>
      </trkpt>
      <trkpt lat="49.40951" lon="-1.74311">
        <ele>94.579669</ele>
        <time>2022-01-20T00:41:13.605Z</time>
      </trkpt>
      <trkpt lat="49.41041" lon="-1.74311">
        <ele>94.023938</ele>
        <time>2022-01-20T00:41:38.864Z</time>
      </trkpt>
      <trkpt lat="49.41134" lon="-1.74299">
        <ele>95.750044</ele>
        <time>2022-01-20T00:42:05.558Z</time>
      </trkpt>
      <trkpt lat="49.41227" lon="-1.74306">
        <ele>97.873201</ele>
        <time>2022-01-20T00:42:32.094Z</time>
      </trkpt>
      <trkpt lat="49.41284" lon="-1.74311">
        <ele>99.526329</ele>
        <time>2022-01-20T00:42:48.460Z</time>
      </trkpt>
      <trkpt lat="49.41377" lon="-1.74347">
        <ele>102.34902</ele>
        <time>2022-01-20T00:43:16.630Z</time>
      </trkpt>
      <trkpt lat="49.41462" lon="-1.74376">
        <ele>104.980347</ele>
        <time>2022-01-20T00:43:42.344Z</time>
      </trkpt>
      <trkpt lat="49.4156" lon="-1.74395">
        <ele>107.411921</ele>
        <time>2022-01-20T00:44:10.622Z</time>
      </trkpt>
      <trkpt lat="49.41624" lon="-1.74427">
        <ele>107.322038</ele>
        <time>2022-01-20T00:44:29.630Z</time>
      </trkpt>
      <trkpt lat="49.41667" lon="-1.74434">
        <ele>107.263541</ele>
        <time>2022-01-20T00:44:41.892Z</time>
      </trkpt>
      <trkpt lat="49.41734" lon="-1.74412">
        <ele>106.68071</ele>
        <time>2022-01-20T00:44:59.850Z</time>
      </trkpt>
      <trkpt lat="49.41844" lon="-1.74436">
        <ele>103.353883</ele>
        <time>2022-01-20T00:45:27.307Z</time>
      </trkpt>
      <trkpt lat="49.41872" lon="-1.74414">
        <ele>102.406775</ele>
        <time>2022-01-20T00:45:35.162Z</time>
      </trkpt>
      <trkpt lat="49.41894" lon="-1.74385">
        <ele>101.4474</ele>
        <time>2022-01-20T00:45:42.109Z</time>
      </trkpt>
      <trkpt lat="49.41901" lon="-1.74363">
        <ele>100.81342</ele>
        <time>2022-01-20T00:45:45.689Z</time>
      </trkpt>
      <trkpt lat="49.41903" lon="-1.74291">
        <ele>98.888174</ele>
        <time>2022-01-20T00:45:52.264Z</time>
      </trkpt>
      <trkpt lat="49.41907" lon="-1.74232">
        <ele>97.322511</ele>
        <time>2022-01-20T00:45:57.542Z</time>
      </trkpt>
      <trkpt lat="49.41946" lon="-1.7425">
        <ele>95.678047</ele>
        <time>2022-01-20T00:46:02.778Z</time>
      </trkpt>
      <trkpt lat="49.42002" lon="-1.74265">
        <ele>93.757202</ele>
        <time>2022-01-20T00:46:10.200Z</time>
      </trkpt>
      <trkpt lat="49.42057" lon="-1.74264">
        <ele>92.260946</ele>
        <time>2022-01-20T00:46:17.571Z</time>
      </trkpt>
      <trkpt lat="49.42102" lon="-1.74248">
        <ele>90.994239</ele>
        <time>2022-01-20T00:46:23.940Z</time>
      </trkpt>
      <trkpt lat="49.42134" lon="-1.74216">
        <ele>89.973268</ele>
        <time>2022-01-20T00:46:29.569Z</time>
      </trkpt>
      <trkpt lat="49.42246" lon="-1.74098">
        <ele>91.667672</ele>
        <time>2022-01-20T00:46:54.022Z</time>
      </trkpt>
      <trkpt lat="49.4224" lon="-1.74172">
        <ele>92.482491</ele>
        <time>2022-01-20T00:47:05.022Z</time>
      </trkpt>
      <trkpt lat="49.42238" lon="-1.7419">
        <ele>92.834749</ele>
        <time>2022-01-20T00:47:07.751Z</time>
      </trkpt>
      <trkpt lat="49.42338" lon="-1.74289">
        <ele>100.414022</ele>
        <time>2022-01-20T00:47:46.669Z</time>
      </trkpt>
      <trkpt lat="49.42429" lon="-1.74375">
        <ele>107.180794</ele>
        <time>2022-01-20T00:48:25.418Z</time>
      </trkpt>
      <trkpt lat="49.42511" lon="-1.74266">
        <ele>113.912306</ele>
        <time>2022-01-20T00:49:00.947Z</time>
      </trkpt>
      <trkpt lat="49.42559" lon="-1.74222">
        <ele>115.904378</ele>
        <time>2022-01-20T00:49:17.823Z</time>
      </trkpt>
      <trkpt lat="49.42587" lon="-1.74178">
        <ele>116.598223</ele>
        <time>2022-01-20T00:49:29.185Z</time>
      </trkpt>
      <trkpt lat="49.42618" lon="-1.7418">
        <ele>117.142682</ele>
        <time>2022-01-20T00:49:38.035Z</time>
      </trkpt>
      <trkpt lat="49.42635" lon="-1.74132">
        <ele>117.757874</ele>
        <time>2022-01-20T00:49:47.961Z</time>
      </trkpt>
      <trkpt lat="49.42631" lon="-1.74106">
        <ele>118.063456</ele>
        <time>2022-01-20T00:49:52.854Z</time>
      </trkpt>
      <trkpt lat="49.42635" lon="-1.74068">
        <ele>118.402835</ele>
        <time>2022-01-20T00:49:59.776Z</time>
      </trkpt>
      <trkpt lat="49.42647" lon="-1.74041">
        <ele>117.795752</ele>
        <time>2022-01-20T00:50:05.476Z</time>
      </trkpt>
      <trkpt lat="49.42696" lon="-1.73998">
        <ele>116.181924</ele>
        <time>2022-01-20T00:50:20.251Z</time>
      </trkpt>
      <trkpt lat="49.42748" lon="-1.73946">
        <ele>114.414099</ele>
        <time>2022-01-20T00:50:35.460Z</time>
      </trkpt>
      <trkpt lat="49.42817" lon="-1.73994">
        <ele>111.001519</ele>
        <time>2022-01-20T00:50:52.996Z</time>
      </trkpt>
      <trkpt lat="49.42858" lon="-1.74102">
        <ele>105.919094</ele>
        <time>2022-01-20T00:51:11.212Z</time>
      </trkpt>
      <trkpt lat="49.42877" lon="-1.74237">
        <ele>99.791773</ele>
        <time>2022-01-20T00:51:30.566Z</time>
      </trkpt>
      <trkpt lat="49.43086" lon="-1.74265">
        <ele>83.342647</ele>
        <time>2022-01-20T00:52:15.061Z</time>
      </trkpt>
      <trkpt lat="49.43228" lon="-1.74317">
        <ele>73.488738</ele>
        <time>2022-01-20T00:52:47.162Z</time>
      </trkpt>
      <trkpt lat="49.4329" lon="-1.74352">
        <ele>70.285917</ele>
        <time>2022-01-20T00:53:02.546Z</time>
      </trkpt>
      <trkpt lat="49.43347" lon="-1.74369">
        <ele>67.532446</ele>
        <time>2022-01-20T00:53:16.020Z</time>
      </trkpt>
      <trkpt lat="49.43359" lon="-1.74375">
        <ele>66.88622</ele>
        <time>2022-01-20T00:53:17.793Z</time>
      </trkpt>
      <trkpt lat="49.43406" lon="-1.74392">
        <ele>65.148108</ele>
        <time>2022-01-20T00:53:24.383Z</time>
      </trkpt>
      <trkpt lat="49.43414" lon="-1.74404">
        <ele>64.849787</ele>
        <time>2022-01-20T00:53:25.730Z</time>
      </trkpt>
      <trkpt lat="49.43418" lon="-1.74396">
        <ele>64.659084</ele>
        <time>2022-01-20T00:53:26.604Z</time>
      </trkpt>
      <trkpt lat="49.4348" lon="-1.7442">
        <ele>62.778276</ele>
        <time>2022-01-20T00:53:35.800Z</time>
      </trkpt>
      <trkpt lat="49.43591" lon="-1.74454">
        <ele>60.240808</ele>
        <time>2022-01-20T00:53:52.865Z</time>
      </trkpt>
      <trkpt lat="49.43649" lon="-1.74454">
        <ele>59.535099</ele>
        <time>2022-01-20T00:54:02.668Z</time>
      </trkpt>
      <trkpt lat="49.43694" lon="-1.74437">
        <ele>58.971824</ele>
        <time>2022-01-20T00:54:15.609Z</time>
      </trkpt>
      <trkpt lat="49.43761" lon="-1.74407">
        <ele>58.195983</ele>
        <time>2022-01-20T00:54:34.978Z</time>
      </trkpt>
      <trkpt lat="49.43784" lon="-1.74401">
        <ele>57.945812</ele>
        <time>2022-01-20T00:54:41.692Z</time>
      </trkpt>
      <trkpt lat="49.43812" lon="-1.74393">
        <ele>57.648991</ele>
        <time>2022-01-20T00:54:49.629Z</time>
      </trkpt>
      <trkpt lat="49.43878" lon="-1.74436">
        <ele>56.899378</ele>
        <time>2022-01-20T00:55:08.930Z</time>
      </trkpt>
      <trkpt lat="49.43945" lon="-1.74494">
        <ele>56.488784</ele>
        <time>2022-01-20T00:55:29.714Z</time>
      </trkpt>
      <trkpt lat="49.43956" lon="-1.74482">
        <ele>56.433957</ele>
        <time>2022-01-20T00:55:33.289Z</time>
      </trkpt>
      <trkpt lat="49.43995" lon="-1.74384">
        <ele>56.133903</ele>
        <time>2022-01-20T00:55:54.209Z</time>
      </trkpt>
      <trkpt lat="49.4402" lon="-1.74309">
        <ele>56.087609</ele>
        <time>2022-01-20T00:56:09.794Z</time>
      </trkpt>
      <trkpt lat="49.4408" lon="-1.74168">
        <ele>56.455688</ele>
        <time>2022-01-20T00:56:40.697Z</time>
      </trkpt>
      <trkpt lat="49.44122" lon="-1.74066">
        <ele>55.791601</ele>
        <time>2022-01-20T00:57:02.710Z</time>
      </trkpt>
      <trkpt lat="49.4433" lon="-1.74309">
        <ele>49.498262</ele>
        <time>2022-01-20T00:58:06.978Z</time>
      </trkpt>
      <trkpt lat="49.44388" lon="-1.744">
        <ele>48.369359</ele>
        <time>2022-01-20T00:58:29.953Z</time>
      </trkpt>
      <trkpt lat="49.44389" lon="-1.74444">
        <ele>48.904208</ele>
        <time>2022-01-20T00:58:37.923Z</time>
      </trkpt>
      <trkpt lat="49.44472" lon="-1.74845">
        <ele>54.715772</ele>
        <time>2022-01-20T00:59:56.703Z</time>
      </trkpt>
      <trkpt lat="49.44513" lon="-1.75005">
        <ele>55.297631</ele>
        <time>2022-01-20T01:00:28.428Z</time>
      </trkpt>
      <trkpt lat="49.44502" lon="-1.75105">
        <ele>54.922238</ele>
        <time>2022-01-20T01:00:46.529Z</time>
      </trkpt>
      <trkpt lat="49.44499" lon="-1.75229">
        <ele>53.499737</ele>
        <time>2022-01-20T01:01:06.761Z</time>
      </trkpt>
      <trkpt lat="49.44509" lon="-1.75245">
        <ele>53.019165</ele>
        <time>2022-01-20T01:01:10.383Z</time>
      </trkpt>
      <trkpt lat="49.4451" lon="-1.75271">
        <ele>52.482853</ele>
        <time>2022-01-20T01:01:14.471Z</time>
      </trkpt>
      <trkpt lat="49.44504" lon="-1.75362">
        <ele>50.591097</ele>
        <time>2022-01-20T01:01:28.676Z</time>
      </trkpt>
      <trkpt lat="49.44505" lon="-1.75437">
        <ele>49.019893</ele>
        <time>2022-01-20T01:01:40.670Z</time>
      </trkpt>
      <trkpt lat="49.44521" lon="-1.75454">
        <ele>48.614779</ele>
        <time>2022-01-20T01:01:45.513Z</time>
      </trkpt>
      <trkpt lat="49.44538" lon="-1.75486">
        <ele>48.101292</ele>
        <time>2022-01-20T01:01:52.493Z</time>
      </trkpt>
      <trkpt lat="49.44548" lon="-1.75549">
        <ele>47.297209</ele>
        <time>2022-01-20T01:02:03.793Z</time>
      </trkpt>
      <trkpt lat="49.44555" lon="-1.75651">
        <ele>46.029146</ele>
        <time>2022-01-20T01:02:21.750Z</time>
      </trkpt>
      <trkpt lat="49.4456" lon="-1.75731">
        <ele>44.870143</ele>
        <time>2022-01-20T01:02:35.682Z</time>
      </trkpt>
      <trkpt lat="49.44588" lon="-1.75743">
        <ele>44.131817</ele>
        <time>2022-01-20T01:02:39.926Z</time>
      </trkpt>
      <trkpt lat="49.4461" lon="-1.75751">
        <ele>43.55566</ele>
        <time>2022-01-20T01:02:43.216Z</time>
      </trkpt>
      <trkpt lat="49.44682" lon="-1.75777">
        <ele>41.672663</ele>
        <time>2022-01-20T01:02:53.612Z</time>
      </trkpt>
      <trkpt lat="49.44744" lon="-1.75782">
        <ele>40.078877</ele>
        <time>2022-01-20T01:03:01.849Z</time>
      </trkpt>
      <trkpt lat="49.44849" lon="-1.75745">
        <ele>37.347266</ele>
        <time>2022-01-20T01:03:16.655Z</time>
      </trkpt>
      <trkpt lat="49.44862" lon="-1.75735">
        <ele>36.991732</ele>
        <time>2022-01-20T01:03:18.821Z</time>
      </trkpt>
      <trkpt lat="49.44903" lon="-1.75674">
        <ele>36.573244</ele>
        <time>2022-01-20T01:03:28.170Z</time>
      </trkpt>
      <trkpt lat="49.44906" lon="-1.75669">
        <ele>36.604109</ele>
        <time>2022-01-20T01:03:28.918Z</time>
      </trkpt>
      <trkpt lat="49.44912" lon="-1.75662">
        <ele>36.65456</ele>
        <time>2022-01-20T01:03:30.143Z</time>
      </trkpt>
      <trkpt lat="49.44926" lon="-1.75641">
        <ele>36.792052</ele>
        <time>2022-01-20T01:03:33.833Z</time>
      </trkpt>
      <trkpt lat="49.45039" lon="-1.75624">
        <ele>37.586043</ele>
        <time>2022-01-20T01:03:55.766Z</time>
      </trkpt>
      <trkpt lat="49.45053" lon="-1.75637">
        <ele>37.821091</ele>
        <time>2022-01-20T01:03:59.015Z</time>
      </trkpt>
      <trkpt lat="49.45059" lon="-1.75657">
        <ele>38.065533</ele>
        <time>2022-01-20T01:04:02.212Z</time>
      </trkpt>
      <trkpt lat="49.45086" lon="-1.75649">
        <ele>38.505104</ele>
        <time>2022-01-20T01:04:07.422Z</time>
      </trkpt>
      <trkpt lat="49.45138" lon="-1.75665">
        <ele>39.387061</ele>
        <time>2022-01-20T01:04:17.916Z</time>
      </trkpt>
      <trkpt lat="49.45187" lon="-1.75728">
        <ele>40.425303</ele>
        <time>2022-01-20T01:04:30.272Z</time>
      </trkpt>
      <trkpt lat="49.45228" lon="-1.75795">
        <ele>41.974024</ele>
        <time>2022-01-20T01:04:42.664Z</time>
      </trkpt>
      <trkpt lat="49.45243" lon="-1.75811">
        <ele>42.4875</ele>
        <time>2022-01-20T01:04:46.467Z</time>
      </trkpt>
      <trkpt lat="49.45309" lon="-1.75784">
        <ele>44.359204</ele>
        <time>2022-01-20T01:05:00.810Z</time>
      </trkpt>
      <trkpt lat="49.45313" lon="-1.75776">
        <ele>44.536773</ele>
        <time>2022-01-20T01:05:02.473Z</time>
      </trkpt>
      <trkpt lat="49.45317" lon="-1.75793">
        <ele>44.855143</ele>
        <time>2022-01-20T01:05:05.899Z</time>
      </trkpt>
      <trkpt lat="49.45314" lon="-1.75867">
        <ele>46.342416</ele>
        <time>2022-01-20T01:05:19.981Z</time>
      </trkpt>
      <trkpt lat="49.45316" lon="-1.7589">
        <ele>46.856958</ele>
        <time>2022-01-20T01:05:24.687Z</time>
      </trkpt>
      <trkpt lat="49.45321" lon="-1.75904">
        <ele>47.207693</ele>
        <time>2022-01-20T01:05:27.732Z</time>
      </trkpt>
      <trkpt lat="49.45366" lon="-1.75933">
        <ele>48.84788</ele>
        <time>2022-01-20T01:05:41.871Z</time>
      </trkpt>
      <trkpt lat="49.45369" lon="-1.75939">
        <ele>49.025036</ele>
        <time>2022-01-20T01:05:43.584Z</time>
      </trkpt>
      <trkpt lat="49.45391" lon="-1.75954">
        <ele>49.83813</ele>
        <time>2022-01-20T01:05:50.859Z</time>
      </trkpt>
      <trkpt lat="49.45437" lon="-1.75989">
        <ele>51.575399</ele>
        <time>2022-01-20T01:06:05.512Z</time>
      </trkpt>
      <trkpt lat="49.4548" lon="-1.76036">
        <ele>51.980705</ele>
        <time>2022-01-20T01:06:20.574Z</time>
      </trkpt>
      <trkpt lat="49.45511" lon="-1.7606">
        <ele>52.234008</ele>
        <time>2022-01-20T01:06:30.567Z</time>
      </trkpt>
      <trkpt lat="49.45517" lon="-1.76067">
        <ele>52.285618</ele>
        <time>2022-01-20T01:06:32.634Z</time>
      </trkpt>
      <trkpt lat="49.4552" lon="-1.76073">
        <ele>52.320124</ele>
        <time>2022-01-20T01:06:33.866Z</time>
      </trkpt>
      <trkpt lat="49.4555" lon="-1.76137">
        <ele>52.686865</ele>
        <time>2022-01-20T01:06:48.141Z</time>
      </trkpt>
      <trkpt lat="49.45699" lon="-1.76398">
        <ele>51.774699</ele>
        <time>2022-01-20T01:07:50.042Z</time>
      </trkpt>
      <trkpt lat="49.45822" lon="-1.76427">
        <ele>54.435079</ele>
        <time>2022-01-20T01:08:25.513Z</time>
      </trkpt>
      <trkpt lat="49.45889" lon="-1.76467">
        <ele>57.26202</ele>
        <time>2022-01-20T01:08:47.589Z</time>
      </trkpt>
      <trkpt lat="49.45899" lon="-1.76477">
        <ele>57.970784</ele>
        <time>2022-01-20T01:08:51.377Z</time>
      </trkpt>
      <trkpt lat="49.45918" lon="-1.76497">
        <ele>59.374744</ele>
        <time>2022-01-20T01:08:58.872Z</time>
      </trkpt>
      <trkpt lat="49.45972" lon="-1.76538">
        <ele>62.986226</ele>
        <time>2022-01-20T01:09:18.917Z</time>
      </trkpt>
      <trkpt lat="49.46021" lon="-1.76588">
        <ele>66.485568</ele>
        <time>2022-01-20T01:09:39.182Z</time>
      </trkpt>
      <trkpt lat="49.46051" lon="-1.76626">
        <ele>68.641759</ele>
        <time>2022-01-20T01:09:52.521Z</time>
      </trkpt>
      <trkpt lat="49.46094" lon="-1.76699">
        <ele>72.125029</ele>
        <time>2022-01-20T01:10:12.885Z</time>
      </trkpt>
      <trkpt lat="49.46194" lon="-1.76814">
        <ele>77.153392</ele>
        <time>2022-01-20T01:10:50.524Z</time>
      </trkpt>
      <trkpt lat="49.46236" lon="-1.76877">
        <ele>78.449621</ele>
        <time>2022-01-20T01:11:07.290Z</time>
      </trkpt>
      <trkpt lat="49.46241" lon="-1.76892">
        <ele>78.68465</ele>
        <time>2022-01-20T01:11:10.317Z</time>
      </trkpt>
      <trkpt lat="49.46243" lon="-1.76901">
        <ele>78.828307</ele>
        <time>2022-01-20T01:11:12.198Z</time>
      </trkpt>
      <trkpt lat="49.4625" lon="-1.76894">
        <ele>79.012774</ele>
        <time>2022-01-20T01:11:14.551Z</time>
      </trkpt>
      <trkpt lat="49.46245" lon="-1.76911">
        <ele>79.283362</ele>
        <time>2022-01-20T01:11:16.778Z</time>
      </trkpt>
      <trkpt lat="49.4624" lon="-1.76938">
        <ele>79.693781</ele>
        <time>2022-01-20T01:11:20.224Z</time>
      </trkpt>
      <trkpt lat="49.46263" lon="-1.76958">
        <ele>79.497152</ele>
        <time>2022-01-20T01:11:27.586Z</time>
      </trkpt>
      <trkpt lat="49.46339" lon="-1.7701">
        <ele>77.387073</ele>
        <time>2022-01-20T01:11:49.822Z</time>
      </trkpt>
      <trkpt lat="49.4635" lon="-1.77021">
        <ele>77.075185</ele>
        <time>2022-01-20T01:11:52.871Z</time>
      </trkpt>
      <trkpt lat="49.46394" lon="-1.77069">
        <ele>75.719844</ele>
        <time>2022-01-20T01:12:05.733Z</time>
      </trkpt>
      <trkpt lat="49.46433" lon="-1.77106">
        <ele>73.339284</ele>
        <time>2022-01-20T01:12:16.412Z</time>
      </trkpt>
      <trkpt lat="49.46456" lon="-1.77153">
        <ele>70.942636</ele>
        <time>2022-01-20T01:12:25.120Z</time>
      </trkpt>
      <trkpt lat="49.46493" lon="-1.77192">
        <ele>68.171587</ele>
        <time>2022-01-20T01:12:34.973Z</time>
      </trkpt>
      <trkpt lat="49.46554" lon="-1.7725">
        <ele>63.671667</ele>
        <time>2022-01-20T01:12:50.563Z</time>
      </trkpt>
      <trkpt lat="49.46609" lon="-1.77285">
        <ele>59.663483</ele>
        <time>2022-01-20T01:13:03.339Z</time>
      </trkpt>
      <trkpt lat="49.46645" lon="-1.77315">
        <ele>56.929593</ele>
        <time>2022-01-20T01:13:12.152Z</time>
      </trkpt>
      <trkpt lat="49.4665" lon="-1.77354">
        <ele>55.155965</ele>
        <time>2022-01-20T01:13:17.916Z</time>
      </trkpt>
      <trkpt lat="49.46674" lon="-1.77424">
        <ele>51.906177</ele>
        <time>2022-01-20T01:13:29.433Z</time>
      </trkpt>
      <trkpt lat="49.46684" lon="-1.77429">
        <ele>51.584587</ele>
        <time>2022-01-20T01:13:30.634Z</time>
      </trkpt>
      <trkpt lat="49.46724" lon="-1.77499">
        <ele>49.609175</ele>
        <time>2022-01-20T01:13:38.568Z</time>
      </trkpt>
      <trkpt lat="49.46798" lon="-1.77575">
        <ele>46.764574</ele>
        <time>2022-01-20T01:13:51.124Z</time>
      </trkpt>
      <trkpt lat="49.46806" lon="-1.77589">
        <ele>46.375711</ele>
        <time>2022-01-20T01:13:53.112Z</time>
      </trkpt>
      <trkpt lat="49.46846" lon="-1.77724">
        <ele>46.52058</ele>
        <time>2022-01-20T01:14:09.574Z</time>
      </trkpt>
      <trkpt lat="49.46875" lon="-1.77791">
        <ele>46.646378</ele>
        <time>2022-01-20T01:14:19.181Z</time>
      </trkpt>
      <trkpt lat="49.46889" lon="-1.7781">
        <ele>46.692205</ele>
        <time>2022-01-20T01:14:22.779Z</time>
      </trkpt>
      <trkpt lat="49.46953" lon="-1.77868">
        <ele>47.374727</ele>
        <time>2022-01-20T01:14:37.162Z</time>
      </trkpt>
      <trkpt lat="49.4703" lon="-1.78024">
        <ele>48.677414</ele>
        <time>2022-01-20T01:15:01.504Z</time>
      </trkpt>
      <trkpt lat="49.47061" lon="-1.78054">
        <ele>48.65929</ele>
        <time>2022-01-20T01:15:08.313Z</time>
      </trkpt>
      <trkpt lat="49.47084" lon="-1.78064">
        <ele>48.647784</ele>
        <time>2022-01-20T01:15:12.516Z</time>
      </trkpt>
      <trkpt lat="49.47175" lon="-1.78039">
        <ele>48.602835</ele>
        <time>2022-01-20T01:15:27.815Z</time>
      </trkpt>
      <trkpt lat="49.47218" lon="-1.78061">
        <ele>48.484731</ele>
        <time>2022-01-20T01:15:35.096Z</time>
      </trkpt>
      <trkpt lat="49.47243" lon="-1.78057">
        <ele>48.37983</ele>
        <time>2022-01-20T01:15:39.002Z</time>
      </trkpt>
      <trkpt lat="49.47257" lon="-1.78048">
        <ele>48.314077</ele>
        <time>2022-01-20T01:15:41.399Z</time>
      </trkpt>
      <trkpt lat="49.47255" lon="-1.78057">
        <ele>48.290356</ele>
        <time>2022-01-20T01:15:42.528Z</time>
      </trkpt>
      <trkpt lat="49.47259" lon="-1.78072">
        <ele>48.243879</ele>
        <time>2022-01-20T01:15:44.903Z</time>
      </trkpt>
      <trkpt lat="49.47268" lon="-1.78075">
        <ele>48.207607</ele>
        <time>2022-01-20T01:15:46.780Z</time>
      </trkpt>
      <trkpt lat="49.47282" lon="-1.78075">
        <ele>48.144135</ele>
        <time>2022-01-20T01:15:49.945Z</time>
      </trkpt>
      <trkpt lat="49.47307" lon="-1.78132">
        <ele>47.952518</ele>
        <time>2022-01-20T01:15:57.439Z</time>
      </trkpt>
      <trkpt lat="49.4732" lon="-1.78168">
        <ele>47.837627</ele>
        <time>2022-01-20T01:16:02.101Z</time>
      </trkpt>
      <trkpt lat="49.47334" lon="-1.78223">
        <ele>48.218557</ele>
        <time>2022-01-20T01:16:08.814Z</time>
      </trkpt>
      <trkpt lat="49.47335" lon="-1.78228">
        <ele>48.258646</ele>
        <time>2022-01-20T01:16:09.447Z</time>
      </trkpt>
      <trkpt lat="49.47338" lon="-1.78241">
        <ele>48.364158</ele>
        <time>2022-01-20T01:16:11.283Z</time>
      </trkpt>
      <trkpt lat="49.47368" lon="-1.78235">
        <ele>48.718811</ele>
        <time>2022-01-20T01:16:17.082Z</time>
      </trkpt>
      <trkpt lat="49.47373" lon="-1.78234">
        <ele>48.772482</ele>
        <time>2022-01-20T01:16:18.125Z</time>
      </trkpt>
      <trkpt lat="49.47394" lon="-1.78224">
        <ele>49.026696</ele>
        <time>2022-01-20T01:16:22.407Z</time>
      </trkpt>
      <trkpt lat="49.47495" lon="-1.78145">
        <ele>50.869753</ele>
        <time>2022-01-20T01:16:45.709Z</time>
      </trkpt>
      <trkpt lat="49.4754" lon="-1.78164">
        <ele>52.050202</ele>
        <time>2022-01-20T01:16:55.412Z</time>
      </trkpt>
      <trkpt lat="49.4758" lon="-1.7816">
        <ele>53.079452</ele>
        <time>2022-01-20T01:17:04.102Z</time>
      </trkpt>
      <trkpt lat="49.47581" lon="-1.78162">
        <ele>53.115538</ele>
        <time>2022-01-20T01:17:04.383Z</time>
      </trkpt>
      <trkpt lat="49.47619" lon="-1.78199">
        <ele>54.250174</ele>
        <time>2022-01-20T01:17:14.260Z</time>
      </trkpt>
      <trkpt lat="49.47641" lon="-1.7822">
        <ele>55.267996</ele>
        <time>2022-01-20T01:17:20.116Z</time>
      </trkpt>
      <trkpt lat="49.47675" lon="-1.78168">
        <ele>57.44578</ele>
        <time>2022-01-20T01:17:34.208Z</time>
      </trkpt>
      <trkpt lat="49.47796" lon="-1.78216">
        <ele>63.338479</ele>
        <time>2022-01-20T01:18:13.183Z</time>
      </trkpt>
      <trkpt lat="49.479" lon="-1.78216">
        <ele>69.616063</ele>
        <time>2022-01-20T01:18:46.906Z</time>
      </trkpt>
      <trkpt lat="49.47967" lon="-1.78248">
        <ele>73.879082</ele>
        <time>2022-01-20T01:19:10.161Z</time>
      </trkpt>
      <trkpt lat="49.48296" lon="-1.78246">
        <ele>97.168074</ele>
        <time>2022-01-20T01:21:03.493Z</time>
      </trkpt>
      <trkpt lat="49.4831" lon="-1.78205">
        <ele>99.290185</ele>
        <time>2022-01-20T01:21:13.948Z</time>
      </trkpt>
      <trkpt lat="49.48408" lon="-1.78162">
        <ele>106.128783</ele>
        <time>2022-01-20T01:21:49.191Z</time>
      </trkpt>
      <trkpt lat="49.48419" lon="-1.78151">
        <ele>107.0105</ele>
        <time>2022-01-20T01:21:52.681Z</time>
      </trkpt>
      <trkpt lat="49.48421" lon="-1.78149">
        <ele>107.187318</ele>
        <time>2022-01-20T01:21:53.791Z</time>
      </trkpt>
      <trkpt lat="49.48448" lon="-1.78169">
        <ele>109.226935</ele>
        <time>2022-01-20T01:22:01.652Z</time>
      </trkpt>
      <trkpt lat="49.48466" lon="-1.78181">
        <ele>110.487353</ele>
        <time>2022-01-20T01:22:06.893Z</time>
      </trkpt>
      <trkpt lat="49.48512" lon="-1.78211">
        <ele>112.51884</ele>
        <time>2022-01-20T01:22:19.274Z</time>
      </trkpt>
      <trkpt lat="49.48525" lon="-1.7822">
        <ele>113.027961</ele>
        <time>2022-01-20T01:22:23.220Z</time>
      </trkpt>
      <trkpt lat="49.48545" lon="-1.78233">
        <ele>113.741659</ele>
        <time>2022-01-20T01:22:27.959Z</time>
      </trkpt>
      <trkpt lat="49.48546" lon="-1.78252">
        <ele>114.162601</ele>
        <time>2022-01-20T01:22:31.086Z</time>
      </trkpt>
      <trkpt lat="49.48591" lon="-1.78285">
        <ele>115.832729</ele>
        <time>2022-01-20T01:22:41.687Z</time>
      </trkpt>
      <trkpt lat="49.48633" lon="-1.78187">
        <ele>116.997391</ele>
        <time>2022-01-20T01:22:56.084Z</time>
      </trkpt>
      <trkpt lat="49.48647" lon="-1.78158">
        <ele>116.829554</ele>
        <time>2022-01-20T01:22:59.924Z</time>
      </trkpt>
      <trkpt lat="49.48672" lon="-1.78152">
        <ele>116.645444</ele>
        <time>2022-01-20T01:23:04.205Z</time>
      </trkpt>
      <trkpt lat="49.48714" lon="-1.78134">
        <ele>116.330298</ele>
        <time>2022-01-20T01:23:11.428Z</time>
      </trkpt>
      <trkpt lat="49.48754" lon="-1.78121">
        <ele>116.039478</ele>
        <time>2022-01-20T01:23:22.211Z</time>
      </trkpt>
      <trkpt lat="49.48817" lon="-1.78108">
        <ele>114.679444</ele>
        <time>2022-01-20T01:23:38.750Z</time>
      </trkpt>
      <trkpt lat="49.48851" lon="-1.7808">
        <ele>113.714661</ele>
        <time>2022-01-20T01:23:48.834Z</time>
      </trkpt>
      <trkpt lat="49.49051" lon="-1.78009">
        <ele>107.245955</ele>
        <time>2022-01-20T01:24:39.639Z</time>
      </trkpt>
      <trkpt lat="49.49076" lon="-1.78007">
        <ele>106.329651</ele>
        <time>2022-01-20T01:24:45.443Z</time>
      </trkpt>
      <trkpt lat="49.49133" lon="-1.78002">
        <ele>103.972326</ele>
        <time>2022-01-20T01:24:58.862Z</time>
      </trkpt>
      <trkpt lat="49.4915" lon="-1.77993">
        <ele>103.073763</ele>
        <time>2022-01-20T01:25:02.923Z</time>
      </trkpt>
      <trkpt lat="49.49201" lon="-1.7807">
        <ele>99.471522</ele>
        <time>2022-01-20T01:25:19.269Z</time>
      </trkpt>
      <trkpt lat="49.49312" lon="-1.78205">
        <ele>92.897445</ele>
        <time>2022-01-20T01:25:51.645Z</time>
      </trkpt>
      <trkpt lat="49.49394" lon="-1.78287">
        <ele>88.724631</ele>
        <time>2022-01-20T01:26:15.041Z</time>
      </trkpt>
      <trkpt lat="49.49487" lon="-1.78324">
        <ele>86.088546</ele>
        <time>2022-01-20T01:26:38.794Z</time>
      </trkpt>
      <trkpt lat="49.49593" lon="-1.78348">
        <ele>83.589856</ele>
        <time>2022-01-20T01:27:06.592Z</time>
      </trkpt>
      <trkpt lat="49.497" lon="-1.78301">
        <ele>82.788405</ele>
        <time>2022-01-20T01:27:37.164Z</time>
      </trkpt>
      <trkpt lat="49.49785" lon="-1.78265">
        <ele>82.835411</ele>
        <time>2022-01-20T01:28:01.849Z</time>
      </trkpt>
      <trkpt lat="49.49781" lon="-1.78284">
        <ele>83.039474</ele>
        <time>2022-01-20T01:28:05.510Z</time>
      </trkpt>
      <trkpt lat="49.4977" lon="-1.78368">
        <ele>83.922514</ele>
        <time>2022-01-20T01:28:21.314Z</time>
      </trkpt>
      <trkpt lat="49.49764" lon="-1.78452">
        <ele>84.797648</ele>
        <time>2022-01-20T01:28:37.143Z</time>
      </trkpt>
      <trkpt lat="49.49762" lon="-1.78512">
        <ele>85.278575</ele>
        <time>2022-01-20T01:28:48.142Z</time>
      </trkpt>
      <trkpt lat="49.49765" lon="-1.78559">
        <ele>85.425243</ele>
        <time>2022-01-20T01:28:56.921Z</time>
      </trkpt>
      <trkpt lat="49.49781" lon="-1.78617">
        <ele>85.617564</ele>
        <time>2022-01-20T01:29:08.388Z</time>
      </trkpt>
      <trkpt lat="49.49768" lon="-1.78728">
        <ele>85.964156</ele>
        <time>2022-01-20T01:29:28.857Z</time>
      </trkpt>
      <trkpt lat="49.49768" lon="-1.78806">
        <ele>85.985144</ele>
        <time>2022-01-20T01:29:42.931Z</time>
      </trkpt>
      <trkpt lat="49.49718" lon="-1.79132">
        <ele>85.367267</ele>
        <time>2022-01-20T01:30:43.869Z</time>
      </trkpt>
      <trkpt lat="49.49649" lon="-1.7924">
        <ele>85.187509</ele>
        <time>2022-01-20T01:31:11.482Z</time>
      </trkpt>
      <trkpt lat="49.49648" lon="-1.79453">
        <ele>84.348338</ele>
        <time>2022-01-20T01:31:50.081Z</time>
      </trkpt>
      <trkpt lat="49.49679" lon="-1.79479">
        <ele>84.112754</ele>
        <time>2022-01-20T01:31:59.498Z</time>
      </trkpt>
      <trkpt lat="49.49669" lon="-1.79819">
        <ele>83.350376</ele>
        <time>2022-01-20T01:33:01.399Z</time>
      </trkpt>
      <trkpt lat="49.49663" lon="-1.79883">
        <ele>83.233796</ele>
        <time>2022-01-20T01:33:13.260Z</time>
      </trkpt>
      <trkpt lat="49.49662" lon="-1.79889">
        <ele>83.222626</ele>
        <time>2022-01-20T01:33:13.913Z</time>
      </trkpt>
      <trkpt lat="49.49655" lon="-1.79923">
        <ele>83.158952</ele>
        <time>2022-01-20T01:33:18.049Z</time>
      </trkpt>
      <trkpt lat="49.49657" lon="-1.79961">
        <ele>83.089707</ele>
        <time>2022-01-20T01:33:22.454Z</time>
      </trkpt>
      <trkpt lat="49.49626" lon="-1.80095">
        <ele>82.525083</ele>
        <time>2022-01-20T01:33:38.384Z</time>
      </trkpt>
      <trkpt lat="49.49587" lon="-1.80197">
        <ele>81.392056</ele>
        <time>2022-01-20T01:33:50.924Z</time>
      </trkpt>
      <trkpt lat="49.49562" lon="-1.8022">
        <ele>80.96984</ele>
        <time>2022-01-20T01:33:55.437Z</time>
      </trkpt>
      <trkpt lat="49.49569" lon="-1.80236">
        <ele>80.79003</ele>
        <time>2022-01-20T01:33:58.561Z</time>
      </trkpt>
      <trkpt lat="49.49577" lon="-1.80253">
        <ele>80.584166</ele>
        <time>2022-01-20T01:34:02.213Z</time>
      </trkpt>
      <trkpt lat="49.49553" lon="-1.80336">
        <ele>79.083897</ele>
        <time>2022-01-20T01:34:17.200Z</time>
      </trkpt>
      <trkpt lat="49.49588" lon="-1.80382">
        <ele>77.616287</ele>
        <time>2022-01-20T01:34:28.644Z</time>
      </trkpt>
      <trkpt lat="49.49722" lon="-1.80429">
        <ele>72.536068</ele>
        <time>2022-01-20T01:35:01.710Z</time>
      </trkpt>
      <trkpt lat="49.49818" lon="-1.80532">
        <ele>66.799184</ele>
        <time>2022-01-20T01:35:28.628Z</time>
      </trkpt>
      <trkpt lat="49.49842" lon="-1.80578">
        <ele>64.752998</ele>
        <time>2022-01-20T01:35:37.242Z</time>
      </trkpt>
      <trkpt lat="49.49842" lon="-1.80582">
        <ele>64.591466</ele>
        <time>2022-01-20T01:35:37.813Z</time>
      </trkpt>
      <trkpt lat="49.49847" lon="-1.80616">
        <ele>63.23514</ele>
        <time>2022-01-20T01:35:42.808Z</time>
      </trkpt>
      <trkpt lat="49.49808" lon="-1.80835">
        <ele>54.548115</ele>
        <time>2022-01-20T01:36:15.314Z</time>
      </trkpt>
      <trkpt lat="49.49789" lon="-1.80931">
        <ele>52.691568</ele>
        <time>2022-01-20T01:36:31.152Z</time>
      </trkpt>
      <trkpt lat="49.49744" lon="-1.80944">
        <ele>51.408004</ele>
        <time>2022-01-20T01:36:43.079Z</time>
      </trkpt>
      <trkpt lat="49.49647" lon="-1.80987">
        <ele>48.965715</ele>
        <time>2022-01-20T01:37:10.693Z</time>
      </trkpt>
      <trkpt lat="49.49577" lon="-1.81056">
        <ele>47.503358</ele>
        <time>2022-01-20T01:37:32.925Z</time>
      </trkpt>
      <trkpt lat="49.49564" lon="-1.81089">
        <ele>47.057673</ele>
        <time>2022-01-20T01:37:39.392Z</time>
      </trkpt>
      <trkpt lat="49.49569" lon="-1.81101">
        <ele>46.885194</ele>
        <time>2022-01-20T01:37:41.800Z</time>
      </trkpt>
      <trkpt lat="49.4957" lon="-1.81103">
        <ele>46.85333</ele>
        <time>2022-01-20T01:37:42.246Z</time>
      </trkpt>
      <trkpt lat="49.49581" lon="-1.8113">
        <ele>46.493648</ele>
        <time>2022-01-20T01:37:47.326Z</time>
      </trkpt>
      <trkpt lat="49.49564" lon="-1.81221">
        <ele>45.919808</ele>
        <time>2022-01-20T01:38:02.875Z</time>
      </trkpt>
      <trkpt lat="49.49641" lon="-1.81243">
        <ele>45.189342</ele>
        <time>2022-01-20T01:38:23.073Z</time>
      </trkpt>
      <trkpt lat="49.49755" lon="-1.81224">
        <ele>47.740108</ele>
        <time>2022-01-20T01:38:56.181Z</time>
      </trkpt>
      <trkpt lat="49.49775" lon="-1.81235">
        <ele>48.588114</ele>
        <time>2022-01-20T01:39:02.699Z</time>
      </trkpt>
      <trkpt lat="49.49804" lon="-1.81267">
        <ele>49.962865</ele>
        <time>2022-01-20T01:39:13.520Z</time>
      </trkpt>
      <trkpt lat="49.49827" lon="-1.81304">
        <ele>51.287328</ele>
        <time>2022-01-20T01:39:24.083Z</time>
      </trkpt>
      <trkpt lat="49.49846" lon="-1.81316">
        <ele>52.141347</ele>
        <time>2022-01-20T01:39:30.456Z</time>
      </trkpt>
      <trkpt lat="49.49978" lon="-1.81344">
        <ele>58.957254</ele>
        <time>2022-01-20T01:40:12.457Z</time>
      </trkpt>
      <trkpt lat="49.50017" lon="-1.81363">
        <ele>61.020218</ele>
        <time>2022-01-20T01:40:24.789Z</time>
      </trkpt>
      <trkpt lat="49.50107" lon="-1.81425">
        <ele>65.605194</ele>
        <time>2022-01-20T01:40:54.980Z</time>
      </trkpt>
      <trkpt lat="49.50142" lon="-1.81411">
        <ele>67.266226</ele>
        <time>2022-01-20T01:41:05.906Z</time>
      </trkpt>
      <trkpt lat="49.50256" lon="-1.81445">
        <ele>72.727559</ele>
        <time>2022-01-20T01:41:41.577Z</time>
      </trkpt>
      <trkpt lat="49.503" lon="-1.81452">
        <ele>74.825513</ele>
        <time>2022-01-20T01:41:55.299Z</time>
      </trkpt>
      <trkpt lat="49.5034" lon="-1.81449">
        <ele>76.71915</ele>
        <time>2022-01-20T01:42:07.485Z</time>
      </trkpt>
      <trkpt lat="49.50365" lon="-1.81457">
        <ele>77.921918</ele>
        <time>2022-01-20T01:42:15.239Z</time>
      </trkpt>
      <trkpt lat="49.50398" lon="-1.81459">
        <ele>79.156665</ele>
        <time>2022-01-20T01:42:25.178Z</time>
      </trkpt>
      <trkpt lat="49.50419" lon="-1.8146">
        <ele>79.983389</ele>
        <time>2022-01-20T01:42:31.801Z</time>
      </trkpt>
      <trkpt lat="49.50422" lon="-1.81442">
        <ele>80.449778</ele>
        <time>2022-01-20T01:42:35.413Z</time>
      </trkpt>
      <trkpt lat="49.50436" lon="-1.81437">
        <ele>81.015995</ele>
        <time>2022-01-20T01:42:39.915Z</time>
      </trkpt>
      <trkpt lat="49.50465" lon="-1.81439">
        <ele>82.103168</ele>
        <time>2022-01-20T01:42:48.333Z</time>
      </trkpt>
      <trkpt lat="49.5049" lon="-1.81452">
        <ele>83.104086</ele>
        <time>2022-01-20T01:42:56.090Z</time>
      </trkpt>
      <trkpt lat="49.50488" lon="-1.81483">
        <ele>83.866874</ele>
        <time>2022-01-20T01:43:02.026Z</time>
      </trkpt>
      <trkpt lat="49.50466" lon="-1.81618">
        <ele>86.27786</ele>
        <time>2022-01-20T01:43:27.888Z</time>
      </trkpt>
      <trkpt lat="49.50419" lon="-1.81731">
        <ele>88.265894</ele>
        <time>2022-01-20T01:43:52.714Z</time>
      </trkpt>
      <trkpt lat="49.50407" lon="-1.81787">
        <ele>89.295165</ele>
        <time>2022-01-20T01:44:03.778Z</time>
      </trkpt>
      <trkpt lat="49.504" lon="-1.81793">
        <ele>89.543749</ele>
        <time>2022-01-20T01:44:05.282Z</time>
      </trkpt>
      <trkpt lat="49.50395" lon="-1.8185">
        <ele>90.794028</ele>
        <time>2022-01-20T01:44:13.103Z</time>
      </trkpt>
      <trkpt lat="49.5039" lon="-1.81911">
        <ele>92.135821</ele>
        <time>2022-01-20T01:44:21.637Z</time>
      </trkpt>
      <trkpt lat="49.5038" lon="-1.81971">
        <ele>93.491792</ele>
        <time>2022-01-20T01:44:30.580Z</time>
      </trkpt>
      <trkpt lat="49.50419" lon="-1.81994">
        <ele>94.885664</ele>
        <time>2022-01-20T01:44:43.259Z</time>
      </trkpt>
      <trkpt lat="49.50498" lon="-1.82016">
        <ele>99.944419</ele>
        <time>2022-01-20T01:45:09.055Z</time>
      </trkpt>
      <trkpt lat="49.50543" lon="-1.82057">
        <ele>103.209001</ele>
        <time>2022-01-20T01:45:27.205Z</time>
      </trkpt>
      <trkpt lat="49.50612" lon="-1.82102">
        <ele>107.790632</ele>
        <time>2022-01-20T01:45:52.398Z</time>
      </trkpt>
      <trkpt lat="49.50678" lon="-1.82148">
        <ele>112.184277</ele>
        <time>2022-01-20T01:46:17.748Z</time>
      </trkpt>
      <trkpt lat="49.50754" lon="-1.82203">
        <ele>117.017335</ele>
        <time>2022-01-20T01:46:44.138Z</time>
      </trkpt>
      <trkpt lat="49.50793" lon="-1.82229">
        <ele>117.348675</ele>
        <time>2022-01-20T01:46:56.363Z</time>
      </trkpt>
      <trkpt lat="49.5084" lon="-1.82239">
        <ele>117.725023</ele>
        <time>2022-01-20T01:47:09.820Z</time>
      </trkpt>
      <trkpt lat="49.50916" lon="-1.82295">
        <ele>118.398943</ele>
        <time>2022-01-20T01:47:33.460Z</time>
      </trkpt>
      <trkpt lat="49.5097" lon="-1.82319">
        <ele>116.582773</ele>
        <time>2022-01-20T01:47:46.838Z</time>
      </trkpt>
      <trkpt lat="49.51015" lon="-1.82322">
        <ele>115.085126</ele>
        <time>2022-01-20T01:47:57.651Z</time>
      </trkpt>
      <trkpt lat="49.51034" lon="-1.82327">
        <ele>114.460617</ele>
        <time>2022-01-20T01:48:01.962Z</time>
      </trkpt>
      <trkpt lat="49.5104" lon="-1.82356">
        <ele>113.815877</ele>
        <time>2022-01-20T01:48:04.663Z</time>
      </trkpt>
      <trkpt lat="49.51054" lon="-1.82355">
        <ele>113.366404</ele>
        <time>2022-01-20T01:48:07.744Z</time>
      </trkpt>
      <trkpt lat="49.51292" lon="-1.82474">
        <ele>108.836604</ele>
        <time>2022-01-20T01:49:12.600Z</time>
      </trkpt>
      <trkpt lat="49.5131" lon="-1.82479">
        <ele>108.946349</ele>
        <time>2022-01-20T01:49:17.632Z</time>
      </trkpt>
      <trkpt lat="49.51294" lon="-1.82531">
        <ele>109.171891</ele>
        <time>2022-01-20T01:49:28.070Z</time>
      </trkpt>
      <trkpt lat="49.51285" lon="-1.82564">
        <ele>109.314713</ele>
        <time>2022-01-20T01:49:34.705Z</time>
      </trkpt>
      <trkpt lat="49.51274" lon="-1.82651">
        <ele>109.667942</ele>
        <time>2022-01-20T01:49:51.142Z</time>
      </trkpt>
      <trkpt lat="49.51273" lon="-1.82729">
        <ele>110.066868</ele>
        <time>2022-01-20T01:50:05.756Z</time>
      </trkpt>
      <trkpt lat="49.51267" lon="-1.82773">
        <ele>110.295358</ele>
        <time>2022-01-20T01:50:14.124Z</time>
      </trkpt>
      <trkpt lat="49.51222" lon="-1.82817">
        <ele>110.719622</ele>
        <time>2022-01-20T01:50:29.318Z</time>
      </trkpt>
      <trkpt lat="49.51211" lon="-1.82819">
        <ele>110.803555</ele>
        <time>2022-01-20T01:50:32.320Z</time>
      </trkpt>
      <trkpt lat="49.51278" lon="-1.82908">
        <ele>108.212184</ele>
        <time>2022-01-20T01:50:55.220Z</time>
      </trkpt>
      <trkpt lat="49.51288" lon="-1.8294">
        <ele>106.901594</ele>
        <time>2022-01-20T01:51:00.697Z</time>
      </trkpt>
      <trkpt lat="49.51327" lon="-1.82993">
        <ele>104.028818</ele>
        <time>2022-01-20T01:51:12.487Z</time>
      </trkpt>
      <trkpt lat="49.51364" lon="-1.83014">
        <ele>101.815299</ele>
        <time>2022-01-20T01:51:20.796Z</time>
      </trkpt>
      <trkpt lat="49.514" lon="-1.83044">
        <ele>98.098014</ele>
        <time>2022-01-20T01:51:29.161Z</time>
      </trkpt>
      <trkpt lat="49.51464" lon="-1.83068">
        <ele>91.110993</ele>
        <time>2022-01-20T01:51:42.489Z</time>
      </trkpt>
      <trkpt lat="49.51497" lon="-1.83084">
        <ele>87.457174</ele>
        <time>2022-01-20T01:51:49.471Z</time>
      </trkpt>
      <trkpt lat="49.51495" lon="-1.83117">
        <ele>85.182231</ele>
        <time>2022-01-20T01:51:51.985Z</time>
      </trkpt>
      <trkpt lat="49.5148" lon="-1.83159">
        <ele>81.857113</ele>
        <time>2022-01-20T01:51:55.581Z</time>
      </trkpt>
      <trkpt lat="49.51464" lon="-1.83187">
        <ele>79.600757</ele>
        <time>2022-01-20T01:51:58.438Z</time>
      </trkpt>
      <trkpt lat="49.51466" lon="-1.83205">
        <ele>78.467749</ele>
        <time>2022-01-20T01:51:59.813Z</time>
      </trkpt>
      <trkpt lat="49.5155" lon="-1.83243">
        <ele>70.240609</ele>
        <time>2022-01-20T01:52:10.350Z</time>
      </trkpt>
      <trkpt lat="49.51563" lon="-1.83247">
        <ele>69.039177</ele>
        <time>2022-01-20T01:52:11.901Z</time>
      </trkpt>
      <trkpt lat="49.51563" lon="-1.83252">
        <ele>68.716879</ele>
        <time>2022-01-20T01:52:12.272Z</time>
      </trkpt>
      <trkpt lat="49.51567" lon="-1.8334">
        <ele>64.248575</ele>
        <time>2022-01-20T01:52:19.119Z</time>
      </trkpt>
      <trkpt lat="49.51581" lon="-1.83394">
        <ele>62.587911</ele>
        <time>2022-01-20T01:52:23.730Z</time>
      </trkpt>
      <trkpt lat="49.51596" lon="-1.83422">
        <ele>61.534831</ele>
        <time>2022-01-20T01:52:26.674Z</time>
      </trkpt>
      <trkpt lat="49.51618" lon="-1.83437">
        <ele>60.470131</ele>
        <time>2022-01-20T01:52:29.694Z</time>
      </trkpt>
      <trkpt lat="49.51635" lon="-1.8344">
        <ele>59.704609</ele>
        <time>2022-01-20T01:52:32.032Z</time>
      </trkpt>
      <trkpt lat="49.51647" lon="-1.83442">
        <ele>59.187072</ele>
        <time>2022-01-20T01:52:33.804Z</time>
      </trkpt>
      <trkpt lat="49.51649" lon="-1.83442">
        <ele>59.125222</ele>
        <time>2022-01-20T01:52:34.009Z</time>
      </trkpt>
      <trkpt lat="49.51651" lon="-1.8347">
        <ele>58.321444</ele>
        <time>2022-01-20T01:52:38.900Z</time>
      </trkpt>
      <trkpt lat="49.51655" lon="-1.83498">
        <ele>57.497925</ele>
        <time>2022-01-20T01:52:43.928Z</time>
      </trkpt>
      <trkpt lat="49.51628" lon="-1.83529">
        <ele>56.896702</ele>
        <time>2022-01-20T01:52:53.283Z</time>
      </trkpt>
      <trkpt lat="49.51626" lon="-1.83549">
        <ele>56.787037</ele>
        <time>2022-01-20T01:52:56.982Z</time>
      </trkpt>
      <trkpt lat="49.51635" lon="-1.83587">
        <ele>56.572229</ele>
        <time>2022-01-20T01:53:04.157Z</time>
      </trkpt>
      <trkpt lat="49.51639" lon="-1.83663">
        <ele>56.162149</ele>
        <time>2022-01-20T01:53:18.039Z</time>
      </trkpt>
      <trkpt lat="49.51645" lon="-1.83692">
        <ele>55.997596</ele>
        <time>2022-01-20T01:53:23.595Z</time>
      </trkpt>
      <trkpt lat="49.51662" lon="-1.83713">
        <ele>55.815598</ele>
        <time>2022-01-20T01:53:29.754Z</time>
      </trkpt>
      <trkpt lat="49.51668" lon="-1.83737">
        <ele>55.676011</ele>
        <time>2022-01-20T01:53:34.068Z</time>
      </trkpt>
      <trkpt lat="49.51667" lon="-1.83765">
        <ele>55.419142</ele>
        <time>2022-01-20T01:53:37.168Z</time>
      </trkpt>
      <trkpt lat="49.51665" lon="-1.83772">
        <ele>55.330729</ele>
        <time>2022-01-20T01:53:38.095Z</time>
      </trkpt>
      <trkpt lat="49.51683" lon="-1.83777">
        <ele>54.990555</ele>
        <time>2022-01-20T01:53:42.669Z</time>
      </trkpt>
      <trkpt lat="49.51709" lon="-1.83776">
        <ele>54.519979</ele>
        <time>2022-01-20T01:53:49.841Z</time>
      </trkpt>
      <trkpt lat="49.51741" lon="-1.83755">
        <ele>53.889615</ele>
        <time>2022-01-20T01:53:58.940Z</time>
      </trkpt>
      <trkpt lat="49.51756" lon="-1.83752">
        <ele>53.606292</ele>
        <time>2022-01-20T01:54:02.740Z</time>
      </trkpt>
      <trkpt lat="49.51763" lon="-1.83724">
        <ele>53.253694</ele>
        <time>2022-01-20T01:54:08.082Z</time>
      </trkpt>
      <trkpt lat="49.51766" lon="-1.83711">
        <ele>53.091499</ele>
        <time>2022-01-20T01:54:10.092Z</time>
      </trkpt>
      <trkpt lat="49.5177" lon="-1.8372">
        <ele>52.953255</ele>
        <time>2022-01-20T01:54:11.259Z</time>
      </trkpt>
      <trkpt lat="49.51778" lon="-1.83747">
        <ele>52.600715</ele>
        <time>2022-01-20T01:54:14.270Z</time>
      </trkpt>
      <trkpt lat="49.51791" lon="-1.83847">
        <ele>51.659811</ele>
        <time>2022-01-20T01:54:23.745Z</time>
      </trkpt>
      <trkpt lat="49.51802" lon="-1.8389">
        <ele>51.258603</ele>
        <time>2022-01-20T01:54:28.267Z</time>
      </trkpt>
      <trkpt lat="49.51883" lon="-1.8412">
        <ele>50.176787</ele>
        <time>2022-01-20T01:54:55.779Z</time>
      </trkpt>
      <trkpt lat="49.51884" lon="-1.84151">
        <ele>50.239234</ele>
        <time>2022-01-20T01:54:59.413Z</time>
      </trkpt>
      <trkpt lat="49.51884" lon="-1.84182">
        <ele>50.300814</ele>
        <time>2022-01-20T01:55:03.030Z</time>
      </trkpt>
      <trkpt lat="49.51893" lon="-1.84189">
        <ele>50.333871</ele>
        <time>2022-01-20T01:55:05.072Z</time>
      </trkpt>
      <trkpt lat="49.51899" lon="-1.8419">
        <ele>50.35119</ele>
        <time>2022-01-20T01:55:06.173Z</time>
      </trkpt>
      <trkpt lat="49.51908" lon="-1.842">
        <ele>50.385681</ele>
        <time>2022-01-20T01:55:08.235Z</time>
      </trkpt>
      <trkpt lat="49.51908" lon="-1.84222">
        <ele>50.430147</ele>
        <time>2022-01-20T01:55:12.356Z</time>
      </trkpt>
      <trkpt lat="49.51907" lon="-1.84267">
        <ele>50.601032</ele>
        <time>2022-01-20T01:55:20.720Z</time>
      </trkpt>
      <trkpt lat="49.51916" lon="-1.84297">
        <ele>51.167303</ele>
        <time>2022-01-20T01:55:26.856Z</time>
      </trkpt>
      <trkpt lat="49.51918" lon="-1.84326">
        <ele>51.647889</ele>
        <time>2022-01-20T01:55:32.088Z</time>
      </trkpt>
      <trkpt lat="49.51908" lon="-1.84354">
        <ele>52.197925</ele>
        <time>2022-01-20T01:55:38.074Z</time>
      </trkpt>
      <trkpt lat="49.51885" lon="-1.84479">
        <ele>54.400352</ele>
        <time>2022-01-20T01:56:02.459Z</time>
      </trkpt>
      <trkpt lat="49.51864" lon="-1.84473">
        <ele>54.945525</ele>
        <time>2022-01-20T01:56:08.508Z</time>
      </trkpt>
      <trkpt lat="49.51853" lon="-1.84477">
        <ele>55.252806</ele>
        <time>2022-01-20T01:56:11.897Z</time>
      </trkpt>
      <trkpt lat="49.51841" lon="-1.84486">
        <ele>55.674097</ele>
        <time>2022-01-20T01:56:15.794Z</time>
      </trkpt>
      <trkpt lat="49.51839" lon="-1.84501">
        <ele>55.983261</ele>
        <time>2022-01-20T01:56:18.681Z</time>
      </trkpt>
      <trkpt lat="49.51862" lon="-1.84667">
        <ele>59.453088</ele>
        <time>2022-01-20T01:56:50.898Z</time>
      </trkpt>
      <trkpt lat="49.5187" lon="-1.84698">
        <ele>60.121672</ele>
        <time>2022-01-20T01:56:57.243Z</time>
      </trkpt>
      <trkpt lat="49.51871" lon="-1.84736">
        <ele>60.875611</ele>
        <time>2022-01-20T01:57:04.356Z</time>
      </trkpt>
      <trkpt lat="49.51862" lon="-1.84818">
        <ele>61.523318</ele>
        <time>2022-01-20T01:57:19.923Z</time>
      </trkpt>
      <trkpt lat="49.51864" lon="-1.84891">
        <ele>62.08604</ele>
        <time>2022-01-20T01:57:33.318Z</time>
      </trkpt>
      <trkpt lat="49.51864" lon="-1.84922">
        <ele>62.322615</ele>
        <time>2022-01-20T01:57:38.976Z</time>
      </trkpt>
      <trkpt lat="49.5187" lon="-1.8491">
        <ele>62.439366</ele>
        <time>2022-01-20T01:57:41.711Z</time>
      </trkpt>
      <trkpt lat="49.5192" lon="-1.8488">
        <ele>62.891996</ele>
        <time>2022-01-20T01:57:56.763Z</time>
      </trkpt>
      <trkpt lat="49.51968" lon="-1.84862">
        <ele>62.065064</ele>
        <time>2022-01-20T01:58:10.165Z</time>
      </trkpt>
      <trkpt lat="49.52022" lon="-1.84809">
        <ele>60.993685</ele>
        <time>2022-01-20T01:58:26.684Z</time>
      </trkpt>
      <trkpt lat="49.52035" lon="-1.84786">
        <ele>60.662682</ele>
        <time>2022-01-20T01:58:31.731Z</time>
      </trkpt>
      <trkpt lat="49.52061" lon="-1.84752">
        <ele>60.088279</ele>
        <time>2022-01-20T01:58:40.456Z</time>
      </trkpt>
      <trkpt lat="49.52071" lon="-1.84832">
        <ele>59.133607</ele>
        <time>2022-01-20T01:58:54.016Z</time>
      </trkpt>
      <trkpt lat="49.52076" lon="-1.84937">
        <ele>57.878632</ele>
        <time>2022-01-20T01:59:11.860Z</time>
      </trkpt>
      <trkpt lat="49.52039" lon="-1.84978">
        <ele>57.043007</ele>
        <time>2022-01-20T01:59:24.038Z</time>
      </trkpt>
      <trkpt lat="49.52035" lon="-1.85004">
        <ele>56.723642</ele>
        <time>2022-01-20T01:59:28.815Z</time>
      </trkpt>
      <trkpt lat="49.52105" lon="-1.85151">
        <ele>55.875297</ele>
        <time>2022-01-20T02:00:01.535Z</time>
      </trkpt>
      <trkpt lat="49.52133" lon="-1.85221">
        <ele>55.500685</ele>
        <time>2022-01-20T02:00:16.412Z</time>
      </trkpt>
      <trkpt lat="49.52149" lon="-1.8524">
        <ele>55.30653</ele>
        <time>2022-01-20T02:00:22.059Z</time>
      </trkpt>
      <trkpt lat="49.52153" lon="-1.8527">
        <ele>55.064115</ele>
        <time>2022-01-20T02:00:27.666Z</time>
      </trkpt>
      <trkpt lat="49.52179" lon="-1.85295">
        <ele>54.698802</ele>
        <time>2022-01-20T02:00:36.076Z</time>
      </trkpt>
      <trkpt lat="49.52197" lon="-1.85311">
        <ele>54.442928</ele>
        <time>2022-01-20T02:00:42.000Z</time>
      </trkpt>
      <trkpt lat="49.52185" lon="-1.85369">
        <ele>53.960874</ele>
        <time>2022-01-20T02:01:09.589Z</time>
      </trkpt>
      <trkpt lat="49.52209" lon="-1.85405">
        <ele>53.558409</ele>
        <time>2022-01-20T02:01:18.205Z</time>
      </trkpt>
      <trkpt lat="49.52214" lon="-1.85454">
        <ele>53.008181</ele>
        <time>2022-01-20T02:01:26.518Z</time>
      </trkpt>
      <trkpt lat="49.52236" lon="-1.85539">
        <ele>50.808559</ele>
        <time>2022-01-20T02:01:41.004Z</time>
      </trkpt>
      <trkpt lat="49.52243" lon="-1.85562">
        <ele>50.20442</ele>
        <time>2022-01-20T02:01:44.990Z</time>
      </trkpt>
      <trkpt lat="49.52258" lon="-1.85548">
        <ele>49.558546</ele>
        <time>2022-01-20T02:01:49.006Z</time>
      </trkpt>
      <trkpt lat="49.52303" lon="-1.85485">
        <ele>47.323082</ele>
        <time>2022-01-20T02:02:03.384Z</time>
      </trkpt>
      <trkpt lat="49.52312" lon="-1.85481">
        <ele>46.967088</ele>
        <time>2022-01-20T02:02:05.566Z</time>
      </trkpt>
      <trkpt lat="49.52325" lon="-1.85475">
        <ele>46.523558</ele>
        <time>2022-01-20T02:02:08.819Z</time>
      </trkpt>
      <trkpt lat="49.52343" lon="-1.85458">
        <ele>46.072057</ele>
        <time>2022-01-20T02:02:13.829Z</time>
      </trkpt>
      <trkpt lat="49.52386" lon="-1.85471">
        <ele>45.122104</ele>
        <time>2022-01-20T02:02:24.462Z</time>
      </trkpt>
      <trkpt lat="49.5242" lon="-1.85472">
        <ele>44.398416</ele>
        <time>2022-01-20T02:02:33.205Z</time>
      </trkpt>
      <trkpt lat="49.5244" lon="-1.85461">
        <ele>43.949521</ele>
        <time>2022-01-20T02:02:39.059Z</time>
      </trkpt>
      <trkpt lat="49.52486" lon="-1.85419">
        <ele>42.804265</ele>
        <time>2022-01-20T02:02:53.777Z</time>
      </trkpt>
      <trkpt lat="49.525" lon="-1.85421">
        <ele>42.8823</ele>
        <time>2022-01-20T02:02:57.719Z</time>
      </trkpt>
      <trkpt lat="49.52501" lon="-1.85435">
        <ele>42.993405</ele>
        <time>2022-01-20T02:03:00.295Z</time>
      </trkpt>
      <trkpt lat="49.525" lon="-1.85447">
        <ele>43.088571</ele>
        <time>2022-01-20T02:03:02.499Z</time>
      </trkpt>
      <trkpt lat="49.52483" lon="-1.85487">
        <ele>43.467552</ele>
        <time>2022-01-20T02:03:11.312Z</time>
      </trkpt>
      <trkpt lat="49.5248" lon="-1.85521">
        <ele>43.739275</ele>
        <time>2022-01-20T02:03:17.634Z</time>
      </trkpt>
      <trkpt lat="49.52478" lon="-1.85531">
        <ele>43.816797</ele>
        <time>2022-01-20T02:03:19.429Z</time>
      </trkpt>
      <trkpt lat="49.52476" lon="-1.85544">
        <ele>43.927357</ele>
        <time>2022-01-20T02:03:22.018Z</time>
      </trkpt>
      <trkpt lat="49.52475" lon="-1.85571">
        <ele>44.140677</ele>
        <time>2022-01-20T02:03:26.982Z</time>
      </trkpt>
      <trkpt lat="49.52477" lon="-1.85606">
        <ele>44.415217</ele>
        <time>2022-01-20T02:03:33.416Z</time>
      </trkpt>
      <trkpt lat="49.52478" lon="-1.85643">
        <ele>44.706986</ele>
        <time>2022-01-20T02:03:40.231Z</time>
      </trkpt>
      <trkpt lat="49.52493" lon="-1.85681">
        <ele>45.207215</ele>
        <time>2022-01-20T02:04:00.097Z</time>
      </trkpt>
      <trkpt lat="49.52513" lon="-1.85725">
        <ele>46.175602</ele>
        <time>2022-01-20T02:04:24.689Z</time>
      </trkpt>
      <trkpt lat="49.52523" lon="-1.85731">
        <ele>46.473384</ele>
        <time>2022-01-20T02:04:32.278Z</time>
      </trkpt>
      <trkpt lat="49.52542" lon="-1.85767">
        <ele>47.286038</ele>
        <time>2022-01-20T02:04:52.885Z</time>
      </trkpt>
      <trkpt lat="49.52545" lon="-1.85782">
        <ele>47.56876</ele>
        <time>2022-01-20T02:05:00.107Z</time>
      </trkpt>
      <trkpt lat="49.52544" lon="-1.85795">
        <ele>47.80608</ele>
        <time>2022-01-20T02:05:06.122Z</time>
      </trkpt>
      <trkpt lat="49.52541" lon="-1.85847">
        <ele>48.717702</ele>
        <time>2022-01-20T02:05:29.287Z</time>
      </trkpt>
      <trkpt lat="49.52546" lon="-1.85885">
        <ele>49.419329</ele>
        <time>2022-01-20T02:05:47.095Z</time>
      </trkpt>
      <trkpt lat="49.52565" lon="-1.85893">
        <ele>49.977453</ele>
        <time>2022-01-20T02:06:00.652Z</time>
      </trkpt>
      <trkpt lat="49.52566" lon="-1.85891">
        <ele>50.035355</ele>
        <time>2022-01-20T02:06:01.824Z</time>
      </trkpt>
      <trkpt lat="49.52629" lon="-1.85925">
        <ele>52.317481</ele>
        <time>2022-01-20T02:06:48.127Z</time>
      </trkpt>
      <trkpt lat="49.52652" lon="-1.85933">
        <ele>53.118067</ele>
        <time>2022-01-20T02:07:04.371Z</time>
      </trkpt>
      <trkpt lat="49.52687" lon="-1.85953">
        <ele>54.381645</ele>
        <time>2022-01-20T02:07:30.038Z</time>
      </trkpt>
      <trkpt lat="49.52688" lon="-1.85994">
        <ele>55.281097</ele>
        <time>2022-01-20T02:07:45.065Z</time>
      </trkpt>
      <trkpt lat="49.52751" lon="-1.8602">
        <ele>57.729604</ele>
        <time>2022-01-20T02:08:22.240Z</time>
      </trkpt>
      <trkpt lat="49.52763" lon="-1.86025">
        <ele>58.226137</ele>
        <time>2022-01-20T02:08:29.468Z</time>
      </trkpt>
      <trkpt lat="49.52769" lon="-1.86043">
        <ele>58.748216</ele>
        <time>2022-01-20T02:08:37.059Z</time>
      </trkpt>
      <trkpt lat="49.52775" lon="-1.86108">
        <ele>60.446224</ele>
        <time>2022-01-20T02:09:01.744Z</time>
      </trkpt>
      <trkpt lat="49.52807" lon="-1.86174">
        <ele>62.540544</ele>
        <time>2022-01-20T02:09:32.198Z</time>
      </trkpt>
      <trkpt lat="49.52814" lon="-1.86179">
        <ele>62.842505</ele>
        <time>2022-01-20T02:09:36.568Z</time>
      </trkpt>
      <trkpt lat="49.52826" lon="-1.86186">
        <ele>63.273004</ele>
        <time>2022-01-20T02:09:43.598Z</time>
      </trkpt>
      <trkpt lat="49.52827" lon="-1.86202">
        <ele>63.601421</ele>
        <time>2022-01-20T02:09:49.687Z</time>
      </trkpt>
      <trkpt lat="49.52792" lon="-1.86416">
        <ele>67.988141</ele>
        <time>2022-01-20T02:11:11.278Z</time>
      </trkpt>
      <trkpt lat="49.52744" lon="-1.86517">
        <ele>69.326104</ele>
        <time>2022-01-20T02:11:57.758Z</time>
      </trkpt>
      <trkpt lat="49.52714" lon="-1.8665">
        <ele>70.388556</ele>
        <time>2022-01-20T02:12:50.168Z</time>
      </trkpt>
      <trkpt lat="49.52685" lon="-1.86671">
        <ele>70.732146</ele>
        <time>2022-01-20T02:13:08.204Z</time>
      </trkpt>
      <trkpt lat="49.52663" lon="-1.86678">
        <ele>70.873931</ele>
        <time>2022-01-20T02:13:21.422Z</time>
      </trkpt>
      <trkpt lat="49.52657" lon="-1.86702">
        <ele>70.978423</ele>
        <time>2022-01-20T02:13:33.259Z</time>
      </trkpt>
      <trkpt lat="49.52657" lon="-1.86716">
        <ele>71.034231</ele>
        <time>2022-01-20T02:13:39.577Z</time>
      </trkpt>
      <trkpt lat="49.52657" lon="-1.8674">
        <ele>71.128707</ele>
        <time>2022-01-20T02:13:50.259Z</time>
      </trkpt>
      <trkpt lat="49.5266" lon="-1.86791">
        <ele>71.332033</ele>
        <time>2022-01-20T02:14:13.290Z</time>
      </trkpt>
      <trkpt lat="49.52662" lon="-1.86827">
        <ele>71.476108</ele>
        <time>2022-01-20T02:14:29.582Z</time>
      </trkpt>
      <trkpt lat="49.52663" lon="-1.86847">
        <ele>71.555319</ele>
        <time>2022-01-20T02:14:38.548Z</time>
      </trkpt>
      <trkpt lat="49.52664" lon="-1.8686">
        <ele>71.609699</ele>
        <time>2022-01-20T02:14:44.707Z</time>
      </trkpt>
      <trkpt lat="49.52665" lon="-1.8687">
        <ele>71.647248</ele>
        <time>2022-01-20T02:14:48.969Z</time>
      </trkpt>
      <trkpt lat="49.52665" lon="-1.86887">
        <ele>71.716381</ele>
        <time>2022-01-20T02:14:56.778Z</time>
      </trkpt>
      <trkpt lat="49.52667" lon="-1.86931">
        <ele>71.949793</ele>
        <time>2022-01-20T02:15:16.858Z</time>
      </trkpt>
      <trkpt lat="49.52649" lon="-1.86935">
        <ele>72.143262</ele>
        <time>2022-01-20T02:15:29.911Z</time>
      </trkpt>
      <trkpt lat="49.52643" lon="-1.86935">
        <ele>72.205101</ele>
        <time>2022-01-20T02:15:34.092Z</time>
      </trkpt>
      <trkpt lat="49.52633" lon="-1.86933">
        <ele>72.306251</ele>
        <time>2022-01-20T02:15:40.873Z</time>
      </trkpt>
      <trkpt lat="49.52625" lon="-1.86932">
        <ele>72.393262</ele>
        <time>2022-01-20T02:15:46.729Z</time>
      </trkpt>
      <trkpt lat="49.52623" lon="-1.86953">
        <ele>72.53859</ele>
        <time>2022-01-20T02:15:56.510Z</time>
      </trkpt>
      <trkpt lat="49.52623" lon="-1.86958">
        <ele>72.570049</ele>
        <time>2022-01-20T02:15:58.648Z</time>
      </trkpt>
      <trkpt lat="49.52633" lon="-1.86961">
        <ele>72.676716</ele>
        <time>2022-01-20T02:16:05.799Z</time>
      </trkpt>
      <trkpt lat="49.52627" lon="-1.86988">
        <ele>72.874395</ele>
        <time>2022-01-20T02:16:19.104Z</time>
      </trkpt>
      <trkpt lat="49.52626" lon="-1.86999">
        <ele>72.947497</ele>
        <time>2022-01-20T02:16:24.006Z</time>
      </trkpt>
      <trkpt lat="49.52543" lon="-1.86991">
        <ele>73.948286</ele>
        <time>2022-01-20T02:17:21.830Z</time>
      </trkpt>
      <trkpt lat="49.52517" lon="-1.86989">
        <ele>74.503512</ele>
        <time>2022-01-20T02:17:40.304Z</time>
      </trkpt>
      <trkpt lat="49.52514" lon="-1.8703">
        <ele>75.071076</ele>
        <time>2022-01-20T02:17:59.189Z</time>
      </trkpt>
      <trkpt lat="49.52517" lon="-1.87046">
        <ele>75.288652</ele>
        <time>2022-01-20T02:18:06.422Z</time>
      </trkpt>
      <trkpt lat="49.52519" lon="-1.8705">
        <ele>75.361604</ele>
        <time>2022-01-20T02:18:08.831Z</time>
      </trkpt>
      <trkpt lat="49.52531" lon="-1.87069">
        <ele>75.719093</ele>
        <time>2022-01-20T02:18:20.719Z</time>
      </trkpt>
      <trkpt lat="49.52536" lon="-1.87096">
        <ele>76.102704</ele>
        <time>2022-01-20T02:18:33.468Z</time>
      </trkpt>
      <trkpt lat="49.52549" lon="-1.87119">
        <ele>76.521524</ele>
        <time>2022-01-20T02:18:47.394Z</time>
      </trkpt>
      <trkpt lat="49.52569" lon="-1.8714">
        <ele>77.020908</ele>
        <time>2022-01-20T02:19:03.998Z</time>
      </trkpt>
      <trkpt lat="49.52598" lon="-1.87177">
        <ele>77.323815</ele>
        <time>2022-01-20T02:19:30.404Z</time>
      </trkpt>
      <trkpt lat="49.52596" lon="-1.8718">
        <ele>77.305696</ele>
        <time>2022-01-20T02:19:32.681Z</time>
      </trkpt>
      <trkpt lat="49.52598" lon="-1.87177">
        <ele>77.287576</ele>
        <time>2022-01-20T02:19:34.961Z</time>
      </trkpt>
      <trkpt lat="49.52601" lon="-1.87194">
        <ele>77.223895</ele>
        <time>2022-01-20T02:19:43.038Z</time>
      </trkpt>
      <trkpt lat="49.52597" lon="-1.87273">
        <ele>76.942749</ele>
        <time>2022-01-20T02:20:18.519Z</time>
      </trkpt>
      <trkpt lat="49.52611" lon="-1.8728">
        <ele>76.861051</ele>
        <time>2022-01-20T02:20:28.877Z</time>
      </trkpt>
      <trkpt lat="49.52622" lon="-1.87284">
        <ele>76.799462</ele>
        <time>2022-01-20T02:20:31.567Z</time>
      </trkpt>
      <trkpt lat="49.52687" lon="-1.87304">
        <ele>76.423867</ele>
        <time>2022-01-20T02:20:49.240Z</time>
      </trkpt>
      <trkpt lat="49.52693" lon="-1.87303">
        <ele>76.258675</ele>
        <time>2022-01-20T02:20:50.524Z</time>
      </trkpt>
      <trkpt lat="49.52744" lon="-1.87297">
        <ele>74.816651</ele>
        <time>2022-01-20T02:21:00.166Z</time>
      </trkpt>
      <trkpt lat="49.52751" lon="-1.87297">
        <ele>74.622178</ele>
        <time>2022-01-20T02:21:01.429Z</time>
      </trkpt>
      <trkpt lat="49.52753" lon="-1.87284">
        <ele>74.393297</ele>
        <time>2022-01-20T02:21:03.374Z</time>
      </trkpt>
      <trkpt lat="49.52751" lon="-1.87252">
        <ele>73.804105</ele>
        <time>2022-01-20T02:21:08.399Z</time>
      </trkpt>
      <trkpt lat="49.52753" lon="-1.87284">
        <ele>73.214914</ele>
        <time>2022-01-20T02:21:13.394Z</time>
      </trkpt>
      <trkpt lat="49.52751" lon="-1.87297">
        <ele>72.986032</ele>
        <time>2022-01-20T02:21:15.547Z</time>
      </trkpt>
      <trkpt lat="49.52751" lon="-1.87298">
        <ele>72.967522</ele>
        <time>2022-01-20T02:21:15.710Z</time>
      </trkpt>
      <trkpt lat="49.52748" lon="-1.87309">
        <ele>72.756951</ele>
        <time>2022-01-20T02:21:17.620Z</time>
      </trkpt>
      <trkpt lat="49.52746" lon="-1.87338">
        <ele>72.204689</ele>
        <time>2022-01-20T02:21:22.360Z</time>
      </trkpt>
      <trkpt lat="49.52764" lon="-1.87346">
        <ele>71.684095</ele>
        <time>2022-01-20T02:21:25.049Z</time>
      </trkpt>
      <trkpt lat="49.528" lon="-1.87374">
        <ele>71.11474</ele>
        <time>2022-01-20T02:21:31.209Z</time>
      </trkpt>
      <trkpt lat="49.52815" lon="-1.87393">
        <ele>70.956734</ele>
        <time>2022-01-20T02:21:34.235Z</time>
      </trkpt>
      <trkpt lat="49.52817" lon="-1.87389">
        <ele>70.927324</ele>
        <time>2022-01-20T02:21:34.880Z</time>
      </trkpt>
      <trkpt lat="49.52833" lon="-1.87367">
        <ele>70.744075</ele>
        <time>2022-01-20T02:21:38.708Z</time>
      </trkpt>
      <trkpt lat="49.52949" lon="-1.87349">
        <ele>69.83659</ele>
        <time>2022-01-20T02:21:58.588Z</time>
      </trkpt>
      <trkpt lat="49.5298" lon="-1.87338">
        <ele>69.789396</ele>
        <time>2022-01-20T02:22:04.156Z</time>
      </trkpt>
      <trkpt lat="49.52988" lon="-1.8728">
        <ele>69.730396</ele>
        <time>2022-01-20T02:22:10.988Z</time>
      </trkpt>
      <trkpt lat="49.52989" lon="-1.8719">
        <ele>69.642736</ele>
        <time>2022-01-20T02:22:21.132Z</time>
      </trkpt>
      <trkpt lat="49.53032" lon="-1.87196">
        <ele>69.598152</ele>
        <time>2022-01-20T02:22:28.845Z</time>
      </trkpt>
      <trkpt lat="49.53075" lon="-1.8721">
        <ele>69.871812</ele>
        <time>2022-01-20T02:22:36.654Z</time>
      </trkpt>
      <trkpt lat="49.53104" lon="-1.87233">
        <ele>70.070511</ele>
        <time>2022-01-20T02:22:42.703Z</time>
      </trkpt>
      <trkpt lat="49.53146" lon="-1.87204">
        <ele>70.356742</ele>
        <time>2022-01-20T02:22:51.681Z</time>
      </trkpt>
      <trkpt lat="49.53167" lon="-1.87176">
        <ele>70.532452</ele>
        <time>2022-01-20T02:22:57.212Z</time>
      </trkpt>
      <trkpt lat="49.53199" lon="-1.87128">
        <ele>70.751209</ele>
        <time>2022-01-20T02:23:05.758Z</time>
      </trkpt>
      <trkpt lat="49.53244" lon="-1.87121">
        <ele>70.889262</ele>
        <time>2022-01-20T02:23:14.506Z</time>
      </trkpt>
      <trkpt lat="49.53268" lon="-1.87109">
        <ele>70.963627</ele>
        <time>2022-01-20T02:23:19.170Z</time>
      </trkpt>
      <trkpt lat="49.53296" lon="-1.87087">
        <ele>71.059789</ele>
        <time>2022-01-20T02:23:24.960Z</time>
      </trkpt>
      <trkpt lat="49.53389" lon="-1.86972">
        <ele>70.624382</ele>
        <time>2022-01-20T02:23:45.585Z</time>
      </trkpt>
      <trkpt lat="49.53396" lon="-1.86964">
        <ele>70.533234</ele>
        <time>2022-01-20T02:23:46.886Z</time>
      </trkpt>
      <trkpt lat="49.53406" lon="-1.86944">
        <ele>70.357396</ele>
        <time>2022-01-20T02:23:49.659Z</time>
      </trkpt>
      <trkpt lat="49.53481" lon="-1.86874">
        <ele>69.430345</ele>
        <time>2022-01-20T02:24:04.097Z</time>
      </trkpt>
      <trkpt lat="49.53482" lon="-1.8687">
        <ele>69.401302</ele>
        <time>2022-01-20T02:24:04.461Z</time>
      </trkpt>
      <trkpt lat="49.53474" lon="-1.86827">
        <ele>68.889064</ele>
        <time>2022-01-20T02:24:09.184Z</time>
      </trkpt>
      <trkpt lat="49.53493" lon="-1.8682">
        <ele>68.516721</ele>
        <time>2022-01-20T02:24:12.023Z</time>
      </trkpt>
      <trkpt lat="49.53543" lon="-1.86803">
        <ele>67.528196</ele>
        <time>2022-01-20T02:24:20.145Z</time>
      </trkpt>
      <trkpt lat="49.53638" lon="-1.86794">
        <ele>65.603695</ele>
        <time>2022-01-20T02:24:34.748Z</time>
      </trkpt>
      <trkpt lat="49.53749" lon="-1.86739">
        <ele>62.545395</ele>
        <time>2022-01-20T02:24:52.122Z</time>
      </trkpt>
      <trkpt lat="49.53746" lon="-1.86757">
        <ele>62.222872</ele>
        <time>2022-01-20T02:24:55.089Z</time>
      </trkpt>
      <trkpt lat="49.5375" lon="-1.86869">
        <ele>60.337008</ele>
        <time>2022-01-20T02:25:13.145Z</time>
      </trkpt>
      <trkpt lat="49.53756" lon="-1.86912">
        <ele>59.614955</ele>
        <time>2022-01-20T02:25:20.155Z</time>
      </trkpt>
      <trkpt lat="49.53769" lon="-1.86911">
        <ele>59.279178</ele>
        <time>2022-01-20T02:25:21.955Z</time>
      </trkpt>
      <trkpt lat="49.53792" lon="-1.86905">
        <ele>58.68469</ele>
        <time>2022-01-20T02:25:25.415Z</time>
      </trkpt>
      <trkpt lat="49.53807" lon="-1.86901">
        <ele>58.305393</ele>
        <time>2022-01-20T02:25:27.505Z</time>
      </trkpt>
      <trkpt lat="49.53849" lon="-1.86912">
        <ele>57.197467</ele>
        <time>2022-01-20T02:25:34.110Z</time>
      </trkpt>
      <trkpt lat="49.53879" lon="-1.86923">
        <ele>56.515737</ele>
        <time>2022-01-20T02:25:38.714Z</time>
      </trkpt>
      <trkpt lat="49.53895" lon="-1.86954">
        <ele>56.410442</ele>
        <time>2022-01-20T02:25:42.647Z</time>
      </trkpt>
      <trkpt lat="49.53928" lon="-1.86994">
        <ele>56.238241</ele>
        <time>2022-01-20T02:25:49.514Z</time>
      </trkpt>
      <trkpt lat="49.53937" lon="-1.87024">
        <ele>56.152332</ele>
        <time>2022-01-20T02:25:53.042Z</time>
      </trkpt>
      <trkpt lat="49.53939" lon="-1.87074">
        <ele>56.020085</ele>
        <time>2022-01-20T02:25:58.553Z</time>
      </trkpt>
      <trkpt lat="49.53935" lon="-1.87131">
        <ele>55.869142</ele>
        <time>2022-01-20T02:26:05.200Z</time>
      </trkpt>
      <trkpt lat="49.53939" lon="-1.87141">
        <ele>55.836528</ele>
        <time>2022-01-20T02:26:06.718Z</time>
      </trkpt>
      <trkpt lat="49.53958" lon="-1.87151">
        <ele>55.783816</ele>
        <time>2022-01-20T02:26:10.547Z</time>
      </trkpt>
      <trkpt lat="49.5403" lon="-1.87332">
        <ele>55.581075</ele>
        <time>2022-01-20T02:26:34.215Z</time>
      </trkpt>
      <trkpt lat="49.54044" lon="-1.87362">
        <ele>55.54489</ele>
        <time>2022-01-20T02:26:38.176Z</time>
      </trkpt>
      <trkpt lat="49.54092" lon="-1.87338">
        <ele>54.36091</ele>
        <time>2022-01-20T02:26:51.777Z</time>
      </trkpt>
      <trkpt lat="49.54168" lon="-1.87309">
        <ele>52.268864</ele>
        <time>2022-01-20T02:27:11.369Z</time>
      </trkpt>
      <trkpt lat="49.54178" lon="-1.873">
        <ele>51.952188</ele>
        <time>2022-01-20T02:27:14.177Z</time>
      </trkpt>
      <trkpt lat="49.54174" lon="-1.87275">
        <ele>51.502677</ele>
        <time>2022-01-20T02:27:18.163Z</time>
      </trkpt>
      <trkpt lat="49.54194" lon="-1.87224">
        <ele>50.292604</ele>
        <time>2022-01-20T02:27:27.480Z</time>
      </trkpt>
      <trkpt lat="49.54211" lon="-1.87172">
        <ele>48.635624</ele>
        <time>2022-01-20T02:27:36.438Z</time>
      </trkpt>
      <trkpt lat="49.5422" lon="-1.87141">
        <ele>47.642859</ele>
        <time>2022-01-20T02:27:39.445Z</time>
      </trkpt>
      <trkpt lat="49.54226" lon="-1.87122">
        <ele>47.02974</ele>
        <time>2022-01-20T02:27:41.411Z</time>
      </trkpt>
      <trkpt lat="49.5423" lon="-1.87115">
        <ele>46.776618</ele>
        <time>2022-01-20T02:27:42.153Z</time>
      </trkpt>
      <trkpt lat="49.54241" lon="-1.87092">
        <ele>45.951585</ele>
        <time>2022-01-20T02:27:44.593Z</time>
      </trkpt>
      <trkpt lat="49.54246" lon="-1.87083">
        <ele>45.600179</ele>
        <time>2022-01-20T02:27:45.720Z</time>
      </trkpt>
      <trkpt lat="49.54266" lon="-1.87038">
        <ele>44.04056</ele>
        <time>2022-01-20T02:27:50.412Z</time>
      </trkpt>
      <trkpt lat="49.5428" lon="-1.87062">
        <ele>43.093767</ele>
        <time>2022-01-20T02:27:53.250Z</time>
      </trkpt>
      <trkpt lat="49.5429" lon="-1.87083">
        <ele>42.603834</ele>
        <time>2022-01-20T02:27:55.494Z</time>
      </trkpt>
      <trkpt lat="49.543" lon="-1.87113">
        <ele>42.254755</ele>
        <time>2022-01-20T02:27:58.424Z</time>
      </trkpt>
      <trkpt lat="49.54313" lon="-1.87138">
        <ele>41.927503</ele>
        <time>2022-01-20T02:28:01.275Z</time>
      </trkpt>
      <trkpt lat="49.54315" lon="-1.87157">
        <ele>41.734253</ele>
        <time>2022-01-20T02:28:02.988Z</time>
      </trkpt>
      <trkpt lat="49.54322" lon="-1.87167">
        <ele>41.583345</ele>
        <time>2022-01-20T02:28:05.542Z</time>
      </trkpt>
      <trkpt lat="49.54318" lon="-1.87222">
        <ele>41.0096</ele>
        <time>2022-01-20T02:28:15.232Z</time>
      </trkpt>
      <trkpt lat="49.54324" lon="-1.87235">
        <ele>40.840564</ele>
        <time>2022-01-20T02:28:18.213Z</time>
      </trkpt>
      <trkpt lat="49.54344" lon="-1.87244">
        <ele>40.518688</ele>
        <time>2022-01-20T02:28:23.627Z</time>
      </trkpt>
      <trkpt lat="49.54354" lon="-1.87293">
        <ele>39.995061</ele>
        <time>2022-01-20T02:28:32.983Z</time>
      </trkpt>
      <trkpt lat="49.54375" lon="-1.87304">
        <ele>40.492384</ele>
        <time>2022-01-20T02:28:39.327Z</time>
      </trkpt>
      <trkpt lat="49.5438" lon="-1.87303">
        <ele>40.709738</ele>
        <time>2022-01-20T02:28:40.818Z</time>
      </trkpt>
      <trkpt lat="49.54395" lon="-1.87281">
        <ele>41.515604</ele>
        <time>2022-01-20T02:28:46.833Z</time>
      </trkpt>
      <trkpt lat="49.54454" lon="-1.87225">
        <ele>44.223113</ele>
        <time>2022-01-20T02:29:07.339Z</time>
      </trkpt>
      <trkpt lat="49.54475" lon="-1.87213">
        <ele>45.124427</ele>
        <time>2022-01-20T02:29:14.312Z</time>
      </trkpt>
      <trkpt lat="49.54498" lon="-1.87197">
        <ele>46.125957</ele>
        <time>2022-01-20T02:29:32.057Z</time>
      </trkpt>
      <trkpt lat="49.54521" lon="-1.87152">
        <ele>47.639574</ele>
        <time>2022-01-20T02:29:57.798Z</time>
      </trkpt>
      <trkpt lat="49.54554" lon="-1.8712">
        <ele>49.317582</ele>
        <time>2022-01-20T02:30:24.842Z</time>
      </trkpt>
      <trkpt lat="49.54558" lon="-1.87116">
        <ele>49.518074</ele>
        <time>2022-01-20T02:30:28.051Z</time>
      </trkpt>
      <trkpt lat="49.54613" lon="-1.87041">
        <ele>52.699452</ele>
        <time>2022-01-20T02:31:19.376Z</time>
      </trkpt>
      <trkpt lat="49.54622" lon="-1.87021">
        <ele>53.38068</ele>
        <time>2022-01-20T02:31:30.363Z</time>
      </trkpt>
      <trkpt lat="49.54644" lon="-1.86939">
        <ele>54.874894</ele>
        <time>2022-01-20T02:32:10.493Z</time>
      </trkpt>
      <trkpt lat="49.54625" lon="-1.86897">
        <ele>55.065124</ele>
        <time>2022-01-20T02:32:33.360Z</time>
      </trkpt>
      <trkpt lat="49.54616" lon="-1.86881">
        <ele>55.142976</ele>
        <time>2022-01-20T02:32:42.745Z</time>
      </trkpt>
      <trkpt lat="49.54593" lon="-1.86849">
        <ele>55.325321</ele>
        <time>2022-01-20T02:32:49.911Z</time>
      </trkpt>
      <trkpt lat="49.54552" lon="-1.86812">
        <ele>55.597484</ele>
        <time>2022-01-20T02:33:00.196Z</time>
      </trkpt>
      <trkpt lat="49.546" lon="-1.86773">
        <ele>54.749171</ele>
        <time>2022-01-20T02:33:14.590Z</time>
      </trkpt>
      <trkpt lat="49.54611" lon="-1.86761">
        <ele>54.200836</ele>
        <time>2022-01-20T02:33:18.344Z</time>
      </trkpt>
      <trkpt lat="49.54635" lon="-1.86754">
        <ele>53.23858</ele>
        <time>2022-01-20T02:33:24.329Z</time>
      </trkpt>
      <trkpt lat="49.54651" lon="-1.86743">
        <ele>52.567204</ele>
        <time>2022-01-20T02:33:28.380Z</time>
      </trkpt>
      <trkpt lat="49.54724" lon="-1.86693">
        <ele>49.364826</ele>
        <time>2022-01-20T02:33:47.032Z</time>
      </trkpt>
      <trkpt lat="49.54724" lon="-1.86665">
        <ele>48.64958</ele>
        <time>2022-01-20T02:33:51.154Z</time>
      </trkpt>
      <trkpt lat="49.54737" lon="-1.86643">
        <ele>47.229513</ele>
        <time>2022-01-20T02:33:55.393Z</time>
      </trkpt>
      <trkpt lat="49.54754" lon="-1.86632">
        <ele>45.859969</ele>
        <time>2022-01-20T02:33:59.561Z</time>
      </trkpt>
      <trkpt lat="49.5475" lon="-1.86624">
        <ele>45.362644</ele>
        <time>2022-01-20T02:34:00.854Z</time>
      </trkpt>
      <trkpt lat="49.54724" lon="-1.86617">
        <ele>43.353814</ele>
        <time>2022-01-20T02:34:06.889Z</time>
      </trkpt>
      <trkpt lat="49.54714" lon="-1.86613">
        <ele>42.589136</ele>
        <time>2022-01-20T02:34:08.970Z</time>
      </trkpt>
      <trkpt lat="49.54728" lon="-1.86606">
        <ele>41.513782</ele>
        <time>2022-01-20T02:34:12.049Z</time>
      </trkpt>
      <trkpt lat="49.54785" lon="-1.8659">
        <ele>37.111761</ele>
        <time>2022-01-20T02:34:24.477Z</time>
      </trkpt>
      <trkpt lat="49.54814" lon="-1.86589">
        <ele>35.064625</ele>
        <time>2022-01-20T02:34:30.714Z</time>
      </trkpt>
      <trkpt lat="49.54819" lon="-1.86593">
        <ele>34.799859</ele>
        <time>2022-01-20T02:34:31.754Z</time>
      </trkpt>
      <trkpt lat="49.5482" lon="-1.86579">
        <ele>34.353134</ele>
        <time>2022-01-20T02:34:33.271Z</time>
      </trkpt>
      <trkpt lat="49.54815" lon="-1.8655">
        <ele>33.418827</ele>
        <time>2022-01-20T02:34:36.589Z</time>
      </trkpt>
      <trkpt lat="49.54812" lon="-1.86539">
        <ele>33.040903</ele>
        <time>2022-01-20T02:34:37.759Z</time>
      </trkpt>
      <trkpt lat="49.54862" lon="-1.86562">
        <ele>30.497693</ele>
        <time>2022-01-20T02:34:49.846Z</time>
      </trkpt>
      <trkpt lat="49.54864" lon="-1.86563">
        <ele>30.397431</ele>
        <time>2022-01-20T02:34:50.244Z</time>
      </trkpt>
      <trkpt lat="49.54871" lon="-1.86549">
        <ele>29.852615</ele>
        <time>2022-01-20T02:34:51.933Z</time>
      </trkpt>
      <trkpt lat="49.54875" lon="-1.86541">
        <ele>29.514499</ele>
        <time>2022-01-20T02:34:52.721Z</time>
      </trkpt>
      <trkpt lat="49.54887" lon="-1.86519">
        <ele>28.641414</ele>
        <time>2022-01-20T02:34:55.275Z</time>
      </trkpt>
      <trkpt lat="49.54913" lon="-1.86475">
        <ele>26.738429</ele>
        <time>2022-01-20T02:35:00.711Z</time>
      </trkpt>
      <trkpt lat="49.54945" lon="-1.86426">
        <ele>25.965426</ele>
        <time>2022-01-20T02:35:07.902Z</time>
      </trkpt>
      <trkpt lat="49.54953" lon="-1.86419">
        <ele>25.850249</ele>
        <time>2022-01-20T02:35:09.624Z</time>
      </trkpt>
      <trkpt lat="49.54978" lon="-1.86378">
        <ele>25.382262</ele>
        <time>2022-01-20T02:35:15.169Z</time>
      </trkpt>
      <trkpt lat="49.55002" lon="-1.86289">
        <ele>24.587728</ele>
        <time>2022-01-20T02:35:25.028Z</time>
      </trkpt>
      <trkpt lat="49.55024" lon="-1.86213">
        <ele>23.802733</ele>
        <time>2022-01-20T02:35:33.841Z</time>
      </trkpt>
      <trkpt lat="49.55035" lon="-1.86221">
        <ele>23.590629</ele>
        <time>2022-01-20T02:35:42.329Z</time>
      </trkpt>
      <trkpt lat="49.55042" lon="-1.86226">
        <ele>23.447729</ele>
        <time>2022-01-20T02:35:52.400Z</time>
      </trkpt>
      <trkpt lat="49.55046" lon="-1.86228">
        <ele>23.376898</ele>
        <time>2022-01-20T02:35:55.214Z</time>
      </trkpt>
      <trkpt lat="49.55053" lon="-1.86202">
        <ele>23.06111</ele>
        <time>2022-01-20T02:35:58.124Z</time>
      </trkpt>
      <trkpt lat="49.55055" lon="-1.86193">
        <ele>22.956862</ele>
        <time>2022-01-20T02:35:58.955Z</time>
      </trkpt>
      <trkpt lat="49.55057" lon="-1.86181">
        <ele>22.812842</ele>
        <time>2022-01-20T02:36:00.126Z</time>
      </trkpt>
      <trkpt lat="49.55059" lon="-1.86157">
        <ele>22.539008</ele>
        <time>2022-01-20T02:36:02.713Z</time>
      </trkpt>
      <trkpt lat="49.55058" lon="-1.8614">
        <ele>22.346729</ele>
        <time>2022-01-20T02:36:04.191Z</time>
      </trkpt>
      <trkpt lat="49.55058" lon="-1.86135">
        <ele>22.293562</ele>
        <time>2022-01-20T02:36:04.729Z</time>
      </trkpt>
      <trkpt lat="49.55054" lon="-1.86113">
        <ele>22.033487</ele>
        <time>2022-01-20T02:36:06.887Z</time>
      </trkpt>
      <trkpt lat="49.55043" lon="-1.86072">
        <ele>21.537885</ele>
        <time>2022-01-20T02:36:10.968Z</time>
      </trkpt>
      <trkpt lat="49.55036" lon="-1.86046">
        <ele>21.217472</ele>
        <time>2022-01-20T02:36:13.779Z</time>
      </trkpt>
      <trkpt lat="49.55034" lon="-1.86021">
        <ele>20.898616</ele>
        <time>2022-01-20T02:36:15.919Z</time>
      </trkpt>
      <trkpt lat="49.55041" lon="-1.85981">
        <ele>20.227456</ele>
        <time>2022-01-20T02:36:19.948Z</time>
      </trkpt>
      <trkpt lat="49.55079" lon="-1.85895">
        <ele>18.537264</ele>
        <time>2022-01-20T02:36:30.522Z</time>
      </trkpt>
      <trkpt lat="49.55094" lon="-1.85836">
        <ele>17.515199</ele>
        <time>2022-01-20T02:36:36.241Z</time>
      </trkpt>
      <trkpt lat="49.55094" lon="-1.85795">
        <ele>16.855941</ele>
        <time>2022-01-20T02:36:39.777Z</time>
      </trkpt>
      <trkpt lat="49.55091" lon="-1.85772">
        <ele>16.464225</ele>
        <time>2022-01-20T02:36:41.751Z</time>
      </trkpt>
      <trkpt lat="49.55072" lon="-1.85717">
        <ele>15.286927</ele>
        <time>2022-01-20T02:36:47.000Z</time>
      </trkpt>
      <trkpt lat="49.55066" lon="-1.85705">
        <ele>15.007674</ele>
        <time>2022-01-20T02:36:48.247Z</time>
      </trkpt>
      <trkpt lat="49.55082" lon="-1.85691">
        <ele>14.480151</ele>
        <time>2022-01-20T02:36:50.574Z</time>
      </trkpt>
      <trkpt lat="49.55177" lon="-1.85651">
        <ele>11.610937</ele>
        <time>2022-01-20T02:37:04.168Z</time>
      </trkpt>
      <trkpt lat="49.55186" lon="-1.85648">
        <ele>11.355916</ele>
        <time>2022-01-20T02:37:05.568Z</time>
      </trkpt>
      <trkpt lat="49.55192" lon="-1.85647">
        <ele>11.504004</ele>
        <time>2022-01-20T02:37:06.695Z</time>
      </trkpt>
      <trkpt lat="49.55212" lon="-1.8565">
        <ele>12.112228</ele>
        <time>2022-01-20T02:37:09.968Z</time>
      </trkpt>
      <trkpt lat="49.55216" lon="-1.85651">
        <ele>12.247146</ele>
        <time>2022-01-20T02:37:10.892Z</time>
      </trkpt>
      <trkpt lat="49.55243" lon="-1.8566">
        <ele>13.119811</ele>
        <time>2022-01-20T02:37:16.156Z</time>
      </trkpt>
      <trkpt lat="49.55316" lon="-1.8568">
        <ele>15.450794</ele>
        <time>2022-01-20T02:37:33.013Z</time>
      </trkpt>
      <trkpt lat="49.55349" lon="-1.85685">
        <ele>16.48593</ele>
        <time>2022-01-20T02:37:41.481Z</time>
      </trkpt>
      <trkpt lat="49.5536" lon="-1.85676">
        <ele>16.875379</ele>
        <time>2022-01-20T02:37:45.437Z</time>
      </trkpt>
      <trkpt lat="49.55432" lon="-1.85588">
        <ele>20.016486</ele>
        <time>2022-01-20T02:38:08.302Z</time>
      </trkpt>
      <trkpt lat="49.55476" lon="-1.85511">
        <ele>22.305978</ele>
        <time>2022-01-20T02:38:22.569Z</time>
      </trkpt>
      <trkpt lat="49.55432" lon="-1.85588">
        <ele>22.822715</ele>
        <time>2022-01-20T02:38:33.005Z</time>
      </trkpt>
      <trkpt lat="49.5536" lon="-1.85676">
        <ele>22.1166</ele>
        <time>2022-01-20T02:38:47.768Z</time>
      </trkpt>
      <trkpt lat="49.55349" lon="-1.85685">
        <ele>22.021737</ele>
        <time>2022-01-20T02:38:49.324Z</time>
      </trkpt>
      <trkpt lat="49.55358" lon="-1.85689">
        <ele>21.945044</ele>
        <time>2022-01-20T02:38:52.208Z</time>
      </trkpt>
      <trkpt lat="49.55395" lon="-1.8566">
        <ele>21.702125</ele>
        <time>2022-01-20T02:39:03.871Z</time>
      </trkpt>
      <trkpt lat="49.55439" lon="-1.85611">
        <ele>21.512838</ele>
        <time>2022-01-20T02:39:18.906Z</time>
      </trkpt>
      <trkpt lat="49.5546" lon="-1.8557">
        <ele>21.394499</ele>
        <time>2022-01-20T02:39:28.446Z</time>
      </trkpt>
      <trkpt lat="49.55492" lon="-1.85531">
        <ele>21.253178</ele>
        <time>2022-01-20T02:39:39.893Z</time>
      </trkpt>
      <trkpt lat="49.55515" lon="-1.85491">
        <ele>21.089234</ele>
        <time>2022-01-20T02:39:49.761Z</time>
      </trkpt>
      <trkpt lat="49.55536" lon="-1.85472">
        <ele>20.608843</ele>
        <time>2022-01-20T02:39:56.424Z</time>
      </trkpt>
      <trkpt lat="49.55662" lon="-1.85415">
        <ele>17.99453</ele>
        <time>2022-01-20T02:40:29.744Z</time>
      </trkpt>
      <trkpt lat="49.55762" lon="-1.85362">
        <ele>16.500377</ele>
        <time>2022-01-20T02:40:56.655Z</time>
      </trkpt>
      <trkpt lat="49.55768" lon="-1.85366">
        <ele>16.409659</ele>
        <time>2022-01-20T02:40:58.619Z</time>
      </trkpt>
      <trkpt lat="49.55867" lon="-1.85309">
        <ele>15.503257</ele>
        <time>2022-01-20T02:41:28.099Z</time>
      </trkpt>
      <trkpt lat="49.55869" lon="-1.85298">
        <ele>15.617706</ele>
        <time>2022-01-20T02:41:30.367Z</time>
      </trkpt>
      <trkpt lat="49.55897" lon="-1.85291">
        <ele>16.016019</ele>
        <time>2022-01-20T02:41:38.204Z</time>
      </trkpt>
      <trkpt lat="49.55917" lon="-1.85278">
        <ele>16.319329</ele>
        <time>2022-01-20T02:41:44.218Z</time>
      </trkpt>
      <trkpt lat="49.56039" lon="-1.85276">
        <ele>18.319753</ele>
        <time>2022-01-20T02:42:18.990Z</time>
      </trkpt>
      <trkpt lat="49.5606" lon="-1.85291">
        <ele>19.046851</ele>
        <time>2022-01-20T02:42:25.700Z</time>
      </trkpt>
      <trkpt lat="49.56108" lon="-1.85299">
        <ele>20.589761</ele>
        <time>2022-01-20T02:42:39.913Z</time>
      </trkpt>
      <trkpt lat="49.56148" lon="-1.85294">
        <ele>21.851276</ele>
        <time>2022-01-20T02:42:51.726Z</time>
      </trkpt>
      <trkpt lat="49.56175" lon="-1.85279">
        <ele>22.742719</ele>
        <time>2022-01-20T02:43:00.164Z</time>
      </trkpt>
      <trkpt lat="49.56213" lon="-1.85207">
        <ele>24.006322</ele>
        <time>2022-01-20T02:43:18.006Z</time>
      </trkpt>
      <trkpt lat="49.56218" lon="-1.8511">
        <ele>24.90647</ele>
        <time>2022-01-20T02:43:35.817Z</time>
      </trkpt>
      <trkpt lat="49.56225" lon="-1.85091">
        <ele>25.105517</ele>
        <time>2022-01-20T02:43:40.188Z</time>
      </trkpt>
      <trkpt lat="49.56236" lon="-1.85071">
        <ele>25.349772</ele>
        <time>2022-01-20T02:43:44.986Z</time>
      </trkpt>
      <trkpt lat="49.56264" lon="-1.85045">
        <ele>25.819993</ele>
        <time>2022-01-20T02:43:54.326Z</time>
      </trkpt>
      <trkpt lat="49.56285" lon="-1.85039">
        <ele>25.947962</ele>
        <time>2022-01-20T02:44:00.326Z</time>
      </trkpt>
      <trkpt lat="49.56307" lon="-1.85036">
        <ele>25.421709</ele>
        <time>2022-01-20T02:44:05.851Z</time>
      </trkpt>
      <trkpt lat="49.56339" lon="-1.85029">
        <ele>24.672114</ele>
        <time>2022-01-20T02:44:14.747Z</time>
      </trkpt>
      <trkpt lat="49.56343" lon="-1.85039">
        <ele>24.476932</ele>
        <time>2022-01-20T02:44:16.495Z</time>
      </trkpt>
      <trkpt lat="49.56336" lon="-1.85034">
        <ele>24.290255</ele>
        <time>2022-01-20T02:44:19.486Z</time>
      </trkpt>
      <trkpt lat="49.56305" lon="-1.8505">
        <ele>23.518992</ele>
        <time>2022-01-20T02:44:27.644Z</time>
      </trkpt>
      <trkpt lat="49.56278" lon="-1.85047">
        <ele>22.873144</ele>
        <time>2022-01-20T02:44:33.661Z</time>
      </trkpt>
      <trkpt lat="49.56256" lon="-1.8506">
        <ele>22.315716</ele>
        <time>2022-01-20T02:44:39.224Z</time>
      </trkpt>
      <trkpt lat="49.56251" lon="-1.85067">
        <ele>22.135414</ele>
        <time>2022-01-20T02:44:40.894Z</time>
      </trkpt>
      <trkpt lat="49.56256" lon="-1.8506">
        <ele>21.955112</ele>
        <time>2022-01-20T02:44:42.496Z</time>
      </trkpt>
      <trkpt lat="49.56278" lon="-1.85047">
        <ele>21.360963</ele>
        <time>2022-01-20T02:44:48.398Z</time>
      </trkpt>
      <trkpt lat="49.56305" lon="-1.8505">
        <ele>20.653883</ele>
        <time>2022-01-20T02:44:55.614Z</time>
      </trkpt>
      <trkpt lat="49.56336" lon="-1.85034">
        <ele>19.809498</ele>
        <time>2022-01-20T02:45:04.130Z</time>
      </trkpt>
      <trkpt lat="49.56343" lon="-1.85039">
        <ele>19.605123</ele>
        <time>2022-01-20T02:45:05.851Z</time>
      </trkpt>
      <trkpt lat="49.56346" lon="-1.85046">
        <ele>19.477757</ele>
        <time>2022-01-20T02:45:06.974Z</time>
      </trkpt>
      <trkpt lat="49.56358" lon="-1.85041">
        <ele>19.154495</ele>
        <time>2022-01-20T02:45:10.507Z</time>
      </trkpt>
      <trkpt lat="49.5638" lon="-1.8501">
        <ele>18.37035</ele>
        <time>2022-01-20T02:45:18.300Z</time>
      </trkpt>
      <trkpt lat="49.56396" lon="-1.84971">
        <ele>17.601795</ele>
        <time>2022-01-20T02:45:25.599Z</time>
      </trkpt>
      <trkpt lat="49.56386" lon="-1.84959">
        <ele>17.253695</ele>
        <time>2022-01-20T02:45:29.244Z</time>
      </trkpt>
      <trkpt lat="49.5638" lon="-1.84953">
        <ele>17.079205</ele>
        <time>2022-01-20T02:45:31.185Z</time>
      </trkpt>
      <trkpt lat="49.56327" lon="-1.84864">
        <ele>15.497953</ele>
        <time>2022-01-20T02:45:42.715Z</time>
      </trkpt>
      <trkpt lat="49.56318" lon="-1.84846">
        <ele>15.194194</ele>
        <time>2022-01-20T02:45:45.218Z</time>
      </trkpt>
      <trkpt lat="49.56317" lon="-1.84855">
        <ele>15.07342</ele>
        <time>2022-01-20T02:45:46.556Z</time>
      </trkpt>
      <trkpt lat="49.56324" lon="-1.84778">
        <ele>14.048313</ele>
        <time>2022-01-20T02:46:00.363Z</time>
      </trkpt>
      <trkpt lat="49.5634" lon="-1.84722">
        <ele>13.175335</ele>
        <time>2022-01-20T02:46:11.059Z</time>
      </trkpt>
      <trkpt lat="49.56366" lon="-1.8469">
        <ele>12.251012</ele>
        <time>2022-01-20T02:46:19.520Z</time>
      </trkpt>
      <trkpt lat="49.56374" lon="-1.84677">
        <ele>11.932628</ele>
        <time>2022-01-20T02:46:22.269Z</time>
      </trkpt>
      <trkpt lat="49.56387" lon="-1.84654">
        <ele>11.379017</ele>
        <time>2022-01-20T02:46:26.978Z</time>
      </trkpt>
      <trkpt lat="49.56446" lon="-1.8459">
        <ele>9.414538</ele>
        <time>2022-01-20T02:46:44.551Z</time>
      </trkpt>
      <trkpt lat="49.56527" lon="-1.84514">
        <ele>7.951757</ele>
        <time>2022-01-20T02:47:09.206Z</time>
      </trkpt>
      <trkpt lat="49.56602" lon="-1.84462">
        <ele>7.223329</ele>
        <time>2022-01-20T02:47:32.198Z</time>
      </trkpt>
      <trkpt lat="49.56639" lon="-1.84431">
        <ele>6.921428</ele>
        <time>2022-01-20T02:47:44.106Z</time>
      </trkpt>
      <trkpt lat="49.56641" lon="-1.84351">
        <ele>7.006209</ele>
        <time>2022-01-20T02:47:55.739Z</time>
      </trkpt>
      <trkpt lat="49.56666" lon="-1.84361">
        <ele>7.049197</ele>
        <time>2022-01-20T02:48:00.433Z</time>
      </trkpt>
      <trkpt lat="49.56693" lon="-1.84357">
        <ele>7.094492</ele>
        <time>2022-01-20T02:48:05.349Z</time>
      </trkpt>
      <trkpt lat="49.56712" lon="-1.84349">
        <ele>7.126186</ele>
        <time>2022-01-20T02:48:08.990Z</time>
      </trkpt>
      <trkpt lat="49.56747" lon="-1.84318">
        <ele>7.192563</ele>
        <time>2022-01-20T02:48:16.418Z</time>
      </trkpt>
      <trkpt lat="49.56763" lon="-1.84299">
        <ele>7.174568</ele>
        <time>2022-01-20T02:48:20.049Z</time>
      </trkpt>
      <trkpt lat="49.56803" lon="-1.84242">
        <ele>7.037731</ele>
        <time>2022-01-20T02:48:29.710Z</time>
      </trkpt>
      <trkpt lat="49.56818" lon="-1.84254">
        <ele>6.996666</ele>
        <time>2022-01-20T02:48:33.340Z</time>
      </trkpt>
      <trkpt lat="49.56828" lon="-1.84259">
        <ele>6.968964</ele>
        <time>2022-01-20T02:48:35.809Z</time>
      </trkpt>
      <trkpt lat="49.5686" lon="-1.84259">
        <ele>6.890227</ele>
        <time>2022-01-20T02:48:42.704Z</time>
      </trkpt>
      <trkpt lat="49.56867" lon="-1.84255">
        <ele>6.872661</ele>
        <time>2022-01-20T02:48:44.264Z</time>
      </trkpt>
      <trkpt lat="49.56878" lon="-1.8425">
        <ele>6.843072</ele>
        <time>2022-01-20T02:48:46.872Z</time>
      </trkpt>
      <trkpt lat="49.56968" lon="-1.84126">
        <ele>6.232618</ele>
        <time>2022-01-20T02:49:06.970Z</time>
      </trkpt>
      <trkpt lat="49.57" lon="-1.84081">
        <ele>5.972363</ele>
        <time>2022-01-20T02:49:13.969Z</time>
      </trkpt>
      <trkpt lat="49.57002" lon="-1.84084">
        <ele>5.957336</ele>
        <time>2022-01-20T02:49:14.373Z</time>
      </trkpt>
      <trkpt lat="49.57032" lon="-1.84044">
        <ele>5.715596</ele>
        <time>2022-01-20T02:49:21.065Z</time>
      </trkpt>
      <trkpt lat="49.57036" lon="-1.84034">
        <ele>5.674348</ele>
        <time>2022-01-20T02:49:22.227Z</time>
      </trkpt>
      <trkpt lat="49.57051" lon="-1.84037">
        <ele>5.578675</ele>
        <time>2022-01-20T02:49:24.844Z</time>
      </trkpt>
      <trkpt lat="49.57061" lon="-1.84039">
        <ele>5.518221</ele>
        <time>2022-01-20T02:49:26.496Z</time>
      </trkpt>
      <trkpt lat="49.57059" lon="-1.84016">
        <ele>5.425147</ele>
        <time>2022-01-20T02:49:29.065Z</time>
      </trkpt>
      <trkpt lat="49.57064" lon="-1.83985">
        <ele>5.297802</ele>
        <time>2022-01-20T02:49:32.576Z</time>
      </trkpt>
      <trkpt lat="49.57072" lon="-1.83998">
        <ele>5.223793</ele>
        <time>2022-01-20T02:49:35.208Z</time>
      </trkpt>
      <trkpt lat="49.57078" lon="-1.8401">
        <ele>5.162378</ele>
        <time>2022-01-20T02:49:37.397Z</time>
      </trkpt>
      <trkpt lat="49.57096" lon="-1.84021">
        <ele>5.048664</ele>
        <time>2022-01-20T02:49:41.427Z</time>
      </trkpt>
      <trkpt lat="49.57101" lon="-1.84023">
        <ele>5.012215</ele>
        <time>2022-01-20T02:49:42.723Z</time>
      </trkpt>
      <trkpt lat="49.57104" lon="-1.84023">
        <ele>4.996109</ele>
        <time>2022-01-20T02:49:43.276Z</time>
      </trkpt>
      <trkpt lat="49.57105" lon="-1.84019">
        <ele>4.976713</ele>
        <time>2022-01-20T02:49:43.969Z</time>
      </trkpt>
      <trkpt lat="49.57107" lon="-1.84016">
        <ele>4.962811</ele>
        <time>2022-01-20T02:49:44.457Z</time>
      </trkpt>
      <trkpt lat="49.57114" lon="-1.84016">
        <ele>4.91855</ele>
        <time>2022-01-20T02:49:46.045Z</time>
      </trkpt>
      <trkpt lat="49.57116" lon="-1.84019">
        <ele>4.904548</ele>
        <time>2022-01-20T02:49:46.525Z</time>
      </trkpt>
      <trkpt lat="49.57122" lon="-1.84012">
        <ele>4.85901</ele>
        <time>2022-01-20T02:49:48.596Z</time>
      </trkpt>
      <trkpt lat="49.57132" lon="-1.84012">
        <ele>4.794461</ele>
        <time>2022-01-20T02:49:51.535Z</time>
      </trkpt>
      <trkpt lat="49.57149" lon="-1.84002">
        <ele>4.685054</ele>
        <time>2022-01-20T02:49:56.512Z</time>
      </trkpt>
      <trkpt lat="49.57181" lon="-1.83998">
        <ele>4.558381</ele>
        <time>2022-01-20T02:50:05.639Z</time>
      </trkpt>
      <trkpt lat="49.57209" lon="-1.84">
        <ele>4.542002</ele>
        <time>2022-01-20T02:50:13.523Z</time>
      </trkpt>
      <trkpt lat="49.57231" lon="-1.83986">
        <ele>4.528365</ele>
        <time>2022-01-20T02:50:20.071Z</time>
      </trkpt>
      <trkpt lat="49.5726" lon="-1.83986">
        <ele>4.51137</ele>
        <time>2022-01-20T02:50:28.251Z</time>
      </trkpt>
      <trkpt lat="49.57296" lon="-1.83999">
        <ele>4.490117</ele>
        <time>2022-01-20T02:50:38.473Z</time>
      </trkpt>
      <trkpt lat="49.57323" lon="-1.83985">
        <ele>4.473483</ele>
        <time>2022-01-20T02:50:46.505Z</time>
      </trkpt>
      <trkpt lat="49.57337" lon="-1.8399">
        <ele>4.465232</ele>
        <time>2022-01-20T02:50:50.492Z</time>
      </trkpt>
      <trkpt lat="49.57369" lon="-1.83981">
        <ele>4.519786</ele>
        <time>2022-01-20T02:50:59.793Z</time>
      </trkpt>
      <trkpt lat="49.57372" lon="-1.83957">
        <ele>4.555111</ele>
        <time>2022-01-20T02:51:04.279Z</time>
      </trkpt>
      <trkpt lat="49.57385" lon="-1.83919">
        <ele>4.615982</ele>
        <time>2022-01-20T02:51:12.018Z</time>
      </trkpt>
      <trkpt lat="49.57384" lon="-1.83868">
        <ele>4.688925</ele>
        <time>2022-01-20T02:51:21.271Z</time>
      </trkpt>
      <trkpt lat="49.57399" lon="-1.83861">
        <ele>4.722539</ele>
        <time>2022-01-20T02:51:25.544Z</time>
      </trkpt>
      <trkpt lat="49.57449" lon="-1.83847">
        <ele>4.836563</ele>
        <time>2022-01-20T02:51:40.015Z</time>
      </trkpt>
      <trkpt lat="49.57473" lon="-1.83852">
        <ele>4.908757</ele>
        <time>2022-01-20T02:51:46.742Z</time>
      </trkpt>
      <trkpt lat="49.5755" lon="-1.83838">
        <ele>5.18818</ele>
        <time>2022-01-20T02:52:08.602Z</time>
      </trkpt>
      <trkpt lat="49.57581" lon="-1.8384">
        <ele>5.298298</ele>
        <time>2022-01-20T02:52:17.217Z</time>
      </trkpt>
      <trkpt lat="49.57596" lon="-1.83883">
        <ele>5.412433</ele>
        <time>2022-01-20T02:52:26.166Z</time>
      </trkpt>
      <trkpt lat="49.57653" lon="-1.83849">
        <ele>5.60164</ele>
        <time>2022-01-20T02:52:43.373Z</time>
      </trkpt>
      <trkpt lat="49.57673" lon="-1.83888">
        <ele>5.690912</ele>
        <time>2022-01-20T02:52:52.565Z</time>
      </trkpt>
      <trkpt lat="49.57701" lon="-1.83882">
        <ele>5.767836</ele>
        <time>2022-01-20T02:53:00.478Z</time>
      </trkpt>
      <trkpt lat="49.57729" lon="-1.83826">
        <ele>5.892875</ele>
        <time>2022-01-20T02:53:13.307Z</time>
      </trkpt>
      <trkpt lat="49.57762" lon="-1.83804">
        <ele>5.992956</ele>
        <time>2022-01-20T02:53:23.556Z</time>
      </trkpt>
      <trkpt lat="49.57929" lon="-1.83784">
        <ele>5.485346</ele>
        <time>2022-01-20T02:54:10.289Z</time>
      </trkpt>
      <trkpt lat="49.57952" lon="-1.83747">
        <ele>5.36443</ele>
        <time>2022-01-20T02:54:19.660Z</time>
      </trkpt>
      <trkpt lat="49.57968" lon="-1.83781">
        <ele>5.254031</ele>
        <time>2022-01-20T02:54:27.334Z</time>
      </trkpt>
      <trkpt lat="49.57998" lon="-1.83815">
        <ele>5.104323</ele>
        <time>2022-01-20T02:54:37.732Z</time>
      </trkpt>
      <trkpt lat="49.58051" lon="-1.83872">
        <ele>4.842845</ele>
        <time>2022-01-20T02:54:55.918Z</time>
      </trkpt>
      <trkpt lat="49.58054" lon="-1.83875">
        <ele>4.828796</ele>
        <time>2022-01-20T02:54:56.886Z</time>
      </trkpt>
      <trkpt lat="49.5806" lon="-1.83883">
        <ele>4.797191</ele>
        <time>2022-01-20T02:54:59.072Z</time>
      </trkpt>
      <trkpt lat="49.58077" lon="-1.839">
        <ele>4.71467</ele>
        <time>2022-01-20T02:55:04.821Z</time>
      </trkpt>
      <trkpt lat="49.58085" lon="-1.83923">
        <ele>4.740428</ele>
        <time>2022-01-20T02:55:09.517Z</time>
      </trkpt>
      <trkpt lat="49.58093" lon="-1.83943">
        <ele>4.763853</ele>
        <time>2022-01-20T02:55:13.782Z</time>
      </trkpt>
      <trkpt lat="49.58126" lon="-1.83957">
        <ele>4.816626</ele>
        <time>2022-01-20T02:55:23.436Z</time>
      </trkpt>
      <trkpt lat="49.58192" lon="-1.83925">
        <ele>4.92234</ele>
        <time>2022-01-20T02:55:42.821Z</time>
      </trkpt>
      <trkpt lat="49.58226" lon="-1.83897">
        <ele>4.980976</ele>
        <time>2022-01-20T02:55:53.586Z</time>
      </trkpt>
      <trkpt lat="49.58254" lon="-1.83858">
        <ele>5.009176</ele>
        <time>2022-01-20T02:56:04.065Z</time>
      </trkpt>
      <trkpt lat="49.58313" lon="-1.83837">
        <ele>5.04642</ele>
        <time>2022-01-20T02:56:21.104Z</time>
      </trkpt>
      <trkpt lat="49.5855" lon="-1.83867">
        <ele>5.116227</ele>
        <time>2022-01-20T02:57:27.436Z</time>
      </trkpt>
      <trkpt lat="49.58617" lon="-1.83893">
        <ele>5.243525</ele>
        <time>2022-01-20T02:57:46.823Z</time>
      </trkpt>
      <trkpt lat="49.58689" lon="-1.83911">
        <ele>5.470342</ele>
        <time>2022-01-20T02:58:07.125Z</time>
      </trkpt>
      <trkpt lat="49.58776" lon="-1.83983">
        <ele>6.03104</ele>
        <time>2022-01-20T02:58:35.153Z</time>
      </trkpt>
      <trkpt lat="49.58811" lon="-1.83991">
        <ele>6.421211</ele>
        <time>2022-01-20T02:58:45.165Z</time>
      </trkpt>
      <trkpt lat="49.58863" lon="-1.8396">
        <ele>7.03683</ele>
        <time>2022-01-20T02:59:00.996Z</time>
      </trkpt>
      <trkpt lat="49.58898" lon="-1.83998">
        <ele>7.51081</ele>
        <time>2022-01-20T02:59:13.195Z</time>
      </trkpt>
      <trkpt lat="49.58977" lon="-1.84022">
        <ele>8.490331</ele>
        <time>2022-01-20T02:59:35.888Z</time>
      </trkpt>
      <trkpt lat="49.59069" lon="-1.83993">
        <ele>9.671922</ele>
        <time>2022-01-20T03:00:02.642Z</time>
      </trkpt>
      <trkpt lat="49.59134" lon="-1.83948">
        <ele>9.771419</ele>
        <time>2022-01-20T03:00:22.638Z</time>
      </trkpt>
      <trkpt lat="49.59231" lon="-1.83962">
        <ele>9.495981</ele>
        <time>2022-01-20T03:00:49.883Z</time>
      </trkpt>
      <trkpt lat="49.593" lon="-1.83949">
        <ele>8.924495</ele>
        <time>2022-01-20T03:01:08.939Z</time>
      </trkpt>
      <trkpt lat="49.59376" lon="-1.8391">
        <ele>7.92296</ele>
        <time>2022-01-20T03:01:30.506Z</time>
      </trkpt>
      <trkpt lat="49.59509" lon="-1.83976">
        <ele>6.416592</ele>
        <time>2022-01-20T03:02:08.427Z</time>
      </trkpt>
      <trkpt lat="49.59552" lon="-1.83985">
        <ele>5.99762</ele>
        <time>2022-01-20T03:02:20.698Z</time>
      </trkpt>
      <trkpt lat="49.59581" lon="-1.83923">
        <ele>5.524601</ele>
        <time>2022-01-20T03:02:34.577Z</time>
      </trkpt>
      <trkpt lat="49.59616" lon="-1.83865">
        <ele>5.198675</ele>
        <time>2022-01-20T03:02:48.744Z</time>
      </trkpt>
      <trkpt lat="49.5975" lon="-1.83893">
        <ele>4.409149</ele>
        <time>2022-01-20T03:03:26.575Z</time>
      </trkpt>
      <trkpt lat="49.59767" lon="-1.83875">
        <ele>4.400042</ele>
        <time>2022-01-20T03:03:32.331Z</time>
      </trkpt>
      <trkpt lat="49.59782" lon="-1.83592">
        <ele>4.537883</ele>
        <time>2022-01-20T03:04:23.845Z</time>
      </trkpt>
      <trkpt lat="49.59785" lon="-1.83502">
        <ele>4.825412</ele>
        <time>2022-01-20T03:04:40.348Z</time>
      </trkpt>
      <trkpt lat="49.59801" lon="-1.83429">
        <ele>5.069016</ele>
        <time>2022-01-20T03:05:14.756Z</time>
      </trkpt>
      <trkpt lat="49.59834" lon="-1.83377">
        <ele>5.302785</ele>
        <time>2022-01-20T03:05:47.796Z</time>
      </trkpt>
      <trkpt lat="49.59859" lon="-1.83376">
        <ele>5.494178</ele>
        <time>2022-01-20T03:06:04.993Z</time>
      </trkpt>
      <trkpt lat="49.59911" lon="-1.83418">
        <ele>5.959777</ele>
        <time>2022-01-20T03:06:45.799Z</time>
      </trkpt>
      <trkpt lat="49.59938" lon="-1.83441">
        <ele>6.207018</ele>
        <time>2022-01-20T03:07:07.474Z</time>
      </trkpt>
      <trkpt lat="49.59989" lon="-1.83339">
        <ele>6.814379</ele>
        <time>2022-01-20T03:07:31.097Z</time>
      </trkpt>
      <trkpt lat="49.60043" lon="-1.83258">
        <ele>7.167593</ele>
        <time>2022-01-20T03:07:52.455Z</time>
      </trkpt>
      <trkpt lat="49.60081" lon="-1.83253">
        <ele>7.341536</ele>
        <time>2022-01-20T03:08:02.941Z</time>
      </trkpt>
      <trkpt lat="49.60214" lon="-1.83372">
        <ele>7.673885</ele>
        <time>2022-01-20T03:08:45.975Z</time>
      </trkpt>
      <trkpt lat="49.60306" lon="-1.83665">
        <ele>8.10108</ele>
        <time>2022-01-20T03:09:45.105Z</time>
      </trkpt>
      <trkpt lat="49.60324" lon="-1.83704">
        <ele>8.182053</ele>
        <time>2022-01-20T03:09:53.753Z</time>
      </trkpt>
      <trkpt lat="49.60353" lon="-1.83734">
        <ele>8.312639</ele>
        <time>2022-01-20T03:10:03.763Z</time>
      </trkpt>
      <trkpt lat="49.60391" lon="-1.83738">
        <ele>8.478847</ele>
        <time>2022-01-20T03:10:14.433Z</time>
      </trkpt>
      <trkpt lat="49.60528" lon="-1.83645">
        <ele>8.924528</ele>
        <time>2022-01-20T03:10:56.506Z</time>
      </trkpt>
      <trkpt lat="49.60563" lon="-1.83635">
        <ele>8.818837</ele>
        <time>2022-01-20T03:11:06.538Z</time>
      </trkpt>
      <trkpt lat="49.60669" lon="-1.83635">
        <ele>8.509101</ele>
        <time>2022-01-20T03:11:36.053Z</time>
      </trkpt>
      <trkpt lat="49.60747" lon="-1.83709">
        <ele>7.595961</ele>
        <time>2022-01-20T03:12:01.128Z</time>
      </trkpt>
      <trkpt lat="49.60767" lon="-1.83711">
        <ele>7.370936</ele>
        <time>2022-01-20T03:12:06.753Z</time>
      </trkpt>
      <trkpt lat="49.60789" lon="-1.83725">
        <ele>7.11284</ele>
        <time>2022-01-20T03:12:13.223Z</time>
      </trkpt>
      <trkpt lat="49.60832" lon="-1.83797">
        <ele>6.471287</ele>
        <time>2022-01-20T03:12:30.507Z</time>
      </trkpt>
      <trkpt lat="49.6087" lon="-1.83829">
        <ele>6.203049</ele>
        <time>2022-01-20T03:12:42.519Z</time>
      </trkpt>
      <trkpt lat="49.60882" lon="-1.83857">
        <ele>6.072912</ele>
        <time>2022-01-20T03:12:48.425Z</time>
      </trkpt>
      <trkpt lat="49.60937" lon="-1.83896">
        <ele>5.703793</ele>
        <time>2022-01-20T03:13:05.331Z</time>
      </trkpt>
      <trkpt lat="49.60965" lon="-1.83907">
        <ele>5.526842</ele>
        <time>2022-01-20T03:13:13.435Z</time>
      </trkpt>
      <trkpt lat="49.60986" lon="-1.83923">
        <ele>5.438514</ele>
        <time>2022-01-20T03:13:20.130Z</time>
      </trkpt>
      <trkpt lat="49.61023" lon="-1.83924">
        <ele>5.496805</ele>
        <time>2022-01-20T03:13:30.263Z</time>
      </trkpt>
      <trkpt lat="49.61044" lon="-1.8391">
        <ele>5.53446</ele>
        <time>2022-01-20T03:13:36.822Z</time>
      </trkpt>
      <trkpt lat="49.6105" lon="-1.83915">
        <ele>5.546048</ele>
        <time>2022-01-20T03:13:38.842Z</time>
      </trkpt>
      <trkpt lat="49.61087" lon="-1.83931">
        <ele>5.606311</ele>
        <time>2022-01-20T03:13:49.359Z</time>
      </trkpt>
      <trkpt lat="49.61125" lon="-1.8392">
        <ele>5.669846</ele>
        <time>2022-01-20T03:14:00.501Z</time>
      </trkpt>
      <trkpt lat="49.61149" lon="-1.83922">
        <ele>5.706994</ele>
        <time>2022-01-20T03:14:07.020Z</time>
      </trkpt>
      <trkpt lat="49.6117" lon="-1.83939">
        <ele>5.877126</ele>
        <time>2022-01-20T03:14:13.984Z</time>
      </trkpt>
      <trkpt lat="49.61187" lon="-1.83962">
        <ele>6.065296</ele>
        <time>2022-01-20T03:14:20.401Z</time>
      </trkpt>
      <trkpt lat="49.61205" lon="-1.83953">
        <ele>6.222298</ele>
        <time>2022-01-20T03:14:25.753Z</time>
      </trkpt>
      <trkpt lat="49.6122" lon="-1.83957">
        <ele>6.343658</ele>
        <time>2022-01-20T03:14:29.906Z</time>
      </trkpt>
      <trkpt lat="49.61248" lon="-1.83943">
        <ele>6.585295</ele>
        <time>2022-01-20T03:14:38.166Z</time>
      </trkpt>
      <trkpt lat="49.61264" lon="-1.83957">
        <ele>6.738215</ele>
        <time>2022-01-20T03:14:43.378Z</time>
      </trkpt>
      <trkpt lat="49.61283" lon="-1.83966">
        <ele>6.906936</ele>
        <time>2022-01-20T03:14:49.159Z</time>
      </trkpt>
      <trkpt lat="49.61311" lon="-1.83966">
        <ele>7.13381</ele>
        <time>2022-01-20T03:14:56.913Z</time>
      </trkpt>
      <trkpt lat="49.61398" lon="-1.84004">
        <ele>7.949761</ele>
        <time>2022-01-20T03:15:22.595Z</time>
      </trkpt>
      <trkpt lat="49.61427" lon="-1.84023">
        <ele>8.240357</ele>
        <time>2022-01-20T03:15:31.662Z</time>
      </trkpt>
      <trkpt lat="49.61464" lon="-1.84025">
        <ele>8.574465</ele>
        <time>2022-01-20T03:15:42.055Z</time>
      </trkpt>
      <trkpt lat="49.61504" lon="-1.8404">
        <ele>8.791124</ele>
        <time>2022-01-20T03:15:53.608Z</time>
      </trkpt>
      <trkpt lat="49.61591" lon="-1.84066">
        <ele>8.450067</ele>
        <time>2022-01-20T03:16:18.480Z</time>
      </trkpt>
      <trkpt lat="49.61593" lon="-1.84068">
        <ele>8.441765</ele>
        <time>2022-01-20T03:16:19.081Z</time>
      </trkpt>
      <trkpt lat="49.61593" lon="-1.84068">
        <ele>8.441765</ele>
        <time>2022-01-20T03:16:19.081Z</time>
      </trkpt>
      <trkpt lat="49.61601" lon="-1.84074">
        <ele>8.405725</ele>
        <time>2022-01-20T03:16:21.621Z</time>
      </trkpt>
      <trkpt lat="49.6163" lon="-1.84089">
        <ele>8.289017</ele>
        <time>2022-01-20T03:16:30.042Z</time>
      </trkpt>
      <trkpt lat="49.61652" lon="-1.84118">
        <ele>8.178505</ele>
        <time>2022-01-20T03:16:37.892Z</time>
      </trkpt>
      <trkpt lat="49.61652" lon="-1.8417">
        <ele>7.784299</ele>
        <time>2022-01-20T03:16:47.162Z</time>
      </trkpt>
      <trkpt lat="49.6166" lon="-1.84192">
        <ele>7.55836</ele>
        <time>2022-01-20T03:16:51.442Z</time>
      </trkpt>
      <trkpt lat="49.61678" lon="-1.84206">
        <ele>7.280485</ele>
        <time>2022-01-20T03:16:56.811Z</time>
      </trkpt>
      <trkpt lat="49.61677" lon="-1.84253">
        <ele>6.85623</ele>
        <time>2022-01-20T03:17:04.974Z</time>
      </trkpt>
      <trkpt lat="49.6168" lon="-1.84255">
        <ele>6.815943</ele>
        <time>2022-01-20T03:17:05.658Z</time>
      </trkpt>
      <trkpt lat="49.61684" lon="-1.84253">
        <ele>6.749373</ele>
        <time>2022-01-20T03:17:06.865Z</time>
      </trkpt>
      <trkpt lat="49.6171" lon="-1.84235">
        <ele>6.362068</ele>
        <time>2022-01-20T03:17:14.575Z</time>
      </trkpt>
      <trkpt lat="49.6177" lon="-1.84214">
        <ele>5.560326</ele>
        <time>2022-01-20T03:17:31.271Z</time>
      </trkpt>
      <trkpt lat="49.61803" lon="-1.84232">
        <ele>5.285916</ele>
        <time>2022-01-20T03:17:40.719Z</time>
      </trkpt>
      <trkpt lat="49.61823" lon="-1.84256">
        <ele>5.087753</ele>
        <time>2022-01-20T03:17:47.520Z</time>
      </trkpt>
      <trkpt lat="49.61834" lon="-1.84279">
        <ele>4.941804</ele>
        <time>2022-01-20T03:17:52.705Z</time>
      </trkpt>
      <trkpt lat="49.61836" lon="-1.84312">
        <ele>4.768195</ele>
        <time>2022-01-20T03:17:58.862Z</time>
      </trkpt>
      <trkpt lat="49.61846" lon="-1.84344">
        <ele>4.588418</ele>
        <time>2022-01-20T03:18:05.252Z</time>
      </trkpt>
      <trkpt lat="49.61857" lon="-1.84343">
        <ele>4.497572</ele>
        <time>2022-01-20T03:18:08.459Z</time>
      </trkpt>
      <trkpt lat="49.61868" lon="-1.84333">
        <ele>4.40228</ele>
        <time>2022-01-20T03:18:11.844Z</time>
      </trkpt>
      <trkpt lat="49.61896" lon="-1.84321">
        <ele>4.206813</ele>
        <time>2022-01-20T03:18:20.144Z</time>
      </trkpt>
      <trkpt lat="49.6193" lon="-1.84349">
        <ele>4.121525</ele>
        <time>2022-01-20T03:18:30.918Z</time>
      </trkpt>
      <trkpt lat="49.62043" lon="-1.8436">
        <ele>3.871399</ele>
        <time>2022-01-20T03:19:02.512Z</time>
      </trkpt>
      <trkpt lat="49.62084" lon="-1.84379">
        <ele>3.842007</ele>
        <time>2022-01-20T03:19:14.366Z</time>
      </trkpt>
      <trkpt lat="49.62109" lon="-1.84406">
        <ele>3.870223</ele>
        <time>2022-01-20T03:19:22.940Z</time>
      </trkpt>
      <trkpt lat="49.62142" lon="-1.84413">
        <ele>3.900659</ele>
        <time>2022-01-20T03:19:32.193Z</time>
      </trkpt>
      <trkpt lat="49.622" lon="-1.84422">
        <ele>3.954523</ele>
        <time>2022-01-20T03:19:48.618Z</time>
      </trkpt>
      <trkpt lat="49.62207" lon="-1.8442">
        <ele>3.960659</ele>
        <time>2022-01-20T03:19:50.496Z</time>
      </trkpt>
      <trkpt lat="49.62245" lon="-1.84408">
        <ele>4.012545</ele>
        <time>2022-01-20T03:20:01.459Z</time>
      </trkpt>
      <trkpt lat="49.6227" lon="-1.84425">
        <ele>4.085706</ele>
        <time>2022-01-20T03:20:09.137Z</time>
      </trkpt>
      <trkpt lat="49.62286" lon="-1.84445">
        <ele>4.141623</ele>
        <time>2022-01-20T03:20:14.991Z</time>
      </trkpt>
      <trkpt lat="49.62317" lon="-1.84471">
        <ele>4.235255</ele>
        <time>2022-01-20T03:20:24.827Z</time>
      </trkpt>
      <trkpt lat="49.62343" lon="-1.84515">
        <ele>4.338729</ele>
        <time>2022-01-20T03:20:35.673Z</time>
      </trkpt>
      <trkpt lat="49.62487" lon="-1.8456">
        <ele>4.688304</ele>
        <time>2022-01-20T03:21:17.088Z</time>
      </trkpt>
      <trkpt lat="49.62517" lon="-1.84577">
        <ele>4.759992</ele>
        <time>2022-01-20T03:21:26.165Z</time>
      </trkpt>
      <trkpt lat="49.62538" lon="-1.84598">
        <ele>4.814511</ele>
        <time>2022-01-20T03:21:33.038Z</time>
      </trkpt>
      <trkpt lat="49.62594" lon="-1.8461">
        <ele>4.842147</ele>
        <time>2022-01-20T03:21:48.978Z</time>
      </trkpt>
      <trkpt lat="49.62637" lon="-1.84638">
        <ele>4.803614</ele>
        <time>2022-01-20T03:22:01.836Z</time>
      </trkpt>
      <trkpt lat="49.62685" lon="-1.84687">
        <ele>4.75555</ele>
        <time>2022-01-20T03:22:17.900Z</time>
      </trkpt>
      <trkpt lat="49.62791" lon="-1.8472">
        <ele>4.641991</ele>
        <time>2022-01-20T03:22:48.298Z</time>
      </trkpt>
      <trkpt lat="49.6285" lon="-1.84708">
        <ele>4.571863</ele>
        <time>2022-01-20T03:23:04.815Z</time>
      </trkpt>
      <trkpt lat="49.62873" lon="-1.84713">
        <ele>4.544584</ele>
        <time>2022-01-20T03:23:11.255Z</time>
      </trkpt>
      <trkpt lat="49.62923" lon="-1.84758">
        <ele>4.515503</ele>
        <time>2022-01-20T03:23:27.332Z</time>
      </trkpt>
      <trkpt lat="49.62943" lon="-1.84793">
        <ele>4.528068</ele>
        <time>2022-01-20T03:23:35.893Z</time>
      </trkpt>
      <trkpt lat="49.63041" lon="-1.84821">
        <ele>4.568765</ele>
        <time>2022-01-20T03:24:03.604Z</time>
      </trkpt>
      <trkpt lat="49.63091" lon="-1.84854">
        <ele>4.69976</ele>
        <time>2022-01-20T03:24:18.928Z</time>
      </trkpt>
      <trkpt lat="49.63158" lon="-1.84864">
        <ele>4.97603</ele>
        <time>2022-01-20T03:24:37.848Z</time>
      </trkpt>
      <trkpt lat="49.63175" lon="-1.84873">
        <ele>5.047727</ele>
        <time>2022-01-20T03:24:42.777Z</time>
      </trkpt>
      <trkpt lat="49.63182" lon="-1.84877">
        <ele>5.078551</ele>
        <time>2022-01-20T03:24:44.899Z</time>
      </trkpt>
      <trkpt lat="49.63197" lon="-1.8489">
        <ele>5.151203</ele>
        <time>2022-01-20T03:24:48.241Z</time>
      </trkpt>
      <trkpt lat="49.63255" lon="-1.84927">
        <ele>5.430303</ele>
        <time>2022-01-20T03:25:00.064Z</time>
      </trkpt>
      <trkpt lat="49.63288" lon="-1.84937">
        <ele>5.599141</ele>
        <time>2022-01-20T03:25:06.346Z</time>
      </trkpt>
      <trkpt lat="49.63314" lon="-1.84939">
        <ele>5.735386</ele>
        <time>2022-01-20T03:25:11.415Z</time>
      </trkpt>
      <trkpt lat="49.63353" lon="-1.84941">
        <ele>5.933101</ele>
        <time>2022-01-20T03:25:18.769Z</time>
      </trkpt>
      <trkpt lat="49.6341" lon="-1.84975">
        <ele>6.237035</ele>
        <time>2022-01-20T03:25:30.021Z</time>
      </trkpt>
      <trkpt lat="49.6349" lon="-1.85016">
        <ele>6.18986</ele>
        <time>2022-01-20T03:25:45.199Z</time>
      </trkpt>
      <trkpt lat="49.63503" lon="-1.85051">
        <ele>6.175308</ele>
        <time>2022-01-20T03:25:52.500Z</time>
      </trkpt>
      <trkpt lat="49.6352" lon="-1.85072">
        <ele>6.163431</ele>
        <time>2022-01-20T03:25:58.473Z</time>
      </trkpt>
      <trkpt lat="49.6358" lon="-1.85088">
        <ele>6.110888</ele>
        <time>2022-01-20T03:26:15.735Z</time>
      </trkpt>
      <trkpt lat="49.63601" lon="-1.85131">
        <ele>6.050627</ele>
        <time>2022-01-20T03:26:25.410Z</time>
      </trkpt>
      <trkpt lat="49.63644" lon="-1.85165">
        <ele>5.967525</ele>
        <time>2022-01-20T03:26:38.770Z</time>
      </trkpt>
      <trkpt lat="49.6371" lon="-1.85156">
        <ele>5.850923</ele>
        <time>2022-01-20T03:26:57.442Z</time>
      </trkpt>
      <trkpt lat="49.63766" lon="-1.85214">
        <ele>6.397478</ele>
        <time>2022-01-20T03:27:16.220Z</time>
      </trkpt>
      <trkpt lat="49.63935" lon="-1.85309">
        <ele>9.495836</ele>
        <time>2022-01-20T03:28:07.388Z</time>
      </trkpt>
      <trkpt lat="49.64072" lon="-1.84945">
        <ele>18.935843</ele>
        <time>2022-01-20T03:29:28.647Z</time>
      </trkpt>
      <trkpt lat="49.64084" lon="-1.84956">
        <ele>19.453674</ele>
        <time>2022-01-20T03:29:32.714Z</time>
      </trkpt>
      <trkpt lat="49.64096" lon="-1.84913">
        <ele>20.488104</ele>
        <time>2022-01-20T03:29:41.398Z</time>
      </trkpt>
      <trkpt lat="49.64117" lon="-1.84937">
        <ele>21.239046</ele>
        <time>2022-01-20T03:29:46.592Z</time>
      </trkpt>
      <trkpt lat="49.64281" lon="-1.85105">
        <ele>29.100622</ele>
        <time>2022-01-20T03:30:28.600Z</time>
      </trkpt>
      <trkpt lat="49.6429" lon="-1.85113">
        <ele>29.822534</ele>
        <time>2022-01-20T03:30:31.205Z</time>
      </trkpt>
      <trkpt lat="49.6433" lon="-1.8499">
        <ele>35.973655</ele>
        <time>2022-01-20T03:30:58.423Z</time>
      </trkpt>
      <trkpt lat="49.64341" lon="-1.84963">
        <ele>37.43602</ele>
        <time>2022-01-20T03:31:04.933Z</time>
      </trkpt>
      <trkpt lat="49.64367" lon="-1.84955">
        <ele>39.44243</ele>
        <time>2022-01-20T03:31:15.010Z</time>
      </trkpt>
      <trkpt lat="49.64367" lon="-1.84949">
        <ele>39.759182</ele>
        <time>2022-01-20T03:31:16.209Z</time>
      </trkpt>
      <trkpt lat="49.64374" lon="-1.84899">
        <ele>42.316003</ele>
        <time>2022-01-20T03:31:30.244Z</time>
      </trkpt>
      <trkpt lat="49.6438" lon="-1.84896">
        <ele>42.835105</ele>
        <time>2022-01-20T03:31:32.575Z</time>
      </trkpt>
      <trkpt lat="49.64424" lon="-1.84907">
        <ele>46.269429</ele>
        <time>2022-01-20T03:31:49.415Z</time>
      </trkpt>
      <trkpt lat="49.64444" lon="-1.84894">
        <ele>47.996755</ele>
        <time>2022-01-20T03:31:57.705Z</time>
      </trkpt>
      <trkpt lat="49.64472" lon="-1.84898">
        <ele>50.195746</ele>
        <time>2022-01-20T03:32:06.925Z</time>
      </trkpt>
      <trkpt lat="49.64476" lon="-1.84898">
        <ele>50.493337</ele>
        <time>2022-01-20T03:32:08.806Z</time>
      </trkpt>
      <trkpt lat="49.64506" lon="-1.84901">
        <ele>51.732157</ele>
        <time>2022-01-20T03:32:17.666Z</time>
      </trkpt>
      <trkpt lat="49.64532" lon="-1.84888">
        <ele>51.208457</ele>
        <time>2022-01-20T03:32:25.323Z</time>
      </trkpt>
      <trkpt lat="49.6458" lon="-1.84886">
        <ele>50.274223</ele>
        <time>2022-01-20T03:32:37.586Z</time>
      </trkpt>
      <trkpt lat="49.64639" lon="-1.84919">
        <ele>49.057901</ele>
        <time>2022-01-20T03:32:52.968Z</time>
      </trkpt>
      <trkpt lat="49.6467" lon="-1.84954">
        <ele>48.168461</ele>
        <time>2022-01-20T03:33:01.552Z</time>
      </trkpt>
      <trkpt lat="49.64665" lon="-1.84953">
        <ele>47.998757</ele>
        <time>2022-01-20T03:33:02.413Z</time>
      </trkpt>
      <trkpt lat="49.6465" lon="-1.84956">
        <ele>47.426454</ele>
        <time>2022-01-20T03:33:05.879Z</time>
      </trkpt>
      <trkpt lat="49.64641" lon="-1.84986">
        <ele>46.654148</ele>
        <time>2022-01-20T03:33:10.533Z</time>
      </trkpt>
      <trkpt lat="49.64638" lon="-1.85024">
        <ele>45.759753</ele>
        <time>2022-01-20T03:33:16.525Z</time>
      </trkpt>
      <trkpt lat="49.64635" lon="-1.85063">
        <ele>44.817222</ele>
        <time>2022-01-20T03:33:22.315Z</time>
      </trkpt>
      <trkpt lat="49.64654" lon="-1.85072">
        <ele>44.092544</ele>
        <time>2022-01-20T03:33:24.896Z</time>
      </trkpt>
      <trkpt lat="49.6465" lon="-1.85082">
        <ele>43.815856</ele>
        <time>2022-01-20T03:33:25.912Z</time>
      </trkpt>
      <trkpt lat="49.64612" lon="-1.85088">
        <ele>42.434116</ele>
        <time>2022-01-20T03:33:31.580Z</time>
      </trkpt>
      <trkpt lat="49.64589" lon="-1.85088">
        <ele>42.39797</ele>
        <time>2022-01-20T03:33:36.079Z</time>
      </trkpt>
      <trkpt lat="49.64578" lon="-1.85111">
        <ele>43.525257</ele>
        <time>2022-01-20T03:33:39.994Z</time>
      </trkpt>
      <trkpt lat="49.64574" lon="-1.85156">
        <ele>45.279143</ele>
        <time>2022-01-20T03:33:46.845Z</time>
      </trkpt>
      <trkpt lat="49.64598" lon="-1.8525">
        <ele>49.174925</ele>
        <time>2022-01-20T03:34:06.358Z</time>
      </trkpt>
      <trkpt lat="49.64628" lon="-1.85298">
        <ele>51.741483</ele>
        <time>2022-01-20T03:34:19.835Z</time>
      </trkpt>
      <trkpt lat="49.64671" lon="-1.85353">
        <ele>55.055856</ele>
        <time>2022-01-20T03:34:37.264Z</time>
      </trkpt>
      <trkpt lat="49.64673" lon="-1.85356">
        <ele>55.244061</ele>
        <time>2022-01-20T03:34:38.613Z</time>
      </trkpt>
      <trkpt lat="49.64695" lon="-1.85369">
        <ele>56.621514</ele>
        <time>2022-01-20T03:34:45.127Z</time>
      </trkpt>
      <trkpt lat="49.64714" lon="-1.85437">
        <ele>59.452699</ele>
        <time>2022-01-20T03:34:58.446Z</time>
      </trkpt>
      <trkpt lat="49.64728" lon="-1.85537">
        <ele>63.262156</ele>
        <time>2022-01-20T03:35:13.950Z</time>
      </trkpt>
      <trkpt lat="49.6475" lon="-1.85583">
        <ele>62.363847</ele>
        <time>2022-01-20T03:35:21.130Z</time>
      </trkpt>
      <trkpt lat="49.64806" lon="-1.85654">
        <ele>60.637614</ele>
        <time>2022-01-20T03:35:31.865Z</time>
      </trkpt>
      <trkpt lat="49.64838" lon="-1.85675">
        <ele>59.798227</ele>
        <time>2022-01-20T03:35:36.584Z</time>
      </trkpt>
      <trkpt lat="49.64877" lon="-1.85743">
        <ele>57.245892</ele>
        <time>2022-01-20T03:35:44.193Z</time>
      </trkpt>
      <trkpt lat="49.64909" lon="-1.85823">
        <ele>52.983226</ele>
        <time>2022-01-20T03:35:51.924Z</time>
      </trkpt>
      <trkpt lat="49.64916" lon="-1.85829">
        <ele>52.479873</ele>
        <time>2022-01-20T03:35:53.564Z</time>
      </trkpt>
      <trkpt lat="49.65036" lon="-1.85948">
        <ele>42.139463</ele>
        <time>2022-01-20T03:36:24.263Z</time>
      </trkpt>
      <trkpt lat="49.6508" lon="-1.86082">
        <ele>34.732135</ele>
        <time>2022-01-20T03:36:45.317Z</time>
      </trkpt>
      <trkpt lat="49.65134" lon="-1.86177">
        <ele>29.835605</ele>
        <time>2022-01-20T03:37:02.888Z</time>
      </trkpt>
      <trkpt lat="49.65174" lon="-1.86303">
        <ele>24.963658</ele>
        <time>2022-01-20T03:37:23.679Z</time>
      </trkpt>
      <trkpt lat="49.65226" lon="-1.86406">
        <ele>23.176573</ele>
        <time>2022-01-20T03:37:45.239Z</time>
      </trkpt>
      <trkpt lat="49.65253" lon="-1.86439">
        <ele>23.142363</ele>
        <time>2022-01-20T03:37:54.999Z</time>
      </trkpt>
      <trkpt lat="49.6526" lon="-1.86441">
        <ele>23.136166</ele>
        <time>2022-01-20T03:37:56.779Z</time>
      </trkpt>
      <trkpt lat="49.65267" lon="-1.86454">
        <ele>23.125147</ele>
        <time>2022-01-20T03:37:59.919Z</time>
      </trkpt>
      <trkpt lat="49.65273" lon="-1.86486">
        <ele>23.103893</ele>
        <time>2022-01-20T03:38:06.049Z</time>
      </trkpt>
      <trkpt lat="49.65365" lon="-1.866">
        <ele>24.60392</ele>
        <time>2022-01-20T03:38:39.873Z</time>
      </trkpt>
      <trkpt lat="49.6541" lon="-1.86622">
        <ele>25.727875</ele>
        <time>2022-01-20T03:38:53.330Z</time>
      </trkpt>
      <trkpt lat="49.65436" lon="-1.86671">
        <ele>26.729855</ele>
        <time>2022-01-20T03:39:05.286Z</time>
      </trkpt>
      <trkpt lat="49.6546" lon="-1.86685">
        <ele>27.352094</ele>
        <time>2022-01-20T03:39:12.671Z</time>
      </trkpt>
      <trkpt lat="49.65483" lon="-1.86674">
        <ele>27.558737</ele>
        <time>2022-01-20T03:39:19.463Z</time>
      </trkpt>
      <trkpt lat="49.65494" lon="-1.86687">
        <ele>27.659022</ele>
        <time>2022-01-20T03:39:23.275Z</time>
      </trkpt>
      <trkpt lat="49.6552" lon="-1.8677">
        <ele>28.10908</ele>
        <time>2022-01-20T03:39:40.345Z</time>
      </trkpt>
      <trkpt lat="49.65615" lon="-1.86946">
        <ele>28.466463</ele>
        <time>2022-01-20T03:40:21.913Z</time>
      </trkpt>
      <trkpt lat="49.65633" lon="-1.86959">
        <ele>28.385118</ele>
        <time>2022-01-20T03:40:27.121Z</time>
      </trkpt>
      <trkpt lat="49.65642" lon="-1.86977">
        <ele>28.323054</ele>
        <time>2022-01-20T03:40:31.143Z</time>
      </trkpt>
      <trkpt lat="49.65639" lon="-1.87027">
        <ele>28.185861</ele>
        <time>2022-01-20T03:40:40.070Z</time>
      </trkpt>
      <trkpt lat="49.65731" lon="-1.87143">
        <ele>28.116234</ele>
        <time>2022-01-20T03:41:13.482Z</time>
      </trkpt>
      <trkpt lat="49.65747" lon="-1.87182">
        <ele>28.175845</ele>
        <time>2022-01-20T03:41:21.812Z</time>
      </trkpt>
      <trkpt lat="49.65764" lon="-1.87199">
        <ele>28.217406</ele>
        <time>2022-01-20T03:41:27.626Z</time>
      </trkpt>
      <trkpt lat="49.65815" lon="-1.87185">
        <ele>28.319929</ele>
        <time>2022-01-20T03:41:42.031Z</time>
      </trkpt>
      <trkpt lat="49.65832" lon="-1.87193">
        <ele>28.497595</ele>
        <time>2022-01-20T03:41:46.971Z</time>
      </trkpt>
      <trkpt lat="49.65842" lon="-1.87209">
        <ele>28.749362</ele>
        <time>2022-01-20T03:41:51.072Z</time>
      </trkpt>
      <trkpt lat="49.65854" lon="-1.87225">
        <ele>29.016986</ele>
        <time>2022-01-20T03:41:54.634Z</time>
      </trkpt>
      <trkpt lat="49.65845" lon="-1.8725">
        <ele>29.340968</ele>
        <time>2022-01-20T03:41:58.291Z</time>
      </trkpt>
      <trkpt lat="49.65836" lon="-1.87302">
        <ele>29.947636</ele>
        <time>2022-01-20T03:42:05.280Z</time>
      </trkpt>
      <trkpt lat="49.65835" lon="-1.87337">
        <ele>30.346964</ele>
        <time>2022-01-20T03:42:09.834Z</time>
      </trkpt>
      <trkpt lat="49.65839" lon="-1.87355">
        <ele>30.558942</ele>
        <time>2022-01-20T03:42:12.432Z</time>
      </trkpt>
      <trkpt lat="49.65847" lon="-1.87374">
        <ele>30.814888</ele>
        <time>2022-01-20T03:42:15.255Z</time>
      </trkpt>
      <trkpt lat="49.65869" lon="-1.87408">
        <ele>31.360273</ele>
        <time>2022-01-20T03:42:21.862Z</time>
      </trkpt>
      <trkpt lat="49.65891" lon="-1.87443">
        <ele>33.147034</ele>
        <time>2022-01-20T03:42:28.126Z</time>
      </trkpt>
      <trkpt lat="49.6593" lon="-1.87533">
        <ele>37.747599</ele>
        <time>2022-01-20T03:42:45.435Z</time>
      </trkpt>
      <trkpt lat="49.65959" lon="-1.87639">
        <ele>42.639529</ele>
        <time>2022-01-20T03:43:09.485Z</time>
      </trkpt>
      <trkpt lat="49.65971" lon="-1.87666">
        <ele>44.409606</ele>
        <time>2022-01-20T03:43:16.057Z</time>
      </trkpt>
      <trkpt lat="49.66005" lon="-1.87738">
        <ele>50.094898</ele>
        <time>2022-01-20T03:43:35.284Z</time>
      </trkpt>
      <trkpt lat="49.66011" lon="-1.87754">
        <ele>51.297277</ele>
        <time>2022-01-20T03:43:38.854Z</time>
      </trkpt>
      <trkpt lat="49.66015" lon="-1.87772">
        <ele>52.511786</ele>
        <time>2022-01-20T03:43:43.574Z</time>
      </trkpt>
      <trkpt lat="49.66016" lon="-1.87801">
        <ele>54.393427</ele>
        <time>2022-01-20T03:43:49.730Z</time>
      </trkpt>
      <trkpt lat="49.66037" lon="-1.87907">
        <ele>61.58535</ele>
        <time>2022-01-20T03:44:14.500Z</time>
      </trkpt>
      <trkpt lat="49.66042" lon="-1.87965">
        <ele>65.997772</ele>
        <time>2022-01-20T03:44:26.831Z</time>
      </trkpt>
      <trkpt lat="49.66042" lon="-1.88033">
        <ele>71.165315</ele>
        <time>2022-01-20T03:44:41.133Z</time>
      </trkpt>
      <trkpt lat="49.66081" lon="-1.88242">
        <ele>88.76427</ele>
        <time>2022-01-20T03:45:37.663Z</time>
      </trkpt>
      <trkpt lat="49.66086" lon="-1.88245">
        <ele>89.557181</ele>
        <time>2022-01-20T03:45:40.583Z</time>
      </trkpt>
      <trkpt lat="49.66088" lon="-1.88244">
        <ele>89.922281</ele>
        <time>2022-01-20T03:45:42.269Z</time>
      </trkpt>
      <trkpt lat="49.6616" lon="-1.88144">
        <ele>103.544504</ele>
        <time>2022-01-20T03:46:23.847Z</time>
      </trkpt>
      <trkpt lat="49.66249" lon="-1.88087">
        <ele>112.898754</ele>
        <time>2022-01-20T03:47:01.208Z</time>
      </trkpt>
      <trkpt lat="49.66292" lon="-1.8807">
        <ele>116.317212</ele>
        <time>2022-01-20T03:47:13.031Z</time>
      </trkpt>
      <trkpt lat="49.66294" lon="-1.8807">
        <ele>116.52358</ele>
        <time>2022-01-20T03:47:14.645Z</time>
      </trkpt>
      <trkpt lat="49.66297" lon="-1.88109">
        <ele>118.540249</ele>
        <time>2022-01-20T03:47:22.194Z</time>
      </trkpt>
      <trkpt lat="49.66309" lon="-1.88146">
        <ele>120.637575</ele>
        <time>2022-01-20T03:47:30.298Z</time>
      </trkpt>
      <trkpt lat="49.6642" lon="-1.88296">
        <ele>123.743911</ele>
        <time>2022-01-20T03:48:12.167Z</time>
      </trkpt>
      <trkpt lat="49.665" lon="-1.88235">
        <ele>125.19495</ele>
        <time>2022-01-20T03:48:37.229Z</time>
      </trkpt>
      <trkpt lat="49.66538" lon="-1.88174">
        <ele>126.1414</ele>
        <time>2022-01-20T03:48:52.808Z</time>
      </trkpt>
      <trkpt lat="49.66555" lon="-1.88146">
        <ele>126.567247</ele>
        <time>2022-01-20T03:48:59.886Z</time>
      </trkpt>
      <trkpt lat="49.66568" lon="-1.88159">
        <ele>126.828366</ele>
        <time>2022-01-20T03:49:04.177Z</time>
      </trkpt>
      <trkpt lat="49.66591" lon="-1.88136">
        <ele>127.298349</ele>
        <time>2022-01-20T03:49:12.016Z</time>
      </trkpt>
      <trkpt lat="49.66605" lon="-1.88126">
        <ele>127.630439</ele>
        <time>2022-01-20T03:49:16.572Z</time>
      </trkpt>
      <trkpt lat="49.66641" lon="-1.88122">
        <ele>129.449381</ele>
        <time>2022-01-20T03:49:26.963Z</time>
      </trkpt>
      <trkpt lat="49.66649" lon="-1.88135">
        <ele>130.039302</ele>
        <time>2022-01-20T03:49:30.735Z</time>
      </trkpt>
      <trkpt lat="49.6673" lon="-1.88109">
        <ele>134.221604</ele>
        <time>2022-01-20T03:49:56.177Z</time>
      </trkpt>
      <trkpt lat="49.66758" lon="-1.88145">
        <ele>136.065914</ele>
        <time>2022-01-20T03:50:08.200Z</time>
      </trkpt>
      <trkpt lat="49.66783" lon="-1.88117">
        <ele>138.175159</ele>
        <time>2022-01-20T03:50:19.034Z</time>
      </trkpt>
      <trkpt lat="49.6681" lon="-1.88087">
        <ele>140.801037</ele>
        <time>2022-01-20T03:50:29.385Z</time>
      </trkpt>
      <trkpt lat="49.66842" lon="-1.88057">
        <ele>143.808656</ele>
        <time>2022-01-20T03:50:40.780Z</time>
      </trkpt>
      <trkpt lat="49.66874" lon="-1.87956">
        <ele>149.56946</ele>
        <time>2022-01-20T03:51:03.425Z</time>
      </trkpt>
      <trkpt lat="49.6688" lon="-1.87942">
        <ele>150.426765</ele>
        <time>2022-01-20T03:51:06.993Z</time>
      </trkpt>
      <trkpt lat="49.66887" lon="-1.87945">
        <ele>150.941206</ele>
        <time>2022-01-20T03:51:08.767Z</time>
      </trkpt>
      <trkpt lat="49.66893" lon="-1.87942">
        <ele>151.205595</ele>
        <time>2022-01-20T03:51:10.528Z</time>
      </trkpt>
      <trkpt lat="49.66899" lon="-1.8794">
        <ele>151.46354</ele>
        <time>2022-01-20T03:51:12.599Z</time>
      </trkpt>
      <trkpt lat="49.66918" lon="-1.87947">
        <ele>152.269093</ele>
        <time>2022-01-20T03:51:17.767Z</time>
      </trkpt>
      <trkpt lat="49.6695" lon="-1.87999">
        <ele>154.183246</ele>
        <time>2022-01-20T03:51:29.644Z</time>
      </trkpt>
      <trkpt lat="49.66969" lon="-1.8802">
        <ele>155.170804</ele>
        <time>2022-01-20T03:51:35.243Z</time>
      </trkpt>
      <trkpt lat="49.6698" lon="-1.88032">
        <ele>155.701376</ele>
        <time>2022-01-20T03:51:38.273Z</time>
      </trkpt>
      <trkpt lat="49.67077" lon="-1.88091">
        <ele>157.047972</ele>
        <time>2022-01-20T03:51:58.128Z</time>
      </trkpt>
      <trkpt lat="49.67079" lon="-1.88098">
        <ele>156.863801</ele>
        <time>2022-01-20T03:51:59.261Z</time>
      </trkpt>
      <trkpt lat="49.67087" lon="-1.88098">
        <ele>156.612093</ele>
        <time>2022-01-20T03:52:00.211Z</time>
      </trkpt>
      <trkpt lat="49.67258" lon="-1.88181">
        <ele>150.320176</ele>
        <time>2022-01-20T03:52:22.875Z</time>
      </trkpt>
      <trkpt lat="49.67281" lon="-1.88184">
        <ele>149.445051</ele>
        <time>2022-01-20T03:52:25.938Z</time>
      </trkpt>
      <trkpt lat="49.67288" lon="-1.88183">
        <ele>149.173085</ele>
        <time>2022-01-20T03:52:26.726Z</time>
      </trkpt>
      <trkpt lat="49.67289" lon="-1.88191">
        <ele>148.946625</ele>
        <time>2022-01-20T03:52:28.097Z</time>
      </trkpt>
      <trkpt lat="49.67384" lon="-1.88275">
        <ele>145.656566</ele>
        <time>2022-01-20T03:52:54.864Z</time>
      </trkpt>
      <trkpt lat="49.67395" lon="-1.88314">
        <ele>146.071611</ele>
        <time>2022-01-20T03:53:02.353Z</time>
      </trkpt>
      <trkpt lat="49.67452" lon="-1.8871">
        <ele>152.732717</ele>
        <time>2022-01-20T03:54:18.426Z</time>
      </trkpt>
      <trkpt lat="49.67456" lon="-1.88724">
        <ele>153.083338</ele>
        <time>2022-01-20T03:54:21.767Z</time>
      </trkpt>
      <trkpt lat="49.6747" lon="-1.88785">
        <ele>154.611788</ele>
        <time>2022-01-20T03:54:34.565Z</time>
      </trkpt>
      <trkpt lat="49.67502" lon="-1.88874">
        <ele>157.117917</ele>
        <time>2022-01-20T03:54:54.565Z</time>
      </trkpt>
      <trkpt lat="49.67548" lon="-1.88964">
        <ele>159.971035</ele>
        <time>2022-01-20T03:55:16.976Z</time>
      </trkpt>
      <trkpt lat="49.67577" lon="-1.89059">
        <ele>161.763387</ele>
        <time>2022-01-20T03:55:36.552Z</time>
      </trkpt>
      <trkpt lat="49.67583" lon="-1.89069">
        <ele>161.835178</ele>
        <time>2022-01-20T03:55:38.984Z</time>
      </trkpt>
      <trkpt lat="49.67603" lon="-1.89062">
        <ele>162.006432</ele>
        <time>2022-01-20T03:55:44.694Z</time>
      </trkpt>
      <trkpt lat="49.67626" lon="-1.89053">
        <ele>162.212021</ele>
        <time>2022-01-20T03:55:51.579Z</time>
      </trkpt>
      <trkpt lat="49.67656" lon="-1.89274">
        <ele>162.066293</ele>
        <time>2022-01-20T03:56:16.072Z</time>
      </trkpt>
      <trkpt lat="49.67696" lon="-1.89589">
        <ele>157.450082</ele>
        <time>2022-01-20T03:56:44.855Z</time>
      </trkpt>
      <trkpt lat="49.67688" lon="-1.89589">
        <ele>157.271145</ele>
        <time>2022-01-20T03:56:45.919Z</time>
      </trkpt>
      <trkpt lat="49.67689" lon="-1.896">
        <ele>157.100956</ele>
        <time>2022-01-20T03:56:46.837Z</time>
      </trkpt>
      <trkpt lat="49.67717" lon="-1.89779">
        <ele>155.09589</ele>
        <time>2022-01-20T03:57:05.180Z</time>
      </trkpt>
      <trkpt lat="49.67733" lon="-1.89842">
        <ele>155.409768</ele>
        <time>2022-01-20T03:57:12.865Z</time>
      </trkpt>
      <trkpt lat="49.67735" lon="-1.8985">
        <ele>155.45081</ele>
        <time>2022-01-20T03:57:14.107Z</time>
      </trkpt>
      <trkpt lat="49.67736" lon="-1.89879">
        <ele>155.58736</ele>
        <time>2022-01-20T03:57:17.749Z</time>
      </trkpt>
      <trkpt lat="49.67737" lon="-1.89898">
        <ele>155.676357</ele>
        <time>2022-01-20T03:57:20.189Z</time>
      </trkpt>
      <trkpt lat="49.67737" lon="-1.89915">
        <ele>155.75713</ele>
        <time>2022-01-20T03:57:22.638Z</time>
      </trkpt>
      <trkpt lat="49.67741" lon="-1.89944">
        <ele>155.896169</ele>
        <time>2022-01-20T03:57:26.290Z</time>
      </trkpt>
      <trkpt lat="49.67744" lon="-1.89951">
        <ele>155.932706</ele>
        <time>2022-01-20T03:57:27.390Z</time>
      </trkpt>
      <trkpt lat="49.67751" lon="-1.89969">
        <ele>156.031194</ele>
        <time>2022-01-20T03:57:30.421Z</time>
      </trkpt>
      <trkpt lat="49.67769" lon="-1.90013">
        <ele>156.452685</ele>
        <time>2022-01-20T03:57:37.577Z</time>
      </trkpt>
      <trkpt lat="49.67825" lon="-1.90211">
        <ele>159.534076</ele>
        <time>2022-01-20T03:58:07.510Z</time>
      </trkpt>
      <trkpt lat="49.67829" lon="-1.90241">
        <ele>159.975252</ele>
        <time>2022-01-20T03:58:11.587Z</time>
      </trkpt>
      <trkpt lat="49.67816" lon="-1.90387">
        <ele>160.555186</ele>
        <time>2022-01-20T03:58:30.238Z</time>
      </trkpt>
      <trkpt lat="49.67819" lon="-1.90522">
        <ele>160.946329</ele>
        <time>2022-01-20T03:58:45.536Z</time>
      </trkpt>
      <trkpt lat="49.67819" lon="-1.90526">
        <ele>160.960018</ele>
        <time>2022-01-20T03:58:46.062Z</time>
      </trkpt>
      <trkpt lat="49.6782" lon="-1.90533">
        <ele>160.945018</ele>
        <time>2022-01-20T03:58:47.277Z</time>
      </trkpt>
      <trkpt lat="49.67848" lon="-1.90677">
        <ele>159.558357</ele>
        <time>2022-01-20T03:59:14.313Z</time>
      </trkpt>
      <trkpt lat="49.67855" lon="-1.90737">
        <ele>158.993664</ele>
        <time>2022-01-20T03:59:24.603Z</time>
      </trkpt>
      <trkpt lat="49.67859" lon="-1.9084">
        <ele>157.522805</ele>
        <time>2022-01-20T03:59:41.680Z</time>
      </trkpt>
      <trkpt lat="49.67865" lon="-1.90871">
        <ele>156.829916</ele>
        <time>2022-01-20T03:59:46.685Z</time>
      </trkpt>
      <trkpt lat="49.67878" lon="-1.90883">
        <ele>156.29467</ele>
        <time>2022-01-20T03:59:50.719Z</time>
      </trkpt>
      <trkpt lat="49.67884" lon="-1.90887">
        <ele>156.095866</ele>
        <time>2022-01-20T03:59:52.142Z</time>
      </trkpt>
      <trkpt lat="49.67881" lon="-1.90901">
        <ele>155.771245</ele>
        <time>2022-01-20T03:59:53.394Z</time>
      </trkpt>
      <trkpt lat="49.67823" lon="-1.91189">
        <ele>147.943025</ele>
        <time>2022-01-20T04:00:19.198Z</time>
      </trkpt>
      <trkpt lat="49.67782" lon="-1.91421">
        <ele>140.391336</ele>
        <time>2022-01-20T04:00:38.675Z</time>
      </trkpt>
      <trkpt lat="49.67781" lon="-1.91429">
        <ele>140.108944</ele>
        <time>2022-01-20T04:00:39.371Z</time>
      </trkpt>
      <trkpt lat="49.67766" lon="-1.9151">
        <ele>137.306611</ele>
        <time>2022-01-20T04:00:46.289Z</time>
      </trkpt>
      <trkpt lat="49.67754" lon="-1.91593">
        <ele>134.468912</ele>
        <time>2022-01-20T04:00:53.275Z</time>
      </trkpt>
      <trkpt lat="49.67753" lon="-1.91613">
        <ele>133.85744</ele>
        <time>2022-01-20T04:00:54.973Z</time>
      </trkpt>
      <trkpt lat="49.67756" lon="-1.91622">
        <ele>133.537901</ele>
        <time>2022-01-20T04:00:55.813Z</time>
      </trkpt>
      <trkpt lat="49.6776" lon="-1.91625">
        <ele>133.328679</ele>
        <time>2022-01-20T04:00:56.386Z</time>
      </trkpt>
      <trkpt lat="49.67765" lon="-1.91625">
        <ele>133.103016</ele>
        <time>2022-01-20T04:00:56.988Z</time>
      </trkpt>
      <trkpt lat="49.67774" lon="-1.91625">
        <ele>132.694493</ele>
        <time>2022-01-20T04:00:58.075Z</time>
      </trkpt>
      <trkpt lat="49.67779" lon="-1.91625">
        <ele>132.450304</ele>
        <time>2022-01-20T04:00:58.746Z</time>
      </trkpt>
      <trkpt lat="49.67794" lon="-1.91627">
        <ele>131.73857</ele>
        <time>2022-01-20T04:01:00.668Z</time>
      </trkpt>
      <trkpt lat="49.678" lon="-1.91652">
        <ele>130.940375</ele>
        <time>2022-01-20T04:01:02.796Z</time>
      </trkpt>
      <trkpt lat="49.67804" lon="-1.91678">
        <ele>130.138627</ele>
        <time>2022-01-20T04:01:05.023Z</time>
      </trkpt>
      <trkpt lat="49.67804" lon="-1.91698">
        <ele>129.502633</ele>
        <time>2022-01-20T04:01:06.757Z</time>
      </trkpt>
      <trkpt lat="49.67804" lon="-1.91742">
        <ele>128.168774</ele>
        <time>2022-01-20T04:01:10.539Z</time>
      </trkpt>
      <trkpt lat="49.67802" lon="-1.91766">
        <ele>127.448865</ele>
        <time>2022-01-20T04:01:12.550Z</time>
      </trkpt>
      <trkpt lat="49.67797" lon="-1.91819">
        <ele>125.864013</ele>
        <time>2022-01-20T04:01:17.026Z</time>
      </trkpt>
      <trkpt lat="49.67794" lon="-1.91856">
        <ele>124.873943</ele>
        <time>2022-01-20T04:01:20.213Z</time>
      </trkpt>
      <trkpt lat="49.67805" lon="-1.91858">
        <ele>124.441431</ele>
        <time>2022-01-20T04:01:21.613Z</time>
      </trkpt>
      <trkpt lat="49.67827" lon="-1.91832">
        <ele>123.31601</ele>
        <time>2022-01-20T04:01:25.279Z</time>
      </trkpt>
      <trkpt lat="49.67846" lon="-1.91826">
        <ele>122.536882</ele>
        <time>2022-01-20T04:01:27.843Z</time>
      </trkpt>
      <trkpt lat="49.67857" lon="-1.91811">
        <ele>121.928975</ele>
        <time>2022-01-20T04:01:29.895Z</time>
      </trkpt>
      <trkpt lat="49.67872" lon="-1.91808">
        <ele>121.305404</ele>
        <time>2022-01-20T04:01:32.008Z</time>
      </trkpt>
      <trkpt lat="49.67881" lon="-1.91807">
        <ele>120.954239</ele>
        <time>2022-01-20T04:01:33.216Z</time>
      </trkpt>
      <trkpt lat="49.67895" lon="-1.9181">
        <ele>120.358558</ele>
        <time>2022-01-20T04:01:35.272Z</time>
      </trkpt>
      <trkpt lat="49.67918" lon="-1.91866">
        <ele>118.710999</ele>
        <time>2022-01-20T04:01:41.524Z</time>
      </trkpt>
      <trkpt lat="49.67924" lon="-1.91878">
        <ele>118.4848</ele>
        <time>2022-01-20T04:01:42.815Z</time>
      </trkpt>
      <trkpt lat="49.67948" lon="-1.91905">
        <ele>117.772838</ele>
        <time>2022-01-20T04:01:50.414Z</time>
      </trkpt>
      <trkpt lat="49.67946" lon="-1.92029">
        <ele>115.844903</ele>
        <time>2022-01-20T04:02:10.290Z</time>
      </trkpt>
      <trkpt lat="49.67952" lon="-1.92134">
        <ele>114.437134</ele>
        <time>2022-01-20T04:02:28.739Z</time>
      </trkpt>
      <trkpt lat="49.67949" lon="-1.92135">
        <ele>114.416656</ele>
        <time>2022-01-20T04:02:29.209Z</time>
      </trkpt>
      <trkpt lat="49.67966" lon="-1.92197">
        <ele>114.103387</ele>
        <time>2022-01-20T04:02:36.599Z</time>
      </trkpt>
      <trkpt lat="49.67974" lon="-1.92225">
        <ele>113.961859</ele>
        <time>2022-01-20T04:02:42.136Z</time>
      </trkpt>
      <trkpt lat="49.67985" lon="-1.92255">
        <ele>113.802946</ele>
        <time>2022-01-20T04:02:48.363Z</time>
      </trkpt>
      <trkpt lat="49.68081" lon="-1.92444">
        <ele>112.764021</ele>
        <time>2022-01-20T04:03:31.876Z</time>
      </trkpt>
      <trkpt lat="49.68084" lon="-1.9244">
        <ele>112.735152</ele>
        <time>2022-01-20T04:03:33.048Z</time>
      </trkpt>
      <trkpt lat="49.68128" lon="-1.92425">
        <ele>112.457044</ele>
        <time>2022-01-20T04:03:45.562Z</time>
      </trkpt>
      <trkpt lat="49.68183" lon="-1.92439">
        <ele>112.097663</ele>
        <time>2022-01-20T04:04:01.203Z</time>
      </trkpt>
      <trkpt lat="49.68207" lon="-1.92447">
        <ele>111.864884</ele>
        <time>2022-01-20T04:04:07.783Z</time>
      </trkpt>
      <trkpt lat="49.68219" lon="-1.92458">
        <ele>111.72726</ele>
        <time>2022-01-20T04:04:11.810Z</time>
      </trkpt>
      <trkpt lat="49.68265" lon="-1.9251">
        <ele>111.181531</ele>
        <time>2022-01-20T04:04:27.310Z</time>
      </trkpt>
      <trkpt lat="49.68316" lon="-1.92599">
        <ele>110.447418</ele>
        <time>2022-01-20T04:04:48.560Z</time>
      </trkpt>
      <trkpt lat="49.68364" lon="-1.92645">
        <ele>109.79354</ele>
        <time>2022-01-20T04:05:04.312Z</time>
      </trkpt>
      <trkpt lat="49.6838" lon="-1.92669">
        <ele>109.528926</ele>
        <time>2022-01-20T04:05:10.602Z</time>
      </trkpt>
      <trkpt lat="49.68398" lon="-1.9272">
        <ele>109.089961</ele>
        <time>2022-01-20T04:05:21.035Z</time>
      </trkpt>
      <trkpt lat="49.68442" lon="-1.92876">
        <ele>106.822722</ele>
        <time>2022-01-20T04:05:50.171Z</time>
      </trkpt>
      <trkpt lat="49.68442" lon="-1.92906">
        <ele>106.1505</ele>
        <time>2022-01-20T04:05:54.836Z</time>
      </trkpt>
      <trkpt lat="49.68426" lon="-1.92982">
        <ele>104.362343</ele>
        <time>2022-01-20T04:06:07.623Z</time>
      </trkpt>
      <trkpt lat="49.68426" lon="-1.92995">
        <ele>104.070813</ele>
        <time>2022-01-20T04:06:09.769Z</time>
      </trkpt>
      <trkpt lat="49.68419" lon="-1.93001">
        <ele>103.803047</ele>
        <time>2022-01-20T04:06:11.428Z</time>
      </trkpt>
      <trkpt lat="49.6839" lon="-1.93029">
        <ele>102.605663</ele>
        <time>2022-01-20T04:06:19.644Z</time>
      </trkpt>
      <trkpt lat="49.68375" lon="-1.93093">
        <ele>100.232276</ele>
        <time>2022-01-20T04:06:29.682Z</time>
      </trkpt>
      <trkpt lat="49.68374" lon="-1.9314">
        <ele>98.211296</ele>
        <time>2022-01-20T04:06:36.565Z</time>
      </trkpt>
      <trkpt lat="49.68389" lon="-1.93239">
        <ele>93.908415</ele>
        <time>2022-01-20T04:06:51.057Z</time>
      </trkpt>
      <trkpt lat="49.68405" lon="-1.93308">
        <ele>90.783521</ele>
        <time>2022-01-20T04:07:01.412Z</time>
      </trkpt>
      <trkpt lat="49.68463" lon="-1.93433">
        <ele>82.358018</ele>
        <time>2022-01-20T04:07:22.400Z</time>
      </trkpt>
      <trkpt lat="49.68466" lon="-1.93475">
        <ele>79.950754</ele>
        <time>2022-01-20T04:07:28.185Z</time>
      </trkpt>
      <trkpt lat="49.68482" lon="-1.93524">
        <ele>76.925432</ele>
        <time>2022-01-20T04:07:35.453Z</time>
      </trkpt>
      <trkpt lat="49.68502" lon="-1.93555">
        <ele>74.437999</ele>
        <time>2022-01-20T04:07:41.497Z</time>
      </trkpt>
      <trkpt lat="49.68529" lon="-1.93618">
        <ele>70.617103</ele>
        <time>2022-01-20T04:07:51.767Z</time>
      </trkpt>
      <trkpt lat="49.68541" lon="-1.93635">
        <ele>69.37967</ele>
        <time>2022-01-20T04:07:55.098Z</time>
      </trkpt>
      <trkpt lat="49.68537" lon="-1.93678">
        <ele>67.168442</ele>
        <time>2022-01-20T04:08:01.095Z</time>
      </trkpt>
      <trkpt lat="49.6855" lon="-1.93677">
        <ele>66.176458</ele>
        <time>2022-01-20T04:08:03.808Z</time>
      </trkpt>
      <trkpt lat="49.68609" lon="-1.93629">
        <ele>60.929958</ele>
        <time>2022-01-20T04:08:18.478Z</time>
      </trkpt>
      <trkpt lat="49.6866" lon="-1.93619">
        <ele>58.222966</ele>
        <time>2022-01-20T04:08:30.273Z</time>
      </trkpt>
      <trkpt lat="49.68679" lon="-1.93611">
        <ele>57.211879</ele>
        <time>2022-01-20T04:08:34.906Z</time>
      </trkpt>
      <trkpt lat="49.68703" lon="-1.9358">
        <ele>55.685089</ele>
        <time>2022-01-20T04:08:42.111Z</time>
      </trkpt>
      <trkpt lat="49.68734" lon="-1.93548">
        <ele>53.782668</ele>
        <time>2022-01-20T04:08:51.030Z</time>
      </trkpt>
      <trkpt lat="49.68749" lon="-1.93546">
        <ele>53.030993</ele>
        <time>2022-01-20T04:08:54.443Z</time>
      </trkpt>
      <trkpt lat="49.68829" lon="-1.9349">
        <ele>46.848504</ele>
        <time>2022-01-20T04:09:14.709Z</time>
      </trkpt>
      <trkpt lat="49.68862" lon="-1.93485">
        <ele>44.20842</ele>
        <time>2022-01-20T04:09:21.940Z</time>
      </trkpt>
      <trkpt lat="49.68886" lon="-1.93483">
        <ele>42.28362</ele>
        <time>2022-01-20T04:09:24.685Z</time>
      </trkpt>
      <trkpt lat="49.68929" lon="-1.93473">
        <ele>38.886966</ele>
        <time>2022-01-20T04:09:29.480Z</time>
      </trkpt>
      <trkpt lat="49.68959" lon="-1.93455">
        <ele>36.504999</ele>
        <time>2022-01-20T04:09:33.131Z</time>
      </trkpt>
      <trkpt lat="49.68976" lon="-1.93468">
        <ele>35.255713</ele>
        <time>2022-01-20T04:09:37.189Z</time>
      </trkpt>
      <trkpt lat="49.68999" lon="-1.93478">
        <ele>33.713957</ele>
        <time>2022-01-20T04:09:42.168Z</time>
      </trkpt>
      <trkpt lat="49.69001" lon="-1.93485">
        <ele>33.405985</ele>
        <time>2022-01-20T04:09:43.212Z</time>
      </trkpt>
      <trkpt lat="49.69006" lon="-1.93477">
        <ele>32.944887</ele>
        <time>2022-01-20T04:09:44.686Z</time>
      </trkpt>
      <trkpt lat="49.69022" lon="-1.93479">
        <ele>31.927986</ele>
        <time>2022-01-20T04:09:47.962Z</time>
      </trkpt>
      <trkpt lat="49.69023" lon="-1.93502">
        <ele>30.946781</ele>
        <time>2022-01-20T04:09:50.841Z</time>
      </trkpt>
      <trkpt lat="49.69025" lon="-1.93507">
        <ele>30.71385</ele>
        <time>2022-01-20T04:09:51.417Z</time>
      </trkpt>
      <trkpt lat="49.69027" lon="-1.9351">
        <ele>30.514971</ele>
        <time>2022-01-20T04:09:51.887Z</time>
      </trkpt>
      <trkpt lat="49.69037" lon="-1.93515">
        <ele>29.872618</ele>
        <time>2022-01-20T04:09:53.548Z</time>
      </trkpt>
      <trkpt lat="49.69043" lon="-1.93513">
        <ele>29.447323</ele>
        <time>2022-01-20T04:09:54.654Z</time>
      </trkpt>
      <trkpt lat="49.69048" lon="-1.935">
        <ele>28.818507</ele>
        <time>2022-01-20T04:09:56.729Z</time>
      </trkpt>
      <trkpt lat="49.69052" lon="-1.93505">
        <ele>28.484313</ele>
        <time>2022-01-20T04:09:57.449Z</time>
      </trkpt>
      <trkpt lat="49.6907" lon="-1.93523">
        <ele>27.094683</ele>
        <time>2022-01-20T04:10:00.114Z</time>
      </trkpt>
      <trkpt lat="49.69102" lon="-1.93531">
        <ele>26.039062</ele>
        <time>2022-01-20T04:10:04.626Z</time>
      </trkpt>
      <trkpt lat="49.69138" lon="-1.93538">
        <ele>27.013964</ele>
        <time>2022-01-20T04:10:11.020Z</time>
      </trkpt>
      <trkpt lat="49.69154" lon="-1.93538">
        <ele>27.460717</ele>
        <time>2022-01-20T04:10:14.965Z</time>
      </trkpt>
      <trkpt lat="49.69173" lon="-1.93536">
        <ele>27.978798</ele>
        <time>2022-01-20T04:10:19.008Z</time>
      </trkpt>
      <trkpt lat="49.69218" lon="-1.93524">
        <ele>29.208444</ele>
        <time>2022-01-20T04:10:30.848Z</time>
      </trkpt>
      <trkpt lat="49.69226" lon="-1.93531">
        <ele>29.443748</ele>
        <time>2022-01-20T04:10:33.328Z</time>
      </trkpt>
      <trkpt lat="49.69244" lon="-1.93547">
        <ele>30.02498</ele>
        <time>2022-01-20T04:10:39.960Z</time>
      </trkpt>
      <trkpt lat="49.69303" lon="-1.93554">
        <ele>31.94872</ele>
        <time>2022-01-20T04:10:57.388Z</time>
      </trkpt>
      <trkpt lat="49.69315" lon="-1.93528">
        <ele>32.707414</ele>
        <time>2022-01-20T04:11:04.156Z</time>
      </trkpt>
      <trkpt lat="49.69319" lon="-1.93551">
        <ele>33.273046</ele>
        <time>2022-01-20T04:11:08.497Z</time>
      </trkpt>
      <trkpt lat="49.69331" lon="-1.93564">
        <ele>33.800042</ele>
        <time>2022-01-20T04:11:13.245Z</time>
      </trkpt>
      <trkpt lat="49.694" lon="-1.93593">
        <ele>36.388306</ele>
        <time>2022-01-20T04:11:33.828Z</time>
      </trkpt>
      <trkpt lat="49.69427" lon="-1.93612">
        <ele>37.551315</ele>
        <time>2022-01-20T04:11:42.558Z</time>
      </trkpt>
      <trkpt lat="49.69471" lon="-1.9361">
        <ele>39.460221</ele>
        <time>2022-01-20T04:11:55.368Z</time>
      </trkpt>
      <trkpt lat="49.69512" lon="-1.93618">
        <ele>41.266723</ele>
        <time>2022-01-20T04:12:07.781Z</time>
      </trkpt>
      <trkpt lat="49.69561" lon="-1.9365">
        <ele>43.574196</ele>
        <time>2022-01-20T04:12:23.998Z</time>
      </trkpt>
      <trkpt lat="49.69618" lon="-1.93658">
        <ele>46.536224</ele>
        <time>2022-01-20T04:12:42.241Z</time>
      </trkpt>
      <trkpt lat="49.69637" lon="-1.93677">
        <ele>47.982143</ele>
        <time>2022-01-20T04:12:49.617Z</time>
      </trkpt>
      <trkpt lat="49.69669" lon="-1.93724">
        <ele>50.745455</ele>
        <time>2022-01-20T04:13:03.639Z</time>
      </trkpt>
      <trkpt lat="49.69677" lon="-1.93732">
        <ele>51.334255</ele>
        <time>2022-01-20T04:13:06.762Z</time>
      </trkpt>
      <trkpt lat="49.69699" lon="-1.9377">
        <ele>53.389037</ele>
        <time>2022-01-20T04:13:14.984Z</time>
      </trkpt>
      <trkpt lat="49.69755" lon="-1.93851">
        <ele>58.71073</ele>
        <time>2022-01-20T04:13:37.817Z</time>
      </trkpt>
      <trkpt lat="49.69815" lon="-1.93888">
        <ele>63.672044</ele>
        <time>2022-01-20T04:13:57.278Z</time>
      </trkpt>
      <trkpt lat="49.69836" lon="-1.93902">
        <ele>65.44768</ele>
        <time>2022-01-20T04:14:04.260Z</time>
      </trkpt>
      <trkpt lat="49.69851" lon="-1.93911">
        <ele>66.703484</ele>
        <time>2022-01-20T04:14:08.752Z</time>
      </trkpt>
      <trkpt lat="49.69872" lon="-1.93917">
        <ele>68.34337</ele>
        <time>2022-01-20T04:14:14.957Z</time>
      </trkpt>
      <trkpt lat="49.69888" lon="-1.93912">
        <ele>69.590819</ele>
        <time>2022-01-20T04:14:19.320Z</time>
      </trkpt>
      <trkpt lat="49.69898" lon="-1.93904">
        <ele>70.304544</ele>
        <time>2022-01-20T04:14:22.972Z</time>
      </trkpt>
      <trkpt lat="49.6991" lon="-1.93901">
        <ele>70.642751</ele>
        <time>2022-01-20T04:14:26.212Z</time>
      </trkpt>
      <trkpt lat="49.69927" lon="-1.93892">
        <ele>71.117354</ele>
        <time>2022-01-20T04:14:30.731Z</time>
      </trkpt>
      <trkpt lat="49.69951" lon="-1.93898">
        <ele>71.760745</ele>
        <time>2022-01-20T04:14:36.877Z</time>
      </trkpt>
      <trkpt lat="49.69956" lon="-1.93901">
        <ele>71.904767</ele>
        <time>2022-01-20T04:14:37.951Z</time>
      </trkpt>
      <trkpt lat="49.69982" lon="-1.93917">
        <ele>72.665788</ele>
        <time>2022-01-20T04:14:44.890Z</time>
      </trkpt>
      <trkpt lat="49.69994" lon="-1.93963">
        <ele>73.531721</ele>
        <time>2022-01-20T04:14:54.012Z</time>
      </trkpt>
      <trkpt lat="49.70003" lon="-1.94024">
        <ele>74.615399</ele>
        <time>2022-01-20T04:15:05.266Z</time>
      </trkpt>
      <trkpt lat="49.70002" lon="-1.94028">
        <ele>74.689554</ele>
        <time>2022-01-20T04:15:06.051Z</time>
      </trkpt>
      <trkpt lat="49.70003" lon="-1.94034">
        <ele>74.802614</ele>
        <time>2022-01-20T04:15:06.867Z</time>
      </trkpt>
      <trkpt lat="49.70007" lon="-1.94061">
        <ele>74.908863</ele>
        <time>2022-01-20T04:15:11.893Z</time>
      </trkpt>
      <trkpt lat="49.70034" lon="-1.94137">
        <ele>74.074819</ele>
        <time>2022-01-20T04:15:26.089Z</time>
      </trkpt>
      <trkpt lat="49.70043" lon="-1.94179">
        <ele>73.651039</ele>
        <time>2022-01-20T04:15:34.096Z</time>
      </trkpt>
      <trkpt lat="49.70042" lon="-1.94189">
        <ele>73.547368</ele>
        <time>2022-01-20T04:15:35.482Z</time>
      </trkpt>
      <trkpt lat="49.70063" lon="-1.94224">
        <ele>73.090363</ele>
        <time>2022-01-20T04:15:44.046Z</time>
      </trkpt>
      <trkpt lat="49.70073" lon="-1.94248">
        <ele>72.807872</ele>
        <time>2022-01-20T04:15:48.643Z</time>
      </trkpt>
      <trkpt lat="49.70096" lon="-1.94262">
        <ele>72.451989</ele>
        <time>2022-01-20T04:15:54.956Z</time>
      </trkpt>
      <trkpt lat="49.70117" lon="-1.94246">
        <ele>72.357922</ele>
        <time>2022-01-20T04:16:01.753Z</time>
      </trkpt>
      <trkpt lat="49.70178" lon="-1.94263">
        <ele>72.338862</ele>
        <time>2022-01-20T04:16:18.979Z</time>
      </trkpt>
      <trkpt lat="49.70223" lon="-1.94285">
        <ele>72.324143</ele>
        <time>2022-01-20T04:16:32.427Z</time>
      </trkpt>
      <trkpt lat="49.70257" lon="-1.94281">
        <ele>72.313502</ele>
        <time>2022-01-20T04:16:42.101Z</time>
      </trkpt>
      <trkpt lat="49.70324" lon="-1.94247">
        <ele>71.205837</ele>
        <time>2022-01-20T04:17:01.830Z</time>
      </trkpt>
      <trkpt lat="49.70339" lon="-1.94264">
        <ele>70.798252</ele>
        <time>2022-01-20T04:17:07.014Z</time>
      </trkpt>
      <trkpt lat="49.70406" lon="-1.94272">
        <ele>69.375212</ele>
        <time>2022-01-20T04:17:24.458Z</time>
      </trkpt>
      <trkpt lat="49.70436" lon="-1.94294">
        <ele>68.675106</ele>
        <time>2022-01-20T04:17:32.180Z</time>
      </trkpt>
      <trkpt lat="49.70467" lon="-1.9437">
        <ele>65.442755</ele>
        <time>2022-01-20T04:17:45.549Z</time>
      </trkpt>
      <trkpt lat="49.70523" lon="-1.94385">
        <ele>61.896047</ele>
        <time>2022-01-20T04:17:58.591Z</time>
      </trkpt>
      <trkpt lat="49.70527" lon="-1.94412">
        <ele>60.773734</ele>
        <time>2022-01-20T04:18:02.365Z</time>
      </trkpt>
      <trkpt lat="49.70556" lon="-1.94484">
        <ele>57.396627</ele>
        <time>2022-01-20T04:18:14.196Z</time>
      </trkpt>
      <trkpt lat="49.70582" lon="-1.94506">
        <ele>54.763068</ele>
        <time>2022-01-20T04:18:20.467Z</time>
      </trkpt>
      <trkpt lat="49.70621" lon="-1.94515">
        <ele>51.172981</ele>
        <time>2022-01-20T04:18:28.974Z</time>
      </trkpt>
      <trkpt lat="49.70645" lon="-1.9454">
        <ele>48.628079</ele>
        <time>2022-01-20T04:18:34.790Z</time>
      </trkpt>
      <trkpt lat="49.70678" lon="-1.94578">
        <ele>44.894957</ele>
        <time>2022-01-20T04:18:43.458Z</time>
      </trkpt>
      <trkpt lat="49.70697" lon="-1.94577">
        <ele>43.222243</ele>
        <time>2022-01-20T04:18:47.344Z</time>
      </trkpt>
      <trkpt lat="49.70763" lon="-1.94551">
        <ele>37.319608</ele>
        <time>2022-01-20T04:19:01.429Z</time>
      </trkpt>
      <trkpt lat="49.70787" lon="-1.94555">
        <ele>35.270552</ele>
        <time>2022-01-20T04:19:06.335Z</time>
      </trkpt>
      <trkpt lat="49.70823" lon="-1.9456">
        <ele>32.203559</ele>
        <time>2022-01-20T04:19:10.800Z</time>
      </trkpt>
      <trkpt lat="49.70848" lon="-1.94552">
        <ele>29.959017</ele>
        <time>2022-01-20T04:19:14.103Z</time>
      </trkpt>
      <trkpt lat="49.70876" lon="-1.9452">
        <ele>27.039262</ele>
        <time>2022-01-20T04:19:18.355Z</time>
      </trkpt>
      <trkpt lat="49.70881" lon="-1.94509">
        <ele>26.289961</ele>
        <time>2022-01-20T04:19:19.385Z</time>
      </trkpt>
      <trkpt lat="49.70886" lon="-1.94504">
        <ele>25.80243</ele>
        <time>2022-01-20T04:19:20.185Z</time>
      </trkpt>
      <trkpt lat="49.70904" lon="-1.94499">
        <ele>24.866723</ele>
        <time>2022-01-20T04:19:22.478Z</time>
      </trkpt>
      <trkpt lat="49.70916" lon="-1.94487">
        <ele>24.086696</ele>
        <time>2022-01-20T04:19:24.240Z</time>
      </trkpt>
      <trkpt lat="49.70918" lon="-1.94485">
        <ele>23.956851</ele>
        <time>2022-01-20T04:19:24.565Z</time>
      </trkpt>
      <trkpt lat="49.70938" lon="-1.94475">
        <ele>22.860929</ele>
        <time>2022-01-20T04:19:27.343Z</time>
      </trkpt>
      <trkpt lat="49.70959" lon="-1.94459">
        <ele>21.623706</ele>
        <time>2022-01-20T04:19:30.394Z</time>
      </trkpt>
      <trkpt lat="49.70972" lon="-1.94449">
        <ele>20.860505</ele>
        <time>2022-01-20T04:19:32.956Z</time>
      </trkpt>
      <trkpt lat="49.71061" lon="-1.9438">
        <ele>16.007607</ele>
        <time>2022-01-20T04:19:50.904Z</time>
      </trkpt>
      <trkpt lat="49.71177" lon="-1.9432">
        <ele>12.718084</ele>
        <time>2022-01-20T04:20:14.801Z</time>
      </trkpt>
      <trkpt lat="49.71308" lon="-1.94207">
        <ele>9.155266</ele>
        <time>2022-01-20T04:20:44.433Z</time>
      </trkpt>
      <trkpt lat="49.71321" lon="-1.94202">
        <ele>8.864118</ele>
        <time>2022-01-20T04:20:47.178Z</time>
      </trkpt>
      <trkpt lat="49.71333" lon="-1.94263">
        <ele>7.927381</ele>
        <time>2022-01-20T04:20:53.116Z</time>
      </trkpt>
      <trkpt lat="49.71336" lon="-1.94325">
        <ele>6.976052</ele>
        <time>2022-01-20T04:20:58.853Z</time>
      </trkpt>
      <trkpt lat="49.71337" lon="-1.94332">
        <ele>6.867822</ele>
        <time>2022-01-20T04:20:59.387Z</time>
      </trkpt>
      <trkpt lat="49.71344" lon="-1.94336">
        <ele>6.697488</ele>
        <time>2022-01-20T04:21:00.342Z</time>
      </trkpt>
      <trkpt lat="49.71423" lon="-1.94326">
        <ele>4.760983</ele>
        <time>2022-01-20T04:21:11.506Z</time>
      </trkpt>
      <trkpt lat="49.71463" lon="-1.9433">
        <ele>3.772049</ele>
        <time>2022-01-20T04:21:17.258Z</time>
      </trkpt>
      <trkpt lat="49.71503" lon="-1.94366">
        <ele>2.946944</ele>
        <time>2022-01-20T04:21:24.002Z</time>
      </trkpt>
      <trkpt lat="49.71535" lon="-1.94426">
        <ele>2.489366</ele>
        <time>2022-01-20T04:21:31.972Z</time>
      </trkpt>
      <trkpt lat="49.71554" lon="-1.94474">
        <ele>2.158055</ele>
        <time>2022-01-20T04:21:37.862Z</time>
      </trkpt>
      <trkpt lat="49.71542" lon="-1.94487">
        <ele>2.028874</ele>
        <time>2022-01-20T04:21:40.964Z</time>
      </trkpt>
      <trkpt lat="49.71555" lon="-1.94545">
        <ele>1.665614</ele>
        <time>2022-01-20T04:21:49.730Z</time>
      </trkpt>
      <trkpt lat="49.71558" lon="-1.94551">
        <ele>1.617817</ele>
        <time>2022-01-20T04:21:50.858Z</time>
      </trkpt>
      <trkpt lat="49.71565" lon="-1.94555">
        <ele>1.548825</ele>
        <time>2022-01-20T04:21:52.550Z</time>
      </trkpt>
      <trkpt lat="49.71578" lon="-1.9456">
        <ele>1.494126</ele>
        <time>2022-01-20T04:21:55.419Z</time>
      </trkpt>
      <trkpt lat="49.71656" lon="-1.9459">
        <ele>1.569949</ele>
        <time>2022-01-20T04:22:17.831Z</time>
      </trkpt>
      <trkpt lat="49.7168" lon="-1.94601">
        <ele>1.593966</ele>
        <time>2022-01-20T04:22:24.964Z</time>
      </trkpt>
      <trkpt lat="49.71689" lon="-1.94579">
        <ele>1.609772</ele>
        <time>2022-01-20T04:22:36.561Z</time>
      </trkpt>
      <trkpt lat="49.71727" lon="-1.94534">
        <ele>1.655078</ele>
        <time>2022-01-20T04:23:09.883Z</time>
      </trkpt>
      <trkpt lat="49.71785" lon="-1.94482">
        <ele>1.688898</ele>
        <time>2022-01-20T04:23:56.521Z</time>
      </trkpt>
      <trkpt lat="49.71851" lon="-1.94442">
        <ele>1.722965</ele>
        <time>2022-01-20T04:24:45.624Z</time>
      </trkpt>
      <trkpt lat="49.71887" lon="-1.9443">
        <ele>1.740729</ele>
        <time>2022-01-20T04:25:11.292Z</time>
      </trkpt>
      <trkpt lat="49.71934" lon="-1.94427">
        <ele>1.77526</ele>
        <time>2022-01-20T04:25:43.802Z</time>
      </trkpt>
      <trkpt lat="49.72084" lon="-1.94451">
        <ele>1.906196</ele>
        <time>2022-01-20T04:27:28.725Z</time>
      </trkpt>
      <trkpt lat="49.72158" lon="-1.94435">
        <ele>2.053021</ele>
        <time>2022-01-20T04:28:20.849Z</time>
      </trkpt>
      <trkpt lat="49.72159" lon="-1.94434">
        <ele>2.054994</ele>
        <time>2022-01-20T04:28:21.561Z</time>
      </trkpt>
      <trkpt lat="49.72301" lon="-1.94326">
        <ele>2.477346</ele>
        <time>2022-01-20T04:30:11.539Z</time>
      </trkpt>
      <trkpt lat="49.72331" lon="-1.94314">
        <ele>2.592778</ele>
        <time>2022-01-20T04:30:33.181Z</time>
      </trkpt>
      <trkpt lat="49.72375" lon="-1.94316">
        <ele>2.756762</ele>
        <time>2022-01-20T04:31:03.791Z</time>
      </trkpt>
      <trkpt lat="49.72388" lon="-1.94309">
        <ele>2.807231</ele>
        <time>2022-01-20T04:31:13.243Z</time>
      </trkpt>
      <trkpt lat="49.7242" lon="-1.9425">
        <ele>3.033045</ele>
        <time>2022-01-20T04:31:47.956Z</time>
      </trkpt>
      <trkpt lat="49.72437" lon="-1.94239">
        <ele>3.133079</ele>
        <time>2022-01-20T04:32:00.707Z</time>
      </trkpt>
      <trkpt lat="49.72495" lon="-1.94164">
        <ele>3.548687</ele>
        <time>2022-01-20T04:32:53.425Z</time>
      </trkpt>
      <trkpt lat="49.72526" lon="-1.9415">
        <ele>3.722443</ele>
        <time>2022-01-20T04:33:15.481Z</time>
      </trkpt>
      <trkpt lat="49.72534" lon="-1.94141">
        <ele>3.779387</ele>
        <time>2022-01-20T04:33:22.693Z</time>
      </trkpt>
      <trkpt lat="49.72545" lon="-1.9413">
        <ele>3.849644</ele>
        <time>2022-01-20T04:33:25.102Z</time>
      </trkpt>
      <trkpt lat="49.72582" lon="-1.94093">
        <ele>4.015366</ele>
        <time>2022-01-20T04:33:33.463Z</time>
      </trkpt>
      <trkpt lat="49.72618" lon="-1.94032">
        <ele>4.194284</ele>
        <time>2022-01-20T04:33:43.556Z</time>
      </trkpt>
      <trkpt lat="49.72632" lon="-1.9397">
        <ele>4.336609</ele>
        <time>2022-01-20T04:33:51.347Z</time>
      </trkpt>
      <trkpt lat="49.72632" lon="-1.93885">
        <ele>4.468056</ele>
        <time>2022-01-20T04:34:01.073Z</time>
      </trkpt>
      <trkpt lat="49.72626" lon="-1.93866">
        <ele>4.413699</ele>
        <time>2022-01-20T04:34:03.404Z</time>
      </trkpt>
      <trkpt lat="49.7261" lon="-1.9385">
        <ele>4.334979</ele>
        <time>2022-01-20T04:34:06.798Z</time>
      </trkpt>
      <trkpt lat="49.72614" lon="-1.93817">
        <ele>4.24549</ele>
        <time>2022-01-20T04:34:10.658Z</time>
      </trkpt>
      <trkpt lat="49.72612" lon="-1.93813">
        <ele>4.231419</ele>
        <time>2022-01-20T04:34:11.306Z</time>
      </trkpt>
      <trkpt lat="49.72613" lon="-1.93807">
        <ele>4.217154</ele>
        <time>2022-01-20T04:34:12.198Z</time>
      </trkpt>
      <trkpt lat="49.72612" lon="-1.93708">
        <ele>3.958119</ele>
        <time>2022-01-20T04:34:30.228Z</time>
      </trkpt>
      <trkpt lat="49.72607" lon="-1.93679">
        <ele>3.879487</ele>
        <time>2022-01-20T04:34:35.709Z</time>
      </trkpt>
      <trkpt lat="49.72601" lon="-1.93663">
        <ele>3.831605</ele>
        <time>2022-01-20T04:34:39.003Z</time>
      </trkpt>
      <trkpt lat="49.72601" lon="-1.9363">
        <ele>3.749283</ele>
        <time>2022-01-20T04:34:53.832Z</time>
      </trkpt>
      <trkpt lat="49.72614" lon="-1.93545">
        <ele>3.550786</ele>
        <time>2022-01-20T04:35:33.231Z</time>
      </trkpt>
      <trkpt lat="49.72646" lon="-1.93485">
        <ele>3.374974</ele>
        <time>2022-01-20T04:36:08.166Z</time>
      </trkpt>
      <trkpt lat="49.72678" lon="-1.93453">
        <ele>3.242239</ele>
        <time>2022-01-20T04:36:34.496Z</time>
      </trkpt>
      <trkpt lat="49.72687" lon="-1.93433">
        <ele>3.186345</ele>
        <time>2022-01-20T04:36:45.589Z</time>
      </trkpt>
      <trkpt lat="49.72686" lon="-1.93422">
        <ele>3.162998</ele>
        <time>2022-01-20T04:36:50.221Z</time>
      </trkpt>
      <trkpt lat="49.72655" lon="-1.93421">
        <ele>3.178649</ele>
        <time>2022-01-20T04:37:11.696Z</time>
      </trkpt>
      <trkpt lat="49.72639" lon="-1.93405">
        <ele>3.205064</ele>
        <time>2022-01-20T04:37:24.927Z</time>
      </trkpt>
      <trkpt lat="49.72613" lon="-1.93351">
        <ele>3.265031</ele>
        <time>2022-01-20T04:37:54.902Z</time>
      </trkpt>
      <trkpt lat="49.72602" lon="-1.9329">
        <ele>3.322148</ele>
        <time>2022-01-20T04:38:23.441Z</time>
      </trkpt>
      <trkpt lat="49.72598" lon="-1.93222">
        <ele>3.383159</ele>
        <time>2022-01-20T04:38:53.946Z</time>
      </trkpt>
      <trkpt lat="49.72602" lon="-1.93187">
        <ele>3.401516</ele>
        <time>2022-01-20T04:39:10.113Z</time>
      </trkpt>
      <trkpt lat="49.72606" lon="-1.93166">
        <ele>3.408761</ele>
        <time>2022-01-20T04:39:20.041Z</time>
      </trkpt>
      <trkpt lat="49.72613" lon="-1.93155">
        <ele>3.413618</ele>
        <time>2022-01-20T04:39:26.653Z</time>
      </trkpt>
      <trkpt lat="49.72615" lon="-1.93132">
        <ele>3.421093</ele>
        <time>2022-01-20T04:39:36.875Z</time>
      </trkpt>
      <trkpt lat="49.72605" lon="-1.93083">
        <ele>3.438039</ele>
        <time>2022-01-20T04:40:00.053Z</time>
      </trkpt>
      <trkpt lat="49.72595" lon="-1.93074">
        <ele>3.443726</ele>
        <time>2022-01-20T04:40:07.823Z</time>
      </trkpt>
      <trkpt lat="49.72582" lon="-1.93047">
        <ele>3.454806</ele>
        <time>2022-01-20T04:40:22.962Z</time>
      </trkpt>
      <trkpt lat="49.72579" lon="-1.93008">
        <ele>3.467938</ele>
        <time>2022-01-20T04:40:40.899Z</time>
      </trkpt>
      <trkpt lat="49.72586" lon="-1.92964">
        <ele>3.482757</ele>
        <time>2022-01-20T04:41:01.134Z</time>
      </trkpt>
      <trkpt lat="49.7261" lon="-1.92896">
        <ele>3.523215</ele>
        <time>2022-01-20T04:41:35.865Z</time>
      </trkpt>
      <trkpt lat="49.72625" lon="-1.92867">
        <ele>3.543503</ele>
        <time>2022-01-20T04:41:52.656Z</time>
      </trkpt>
      <trkpt lat="49.72642" lon="-1.92812">
        <ele>3.576507</ele>
        <time>2022-01-20T04:42:20.028Z</time>
      </trkpt>
      <trkpt lat="49.72638" lon="-1.92791">
        <ele>3.588834</ele>
        <time>2022-01-20T04:42:30.239Z</time>
      </trkpt>
      <trkpt lat="49.72644" lon="-1.92736">
        <ele>3.61904</ele>
        <time>2022-01-20T04:42:55.291Z</time>
      </trkpt>
      <trkpt lat="49.72666" lon="-1.92658">
        <ele>3.735349</ele>
        <time>2022-01-20T04:43:33.511Z</time>
      </trkpt>
      <trkpt lat="49.72687" lon="-1.92605">
        <ele>3.84858</ele>
        <time>2022-01-20T04:44:01.208Z</time>
      </trkpt>
      <trkpt lat="49.72683" lon="-1.92582">
        <ele>3.893455</ele>
        <time>2022-01-20T04:44:12.197Z</time>
      </trkpt>
      <trkpt lat="49.72653" lon="-1.9253">
        <ele>4.01925</ele>
        <time>2022-01-20T04:44:42.941Z</time>
      </trkpt>
      <trkpt lat="49.7263" lon="-1.92458">
        <ele>4.124827</ele>
        <time>2022-01-20T04:45:19.541Z</time>
      </trkpt>
      <trkpt lat="49.72628" lon="-1.92442">
        <ele>4.095096</ele>
        <time>2022-01-20T04:45:26.838Z</time>
      </trkpt>
      <trkpt lat="49.72628" lon="-1.92407">
        <ele>4.032664</ele>
        <time>2022-01-20T04:45:32.871Z</time>
      </trkpt>
      <trkpt lat="49.72629" lon="-1.92343">
        <ele>3.914557</ele>
        <time>2022-01-20T04:45:44.571Z</time>
      </trkpt>
      <trkpt lat="49.72639" lon="-1.92283">
        <ele>3.802877</ele>
        <time>2022-01-20T04:45:55.625Z</time>
      </trkpt>
      <trkpt lat="49.72626" lon="-1.92214">
        <ele>3.670856</ele>
        <time>2022-01-20T04:46:08.710Z</time>
      </trkpt>
      <trkpt lat="49.72622" lon="-1.92197">
        <ele>3.638779</ele>
        <time>2022-01-20T04:46:11.640Z</time>
      </trkpt>
      <trkpt lat="49.72606" lon="-1.92182">
        <ele>3.573389</ele>
        <time>2022-01-20T04:46:17.100Z</time>
      </trkpt>
      <trkpt lat="49.72584" lon="-1.92147">
        <ele>3.470741</ele>
        <time>2022-01-20T04:46:25.676Z</time>
      </trkpt>
      <trkpt lat="49.72578" lon="-1.92137">
        <ele>3.43898</ele>
        <time>2022-01-20T04:46:28.336Z</time>
      </trkpt>
      <trkpt lat="49.72548" lon="-1.92035">
        <ele>3.19692</ele>
        <time>2022-01-20T04:46:48.603Z</time>
      </trkpt>
      <trkpt lat="49.72522" lon="-1.91923">
        <ele>3.112595</ele>
        <time>2022-01-20T04:47:09.972Z</time>
      </trkpt>
      <trkpt lat="49.72507" lon="-1.91829">
        <ele>3.277854</ele>
        <time>2022-01-20T04:47:27.611Z</time>
      </trkpt>
      <trkpt lat="49.72503" lon="-1.9171">
        <ele>3.480364</ele>
        <time>2022-01-20T04:47:49.316Z</time>
      </trkpt>
      <trkpt lat="49.72445" lon="-1.91611">
        <ele>3.6938</ele>
        <time>2022-01-20T04:48:13.457Z</time>
      </trkpt>
      <trkpt lat="49.72422" lon="-1.91578">
        <ele>3.772817</ele>
        <time>2022-01-20T04:48:22.444Z</time>
      </trkpt>
      <trkpt lat="49.72402" lon="-1.91539">
        <ele>3.851132</ele>
        <time>2022-01-20T04:48:31.342Z</time>
      </trkpt>
      <trkpt lat="49.72404" lon="-1.91533">
        <ele>3.861645</ele>
        <time>2022-01-20T04:48:32.541Z</time>
      </trkpt>
      <trkpt lat="49.72376" lon="-1.91426">
        <ele>3.874652</ele>
        <time>2022-01-20T04:48:53.421Z</time>
      </trkpt>
      <trkpt lat="49.72331" lon="-1.91364">
        <ele>3.748344</ele>
        <time>2022-01-20T04:49:10.149Z</time>
      </trkpt>
      <trkpt lat="49.72233" lon="-1.91263">
        <ele>3.725191</ele>
        <time>2022-01-20T04:49:43.318Z</time>
      </trkpt>
      <trkpt lat="49.72197" lon="-1.91252">
        <ele>3.877579</ele>
        <time>2022-01-20T04:49:53.406Z</time>
      </trkpt>
      <trkpt lat="49.72164" lon="-1.91227">
        <ele>4.032064</ele>
        <time>2022-01-20T04:50:03.710Z</time>
      </trkpt>
      <trkpt lat="49.72143" lon="-1.91187">
        <ele>4.174553</ele>
        <time>2022-01-20T04:50:13.214Z</time>
      </trkpt>
      <trkpt lat="49.72134" lon="-1.91132">
        <ele>4.330617</ele>
        <time>2022-01-20T04:50:20.334Z</time>
      </trkpt>
      <trkpt lat="49.72123" lon="-1.91086">
        <ele>4.556288</ele>
        <time>2022-01-20T04:50:26.435Z</time>
      </trkpt>
      <trkpt lat="49.72116" lon="-1.91033">
        <ele>4.812364</ele>
        <time>2022-01-20T04:50:33.316Z</time>
      </trkpt>
      <trkpt lat="49.72115" lon="-1.91025">
        <ele>4.849582</ele>
        <time>2022-01-20T04:50:34.765Z</time>
      </trkpt>
      <trkpt lat="49.72106" lon="-1.9094">
        <ele>5.251358</ele>
        <time>2022-01-20T04:50:50.452Z</time>
      </trkpt>
      <trkpt lat="49.72108" lon="-1.90901">
        <ele>5.434736</ele>
        <time>2022-01-20T04:50:57.583Z</time>
      </trkpt>
      <trkpt lat="49.72118" lon="-1.90825">
        <ele>5.614207</ele>
        <time>2022-01-20T04:51:11.633Z</time>
      </trkpt>
      <trkpt lat="49.72136" lon="-1.90757">
        <ele>5.556766</ele>
        <time>2022-01-20T04:51:25.057Z</time>
      </trkpt>
      <trkpt lat="49.72141" lon="-1.90703">
        <ele>5.514905</ele>
        <time>2022-01-20T04:51:34.861Z</time>
      </trkpt>
      <trkpt lat="49.72125" lon="-1.90594">
        <ele>5.428806</ele>
        <time>2022-01-20T04:51:55.039Z</time>
      </trkpt>
      <trkpt lat="49.72119" lon="-1.90588">
        <ele>5.436542</ele>
        <time>2022-01-20T04:51:57.220Z</time>
      </trkpt>
      <trkpt lat="49.72101" lon="-1.9054">
        <ele>5.523933</ele>
        <time>2022-01-20T04:52:07.198Z</time>
      </trkpt>
      <trkpt lat="49.72091" lon="-1.90452">
        <ele>5.665816</ele>
        <time>2022-01-20T04:52:23.321Z</time>
      </trkpt>
      <trkpt lat="49.72082" lon="-1.90435">
        <ele>5.700452</ele>
        <time>2022-01-20T04:52:27.288Z</time>
      </trkpt>
      <trkpt lat="49.72056" lon="-1.90428">
        <ele>5.7653</ele>
        <time>2022-01-20T04:52:34.725Z</time>
      </trkpt>
      <trkpt lat="49.72046" lon="-1.90413">
        <ele>5.798744</ele>
        <time>2022-01-20T04:52:38.572Z</time>
      </trkpt>
      <trkpt lat="49.71994" lon="-1.904">
        <ele>6.233994</ele>
        <time>2022-01-20T04:52:53.595Z</time>
      </trkpt>
      <trkpt lat="49.71952" lon="-1.90406">
        <ele>6.84636</ele>
        <time>2022-01-20T04:53:05.648Z</time>
      </trkpt>
      <trkpt lat="49.71904" lon="-1.90345">
        <ele>7.742899</ele>
        <time>2022-01-20T04:53:23.315Z</time>
      </trkpt>
      <trkpt lat="49.7187" lon="-1.90319">
        <ele>8.281369</ele>
        <time>2022-01-20T04:53:33.941Z</time>
      </trkpt>
      <trkpt lat="49.71845" lon="-1.9018">
        <ele>8.846963</ele>
        <time>2022-01-20T04:54:00.272Z</time>
      </trkpt>
      <trkpt lat="49.71842" lon="-1.9015">
        <ele>8.941218</ele>
        <time>2022-01-20T04:54:05.849Z</time>
      </trkpt>
      <trkpt lat="49.71839" lon="-1.90063">
        <ele>9.213329</ele>
        <time>2022-01-20T04:54:21.693Z</time>
      </trkpt>
      <trkpt lat="49.71835" lon="-1.90027">
        <ele>9.316645</ele>
        <time>2022-01-20T04:54:28.278Z</time>
      </trkpt>
      <trkpt lat="49.71826" lon="-1.90009">
        <ele>9.217059</ele>
        <time>2022-01-20T04:54:32.330Z</time>
      </trkpt>
      <trkpt lat="49.71768" lon="-1.89943">
        <ele>8.720024</ele>
        <time>2022-01-20T04:54:52.424Z</time>
      </trkpt>
      <trkpt lat="49.71764" lon="-1.89904">
        <ele>8.543221</ele>
        <time>2022-01-20T04:54:59.465Z</time>
      </trkpt>
      <trkpt lat="49.71715" lon="-1.89834">
        <ele>8.084084</ele>
        <time>2022-01-20T04:55:18.064Z</time>
      </trkpt>
      <trkpt lat="49.71698" lon="-1.89826">
        <ele>7.932065</ele>
        <time>2022-01-20T04:55:22.947Z</time>
      </trkpt>
      <trkpt lat="49.71678" lon="-1.89765">
        <ele>7.546494</ele>
        <time>2022-01-20T04:55:35.149Z</time>
      </trkpt>
      <trkpt lat="49.71679" lon="-1.89687">
        <ele>7.103729</ele>
        <time>2022-01-20T04:55:48.980Z</time>
      </trkpt>
      <trkpt lat="49.71651" lon="-1.89622">
        <ele>6.658946</ele>
        <time>2022-01-20T04:56:02.975Z</time>
      </trkpt>
      <trkpt lat="49.71577" lon="-1.89567">
        <ele>7.059108</ele>
        <time>2022-01-20T04:56:25.964Z</time>
      </trkpt>
      <trkpt lat="49.71569" lon="-1.89569">
        <ele>7.131104</ele>
        <time>2022-01-20T04:56:28.307Z</time>
      </trkpt>
      <trkpt lat="49.71561" lon="-1.89588">
        <ele>7.261406</ele>
        <time>2022-01-20T04:56:32.572Z</time>
      </trkpt>
      <trkpt lat="49.71514" lon="-1.89597">
        <ele>7.664824</ele>
        <time>2022-01-20T04:56:45.739Z</time>
      </trkpt>
      <trkpt lat="49.71476" lon="-1.89615">
        <ele>8.008576</ele>
        <time>2022-01-20T04:56:57.034Z</time>
      </trkpt>
      <trkpt lat="49.71466" lon="-1.89636">
        <ele>8.36046</ele>
        <time>2022-01-20T04:57:02.059Z</time>
      </trkpt>
      <trkpt lat="49.71441" lon="-1.89649">
        <ele>9.035074</ele>
        <time>2022-01-20T04:57:10.117Z</time>
      </trkpt>
      <trkpt lat="49.71433" lon="-1.89664">
        <ele>9.377642</ele>
        <time>2022-01-20T04:57:13.781Z</time>
      </trkpt>
      <trkpt lat="49.71391" lon="-1.89686">
        <ele>10.561005</ele>
        <time>2022-01-20T04:57:26.878Z</time>
      </trkpt>
      <trkpt lat="49.71385" lon="-1.897">
        <ele>10.850498</ele>
        <time>2022-01-20T04:57:30.433Z</time>
      </trkpt>
      <trkpt lat="49.71363" lon="-1.89716">
        <ele>11.492764</ele>
        <time>2022-01-20T04:57:37.336Z</time>
      </trkpt>
      <trkpt lat="49.71381" lon="-1.89761">
        <ele>12.409301</ele>
        <time>2022-01-20T04:57:47.265Z</time>
      </trkpt>
      <trkpt lat="49.71368" lon="-1.89776">
        <ele>12.821626</ele>
        <time>2022-01-20T04:57:52.078Z</time>
      </trkpt>
      <trkpt lat="49.71352" lon="-1.89774">
        <ele>12.672494</ele>
        <time>2022-01-20T04:57:54.498Z</time>
      </trkpt>
      <trkpt lat="49.71299" lon="-1.89778">
        <ele>12.186767</ele>
        <time>2022-01-20T04:58:03.284Z</time>
      </trkpt>
      <trkpt lat="49.71268" lon="-1.89779">
        <ele>11.909807</ele>
        <time>2022-01-20T04:58:07.679Z</time>
      </trkpt>
      <trkpt lat="49.71254" lon="-1.89779">
        <ele>11.779147</ele>
        <time>2022-01-20T04:58:09.942Z</time>
      </trkpt>
      <trkpt lat="49.71243" lon="-1.89778">
        <ele>11.680865</ele>
        <time>2022-01-20T04:58:11.366Z</time>
      </trkpt>
      <trkpt lat="49.71228" lon="-1.89768">
        <ele>11.526169</ele>
        <time>2022-01-20T04:58:14.358Z</time>
      </trkpt>
      <trkpt lat="49.71193" lon="-1.89742">
        <ele>11.188546</ele>
        <time>2022-01-20T04:58:19.644Z</time>
      </trkpt>
      <trkpt lat="49.71174" lon="-1.89725">
        <ele>11.369316</ele>
        <time>2022-01-20T04:58:22.901Z</time>
      </trkpt>
      <trkpt lat="49.71132" lon="-1.89686">
        <ele>11.774913</ele>
        <time>2022-01-20T04:58:31.063Z</time>
      </trkpt>
      <trkpt lat="49.71121" lon="-1.89674">
        <ele>11.882866</ele>
        <time>2022-01-20T04:58:33.424Z</time>
      </trkpt>
      <trkpt lat="49.71095" lon="-1.89628">
        <ele>12.204076</ele>
        <time>2022-01-20T04:58:40.960Z</time>
      </trkpt>
      <trkpt lat="49.71067" lon="-1.89576">
        <ele>12.565567</ele>
        <time>2022-01-20T04:58:50.407Z</time>
      </trkpt>
      <trkpt lat="49.71053" lon="-1.89554">
        <ele>12.7612</ele>
        <time>2022-01-20T04:58:54.527Z</time>
      </trkpt>
      <trkpt lat="49.71049" lon="-1.89549">
        <ele>12.831225</ele>
        <time>2022-01-20T04:58:55.858Z</time>
      </trkpt>
      <trkpt lat="49.71037" lon="-1.89535">
        <ele>13.027513</ele>
        <time>2022-01-20T04:58:59.630Z</time>
      </trkpt>
      <trkpt lat="49.70999" lon="-1.8947">
        <ele>13.748837</ele>
        <time>2022-01-20T04:59:12.209Z</time>
      </trkpt>
      <trkpt lat="49.70962" lon="-1.89387">
        <ele>14.575442</ele>
        <time>2022-01-20T04:59:23.608Z</time>
      </trkpt>
      <trkpt lat="49.70945" lon="-1.89265">
        <ele>13.246702</ele>
        <time>2022-01-20T04:59:35.281Z</time>
      </trkpt>
      <trkpt lat="49.70934" lon="-1.89234">
        <ele>12.503835</ele>
        <time>2022-01-20T04:59:38.462Z</time>
      </trkpt>
      <trkpt lat="49.70937" lon="-1.89221">
        <ele>12.207689</ele>
        <time>2022-01-20T04:59:40.400Z</time>
      </trkpt>
      <trkpt lat="49.70937" lon="-1.89208">
        <ele>11.928719</ele>
        <time>2022-01-20T04:59:42.548Z</time>
      </trkpt>
      <trkpt lat="49.70927" lon="-1.89177">
        <ele>11.204689</ele>
        <time>2022-01-20T04:59:47.825Z</time>
      </trkpt>
      <trkpt lat="49.70934" lon="-1.89134">
        <ele>10.259009</ele>
        <time>2022-01-20T04:59:54.660Z</time>
      </trkpt>
      <trkpt lat="49.70952" lon="-1.89077">
        <ele>8.946838</ele>
        <time>2022-01-20T05:00:04.338Z</time>
      </trkpt>
      <trkpt lat="49.70941" lon="-1.89043">
        <ele>8.418699</ele>
        <time>2022-01-20T05:00:10.132Z</time>
      </trkpt>
      <trkpt lat="49.70929" lon="-1.89043">
        <ele>8.161463</ele>
        <time>2022-01-20T05:00:13.024Z</time>
      </trkpt>
      <trkpt lat="49.70918" lon="-1.89062">
        <ele>7.812107</ele>
        <time>2022-01-20T05:00:16.830Z</time>
      </trkpt>
      <trkpt lat="49.70893" lon="-1.89061">
        <ele>7.269751</ele>
        <time>2022-01-20T05:00:23.532Z</time>
      </trkpt>
      <trkpt lat="49.70854" lon="-1.89078">
        <ele>6.411311</ele>
        <time>2022-01-20T05:00:34.324Z</time>
      </trkpt>
      <trkpt lat="49.70809" lon="-1.89108">
        <ele>5.366018</ele>
        <time>2022-01-20T05:00:47.929Z</time>
      </trkpt>
      <trkpt lat="49.70801" lon="-1.89108">
        <ele>5.194409</ele>
        <time>2022-01-20T05:00:50.161Z</time>
      </trkpt>
      <trkpt lat="49.70731" lon="-1.89086">
        <ele>4.789554</ele>
        <time>2022-01-20T05:01:10.311Z</time>
      </trkpt>
      <trkpt lat="49.70664" lon="-1.88982">
        <ele>4.280909</ele>
        <time>2022-01-20T05:01:36.711Z</time>
      </trkpt>
      <trkpt lat="49.70651" lon="-1.88943">
        <ele>4.129951</ele>
        <time>2022-01-20T05:01:44.700Z</time>
      </trkpt>
      <trkpt lat="49.70643" lon="-1.88926">
        <ele>4.059933</ele>
        <time>2022-01-20T05:01:48.504Z</time>
      </trkpt>
      <trkpt lat="49.70612" lon="-1.88828">
        <ele>3.698128</ele>
        <time>2022-01-20T05:02:08.273Z</time>
      </trkpt>
      <trkpt lat="49.70578" lon="-1.88613">
        <ele>3.237733</ele>
        <time>2022-01-20T05:02:48.278Z</time>
      </trkpt>
      <trkpt lat="49.70566" lon="-1.8842">
        <ele>3.143659</ele>
        <time>2022-01-20T05:03:23.276Z</time>
      </trkpt>
      <trkpt lat="49.70565" lon="-1.88299">
        <ele>3.01386</ele>
        <time>2022-01-20T05:03:45.221Z</time>
      </trkpt>
      <trkpt lat="49.70571" lon="-1.88205">
        <ele>2.912737</ele>
        <time>2022-01-20T05:04:02.350Z</time>
      </trkpt>
      <trkpt lat="49.70593" lon="-1.87999">
        <ele>2.551585</ele>
        <time>2022-01-20T05:04:40.075Z</time>
      </trkpt>
      <trkpt lat="49.706" lon="-1.87915">
        <ele>2.384564</ele>
        <time>2022-01-20T05:04:55.554Z</time>
      </trkpt>
      <trkpt lat="49.70611" lon="-1.8784">
        <ele>2.345847</ele>
        <time>2022-01-20T05:05:09.386Z</time>
      </trkpt>
      <trkpt lat="49.70642" lon="-1.87659">
        <ele>2.49222</ele>
        <time>2022-01-20T05:05:43.270Z</time>
      </trkpt>
      <trkpt lat="49.70652" lon="-1.87612">
        <ele>2.530891</ele>
        <time>2022-01-20T05:05:52.251Z</time>
      </trkpt>
      <trkpt lat="49.70672" lon="-1.8753">
        <ele>2.802265</ele>
        <time>2022-01-20T05:06:08.173Z</time>
      </trkpt>
      <trkpt lat="49.70724" lon="-1.87356">
        <ele>3.40327</ele>
        <time>2022-01-20T05:06:43.215Z</time>
      </trkpt>
      <trkpt lat="49.7075" lon="-1.8729">
        <ele>3.623525</ele>
        <time>2022-01-20T05:06:57.276Z</time>
      </trkpt>
      <trkpt lat="49.70786" lon="-1.87213">
        <ele>3.897644</ele>
        <time>2022-01-20T05:07:14.740Z</time>
      </trkpt>
      <trkpt lat="49.70812" lon="-1.87154">
        <ele>4.099296</ele>
        <time>2022-01-20T05:07:27.570Z</time>
      </trkpt>
      <trkpt lat="49.70833" lon="-1.87126">
        <ele>4.203649</ele>
        <time>2022-01-20T05:07:35.305Z</time>
      </trkpt>
      <trkpt lat="49.70903" lon="-1.87048">
        <ele>4.288184</ele>
        <time>2022-01-20T05:07:59.584Z</time>
      </trkpt>
      <trkpt lat="49.7092" lon="-1.87024">
        <ele>4.310529</ele>
        <time>2022-01-20T05:08:06.021Z</time>
      </trkpt>
      <trkpt lat="49.70925" lon="-1.8702">
        <ele>4.316207</ele>
        <time>2022-01-20T05:08:07.651Z</time>
      </trkpt>
      <trkpt lat="49.70946" lon="-1.86994">
        <ele>4.341684</ele>
        <time>2022-01-20T05:08:14.994Z</time>
      </trkpt>
      <trkpt lat="49.70966" lon="-1.86952">
        <ele>4.395039</ele>
        <time>2022-01-20T05:08:24.395Z</time>
      </trkpt>
      <trkpt lat="49.71021" lon="-1.86876">
        <ele>6.14617</ele>
        <time>2022-01-20T05:08:45.409Z</time>
      </trkpt>
      <trkpt lat="49.7104" lon="-1.86855">
        <ele>6.69856</ele>
        <time>2022-01-20T05:08:52.055Z</time>
      </trkpt>
      <trkpt lat="49.70998" lon="-1.86814">
        <ele>7.880767</ele>
        <time>2022-01-20T05:09:04.614Z</time>
      </trkpt>
      <trkpt lat="49.71003" lon="-1.86792">
        <ele>8.240979</ele>
        <time>2022-01-20T05:09:08.446Z</time>
      </trkpt>
      <trkpt lat="49.70977" lon="-1.86762">
        <ele>9.731956</ele>
        <time>2022-01-20T05:09:15.877Z</time>
      </trkpt>
      <trkpt lat="49.70827" lon="-1.86618">
        <ele>22.154798</ele>
        <time>2022-01-20T05:10:05.107Z</time>
      </trkpt>
      <trkpt lat="49.7078" lon="-1.86544">
        <ele>28.943704</ele>
        <time>2022-01-20T05:10:27.103Z</time>
      </trkpt>
      <trkpt lat="49.70778" lon="-1.86537">
        <ele>29.444117</ele>
        <time>2022-01-20T05:10:29.368Z</time>
      </trkpt>
      <trkpt lat="49.70775" lon="-1.86534">
        <ele>29.794328</ele>
        <time>2022-01-20T05:10:31.527Z</time>
      </trkpt>
      <trkpt lat="49.70757" lon="-1.86513">
        <ele>32.078236</ele>
        <time>2022-01-20T05:10:38.043Z</time>
      </trkpt>
      <trkpt lat="49.70717" lon="-1.86487">
        <ele>36.436994</ele>
        <time>2022-01-20T05:10:53.350Z</time>
      </trkpt>
      <trkpt lat="49.70653" lon="-1.86393">
        <ele>44.846625</ele>
        <time>2022-01-20T05:11:26.261Z</time>
      </trkpt>
      <trkpt lat="49.70614" lon="-1.86373">
        <ele>48.613546</ele>
        <time>2022-01-20T05:11:39.006Z</time>
      </trkpt>
      <trkpt lat="49.70551" lon="-1.86308">
        <ele>55.755284</ele>
        <time>2022-01-20T05:12:01.771Z</time>
      </trkpt>
      <trkpt lat="49.70493" lon="-1.86273">
        <ele>57.977389</ele>
        <time>2022-01-20T05:12:18.176Z</time>
      </trkpt>
      <trkpt lat="49.70478" lon="-1.86262">
        <ele>58.572676</ele>
        <time>2022-01-20T05:12:21.762Z</time>
      </trkpt>
      <trkpt lat="49.7042" lon="-1.86215">
        <ele>60.954069</ele>
        <time>2022-01-20T05:12:35.830Z</time>
      </trkpt>
      <trkpt lat="49.70384" lon="-1.86202">
        <ele>62.212459</ele>
        <time>2022-01-20T05:12:42.700Z</time>
      </trkpt>
      <trkpt lat="49.70356" lon="-1.86184">
        <ele>61.784506</ele>
        <time>2022-01-20T05:12:47.741Z</time>
      </trkpt>
      <trkpt lat="49.70344" lon="-1.86181">
        <ele>61.61229</ele>
        <time>2022-01-20T05:12:49.233Z</time>
      </trkpt>
      <trkpt lat="49.70279" lon="-1.86217">
        <ele>60.609771</ele>
        <time>2022-01-20T05:12:59.637Z</time>
      </trkpt>
      <trkpt lat="49.70213" lon="-1.86238">
        <ele>59.642832</ele>
        <time>2022-01-20T05:13:09.536Z</time>
      </trkpt>
      <trkpt lat="49.70203" lon="-1.86237">
        <ele>59.596605</ele>
        <time>2022-01-20T05:13:10.630Z</time>
      </trkpt>
      <trkpt lat="49.70199" lon="-1.86221">
        <ele>59.540063</ele>
        <time>2022-01-20T05:13:12.583Z</time>
      </trkpt>
      <trkpt lat="49.70185" lon="-1.86151">
        <ele>59.299741</ele>
        <time>2022-01-20T05:13:20.098Z</time>
      </trkpt>
      <trkpt lat="49.70131" lon="-1.86147">
        <ele>59.027023</ele>
        <time>2022-01-20T05:13:35.100Z</time>
      </trkpt>
      <trkpt lat="49.70084" lon="-1.86129">
        <ele>58.779805</ele>
        <time>2022-01-20T05:13:48.939Z</time>
      </trkpt>
      <trkpt lat="49.70038" lon="-1.86124">
        <ele>59.355885</ele>
        <time>2022-01-20T05:14:01.834Z</time>
      </trkpt>
      <trkpt lat="49.7" lon="-1.86062">
        <ele>60.281851</ele>
        <time>2022-01-20T05:14:17.542Z</time>
      </trkpt>
      <trkpt lat="49.69953" lon="-1.8601">
        <ele>61.246584</ele>
        <time>2022-01-20T05:14:33.978Z</time>
      </trkpt>
      <trkpt lat="49.69935" lon="-1.85997">
        <ele>61.585187</ele>
        <time>2022-01-20T05:14:39.695Z</time>
      </trkpt>
      <trkpt lat="49.69882" lon="-1.85956">
        <ele>61.941926</ele>
        <time>2022-01-20T05:14:56.625Z</time>
      </trkpt>
      <trkpt lat="49.69877" lon="-1.85953">
        <ele>61.960965</ele>
        <time>2022-01-20T05:14:57.666Z</time>
      </trkpt>
      <trkpt lat="49.69859" lon="-1.85927">
        <ele>62.055551</ele>
        <time>2022-01-20T05:15:02.478Z</time>
      </trkpt>
      <trkpt lat="49.69856" lon="-1.85931">
        <ele>62.070446</ele>
        <time>2022-01-20T05:15:03.059Z</time>
      </trkpt>
      <trkpt lat="49.69841" lon="-1.85944">
        <ele>62.137357</ele>
        <time>2022-01-20T05:15:06.178Z</time>
      </trkpt>
      <trkpt lat="49.69754" lon="-1.85981">
        <ele>62.612173</ele>
        <time>2022-01-20T05:15:20.665Z</time>
      </trkpt>
      <trkpt lat="49.69716" lon="-1.86013">
        <ele>63.317524</ele>
        <time>2022-01-20T05:15:28.103Z</time>
      </trkpt>
      <trkpt lat="49.69703" lon="-1.86016">
        <ele>63.533111</ele>
        <time>2022-01-20T05:15:30.494Z</time>
      </trkpt>
      <trkpt lat="49.69655" lon="-1.86014">
        <ele>64.325674</ele>
        <time>2022-01-20T05:15:39.367Z</time>
      </trkpt>
      <trkpt lat="49.69642" lon="-1.85922">
        <ele>65.323645</ele>
        <time>2022-01-20T05:15:57.530Z</time>
      </trkpt>
      <trkpt lat="49.69635" lon="-1.85847">
        <ele>68.251922</ele>
        <time>2022-01-20T05:16:12.091Z</time>
      </trkpt>
      <trkpt lat="49.69615" lon="-1.85771">
        <ele>71.64017</ele>
        <time>2022-01-20T05:16:30.096Z</time>
      </trkpt>
      <trkpt lat="49.69611" lon="-1.85764">
        <ele>71.99586</ele>
        <time>2022-01-20T05:16:32.887Z</time>
      </trkpt>
      <trkpt lat="49.69583" lon="-1.85753">
        <ele>73.849049</ele>
        <time>2022-01-20T05:16:42.623Z</time>
      </trkpt>
      <trkpt lat="49.69542" lon="-1.85677">
        <ele>77.885172</ele>
        <time>2022-01-20T05:17:05.204Z</time>
      </trkpt>
      <trkpt lat="49.69541" lon="-1.85644">
        <ele>79.213477</ele>
        <time>2022-01-20T05:17:12.790Z</time>
      </trkpt>
      <trkpt lat="49.69528" lon="-1.85612">
        <ele>80.710254</ele>
        <time>2022-01-20T05:17:20.875Z</time>
      </trkpt>
      <trkpt lat="49.69506" lon="-1.85607">
        <ele>82.113543</ele>
        <time>2022-01-20T05:17:28.743Z</time>
      </trkpt>
      <trkpt lat="49.69482" lon="-1.85599">
        <ele>83.620329</ele>
        <time>2022-01-20T05:17:36.316Z</time>
      </trkpt>
      <trkpt lat="49.69452" lon="-1.85582">
        <ele>85.654791</ele>
        <time>2022-01-20T05:17:44.570Z</time>
      </trkpt>
      <trkpt lat="49.6937" lon="-1.85542">
        <ele>90.08572</ele>
        <time>2022-01-20T05:18:06.034Z</time>
      </trkpt>
      <trkpt lat="49.69271" lon="-1.85466">
        <ele>94.862234</ele>
        <time>2022-01-20T05:18:31.943Z</time>
      </trkpt>
      <trkpt lat="49.69256" lon="-1.85427">
        <ele>95.89433</ele>
        <time>2022-01-20T05:18:38.780Z</time>
      </trkpt>
      <trkpt lat="49.69221" lon="-1.85369">
        <ele>96.633352</ele>
        <time>2022-01-20T05:18:50.027Z</time>
      </trkpt>
      <trkpt lat="49.69177" lon="-1.8528">
        <ele>97.694065</ele>
        <time>2022-01-20T05:19:05.490Z</time>
      </trkpt>
      <trkpt lat="49.69175" lon="-1.85263">
        <ele>97.857131</ele>
        <time>2022-01-20T05:19:07.937Z</time>
      </trkpt>
      <trkpt lat="49.6916" lon="-1.85253">
        <ele>98.080023</ele>
        <time>2022-01-20T05:19:10.712Z</time>
      </trkpt>
      <trkpt lat="49.69153" lon="-1.85244">
        <ele>98.217659</ele>
        <time>2022-01-20T05:19:13.252Z</time>
      </trkpt>
      <trkpt lat="49.69114" lon="-1.85198">
        <ele>97.230129</ele>
        <time>2022-01-20T05:19:26.545Z</time>
      </trkpt>
      <trkpt lat="49.69042" lon="-1.85087">
        <ele>94.10136</ele>
        <time>2022-01-20T05:19:51.760Z</time>
      </trkpt>
      <trkpt lat="49.69033" lon="-1.85069">
        <ele>93.652444</ele>
        <time>2022-01-20T05:19:55.100Z</time>
      </trkpt>
      <trkpt lat="49.6903" lon="-1.85053">
        <ele>93.324683</ele>
        <time>2022-01-20T05:19:57.602Z</time>
      </trkpt>
      <trkpt lat="49.69022" lon="-1.85042">
        <ele>93.008368</ele>
        <time>2022-01-20T05:19:59.948Z</time>
      </trkpt>
      <trkpt lat="49.68996" lon="-1.84992">
        <ele>91.165463</ele>
        <time>2022-01-20T05:20:09.579Z</time>
      </trkpt>
      <trkpt lat="49.68978" lon="-1.84944">
        <ele>89.52428</ele>
        <time>2022-01-20T05:20:17.547Z</time>
      </trkpt>
      <trkpt lat="49.68966" lon="-1.84913">
        <ele>88.480321</ele>
        <time>2022-01-20T05:20:22.672Z</time>
      </trkpt>
      <trkpt lat="49.68947" lon="-1.84858">
        <ele>86.648581</ele>
        <time>2022-01-20T05:20:31.813Z</time>
      </trkpt>
      <trkpt lat="49.68941" lon="-1.84839">
        <ele>86.027427</ele>
        <time>2022-01-20T05:20:35.164Z</time>
      </trkpt>
      <trkpt lat="49.68934" lon="-1.84831">
        <ele>85.620228</ele>
        <time>2022-01-20T05:20:37.695Z</time>
      </trkpt>
      <trkpt lat="49.68896" lon="-1.84811">
        <ele>85.11831</ele>
        <time>2022-01-20T05:20:48.062Z</time>
      </trkpt>
      <trkpt lat="49.68889" lon="-1.84803">
        <ele>85.31035</ele>
        <time>2022-01-20T05:20:50.072Z</time>
      </trkpt>
      <trkpt lat="49.68887" lon="-1.84791">
        <ele>85.49179</ele>
        <time>2022-01-20T05:20:52.242Z</time>
      </trkpt>
      <trkpt lat="49.68889" lon="-1.84771">
        <ele>85.774887</ele>
        <time>2022-01-20T05:20:55.956Z</time>
      </trkpt>
      <trkpt lat="49.68897" lon="-1.84754">
        <ele>86.062369</ele>
        <time>2022-01-20T05:20:59.430Z</time>
      </trkpt>
      <trkpt lat="49.68907" lon="-1.84739">
        <ele>86.372744</ele>
        <time>2022-01-20T05:21:03.412Z</time>
      </trkpt>
      <trkpt lat="49.68909" lon="-1.84729">
        <ele>86.526548</ele>
        <time>2022-01-20T05:21:05.826Z</time>
      </trkpt>
      <trkpt lat="49.68886" lon="-1.84683">
        <ele>87.332025</ele>
        <time>2022-01-20T05:21:16.450Z</time>
      </trkpt>
      <trkpt lat="49.6888" lon="-1.8466">
        <ele>87.693167</ele>
        <time>2022-01-20T05:21:21.217Z</time>
      </trkpt>
      <trkpt lat="49.68884" lon="-1.84617">
        <ele>88.311534</ele>
        <time>2022-01-20T05:21:30.471Z</time>
      </trkpt>
      <trkpt lat="49.6887" lon="-1.84537">
        <ele>91.833591</ele>
        <time>2022-01-20T05:21:48.689Z</time>
      </trkpt>
      <trkpt lat="49.68861" lon="-1.84326">
        <ele>103.015832</ele>
        <time>2022-01-20T05:22:42.275Z</time>
      </trkpt>
      <trkpt lat="49.68854" lon="-1.84301">
        <ele>103.946377</ele>
        <time>2022-01-20T05:22:47.825Z</time>
      </trkpt>
      <trkpt lat="49.68851" lon="-1.84286">
        <ele>104.401406</ele>
        <time>2022-01-20T05:22:51.880Z</time>
      </trkpt>
      <trkpt lat="49.68851" lon="-1.84274">
        <ele>104.76859</ele>
        <time>2022-01-20T05:22:54.653Z</time>
      </trkpt>
      <trkpt lat="49.68824" lon="-1.84076">
        <ele>110.686245</ele>
        <time>2022-01-20T05:23:34.138Z</time>
      </trkpt>
      <trkpt lat="49.68821" lon="-1.83998">
        <ele>111.39168</ele>
        <time>2022-01-20T05:23:48.469Z</time>
      </trkpt>
      <trkpt lat="49.68799" lon="-1.83932">
        <ele>111.267102</ele>
        <time>2022-01-20T05:24:01.720Z</time>
      </trkpt>
      <trkpt lat="49.68799" lon="-1.83915">
        <ele>111.23867</ele>
        <time>2022-01-20T05:24:04.755Z</time>
      </trkpt>
      <trkpt lat="49.68817" lon="-1.83868">
        <ele>111.145624</ele>
        <time>2022-01-20T05:24:14.671Z</time>
      </trkpt>
      <trkpt lat="49.68823" lon="-1.83851">
        <ele>111.1137</ele>
        <time>2022-01-20T05:24:17.837Z</time>
      </trkpt>
      <trkpt lat="49.68828" lon="-1.83847">
        <ele>111.098012</ele>
        <time>2022-01-20T05:24:18.843Z</time>
      </trkpt>
      <trkpt lat="49.68833" lon="-1.83829">
        <ele>111.065359</ele>
        <time>2022-01-20T05:24:21.053Z</time>
      </trkpt>
      <trkpt lat="49.68843" lon="-1.83802">
        <ele>111.012322</ele>
        <time>2022-01-20T05:24:24.299Z</time>
      </trkpt>
      <trkpt lat="49.68842" lon="-1.83801">
        <ele>111.002187</ele>
        <time>2022-01-20T05:24:24.657Z</time>
      </trkpt>
      <trkpt lat="49.68835" lon="-1.83792">
        <ele>110.909746</ele>
        <time>2022-01-20T05:24:26.197Z</time>
      </trkpt>
      <trkpt lat="49.68804" lon="-1.83751">
        <ele>110.486707</ele>
        <time>2022-01-20T05:24:33.142Z</time>
      </trkpt>
      <trkpt lat="49.68789" lon="-1.83732">
        <ele>110.285142</ele>
        <time>2022-01-20T05:24:36.113Z</time>
      </trkpt>
      <trkpt lat="49.68783" lon="-1.83724">
        <ele>110.19594</ele>
        <time>2022-01-20T05:24:37.557Z</time>
      </trkpt>
      <trkpt lat="49.68777" lon="-1.83717">
        <ele>110.123403</ele>
        <time>2022-01-20T05:24:38.835Z</time>
      </trkpt>
      <trkpt lat="49.68768" lon="-1.83703">
        <ele>109.983133</ele>
        <time>2022-01-20T05:24:40.915Z</time>
      </trkpt>
      <trkpt lat="49.68732" lon="-1.83613">
        <ele>109.268775</ele>
        <time>2022-01-20T05:24:52.220Z</time>
      </trkpt>
      <trkpt lat="49.68727" lon="-1.83597">
        <ele>109.143762</ele>
        <time>2022-01-20T05:24:54.185Z</time>
      </trkpt>
      <trkpt lat="49.68719" lon="-1.83575">
        <ele>108.914216</ele>
        <time>2022-01-20T05:24:56.948Z</time>
      </trkpt>
      <trkpt lat="49.68708" lon="-1.83539">
        <ele>108.530394</ele>
        <time>2022-01-20T05:25:03.850Z</time>
      </trkpt>
      <trkpt lat="49.68627" lon="-1.83337">
        <ele>106.52582</ele>
        <time>2022-01-20T05:25:44.386Z</time>
      </trkpt>
      <trkpt lat="49.68599" lon="-1.83289">
        <ele>106.690625</ele>
        <time>2022-01-20T05:25:55.882Z</time>
      </trkpt>
      <trkpt lat="49.68604" lon="-1.83269">
        <ele>106.748675</ele>
        <time>2022-01-20T05:26:00.002Z</time>
      </trkpt>
      <trkpt lat="49.68642" lon="-1.83221">
        <ele>106.944838</ele>
        <time>2022-01-20T05:26:13.757Z</time>
      </trkpt>
      <trkpt lat="49.68649" lon="-1.83202">
        <ele>107.000333</ele>
        <time>2022-01-20T05:26:17.623Z</time>
      </trkpt>
      <trkpt lat="49.68649" lon="-1.83196">
        <ele>107.016491</ele>
        <time>2022-01-20T05:26:19.142Z</time>
      </trkpt>
      <trkpt lat="49.68643" lon="-1.83165">
        <ele>107.101495</ele>
        <time>2022-01-20T05:26:25.104Z</time>
      </trkpt>
      <trkpt lat="49.68609" lon="-1.83085">
        <ele>107.2242</ele>
        <time>2022-01-20T05:26:42.801Z</time>
      </trkpt>
      <trkpt lat="49.68604" lon="-1.83019">
        <ele>107.259573</ele>
        <time>2022-01-20T05:26:54.945Z</time>
      </trkpt>
      <trkpt lat="49.68568" lon="-1.82882">
        <ele>107.338818</ele>
        <time>2022-01-20T05:27:21.818Z</time>
      </trkpt>
      <trkpt lat="49.68558" lon="-1.82867">
        <ele>106.853608</ele>
        <time>2022-01-20T05:27:25.441Z</time>
      </trkpt>
      <trkpt lat="49.6853" lon="-1.82786">
        <ele>104.558277</ele>
        <time>2022-01-20T05:27:39.668Z</time>
      </trkpt>
      <trkpt lat="49.68513" lon="-1.82758">
        <ele>103.602761</ele>
        <time>2022-01-20T05:27:45.824Z</time>
      </trkpt>
      <trkpt lat="49.68508" lon="-1.82754">
        <ele>103.372686</ele>
        <time>2022-01-20T05:27:47.070Z</time>
      </trkpt>
      <trkpt lat="49.68506" lon="-1.82742">
        <ele>103.070622</ele>
        <time>2022-01-20T05:27:48.051Z</time>
      </trkpt>
      <trkpt lat="49.68498" lon="-1.82718">
        <ele>102.384766</ele>
        <time>2022-01-20T05:27:50.537Z</time>
      </trkpt>
      <trkpt lat="49.68481" lon="-1.82674">
        <ele>101.115271</ele>
        <time>2022-01-20T05:27:54.702Z</time>
      </trkpt>
      <trkpt lat="49.6851" lon="-1.8262">
        <ele>98.929362</ele>
        <time>2022-01-20T05:28:00.623Z</time>
      </trkpt>
      <trkpt lat="49.68555" lon="-1.82527">
        <ele>94.738549</ele>
        <time>2022-01-20T05:28:10.318Z</time>
      </trkpt>
      <trkpt lat="49.68606" lon="-1.8249">
        <ele>91.59622</ele>
        <time>2022-01-20T05:28:17.693Z</time>
      </trkpt>
      <trkpt lat="49.68633" lon="-1.82442">
        <ele>89.663428</ele>
        <time>2022-01-20T05:28:23.144Z</time>
      </trkpt>
      <trkpt lat="49.68663" lon="-1.82387">
        <ele>87.896595</ele>
        <time>2022-01-20T05:28:29.439Z</time>
      </trkpt>
      <trkpt lat="49.6865" lon="-1.82352">
        <ele>86.910499</ele>
        <time>2022-01-20T05:28:35.468Z</time>
      </trkpt>
      <trkpt lat="49.68608" lon="-1.82277">
        <ele>84.474171</ele>
        <time>2022-01-20T05:28:51.006Z</time>
      </trkpt>
      <trkpt lat="49.68579" lon="-1.82239">
        <ele>83.550179</ele>
        <time>2022-01-20T05:29:00.861Z</time>
      </trkpt>
      <trkpt lat="49.68541" lon="-1.82174">
        <ele>83.49129</ele>
        <time>2022-01-20T05:29:16.773Z</time>
      </trkpt>
      <trkpt lat="49.685" lon="-1.82154">
        <ele>83.447318</ele>
        <time>2022-01-20T05:29:28.778Z</time>
      </trkpt>
      <trkpt lat="49.68499" lon="-1.82143">
        <ele>83.4402</ele>
        <time>2022-01-20T05:29:30.724Z</time>
      </trkpt>
      <trkpt lat="49.68509" lon="-1.82121">
        <ele>83.422064</ele>
        <time>2022-01-20T05:29:35.686Z</time>
      </trkpt>
      <trkpt lat="49.68513" lon="-1.82097">
        <ele>83.405443</ele>
        <time>2022-01-20T05:29:40.234Z</time>
      </trkpt>
      <trkpt lat="49.68483" lon="-1.81984">
        <ele>82.391057</ele>
        <time>2022-01-20T05:30:02.528Z</time>
      </trkpt>
      <trkpt lat="49.68497" lon="-1.81913">
        <ele>81.503769</ele>
        <time>2022-01-20T05:30:15.714Z</time>
      </trkpt>
      <trkpt lat="49.68487" lon="-1.8185">
        <ele>80.714689</ele>
        <time>2022-01-20T05:30:26.409Z</time>
      </trkpt>
      <trkpt lat="49.68485" lon="-1.81807">
        <ele>80.204905</ele>
        <time>2022-01-20T05:30:32.826Z</time>
      </trkpt>
      <trkpt lat="49.68486" lon="-1.81784">
        <ele>79.575353</ele>
        <time>2022-01-20T05:30:36.534Z</time>
      </trkpt>
      <trkpt lat="49.68491" lon="-1.81777">
        <ele>79.134418</ele>
        <time>2022-01-20T05:30:37.691Z</time>
      </trkpt>
      <trkpt lat="49.68496" lon="-1.81748">
        <ele>77.657288</ele>
        <time>2022-01-20T05:30:42.383Z</time>
      </trkpt>
      <trkpt lat="49.68502" lon="-1.81641">
        <ele>72.457805</ele>
        <time>2022-01-20T05:30:57.237Z</time>
      </trkpt>
      <trkpt lat="49.68517" lon="-1.81534">
        <ele>67.205042</ele>
        <time>2022-01-20T05:31:11.772Z</time>
      </trkpt>
      <trkpt lat="49.68513" lon="-1.81501">
        <ele>66.20243</ele>
        <time>2022-01-20T05:31:16.610Z</time>
      </trkpt>
      <trkpt lat="49.68501" lon="-1.81454">
        <ele>65.229734</ele>
        <time>2022-01-20T05:31:24.100Z</time>
      </trkpt>
      <trkpt lat="49.68497" lon="-1.81443">
        <ele>64.997628</ele>
        <time>2022-01-20T05:31:25.689Z</time>
      </trkpt>
      <trkpt lat="49.68492" lon="-1.81405">
        <ele>64.262188</ele>
        <time>2022-01-20T05:31:31.970Z</time>
      </trkpt>
      <trkpt lat="49.68489" lon="-1.81372">
        <ele>63.636037</ele>
        <time>2022-01-20T05:31:36.979Z</time>
      </trkpt>
      <trkpt lat="49.68453" lon="-1.81351">
        <ele>62.522215</ele>
        <time>2022-01-20T05:31:47.201Z</time>
      </trkpt>
      <trkpt lat="49.68447" lon="-1.81257">
        <ele>62.620706</ele>
        <time>2022-01-20T05:32:04.465Z</time>
      </trkpt>
      <trkpt lat="49.68434" lon="-1.81191">
        <ele>65.451732</ele>
        <time>2022-01-20T05:32:18.693Z</time>
      </trkpt>
      <trkpt lat="49.68424" lon="-1.81162">
        <ele>66.807291</ele>
        <time>2022-01-20T05:32:26.495Z</time>
      </trkpt>
      <trkpt lat="49.68388" lon="-1.81099">
        <ele>70.227867</ele>
        <time>2022-01-20T05:32:46.389Z</time>
      </trkpt>
      <trkpt lat="49.68387" lon="-1.81076">
        <ele>71.192952</ele>
        <time>2022-01-20T05:32:52.035Z</time>
      </trkpt>
      <trkpt lat="49.68405" lon="-1.81003">
        <ele>74.507842</ele>
        <time>2022-01-20T05:33:10.716Z</time>
      </trkpt>
      <trkpt lat="49.68407" lon="-1.80979">
        <ele>75.559835</ele>
        <time>2022-01-20T05:33:16.397Z</time>
      </trkpt>
      <trkpt lat="49.68406" lon="-1.80958">
        <ele>76.503811</ele>
        <time>2022-01-20T05:33:21.482Z</time>
      </trkpt>
      <trkpt lat="49.68382" lon="-1.80951">
        <ele>78.136789</ele>
        <time>2022-01-20T05:33:29.710Z</time>
      </trkpt>
      <trkpt lat="49.68319" lon="-1.80929">
        <ele>82.457958</ele>
        <time>2022-01-20T05:33:50.497Z</time>
      </trkpt>
      <trkpt lat="49.68315" lon="-1.80922">
        <ele>82.877709</ele>
        <time>2022-01-20T05:33:52.976Z</time>
      </trkpt>
      <trkpt lat="49.68318" lon="-1.80917">
        <ele>83.207145</ele>
        <time>2022-01-20T05:33:54.326Z</time>
      </trkpt>
      <trkpt lat="49.6833" lon="-1.80822">
        <ele>86.55397</ele>
        <time>2022-01-20T05:34:09.806Z</time>
      </trkpt>
      <trkpt lat="49.68334" lon="-1.80767">
        <ele>88.153271</ele>
        <time>2022-01-20T05:34:18.045Z</time>
      </trkpt>
      <trkpt lat="49.68336" lon="-1.80738">
        <ele>88.997665</ele>
        <time>2022-01-20T05:34:22.691Z</time>
      </trkpt>
      <trkpt lat="49.6834" lon="-1.80683">
        <ele>90.584576</ele>
        <time>2022-01-20T05:34:31.025Z</time>
      </trkpt>
      <trkpt lat="49.68336" lon="-1.80651">
        <ele>91.524674</ele>
        <time>2022-01-20T05:34:35.679Z</time>
      </trkpt>
      <trkpt lat="49.68322" lon="-1.80596">
        <ele>93.170809</ele>
        <time>2022-01-20T05:34:44.569Z</time>
      </trkpt>
      <trkpt lat="49.68278" lon="-1.80461">
        <ele>96.866592</ele>
        <time>2022-01-20T05:35:07.709Z</time>
      </trkpt>
      <trkpt lat="49.68278" lon="-1.80396">
        <ele>98.438613</ele>
        <time>2022-01-20T05:35:17.219Z</time>
      </trkpt>
      <trkpt lat="49.68298" lon="-1.80249">
        <ele>101.115511</ele>
        <time>2022-01-20T05:35:38.388Z</time>
      </trkpt>
      <trkpt lat="49.68312" lon="-1.80222">
        <ele>101.622044</ele>
        <time>2022-01-20T05:35:43.087Z</time>
      </trkpt>
      <trkpt lat="49.68338" lon="-1.80198">
        <ele>102.304529</ele>
        <time>2022-01-20T05:35:49.352Z</time>
      </trkpt>
      <trkpt lat="49.68355" lon="-1.80167">
        <ele>102.882994</ele>
        <time>2022-01-20T05:35:54.587Z</time>
      </trkpt>
      <trkpt lat="49.68355" lon="-1.80119">
        <ele>103.595841</ele>
        <time>2022-01-20T05:36:01.005Z</time>
      </trkpt>
      <trkpt lat="49.68279" lon="-1.79811">
        <ele>107.367426</ele>
        <time>2022-01-20T05:36:44.744Z</time>
      </trkpt>
      <trkpt lat="49.68249" lon="-1.7972">
        <ele>108.499528</ele>
        <time>2022-01-20T05:36:58.797Z</time>
      </trkpt>
      <trkpt lat="49.68218" lon="-1.79609">
        <ele>109.838661</ele>
        <time>2022-01-20T05:37:14.397Z</time>
      </trkpt>
      <trkpt lat="49.6821" lon="-1.79575">
        <ele>109.953646</ele>
        <time>2022-01-20T05:37:19.067Z</time>
      </trkpt>
      <trkpt lat="49.68188" lon="-1.79476">
        <ele>109.914099</ele>
        <time>2022-01-20T05:37:31.843Z</time>
      </trkpt>
      <trkpt lat="49.68159" lon="-1.79388">
        <ele>109.876638</ele>
        <time>2022-01-20T05:37:42.939Z</time>
      </trkpt>
      <trkpt lat="49.68155" lon="-1.79379">
        <ele>109.872707</ele>
        <time>2022-01-20T05:37:44.071Z</time>
      </trkpt>
      <trkpt lat="49.68144" lon="-1.79386">
        <ele>109.865373</ele>
        <time>2022-01-20T05:37:46.157Z</time>
      </trkpt>
      <trkpt lat="49.68126" lon="-1.79398">
        <ele>109.766382</ele>
        <time>2022-01-20T05:37:49.157Z</time>
      </trkpt>
      <trkpt lat="49.68103" lon="-1.7932">
        <ele>108.991181</ele>
        <time>2022-01-20T05:37:58.391Z</time>
      </trkpt>
      <trkpt lat="49.68062" lon="-1.79242">
        <ele>108.075273</ele>
        <time>2022-01-20T05:38:09.898Z</time>
      </trkpt>
      <trkpt lat="49.68059" lon="-1.79228">
        <ele>107.937101</ele>
        <time>2022-01-20T05:38:11.641Z</time>
      </trkpt>
      <trkpt lat="49.6806" lon="-1.79218">
        <ele>107.847746</ele>
        <time>2022-01-20T05:38:12.778Z</time>
      </trkpt>
      <trkpt lat="49.68065" lon="-1.79209">
        <ele>107.739982</ele>
        <time>2022-01-20T05:38:14.156Z</time>
      </trkpt>
      <trkpt lat="49.68082" lon="-1.79196">
        <ele>107.474853</ele>
        <time>2022-01-20T05:38:17.378Z</time>
      </trkpt>
      <trkpt lat="49.68093" lon="-1.79188">
        <ele>107.295476</ele>
        <time>2022-01-20T05:38:19.442Z</time>
      </trkpt>
      <trkpt lat="49.68082" lon="-1.79158">
        <ele>106.906371</ele>
        <time>2022-01-20T05:38:23.129Z</time>
      </trkpt>
      <trkpt lat="49.68081" lon="-1.79155">
        <ele>106.872376</ele>
        <time>2022-01-20T05:38:23.457Z</time>
      </trkpt>
      <trkpt lat="49.68079" lon="-1.79149">
        <ele>106.805062</ele>
        <time>2022-01-20T05:38:24.076Z</time>
      </trkpt>
      <trkpt lat="49.68078" lon="-1.79144">
        <ele>106.740813</ele>
        <time>2022-01-20T05:38:24.672Z</time>
      </trkpt>
      <trkpt lat="49.68046" lon="-1.79113">
        <ele>106.090228</ele>
        <time>2022-01-20T05:38:30.858Z</time>
      </trkpt>
      <trkpt lat="49.67961" lon="-1.78961">
        <ele>103.381428</ele>
        <time>2022-01-20T05:38:51.233Z</time>
      </trkpt>
      <trkpt lat="49.67914" lon="-1.78862">
        <ele>100.297978</ele>
        <time>2022-01-20T05:39:02.463Z</time>
      </trkpt>
      <trkpt lat="49.67902" lon="-1.78829">
        <ele>99.344115</ele>
        <time>2022-01-20T05:39:05.829Z</time>
      </trkpt>
      <trkpt lat="49.67884" lon="-1.78777">
        <ele>97.868992</ele>
        <time>2022-01-20T05:39:10.810Z</time>
      </trkpt>
      <trkpt lat="49.67873" lon="-1.78745">
        <ele>96.949051</ele>
        <time>2022-01-20T05:39:13.885Z</time>
      </trkpt>
      <trkpt lat="49.67865" lon="-1.78645">
        <ele>94.327115</ele>
        <time>2022-01-20T05:39:22.372Z</time>
      </trkpt>
      <trkpt lat="49.67853" lon="-1.78569">
        <ele>92.293863</ele>
        <time>2022-01-20T05:39:29.285Z</time>
      </trkpt>
      <trkpt lat="49.67849" lon="-1.7856">
        <ele>92.007276</ele>
        <time>2022-01-20T05:39:30.144Z</time>
      </trkpt>
      <trkpt lat="49.67847" lon="-1.78553">
        <ele>91.801544</ele>
        <time>2022-01-20T05:39:30.905Z</time>
      </trkpt>
      <trkpt lat="49.67837" lon="-1.7854">
        <ele>91.301491</ele>
        <time>2022-01-20T05:39:33.072Z</time>
      </trkpt>
      <trkpt lat="49.67816" lon="-1.78526">
        <ele>90.369316</ele>
        <time>2022-01-20T05:39:36.402Z</time>
      </trkpt>
      <trkpt lat="49.67809" lon="-1.78521">
        <ele>90.047894</ele>
        <time>2022-01-20T05:39:37.981Z</time>
      </trkpt>
      <trkpt lat="49.67793" lon="-1.78501">
        <ele>90.35537</ele>
        <time>2022-01-20T05:39:41.327Z</time>
      </trkpt>
      <trkpt lat="49.67738" lon="-1.7841">
        <ele>91.610828</ele>
        <time>2022-01-20T05:39:55.983Z</time>
      </trkpt>
      <trkpt lat="49.67636" lon="-1.78199">
        <ele>96.972145</ele>
        <time>2022-01-20T05:40:36.004Z</time>
      </trkpt>
      <trkpt lat="49.67589" lon="-1.7809">
        <ele>100.759928</ele>
        <time>2022-01-20T05:40:56.157Z</time>
      </trkpt>
      <trkpt lat="49.67585" lon="-1.78086">
        <ele>100.997747</ele>
        <time>2022-01-20T05:40:57.884Z</time>
      </trkpt>
      <trkpt lat="49.67558" lon="-1.78065">
        <ele>102.631302</ele>
        <time>2022-01-20T05:41:07.360Z</time>
      </trkpt>
      <trkpt lat="49.67528" lon="-1.78098">
        <ele>104.626845</ele>
        <time>2022-01-20T05:41:16.683Z</time>
      </trkpt>
      <trkpt lat="49.67491" lon="-1.78138">
        <ele>107.053429</ele>
        <time>2022-01-20T05:41:28.736Z</time>
      </trkpt>
      <trkpt lat="49.67485" lon="-1.78145">
        <ele>107.505132</ele>
        <time>2022-01-20T05:41:30.834Z</time>
      </trkpt>
      <trkpt lat="49.67463" lon="-1.7807">
        <ele>110.393557</ele>
        <time>2022-01-20T05:41:47.771Z</time>
      </trkpt>
      <trkpt lat="49.67443" lon="-1.78018">
        <ele>111.354224</ele>
        <time>2022-01-20T05:41:59.684Z</time>
      </trkpt>
      <trkpt lat="49.67421" lon="-1.77965">
        <ele>112.140787</ele>
        <time>2022-01-20T05:42:11.690Z</time>
      </trkpt>
      <trkpt lat="49.67371" lon="-1.77875">
        <ele>113.627977</ele>
        <time>2022-01-20T05:42:33.602Z</time>
      </trkpt>
      <trkpt lat="49.67282" lon="-1.77731">
        <ele>110.352057</ele>
        <time>2022-01-20T05:43:05.700Z</time>
      </trkpt>
      <trkpt lat="49.67206" lon="-1.77666">
        <ele>106.920948</ele>
        <time>2022-01-20T05:43:25.365Z</time>
      </trkpt>
      <trkpt lat="49.67177" lon="-1.77628">
        <ele>104.791656</ele>
        <time>2022-01-20T05:43:33.833Z</time>
      </trkpt>
      <trkpt lat="49.67186" lon="-1.77497">
        <ele>99.971049</ele>
        <time>2022-01-20T05:43:52.952Z</time>
      </trkpt>
      <trkpt lat="49.67173" lon="-1.7745">
        <ele>98.092565</ele>
        <time>2022-01-20T05:44:00.543Z</time>
      </trkpt>
      <trkpt lat="49.67237" lon="-1.77278">
        <ele>91.5156</ele>
        <time>2022-01-20T05:44:30.026Z</time>
      </trkpt>
      <trkpt lat="49.67343" lon="-1.77064">
        <ele>82.487393</ele>
        <time>2022-01-20T05:45:10.226Z</time>
      </trkpt>
      <trkpt lat="49.674" lon="-1.77005">
        <ele>78.892304</ele>
        <time>2022-01-20T05:45:25.884Z</time>
      </trkpt>
      <trkpt lat="49.67439" lon="-1.76883">
        <ele>73.667688</ele>
        <time>2022-01-20T05:45:45.744Z</time>
      </trkpt>
      <trkpt lat="49.67525" lon="-1.767">
        <ele>65.276444</ele>
        <time>2022-01-20T05:46:18.346Z</time>
      </trkpt>
      <trkpt lat="49.67561" lon="-1.76692">
        <ele>63.321585</ele>
        <time>2022-01-20T05:46:26.609Z</time>
      </trkpt>
      <trkpt lat="49.67608" lon="-1.76701">
        <ele>60.826802</ele>
        <time>2022-01-20T05:46:37.391Z</time>
      </trkpt>
      <trkpt lat="49.67688" lon="-1.76579">
        <ele>55.705784</ele>
        <time>2022-01-20T05:47:04.337Z</time>
      </trkpt>
      <trkpt lat="49.67687" lon="-1.76577">
        <ele>55.625419</ele>
        <time>2022-01-20T05:47:04.638Z</time>
      </trkpt>
      <trkpt lat="49.67685" lon="-1.76576">
        <ele>55.551698</ele>
        <time>2022-01-20T05:47:04.918Z</time>
      </trkpt>
      <trkpt lat="49.67681" lon="-1.76569">
        <ele>55.302844</ele>
        <time>2022-01-20T05:47:05.761Z</time>
      </trkpt>
      <trkpt lat="49.67676" lon="-1.76529">
        <ele>54.248611</ele>
        <time>2022-01-20T05:47:09.215Z</time>
      </trkpt>
      <trkpt lat="49.67688" lon="-1.76374">
        <ele>49.350995</ele>
        <time>2022-01-20T05:47:22.443Z</time>
      </trkpt>
      <trkpt lat="49.677" lon="-1.76303">
        <ele>45.849497</ele>
        <time>2022-01-20T05:47:28.474Z</time>
      </trkpt>
      <trkpt lat="49.67707" lon="-1.76274">
        <ele>44.348648</ele>
        <time>2022-01-20T05:47:30.945Z</time>
      </trkpt>
      <trkpt lat="49.67752" lon="-1.76199">
        <ele>39.506542</ele>
        <time>2022-01-20T05:47:38.493Z</time>
      </trkpt>
      <trkpt lat="49.67771" lon="-1.76141">
        <ele>35.934184</ele>
        <time>2022-01-20T05:47:43.222Z</time>
      </trkpt>
      <trkpt lat="49.67776" lon="-1.76114">
        <ele>34.220381</ele>
        <time>2022-01-20T05:47:45.203Z</time>
      </trkpt>
      <trkpt lat="49.67782" lon="-1.76024">
        <ele>28.530801</ele>
        <time>2022-01-20T05:47:51.926Z</time>
      </trkpt>
      <trkpt lat="49.67789" lon="-1.76021">
        <ele>27.839678</ele>
        <time>2022-01-20T05:47:52.732Z</time>
      </trkpt>
      <trkpt lat="49.67796" lon="-1.75995">
        <ele>26.103515</ele>
        <time>2022-01-20T05:47:54.890Z</time>
      </trkpt>
      <trkpt lat="49.67809" lon="-1.75956">
        <ele>23.371669</ele>
        <time>2022-01-20T05:47:58.289Z</time>
      </trkpt>
      <trkpt lat="49.67804" lon="-1.75952">
        <ele>22.85162</ele>
        <time>2022-01-20T05:47:59.429Z</time>
      </trkpt>
      <trkpt lat="49.67791" lon="-1.75923">
        <ele>20.662581</ele>
        <time>2022-01-20T05:48:04.179Z</time>
      </trkpt>
      <trkpt lat="49.67789" lon="-1.75906">
        <ele>20.052813</ele>
        <time>2022-01-20T05:48:06.399Z</time>
      </trkpt>
      <trkpt lat="49.67793" lon="-1.75857">
        <ele>18.411854</ele>
        <time>2022-01-20T05:48:13.270Z</time>
      </trkpt>
      <trkpt lat="49.6779" lon="-1.75825">
        <ele>17.33446</ele>
        <time>2022-01-20T05:48:17.949Z</time>
      </trkpt>
      <trkpt lat="49.67801" lon="-1.75733">
        <ele>14.21406</ele>
        <time>2022-01-20T05:48:32.034Z</time>
      </trkpt>
      <trkpt lat="49.6779" lon="-1.75716">
        <ele>13.429968</ele>
        <time>2022-01-20T05:48:35.932Z</time>
      </trkpt>
      <trkpt lat="49.67815" lon="-1.75526">
        <ele>9.658615</ele>
        <time>2022-01-20T05:49:07.835Z</time>
      </trkpt>
      <trkpt lat="49.67817" lon="-1.75334">
        <ele>7.711487</ele>
        <time>2022-01-20T05:49:41.099Z</time>
      </trkpt>
      <trkpt lat="49.67812" lon="-1.75258">
        <ele>7.563358</ele>
        <time>2022-01-20T05:49:54.865Z</time>
      </trkpt>
      <trkpt lat="49.67813" lon="-1.75219">
        <ele>7.488435</ele>
        <time>2022-01-20T05:50:01.890Z</time>
      </trkpt>
      <trkpt lat="49.67811" lon="-1.75214">
        <ele>7.476466</ele>
        <time>2022-01-20T05:50:02.816Z</time>
      </trkpt>
      <trkpt lat="49.6781" lon="-1.75204">
        <ele>7.457198</ele>
        <time>2022-01-20T05:50:04.658Z</time>
      </trkpt>
      <trkpt lat="49.67798" lon="-1.7513">
        <ele>7.309084</ele>
        <time>2022-01-20T05:50:18.444Z</time>
      </trkpt>
      <trkpt lat="49.67724" lon="-1.75162">
        <ele>6.928252</ele>
        <time>2022-01-20T05:50:39.862Z</time>
      </trkpt>
      <trkpt lat="49.67724" lon="-1.75159">
        <ele>6.917517</ele>
        <time>2022-01-20T05:50:40.737Z</time>
      </trkpt>
      <trkpt lat="49.67722" lon="-1.75153">
        <ele>6.896928</ele>
        <time>2022-01-20T05:50:41.783Z</time>
      </trkpt>
      <trkpt lat="49.67722" lon="-1.75149">
        <ele>6.880083</ele>
        <time>2022-01-20T05:50:42.409Z</time>
      </trkpt>
      <trkpt lat="49.67792" lon="-1.7511">
        <ele>6.467108</ele>
        <time>2022-01-20T05:51:03.355Z</time>
      </trkpt>
      <trkpt lat="49.67798" lon="-1.75098">
        <ele>6.412121</ele>
        <time>2022-01-20T05:51:06.080Z</time>
      </trkpt>
      <trkpt lat="49.67806" lon="-1.75">
        <ele>5.900287</ele>
        <time>2022-01-20T05:51:23.299Z</time>
      </trkpt>
      <trkpt lat="49.6781" lon="-1.74789">
        <ele>4.550688</ele>
        <time>2022-01-20T05:52:00.886Z</time>
      </trkpt>
      <trkpt lat="49.6782" lon="-1.74616">
        <ele>4.489321</ele>
        <time>2022-01-20T05:52:32.264Z</time>
      </trkpt>
      <trkpt lat="49.67811" lon="-1.74544">
        <ele>4.488261</ele>
        <time>2022-01-20T05:52:45.535Z</time>
      </trkpt>
      <trkpt lat="49.67801" lon="-1.7447">
        <ele>4.61514</ele>
        <time>2022-01-20T05:52:56.669Z</time>
      </trkpt>
      <trkpt lat="49.67803" lon="-1.74463">
        <ele>4.645294</ele>
        <time>2022-01-20T05:52:58.177Z</time>
      </trkpt>
      <trkpt lat="49.67799" lon="-1.74447">
        <ele>4.706712</ele>
        <time>2022-01-20T05:53:01.251Z</time>
      </trkpt>
      <trkpt lat="49.67809" lon="-1.74381">
        <ele>4.951626</ele>
        <time>2022-01-20T05:53:13.606Z</time>
      </trkpt>
      <trkpt lat="49.67804" lon="-1.74362">
        <ele>5.028499</ele>
        <time>2022-01-20T05:53:17.495Z</time>
      </trkpt>
      <trkpt lat="49.67808" lon="-1.74324">
        <ele>5.168638</ele>
        <time>2022-01-20T05:53:24.557Z</time>
      </trkpt>
      <trkpt lat="49.6779" lon="-1.74299">
        <ele>5.305118</ele>
        <time>2022-01-20T05:53:31.434Z</time>
      </trkpt>
      <trkpt lat="49.67751" lon="-1.74268">
        <ele>5.5444</ele>
        <time>2022-01-20T05:53:43.766Z</time>
      </trkpt>
      <trkpt lat="49.67748" lon="-1.7426">
        <ele>5.575386</ele>
        <time>2022-01-20T05:53:45.485Z</time>
      </trkpt>
      <trkpt lat="49.67746" lon="-1.74248">
        <ele>5.61473</ele>
        <time>2022-01-20T05:53:50.875Z</time>
      </trkpt>
      <trkpt lat="49.67745" lon="-1.74244">
        <ele>5.628057</ele>
        <time>2022-01-20T05:53:52.692Z</time>
      </trkpt>
      <trkpt lat="49.67739" lon="-1.74189">
        <ele>5.813677</ele>
        <time>2022-01-20T05:53:59.350Z</time>
      </trkpt>
      <trkpt lat="49.67735" lon="-1.74157">
        <ele>5.921733</ele>
        <time>2022-01-20T05:54:03.097Z</time>
      </trkpt>
      <trkpt lat="49.6773" lon="-1.74139">
        <ele>5.983858</ele>
        <time>2022-01-20T05:54:05.401Z</time>
      </trkpt>
      <trkpt lat="49.67722" lon="-1.74096">
        <ele>6.132093</ele>
        <time>2022-01-20T05:54:10.624Z</time>
      </trkpt>
      <trkpt lat="49.67703" lon="-1.74038">
        <ele>6.345202</ele>
        <time>2022-01-20T05:54:18.206Z</time>
      </trkpt>
      <trkpt lat="49.67711" lon="-1.74034">
        <ele>6.386331</ele>
        <time>2022-01-20T05:54:19.598Z</time>
      </trkpt>
      <trkpt lat="49.67688" lon="-1.73935">
        <ele>6.313864</ele>
        <time>2022-01-20T05:54:31.463Z</time>
      </trkpt>
      <trkpt lat="49.67672" lon="-1.73852">
        <ele>6.229471</ele>
        <time>2022-01-20T05:54:43.835Z</time>
      </trkpt>
      <trkpt lat="49.67667" lon="-1.73819">
        <ele>6.196779</ele>
        <time>2022-01-20T05:54:48.622Z</time>
      </trkpt>
      <trkpt lat="49.67668" lon="-1.73787">
        <ele>6.165428</ele>
        <time>2022-01-20T05:54:53.122Z</time>
      </trkpt>
      <trkpt lat="49.67674" lon="-1.73747">
        <ele>6.079382</ele>
        <time>2022-01-20T05:54:58.972Z</time>
      </trkpt>
      <trkpt lat="49.67679" lon="-1.73715">
        <ele>5.941056</ele>
        <time>2022-01-20T05:55:02.428Z</time>
      </trkpt>
      <trkpt lat="49.6767" lon="-1.7365">
        <ele>5.66207</ele>
        <time>2022-01-20T05:55:09.444Z</time>
      </trkpt>
      <trkpt lat="49.67669" lon="-1.73646">
        <ele>5.643018</ele>
        <time>2022-01-20T05:55:09.911Z</time>
      </trkpt>
      <trkpt lat="49.67672" lon="-1.73643">
        <ele>5.620026</ele>
        <time>2022-01-20T05:55:10.456Z</time>
      </trkpt>
      <trkpt lat="49.67709" lon="-1.73616">
        <ele>5.350423</ele>
        <time>2022-01-20T05:55:17.174Z</time>
      </trkpt>
      <trkpt lat="49.67712" lon="-1.73611">
        <ele>5.321986</ele>
        <time>2022-01-20T05:55:17.798Z</time>
      </trkpt>
      <trkpt lat="49.67716" lon="-1.73591">
        <ele>5.236107</ele>
        <time>2022-01-20T05:55:19.973Z</time>
      </trkpt>
      <trkpt lat="49.6771" lon="-1.73472">
        <ele>4.843018</ele>
        <time>2022-01-20T05:55:32.609Z</time>
      </trkpt>
      <trkpt lat="49.67709" lon="-1.73439">
        <ele>4.769269</ele>
        <time>2022-01-20T05:55:36.088Z</time>
      </trkpt>
      <trkpt lat="49.67709" lon="-1.73383">
        <ele>4.645173</ele>
        <time>2022-01-20T05:55:42.095Z</time>
      </trkpt>
      <trkpt lat="49.67708" lon="-1.73324">
        <ele>4.513864</ele>
        <time>2022-01-20T05:55:48.597Z</time>
      </trkpt>
      <trkpt lat="49.67703" lon="-1.73244">
        <ele>4.325594</ele>
        <time>2022-01-20T05:55:57.374Z</time>
      </trkpt>
      <trkpt lat="49.67703" lon="-1.73235">
        <ele>4.29148</ele>
        <time>2022-01-20T05:55:58.347Z</time>
      </trkpt>
      <trkpt lat="49.67703" lon="-1.73207">
        <ele>4.188441</ele>
        <time>2022-01-20T05:56:01.335Z</time>
      </trkpt>
      <trkpt lat="49.67706" lon="-1.73141">
        <ele>3.943495</ele>
        <time>2022-01-20T05:56:08.373Z</time>
      </trkpt>
      <trkpt lat="49.67708" lon="-1.73077">
        <ele>3.707254</ele>
        <time>2022-01-20T05:56:15.109Z</time>
      </trkpt>
      <trkpt lat="49.67715" lon="-1.72897">
        <ele>3.038318</ele>
        <time>2022-01-20T05:56:33.936Z</time>
      </trkpt>
      <trkpt lat="49.67738" lon="-1.72754">
        <ele>2.49015</ele>
        <time>2022-01-20T05:56:49.356Z</time>
      </trkpt>
      <trkpt lat="49.6778" lon="-1.72482">
        <ele>2.501827</ele>
        <time>2022-01-20T05:57:20.397Z</time>
      </trkpt>
      <trkpt lat="49.67804" lon="-1.72381">
        <ele>2.756337</ele>
        <time>2022-01-20T05:57:33.119Z</time>
      </trkpt>
      <trkpt lat="49.67822" lon="-1.7232">
        <ele>3.007892</ele>
        <time>2022-01-20T05:57:41.047Z</time>
      </trkpt>
      <trkpt lat="49.67832" lon="-1.72293">
        <ele>3.122643</ele>
        <time>2022-01-20T05:57:44.747Z</time>
      </trkpt>
      <trkpt lat="49.6784" lon="-1.72254">
        <ele>3.275765</ele>
        <time>2022-01-20T05:57:49.537Z</time>
      </trkpt>
      <trkpt lat="49.67844" lon="-1.72239">
        <ele>3.335148</ele>
        <time>2022-01-20T05:57:51.495Z</time>
      </trkpt>
      <trkpt lat="49.6786" lon="-1.72244">
        <ele>3.432564</ele>
        <time>2022-01-20T05:57:55.335Z</time>
      </trkpt>
      <trkpt lat="49.67861" lon="-1.72239">
        <ele>3.452077</ele>
        <time>2022-01-20T05:57:56.116Z</time>
      </trkpt>
      <trkpt lat="49.67867" lon="-1.72212">
        <ele>3.558736</ele>
        <time>2022-01-20T05:58:00.405Z</time>
      </trkpt>
      <trkpt lat="49.67875" lon="-1.72172">
        <ele>3.557786</ele>
        <time>2022-01-20T05:58:06.582Z</time>
      </trkpt>
      <trkpt lat="49.67883" lon="-1.72123">
        <ele>3.503099</ele>
        <time>2022-01-20T05:58:13.818Z</time>
      </trkpt>
      <trkpt lat="49.67897" lon="-1.72093">
        <ele>3.461505</ele>
        <time>2022-01-20T05:58:18.145Z</time>
      </trkpt>
      <trkpt lat="49.67909" lon="-1.72071">
        <ele>3.430477</ele>
        <time>2022-01-20T05:58:21.157Z</time>
      </trkpt>
      <trkpt lat="49.67933" lon="-1.72018">
        <ele>3.35795</ele>
        <time>2022-01-20T05:58:28.152Z</time>
      </trkpt>
      <trkpt lat="49.67936" lon="-1.7201">
        <ele>3.347928</ele>
        <time>2022-01-20T05:58:29.114Z</time>
      </trkpt>
      <trkpt lat="49.67939" lon="-1.72003">
        <ele>3.339545</ele>
        <time>2022-01-20T05:58:29.911Z</time>
      </trkpt>
      <trkpt lat="49.67941" lon="-1.71997">
        <ele>3.331162</ele>
        <time>2022-01-20T05:58:30.704Z</time>
      </trkpt>
      <trkpt lat="49.67943" lon="-1.71992">
        <ele>3.325125</ele>
        <time>2022-01-20T05:58:31.221Z</time>
      </trkpt>
      <trkpt lat="49.67953" lon="-1.7195">
        <ele>3.244906</ele>
        <time>2022-01-20T05:58:35.962Z</time>
      </trkpt>
      <trkpt lat="49.67959" lon="-1.71885">
        <ele>2.973961</ele>
        <time>2022-01-20T05:58:42.757Z</time>
      </trkpt>
      <trkpt lat="49.67964" lon="-1.71838">
        <ele>2.778888</ele>
        <time>2022-01-20T05:58:47.696Z</time>
      </trkpt>
      <trkpt lat="49.67964" lon="-1.71807">
        <ele>2.651948</ele>
        <time>2022-01-20T05:58:50.844Z</time>
      </trkpt>
      <trkpt lat="49.67949" lon="-1.71718">
        <ele>2.273184</ele>
        <time>2022-01-20T05:59:00.623Z</time>
      </trkpt>
      <trkpt lat="49.67942" lon="-1.717">
        <ele>2.187321</ele>
        <time>2022-01-20T05:59:02.842Z</time>
      </trkpt>
      <trkpt lat="49.67916" lon="-1.71668">
        <ele>2.172641</ele>
        <time>2022-01-20T05:59:08.443Z</time>
      </trkpt>
      <trkpt lat="49.67912" lon="-1.71654">
        <ele>2.185063</ele>
        <time>2022-01-20T05:59:10.154Z</time>
      </trkpt>
      <trkpt lat="49.67903" lon="-1.71653">
        <ele>2.195743</ele>
        <time>2022-01-20T05:59:12.626Z</time>
      </trkpt>
      <trkpt lat="49.67885" lon="-1.71646">
        <ele>2.218231</ele>
        <time>2022-01-20T05:59:17.781Z</time>
      </trkpt>
      <trkpt lat="49.67877" lon="-1.71646">
        <ele>2.228487</ele>
        <time>2022-01-20T05:59:20.136Z</time>
      </trkpt>
      <trkpt lat="49.67849" lon="-1.71501">
        <ele>2.347694</ele>
        <time>2022-01-20T05:59:42.178Z</time>
      </trkpt>
      <trkpt lat="49.67821" lon="-1.71511">
        <ele>2.362233</ele>
        <time>2022-01-20T05:59:47.138Z</time>
      </trkpt>
      <trkpt lat="49.67722" lon="-1.71544">
        <ele>2.370726</ele>
        <time>2022-01-20T06:00:04.515Z</time>
      </trkpt>
      <trkpt lat="49.67708" lon="-1.71479">
        <ele>2.37445</ele>
        <time>2022-01-20T06:00:12.236Z</time>
      </trkpt>
      <trkpt lat="49.67695" lon="-1.71433">
        <ele>2.375467</ele>
        <time>2022-01-20T06:00:17.907Z</time>
      </trkpt>
      <trkpt lat="49.67664" lon="-1.71308">
        <ele>2.37337</ele>
        <time>2022-01-20T06:00:42.012Z</time>
      </trkpt>
      <trkpt lat="49.67636" lon="-1.71197">
        <ele>2.37149</ele>
        <time>2022-01-20T06:01:03.680Z</time>
      </trkpt>
      <trkpt lat="49.67632" lon="-1.71189">
        <ele>2.367309</ele>
        <time>2022-01-20T06:01:05.514Z</time>
      </trkpt>
      <trkpt lat="49.67607" lon="-1.71192">
        <ele>2.350567</ele>
        <time>2022-01-20T06:01:12.630Z</time>
      </trkpt>
      <trkpt lat="49.67558" lon="-1.71169">
        <ele>2.316733</ele>
        <time>2022-01-20T06:01:26.949Z</time>
      </trkpt>
      <trkpt lat="49.6747" lon="-1.71098">
        <ele>2.248397</ele>
        <time>2022-01-20T06:01:54.795Z</time>
      </trkpt>
      <trkpt lat="49.67425" lon="-1.71041">
        <ele>2.157554</ele>
        <time>2022-01-20T06:02:10.989Z</time>
      </trkpt>
      <trkpt lat="49.674" lon="-1.70998">
        <ele>2.09994</ele>
        <time>2022-01-20T06:02:21.266Z</time>
      </trkpt>
      <trkpt lat="49.6738" lon="-1.70979">
        <ele>2.062333</ele>
        <time>2022-01-20T06:02:27.974Z</time>
      </trkpt>
      <trkpt lat="49.6732" lon="-1.70953">
        <ele>1.986542</ele>
        <time>2022-01-20T06:02:45.415Z</time>
      </trkpt>
      <trkpt lat="49.67259" lon="-1.70903">
        <ele>2.269245</ele>
        <time>2022-01-20T06:03:04.619Z</time>
      </trkpt>
      <trkpt lat="49.67251" lon="-1.70889">
        <ele>2.321203</ele>
        <time>2022-01-20T06:03:08.174Z</time>
      </trkpt>
      <trkpt lat="49.67228" lon="-1.7083">
        <ele>2.505531</ele>
        <time>2022-01-20T06:03:20.775Z</time>
      </trkpt>
      <trkpt lat="49.67198" lon="-1.70773">
        <ele>2.701427</ele>
        <time>2022-01-20T06:03:34.210Z</time>
      </trkpt>
      <trkpt lat="49.67188" lon="-1.70769">
        <ele>2.772164</ele>
        <time>2022-01-20T06:03:37.102Z</time>
      </trkpt>
      <trkpt lat="49.67162" lon="-1.70738">
        <ele>3.02638</ele>
        <time>2022-01-20T06:03:46.382Z</time>
      </trkpt>
      <trkpt lat="49.67159" lon="-1.70714">
        <ele>3.147855</ele>
        <time>2022-01-20T06:03:50.829Z</time>
      </trkpt>
      <trkpt lat="49.67135" lon="-1.70651">
        <ele>3.516351</ele>
        <time>2022-01-20T06:04:04.281Z</time>
      </trkpt>
      <trkpt lat="49.67113" lon="-1.70568">
        <ele>3.965957</ele>
        <time>2022-01-20T06:04:20.656Z</time>
      </trkpt>
      <trkpt lat="49.67072" lon="-1.70452">
        <ele>4.042246</ele>
        <time>2022-01-20T06:04:44.695Z</time>
      </trkpt>
      <trkpt lat="49.67006" lon="-1.70189">
        <ele>3.958775</ele>
        <time>2022-01-20T06:05:35.788Z</time>
      </trkpt>
      <trkpt lat="49.66987" lon="-1.70083">
        <ele>3.984091</ele>
        <time>2022-01-20T06:05:55.712Z</time>
      </trkpt>
      <trkpt lat="49.66978" lon="-1.70009">
        <ele>4.056495</ele>
        <time>2022-01-20T06:06:09.416Z</time>
      </trkpt>
      <trkpt lat="49.66976" lon="-1.69965">
        <ele>4.223035</ele>
        <time>2022-01-20T06:06:17.496Z</time>
      </trkpt>
      <trkpt lat="49.66976" lon="-1.69942">
        <ele>4.312127</ele>
        <time>2022-01-20T06:06:21.810Z</time>
      </trkpt>
      <trkpt lat="49.66961" lon="-1.69819">
        <ele>4.78348</ele>
        <time>2022-01-20T06:06:44.645Z</time>
      </trkpt>
      <trkpt lat="49.66958" lon="-1.69677">
        <ele>5.507192</ele>
        <time>2022-01-20T06:07:10.563Z</time>
      </trkpt>
      <trkpt lat="49.66956" lon="-1.69663">
        <ele>5.599826</ele>
        <time>2022-01-20T06:07:13.245Z</time>
      </trkpt>
      <trkpt lat="49.66922" lon="-1.69661">
        <ele>5.930137</ele>
        <time>2022-01-20T06:07:19.655Z</time>
      </trkpt>
      <trkpt lat="49.66888" lon="-1.69663">
        <ele>6.263462</ele>
        <time>2022-01-20T06:07:26.425Z</time>
      </trkpt>
      <trkpt lat="49.6682" lon="-1.69663">
        <ele>6.987763</ele>
        <time>2022-01-20T06:07:40.099Z</time>
      </trkpt>
      <trkpt lat="49.66809" lon="-1.69663">
        <ele>7.163253</ele>
        <time>2022-01-20T06:07:42.407Z</time>
      </trkpt>
      <trkpt lat="49.66798" lon="-1.69664">
        <ele>7.33264</ele>
        <time>2022-01-20T06:07:44.752Z</time>
      </trkpt>
      <trkpt lat="49.66767" lon="-1.69665">
        <ele>7.805715</ele>
        <time>2022-01-20T06:07:50.930Z</time>
      </trkpt>
      <trkpt lat="49.66763" lon="-1.69665">
        <ele>7.86828</ele>
        <time>2022-01-20T06:07:51.868Z</time>
      </trkpt>
      <trkpt lat="49.66762" lon="-1.69647">
        <ele>8.047807</ele>
        <time>2022-01-20T06:07:54.660Z</time>
      </trkpt>
      <trkpt lat="49.66751" lon="-1.69628">
        <ele>8.298533</ele>
        <time>2022-01-20T06:07:58.553Z</time>
      </trkpt>
      <trkpt lat="49.66745" lon="-1.69625">
        <ele>8.389656</ele>
        <time>2022-01-20T06:08:00.055Z</time>
      </trkpt>
      <trkpt lat="49.66743" lon="-1.696">
        <ele>8.637594</ele>
        <time>2022-01-20T06:08:04.684Z</time>
      </trkpt>
      <trkpt lat="49.66731" lon="-1.69488">
        <ele>9.523125</ele>
        <time>2022-01-20T06:08:25.589Z</time>
      </trkpt>
      <trkpt lat="49.66712" lon="-1.69381">
        <ele>9.363498</ele>
        <time>2022-01-20T06:08:45.872Z</time>
      </trkpt>
      <trkpt lat="49.66593" lon="-1.68846">
        <ele>8.13911</ele>
        <time>2022-01-20T06:10:28.542Z</time>
      </trkpt>
      <trkpt lat="49.66576" lon="-1.68787">
        <ele>7.861865</ele>
        <time>2022-01-20T06:10:39.918Z</time>
      </trkpt>
      <trkpt lat="49.66548" lon="-1.68714">
        <ele>7.504468</ele>
        <time>2022-01-20T06:10:55.304Z</time>
      </trkpt>
      <trkpt lat="49.66495" lon="-1.68616">
        <ele>7.028889</ele>
        <time>2022-01-20T06:11:18.488Z</time>
      </trkpt>
      <trkpt lat="49.66491" lon="-1.68623">
        <ele>6.990855</ele>
        <time>2022-01-20T06:11:20.256Z</time>
      </trkpt>
      <trkpt lat="49.66488" lon="-1.68619">
        <ele>6.966435</ele>
        <time>2022-01-20T06:11:20.955Z</time>
      </trkpt>
      <trkpt lat="49.66493" lon="-1.6861">
        <ele>6.921873</ele>
        <time>2022-01-20T06:11:22.502Z</time>
      </trkpt>
      <trkpt lat="49.66488" lon="-1.686">
        <ele>6.874368</ele>
        <time>2022-01-20T06:11:23.910Z</time>
      </trkpt>
      <trkpt lat="49.6649" lon="-1.68588">
        <ele>6.829866</ele>
        <time>2022-01-20T06:11:25.071Z</time>
      </trkpt>
      <trkpt lat="49.66512" lon="-1.68532">
        <ele>6.588376</ele>
        <time>2022-01-20T06:11:32.146Z</time>
      </trkpt>
      <trkpt lat="49.66525" lon="-1.68508">
        <ele>6.427672</ele>
        <time>2022-01-20T06:11:35.779Z</time>
      </trkpt>
      <trkpt lat="49.66543" lon="-1.6849">
        <ele>6.19036</ele>
        <time>2022-01-20T06:11:39.308Z</time>
      </trkpt>
      <trkpt lat="49.66542" lon="-1.68484">
        <ele>6.151046</ele>
        <time>2022-01-20T06:11:40.117Z</time>
      </trkpt>
      <trkpt lat="49.66541" lon="-1.68475">
        <ele>6.085735</ele>
        <time>2022-01-20T06:11:41.128Z</time>
      </trkpt>
      <trkpt lat="49.66553" lon="-1.68405">
        <ele>5.57723</ele>
        <time>2022-01-20T06:11:49.114Z</time>
      </trkpt>
      <trkpt lat="49.66553" lon="-1.68402">
        <ele>5.553258</ele>
        <time>2022-01-20T06:11:49.405Z</time>
      </trkpt>
      <trkpt lat="49.66552" lon="-1.68399">
        <ele>5.531217</ele>
        <time>2022-01-20T06:11:49.692Z</time>
      </trkpt>
      <trkpt lat="49.66429" lon="-1.68289">
        <ele>4.076348</ele>
        <time>2022-01-20T06:12:12.893Z</time>
      </trkpt>
      <trkpt lat="49.6641" lon="-1.68268">
        <ele>3.868909</ele>
        <time>2022-01-20T06:12:16.681Z</time>
      </trkpt>
      <trkpt lat="49.66395" lon="-1.68247">
        <ele>3.684403</ele>
        <time>2022-01-20T06:12:20.114Z</time>
      </trkpt>
      <trkpt lat="49.66374" lon="-1.68213">
        <ele>3.414902</ele>
        <time>2022-01-20T06:12:25.213Z</time>
      </trkpt>
      <trkpt lat="49.66363" lon="-1.68196">
        <ele>3.271449</ele>
        <time>2022-01-20T06:12:27.861Z</time>
      </trkpt>
      <trkpt lat="49.66353" lon="-1.68182">
        <ele>3.148804</ele>
        <time>2022-01-20T06:12:30.227Z</time>
      </trkpt>
      <trkpt lat="49.66271" lon="-1.68086">
        <ele>2.891193</ele>
        <time>2022-01-20T06:12:47.952Z</time>
      </trkpt>
      <trkpt lat="49.66269" lon="-1.68084">
        <ele>2.889581</ele>
        <time>2022-01-20T06:12:48.433Z</time>
      </trkpt>
      <trkpt lat="49.66263" lon="-1.68078">
        <ele>2.885058</ele>
        <time>2022-01-20T06:12:49.781Z</time>
      </trkpt>
      <trkpt lat="49.66209" lon="-1.68037">
        <ele>2.847086</ele>
        <time>2022-01-20T06:13:00.521Z</time>
      </trkpt>
      <trkpt lat="49.66209" lon="-1.68035">
        <ele>2.846323</ele>
        <time>2022-01-20T06:13:00.770Z</time>
      </trkpt>
      <trkpt lat="49.66205" lon="-1.6803">
        <ele>2.843522</ele>
        <time>2022-01-20T06:13:01.591Z</time>
      </trkpt>
      <trkpt lat="49.66196" lon="-1.68016">
        <ele>2.835164</ele>
        <time>2022-01-20T06:13:04.052Z</time>
      </trkpt>
      <trkpt lat="49.66211" lon="-1.67988">
        <ele>2.8465</ele>
        <time>2022-01-20T06:13:08.242Z</time>
      </trkpt>
      <trkpt lat="49.66212" lon="-1.67969">
        <ele>2.867422</ele>
        <time>2022-01-20T06:13:10.572Z</time>
      </trkpt>
      <trkpt lat="49.66202" lon="-1.67946">
        <ele>2.896801</ele>
        <time>2022-01-20T06:13:13.685Z</time>
      </trkpt>
      <trkpt lat="49.65957" lon="-1.67529">
        <ele>3.58246</ele>
        <time>2022-01-20T06:14:19.233Z</time>
      </trkpt>
      <trkpt lat="49.65829" lon="-1.67316">
        <ele>4.436995</ele>
        <time>2022-01-20T06:14:54.177Z</time>
      </trkpt>
      <trkpt lat="49.65803" lon="-1.67268">
        <ele>4.747855</ele>
        <time>2022-01-20T06:15:01.856Z</time>
      </trkpt>
      <trkpt lat="49.6578" lon="-1.67194">
        <ele>5.160066</ele>
        <time>2022-01-20T06:15:12.242Z</time>
      </trkpt>
      <trkpt lat="49.65766" lon="-1.67115">
        <ele>5.536643</ele>
        <time>2022-01-20T06:15:22.786Z</time>
      </trkpt>
      <trkpt lat="49.65765" lon="-1.67032">
        <ele>5.857044</ele>
        <time>2022-01-20T06:15:33.066Z</time>
      </trkpt>
      <trkpt lat="49.65769" lon="-1.66986">
        <ele>6.035798</ele>
        <time>2022-01-20T06:15:38.734Z</time>
      </trkpt>
      <trkpt lat="49.6579" lon="-1.669">
        <ele>6.395131</ele>
        <time>2022-01-20T06:15:55.596Z</time>
      </trkpt>
      <trkpt lat="49.65799" lon="-1.66846">
        <ele>6.464603</ele>
        <time>2022-01-20T06:16:05.654Z</time>
      </trkpt>
      <trkpt lat="49.65801" lon="-1.66802">
        <ele>6.43712</ele>
        <time>2022-01-20T06:16:13.722Z</time>
      </trkpt>
      <trkpt lat="49.65794" lon="-1.66729">
        <ele>6.391692</ele>
        <time>2022-01-20T06:16:27.051Z</time>
      </trkpt>
      <trkpt lat="49.65791" lon="-1.66632">
        <ele>6.331826</ele>
        <time>2022-01-20T06:16:44.663Z</time>
      </trkpt>
      <trkpt lat="49.65804" lon="-1.66464">
        <ele>6.295531</ele>
        <time>2022-01-20T06:17:15.192Z</time>
      </trkpt>
      <trkpt lat="49.65802" lon="-1.66442">
        <ele>6.292667</ele>
        <time>2022-01-20T06:17:19.241Z</time>
      </trkpt>
      <trkpt lat="49.65802" lon="-1.66407">
        <ele>6.288106</ele>
        <time>2022-01-20T06:17:23.346Z</time>
      </trkpt>
      <trkpt lat="49.65802" lon="-1.6626">
        <ele>6.442268</ele>
        <time>2022-01-20T06:17:40.431Z</time>
      </trkpt>
      <trkpt lat="49.65797" lon="-1.66182">
        <ele>6.640708</ele>
        <time>2022-01-20T06:17:49.781Z</time>
      </trkpt>
      <trkpt lat="49.65766" lon="-1.65964">
        <ele>7.217289</ele>
        <time>2022-01-20T06:18:16.914Z</time>
      </trkpt>
      <trkpt lat="49.6576" lon="-1.65874">
        <ele>7.459177</ele>
        <time>2022-01-20T06:18:27.924Z</time>
      </trkpt>
      <trkpt lat="49.65745" lon="-1.65801">
        <ele>7.663374</ele>
        <time>2022-01-20T06:18:37.056Z</time>
      </trkpt>
      <trkpt lat="49.65743" lon="-1.65717">
        <ele>7.70456</ele>
        <time>2022-01-20T06:18:46.697Z</time>
      </trkpt>
      <trkpt lat="49.65733" lon="-1.65634">
        <ele>7.683342</ele>
        <time>2022-01-20T06:18:56.253Z</time>
      </trkpt>
      <trkpt lat="49.65724" lon="-1.65578">
        <ele>7.668851</ele>
        <time>2022-01-20T06:19:02.723Z</time>
      </trkpt>
      <trkpt lat="49.65707" lon="-1.6551">
        <ele>7.650867</ele>
        <time>2022-01-20T06:19:10.994Z</time>
      </trkpt>
      <trkpt lat="49.65628" lon="-1.65261">
        <ele>8.544475</ele>
        <time>2022-01-20T06:19:44.405Z</time>
      </trkpt>
      <trkpt lat="49.65622" lon="-1.65232">
        <ele>8.805207</ele>
        <time>2022-01-20T06:19:48.338Z</time>
      </trkpt>
      <trkpt lat="49.6562" lon="-1.65207">
        <ele>9.029765</ele>
        <time>2022-01-20T06:19:51.790Z</time>
      </trkpt>
      <trkpt lat="49.65619" lon="-1.65188">
        <ele>9.19511</ele>
        <time>2022-01-20T06:19:54.233Z</time>
      </trkpt>
      <trkpt lat="49.65594" lon="-1.65124">
        <ele>9.851016</ele>
        <time>2022-01-20T06:20:04.116Z</time>
      </trkpt>
      <trkpt lat="49.6557" lon="-1.65086">
        <ele>10.315759</ele>
        <time>2022-01-20T06:20:11.162Z</time>
      </trkpt>
      <trkpt lat="49.65552" lon="-1.65069">
        <ele>10.598344</ele>
        <time>2022-01-20T06:20:15.441Z</time>
      </trkpt>
      <trkpt lat="49.65539" lon="-1.65061">
        <ele>10.786518</ele>
        <time>2022-01-20T06:20:18.233Z</time>
      </trkpt>
      <trkpt lat="49.65502" lon="-1.64998">
        <ele>11.149421</ele>
        <time>2022-01-20T06:20:29.048Z</time>
      </trkpt>
      <trkpt lat="49.6546" lon="-1.6495">
        <ele>11.365177</ele>
        <time>2022-01-20T06:20:38.959Z</time>
      </trkpt>
      <trkpt lat="49.65457" lon="-1.64949">
        <ele>11.378899</ele>
        <time>2022-01-20T06:20:39.610Z</time>
      </trkpt>
      <trkpt lat="49.65453" lon="-1.64949">
        <ele>11.393852</ele>
        <time>2022-01-20T06:20:40.208Z</time>
      </trkpt>
      <trkpt lat="49.65431" lon="-1.6493">
        <ele>11.496676</ele>
        <time>2022-01-20T06:20:44.585Z</time>
      </trkpt>
      <trkpt lat="49.65422" lon="-1.64902">
        <ele>11.580852</ele>
        <time>2022-01-20T06:20:48.146Z</time>
      </trkpt>
      <trkpt lat="49.65421" lon="-1.649">
        <ele>11.589035</ele>
        <time>2022-01-20T06:20:48.436Z</time>
      </trkpt>
      <trkpt lat="49.65417" lon="-1.64895">
        <ele>11.610178</ele>
        <time>2022-01-20T06:20:49.344Z</time>
      </trkpt>
      <trkpt lat="49.65409" lon="-1.64884">
        <ele>11.651979</ele>
        <time>2022-01-20T06:20:51.156Z</time>
      </trkpt>
      <trkpt lat="49.65408" lon="-1.64882">
        <ele>11.661672</ele>
        <time>2022-01-20T06:20:51.575Z</time>
      </trkpt>
      <trkpt lat="49.65404" lon="-1.64878">
        <ele>11.679161</ele>
        <time>2022-01-20T06:20:52.346Z</time>
      </trkpt>
      <trkpt lat="49.65394" lon="-1.64882">
        <ele>11.723058</ele>
        <time>2022-01-20T06:20:54.294Z</time>
      </trkpt>
      <trkpt lat="49.65393" lon="-1.64883">
        <ele>11.72415</ele>
        <time>2022-01-20T06:20:54.395Z</time>
      </trkpt>
      <trkpt lat="49.65382" lon="-1.64882">
        <ele>11.740408</ele>
        <time>2022-01-20T06:20:56.248Z</time>
      </trkpt>
      <trkpt lat="49.65312" lon="-1.64817">
        <ele>11.863296</ele>
        <time>2022-01-20T06:21:10.580Z</time>
      </trkpt>
      <trkpt lat="49.65018" lon="-1.64523">
        <ele>13.077722</ele>
        <time>2022-01-20T06:22:15.941Z</time>
      </trkpt>
      <trkpt lat="49.64906" lon="-1.64402">
        <ele>13.148505</ele>
        <time>2022-01-20T06:22:40.793Z</time>
      </trkpt>
      <trkpt lat="49.64898" lon="-1.64391">
        <ele>13.091224</ele>
        <time>2022-01-20T06:22:42.629Z</time>
      </trkpt>
      <trkpt lat="49.64897" lon="-1.64389">
        <ele>13.082412</ele>
        <time>2022-01-20T06:22:42.914Z</time>
      </trkpt>
      <trkpt lat="49.64891" lon="-1.64384">
        <ele>13.046104</ele>
        <time>2022-01-20T06:22:44.074Z</time>
      </trkpt>
      <trkpt lat="49.64883" lon="-1.64376">
        <ele>12.991409</ele>
        <time>2022-01-20T06:22:45.831Z</time>
      </trkpt>
      <trkpt lat="49.64822" lon="-1.64323">
        <ele>12.61529</ele>
        <time>2022-01-20T06:22:57.629Z</time>
      </trkpt>
      <trkpt lat="49.64807" lon="-1.64313">
        <ele>12.523308</ele>
        <time>2022-01-20T06:23:00.446Z</time>
      </trkpt>
      <trkpt lat="49.64798" lon="-1.64297">
        <ele>12.450656</ele>
        <time>2022-01-20T06:23:02.693Z</time>
      </trkpt>
      <trkpt lat="49.6479" lon="-1.64251">
        <ele>12.02382</ele>
        <time>2022-01-20T06:23:07.739Z</time>
      </trkpt>
      <trkpt lat="49.64751" lon="-1.64023">
        <ele>9.282186</ele>
        <time>2022-01-20T06:23:31.244Z</time>
      </trkpt>
      <trkpt lat="49.64744" lon="-1.63991">
        <ele>8.871728</ele>
        <time>2022-01-20T06:23:34.604Z</time>
      </trkpt>
      <trkpt lat="49.64731" lon="-1.63952">
        <ele>8.340353</ele>
        <time>2022-01-20T06:23:38.790Z</time>
      </trkpt>
      <trkpt lat="49.6471" lon="-1.63912">
        <ele>7.70378</ele>
        <time>2022-01-20T06:23:43.820Z</time>
      </trkpt>
      <trkpt lat="49.647" lon="-1.63899">
        <ele>7.4685</ele>
        <time>2022-01-20T06:23:45.585Z</time>
      </trkpt>
      <trkpt lat="49.64673" lon="-1.63873">
        <ele>6.878922</ele>
        <time>2022-01-20T06:23:50.115Z</time>
      </trkpt>
      <trkpt lat="49.64663" lon="-1.63867">
        <ele>6.67504</ele>
        <time>2022-01-20T06:23:51.666Z</time>
      </trkpt>
      <trkpt lat="49.64652" lon="-1.63872">
        <ele>6.455953</ele>
        <time>2022-01-20T06:23:53.386Z</time>
      </trkpt>
      <trkpt lat="49.64579" lon="-1.63822">
        <ele>5.536933</ele>
        <time>2022-01-20T06:24:05.747Z</time>
      </trkpt>
      <trkpt lat="49.64565" lon="-1.63815">
        <ele>5.451243</ele>
        <time>2022-01-20T06:24:08.094Z</time>
      </trkpt>
      <trkpt lat="49.64558" lon="-1.63801">
        <ele>5.386619</ele>
        <time>2022-01-20T06:24:09.935Z</time>
      </trkpt>
      <trkpt lat="49.64549" lon="-1.63766">
        <ele>5.248389</ele>
        <time>2022-01-20T06:24:13.939Z</time>
      </trkpt>
      <trkpt lat="49.64544" lon="-1.63768">
        <ele>5.219337</ele>
        <time>2022-01-20T06:24:14.797Z</time>
      </trkpt>
      <trkpt lat="49.64534" lon="-1.63773">
        <ele>5.157543</ele>
        <time>2022-01-20T06:24:16.680Z</time>
      </trkpt>
      <trkpt lat="49.6453" lon="-1.63777">
        <ele>5.129546</ele>
        <time>2022-01-20T06:24:17.557Z</time>
      </trkpt>
      <trkpt lat="49.64529" lon="-1.63774">
        <ele>5.118986</ele>
        <time>2022-01-20T06:24:17.953Z</time>
      </trkpt>
      <trkpt lat="49.64488" lon="-1.63595">
        <ele>5.036462</ele>
        <time>2022-01-20T06:24:39.585Z</time>
      </trkpt>
      <trkpt lat="49.64482" lon="-1.63566">
        <ele>5.124695</ele>
        <time>2022-01-20T06:24:43.357Z</time>
      </trkpt>
      <trkpt lat="49.64479" lon="-1.6355">
        <ele>5.174517</ele>
        <time>2022-01-20T06:24:45.532Z</time>
      </trkpt>
      <trkpt lat="49.64473" lon="-1.63526">
        <ele>5.248046</ele>
        <time>2022-01-20T06:24:48.648Z</time>
      </trkpt>
      <trkpt lat="49.64415" lon="-1.63258">
        <ele>6.492293</ele>
        <time>2022-01-20T06:25:23.500Z</time>
      </trkpt>
      <trkpt lat="49.64418" lon="-1.63256">
        <ele>6.523186</ele>
        <time>2022-01-20T06:25:24.196Z</time>
      </trkpt>
      <trkpt lat="49.64405" lon="-1.63197">
        <ele>6.856243</ele>
        <time>2022-01-20T06:25:32.015Z</time>
      </trkpt>
      <trkpt lat="49.64401" lon="-1.63176">
        <ele>6.974817</ele>
        <time>2022-01-20T06:25:34.879Z</time>
      </trkpt>
      <trkpt lat="49.64398" lon="-1.63163">
        <ele>7.051665</ele>
        <time>2022-01-20T06:25:36.649Z</time>
      </trkpt>
      <trkpt lat="49.64395" lon="-1.6315">
        <ele>7.158242</ele>
        <time>2022-01-20T06:25:38.332Z</time>
      </trkpt>
      <trkpt lat="49.64392" lon="-1.63137">
        <ele>7.269954</ele>
        <time>2022-01-20T06:25:40.080Z</time>
      </trkpt>
      <trkpt lat="49.64391" lon="-1.6313">
        <ele>7.329156</ele>
        <time>2022-01-20T06:25:40.992Z</time>
      </trkpt>
      <trkpt lat="49.64372" lon="-1.63048">
        <ele>8.04196</ele>
        <time>2022-01-20T06:25:51.956Z</time>
      </trkpt>
      <trkpt lat="49.64366" lon="-1.63017">
        <ele>8.308232</ele>
        <time>2022-01-20T06:25:56.093Z</time>
      </trkpt>
      <trkpt lat="49.64358" lon="-1.62984">
        <ele>8.592034</ele>
        <time>2022-01-20T06:26:00.469Z</time>
      </trkpt>
      <trkpt lat="49.64344" lon="-1.6292">
        <ele>9.142884</ele>
        <time>2022-01-20T06:26:08.917Z</time>
      </trkpt>
      <trkpt lat="49.64339" lon="-1.62897">
        <ele>9.337886</ele>
        <time>2022-01-20T06:26:11.988Z</time>
      </trkpt>
      <trkpt lat="49.64335" lon="-1.62881">
        <ele>9.368006</ele>
        <time>2022-01-20T06:26:14.087Z</time>
      </trkpt>
      <trkpt lat="49.64321" lon="-1.62773">
        <ele>9.565298</ele>
        <time>2022-01-20T06:26:27.491Z</time>
      </trkpt>
      <trkpt lat="49.64312" lon="-1.62712">
        <ele>9.677328</ele>
        <time>2022-01-20T06:26:34.507Z</time>
      </trkpt>
      <trkpt lat="49.64306" lon="-1.62699">
        <ele>9.70672</ele>
        <time>2022-01-20T06:26:36.290Z</time>
      </trkpt>
      <trkpt lat="49.64234" lon="-1.62568">
        <ele>9.504163</ele>
        <time>2022-01-20T06:26:54.336Z</time>
      </trkpt>
      <trkpt lat="49.64227" lon="-1.62555">
        <ele>9.449566</ele>
        <time>2022-01-20T06:26:56.013Z</time>
      </trkpt>
      <trkpt lat="49.64225" lon="-1.62555">
        <ele>9.436985</ele>
        <time>2022-01-20T06:26:56.415Z</time>
      </trkpt>
      <trkpt lat="49.64212" lon="-1.62543">
        <ele>9.361198</ele>
        <time>2022-01-20T06:26:58.949Z</time>
      </trkpt>
      <trkpt lat="49.64206" lon="-1.62535">
        <ele>9.322585</ele>
        <time>2022-01-20T06:27:00.205Z</time>
      </trkpt>
      <trkpt lat="49.64203" lon="-1.62536">
        <ele>9.304216</ele>
        <time>2022-01-20T06:27:00.731Z</time>
      </trkpt>
      <trkpt lat="49.6419" lon="-1.62541">
        <ele>9.239549</ele>
        <time>2022-01-20T06:27:02.829Z</time>
      </trkpt>
      <trkpt lat="49.64152" lon="-1.62555">
        <ele>9.04246</ele>
        <time>2022-01-20T06:27:09.282Z</time>
      </trkpt>
      <trkpt lat="49.64148" lon="-1.62557">
        <ele>9.020201</ele>
        <time>2022-01-20T06:27:10.057Z</time>
      </trkpt>
      <trkpt lat="49.64096" lon="-1.62575">
        <ele>8.911692</ele>
        <time>2022-01-20T06:27:18.982Z</time>
      </trkpt>
      <trkpt lat="49.64084" lon="-1.6258">
        <ele>8.90549</ele>
        <time>2022-01-20T06:27:21.240Z</time>
      </trkpt>
      <trkpt lat="49.64071" lon="-1.62584">
        <ele>8.899295</ele>
        <time>2022-01-20T06:27:23.623Z</time>
      </trkpt>
      <trkpt lat="49.64006" lon="-1.62606">
        <ele>8.867898</ele>
        <time>2022-01-20T06:27:35.202Z</time>
      </trkpt>
      <trkpt lat="49.64001" lon="-1.62608">
        <ele>8.865288</ele>
        <time>2022-01-20T06:27:36.078Z</time>
      </trkpt>
      <trkpt lat="49.63998" lon="-1.62602">
        <ele>8.863207</ele>
        <time>2022-01-20T06:27:36.836Z</time>
      </trkpt>
      <trkpt lat="49.63994" lon="-1.62592">
        <ele>8.859535</ele>
        <time>2022-01-20T06:27:38.179Z</time>
      </trkpt>
      <trkpt lat="49.63987" lon="-1.62577">
        <ele>8.85396</ele>
        <time>2022-01-20T06:27:40.213Z</time>
      </trkpt>
      <trkpt lat="49.63975" lon="-1.62549">
        <ele>8.843604</ele>
        <time>2022-01-20T06:27:43.847Z</time>
      </trkpt>
      <trkpt lat="49.63972" lon="-1.62544">
        <ele>8.80602</ele>
        <time>2022-01-20T06:27:44.729Z</time>
      </trkpt>
      <trkpt lat="49.63968" lon="-1.62541">
        <ele>8.767551</ele>
        <time>2022-01-20T06:27:45.352Z</time>
      </trkpt>
      <trkpt lat="49.63964" lon="-1.6254">
        <ele>8.73128</ele>
        <time>2022-01-20T06:27:45.955Z</time>
      </trkpt>
      <trkpt lat="49.63926" lon="-1.62537">
        <ele>8.353971</ele>
        <time>2022-01-20T06:27:52.292Z</time>
      </trkpt>
      <trkpt lat="49.63883" lon="-1.62532">
        <ele>7.92808</ele>
        <time>2022-01-20T06:27:59.333Z</time>
      </trkpt>
      <trkpt lat="49.63881" lon="-1.62532">
        <ele>7.914286</ele>
        <time>2022-01-20T06:27:59.504Z</time>
      </trkpt>
      <trkpt lat="49.63827" lon="-1.62526">
        <ele>7.378252</ele>
        <time>2022-01-20T06:28:08.024Z</time>
      </trkpt>
      <trkpt lat="49.63818" lon="-1.62525">
        <ele>7.291686</ele>
        <time>2022-01-20T06:28:09.292Z</time>
      </trkpt>
      <trkpt lat="49.63817" lon="-1.6251">
        <ele>7.201968</ele>
        <time>2022-01-20T06:28:10.623Z</time>
      </trkpt>
      <trkpt lat="49.63817" lon="-1.62483">
        <ele>7.021038</ele>
        <time>2022-01-20T06:28:13.333Z</time>
      </trkpt>
      <trkpt lat="49.63814" lon="-1.62434">
        <ele>6.677387</ele>
        <time>2022-01-20T06:28:18.054Z</time>
      </trkpt>
      <trkpt lat="49.63812" lon="-1.62408">
        <ele>6.493955</ele>
        <time>2022-01-20T06:28:20.678Z</time>
      </trkpt>
      <trkpt lat="49.63811" lon="-1.62398">
        <ele>6.426839</ele>
        <time>2022-01-20T06:28:21.568Z</time>
      </trkpt>
      <trkpt lat="49.63811" lon="-1.62389">
        <ele>6.361942</ele>
        <time>2022-01-20T06:28:22.483Z</time>
      </trkpt>
      <trkpt lat="49.63806" lon="-1.62327">
        <ele>5.92486</ele>
        <time>2022-01-20T06:28:29.036Z</time>
      </trkpt>
      <trkpt lat="49.63805" lon="-1.6232">
        <ele>5.87299</ele>
        <time>2022-01-20T06:28:29.835Z</time>
      </trkpt>
      <trkpt lat="49.638" lon="-1.62243">
        <ele>5.330941</ele>
        <time>2022-01-20T06:28:37.994Z</time>
      </trkpt>
      <trkpt lat="49.63789" lon="-1.62245">
        <ele>5.203519</ele>
        <time>2022-01-20T06:28:40.496Z</time>
      </trkpt>
      <trkpt lat="49.63781" lon="-1.62246">
        <ele>5.126202</ele>
        <time>2022-01-20T06:28:42.175Z</time>
      </trkpt>
      <trkpt lat="49.63713" lon="-1.62258">
        <ele>4.720553</ele>
        <time>2022-01-20T06:28:57.085Z</time>
      </trkpt>
      <trkpt lat="49.6371" lon="-1.62259">
        <ele>4.702075</ele>
        <time>2022-01-20T06:28:57.750Z</time>
      </trkpt>
      <trkpt lat="49.63705" lon="-1.6226">
        <ele>4.670467</ele>
        <time>2022-01-20T06:28:58.936Z</time>
      </trkpt>
      <trkpt lat="49.63704" lon="-1.62253">
        <ele>4.646861</ele>
        <time>2022-01-20T06:28:59.802Z</time>
      </trkpt>
      <trkpt lat="49.637" lon="-1.62176">
        <ele>4.348075</ele>
        <time>2022-01-20T06:29:10.833Z</time>
      </trkpt>
      <trkpt lat="49.63699" lon="-1.62153">
        <ele>4.258572</ele>
        <time>2022-01-20T06:29:13.458Z</time>
      </trkpt>
      <trkpt lat="49.63696" lon="-1.62113">
        <ele>4.106844</ele>
        <time>2022-01-20T06:29:17.882Z</time>
      </trkpt>
      <trkpt lat="49.63694" lon="-1.62078">
        <ele>4.012589</ele>
        <time>2022-01-20T06:29:21.651Z</time>
      </trkpt>
      <trkpt lat="49.6369" lon="-1.62063">
        <ele>3.97768</ele>
        <time>2022-01-20T06:29:23.373Z</time>
      </trkpt>
      <trkpt lat="49.63684" lon="-1.61979">
        <ele>3.794189</ele>
        <time>2022-01-20T06:29:32.288Z</time>
      </trkpt>
      <trkpt lat="49.63686" lon="-1.61972">
        <ele>3.776609</ele>
        <time>2022-01-20T06:29:33.147Z</time>
      </trkpt>
      <trkpt lat="49.63726" lon="-1.61965">
        <ele>3.643498</ele>
        <time>2022-01-20T06:29:41.873Z</time>
      </trkpt>
      <trkpt lat="49.63879" lon="-1.61942">
        <ele>3.896199</ele>
        <time>2022-01-20T06:30:16.604Z</time>
      </trkpt>
      <trkpt lat="49.63884" lon="-1.61948">
        <ele>3.922623</ele>
        <time>2022-01-20T06:30:17.979Z</time>
      </trkpt>
      <trkpt lat="49.63885" lon="-1.61964">
        <ele>3.966274</ele>
        <time>2022-01-20T06:30:20.382Z</time>
      </trkpt>
      <trkpt lat="49.63887" lon="-1.61977">
        <ele>4.005015</ele>
        <time>2022-01-20T06:30:22.475Z</time>
      </trkpt>
      <trkpt lat="49.63893" lon="-1.61982">
        <ele>4.033982</ele>
        <time>2022-01-20T06:30:24.098Z</time>
      </trkpt>
      <trkpt lat="49.63909" lon="-1.6198">
        <ele>4.103065</ele>
        <time>2022-01-20T06:30:27.798Z</time>
      </trkpt>
      <trkpt lat="49.63906" lon="-1.61931">
        <ele>4.238202</ele>
        <time>2022-01-20T06:30:33.635Z</time>
      </trkpt>
      <trkpt lat="49.63906" lon="-1.6192">
        <ele>4.266972</ele>
        <time>2022-01-20T06:30:34.970Z</time>
      </trkpt>
      <trkpt lat="49.63905" lon="-1.61905">
        <ele>4.306891</ele>
        <time>2022-01-20T06:30:36.741Z</time>
      </trkpt>
      <trkpt lat="49.6391" lon="-1.61904">
        <ele>4.331025</ele>
        <time>2022-01-20T06:30:37.887Z</time>
      </trkpt>
      <trkpt lat="49.63915" lon="-1.61899">
        <ele>4.353538</ele>
        <time>2022-01-20T06:30:38.907Z</time>
      </trkpt>
      <trkpt lat="49.63939" lon="-1.61889">
        <ele>4.453237</ele>
        <time>2022-01-20T06:30:43.330Z</time>
      </trkpt>
      <trkpt lat="49.6397" lon="-1.6185">
        <ele>4.616141</ele>
        <time>2022-01-20T06:30:50.570Z</time>
      </trkpt>
      <trkpt lat="49.63972" lon="-1.61848">
        <ele>4.626864</ele>
        <time>2022-01-20T06:30:51.131Z</time>
      </trkpt>
      <trkpt lat="49.63973" lon="-1.61847">
        <ele>4.632282</ele>
        <time>2022-01-20T06:30:51.304Z</time>
      </trkpt>
      <trkpt lat="49.64037" lon="-1.61814">
        <ele>4.904321</ele>
        <time>2022-01-20T06:31:03.038Z</time>
      </trkpt>
      <trkpt lat="49.64082" lon="-1.61806">
        <ele>4.938213</ele>
        <time>2022-01-20T06:31:10.984Z</time>
      </trkpt>
      <trkpt lat="49.64096" lon="-1.61803">
        <ele>4.926808</ele>
        <time>2022-01-20T06:31:13.224Z</time>
      </trkpt>
      <trkpt lat="49.64108" lon="-1.61801">
        <ele>4.91644</ele>
        <time>2022-01-20T06:31:15.334Z</time>
      </trkpt>
      <trkpt lat="49.64132" lon="-1.61798">
        <ele>4.895311</ele>
        <time>2022-01-20T06:31:19.444Z</time>
      </trkpt>
      <trkpt lat="49.64143" lon="-1.61796">
        <ele>4.886258</ele>
        <time>2022-01-20T06:31:21.224Z</time>
      </trkpt>
      <trkpt lat="49.64147" lon="-1.61796">
        <ele>4.882722</ele>
        <time>2022-01-20T06:31:21.928Z</time>
      </trkpt>
      <trkpt lat="49.6419" lon="-1.61758">
        <ele>4.839719</ele>
        <time>2022-01-20T06:31:30.361Z</time>
      </trkpt>
      <trkpt lat="49.64193" lon="-1.61754">
        <ele>4.836179</ele>
        <time>2022-01-20T06:31:31.091Z</time>
      </trkpt>
      <trkpt lat="49.642" lon="-1.61744">
        <ele>4.828141</ele>
        <time>2022-01-20T06:31:32.636Z</time>
      </trkpt>
      <trkpt lat="49.64221" lon="-1.61697">
        <ele>4.752236</ele>
        <time>2022-01-20T06:31:38.681Z</time>
      </trkpt>
      <trkpt lat="49.6423" lon="-1.61634">
        <ele>4.600612</ele>
        <time>2022-01-20T06:31:45.580Z</time>
      </trkpt>
      <trkpt lat="49.6423" lon="-1.61607">
        <ele>4.53471</ele>
        <time>2022-01-20T06:31:48.612Z</time>
      </trkpt>
      <trkpt lat="49.64231" lon="-1.61606">
        <ele>4.531054</ele>
        <time>2022-01-20T06:31:48.845Z</time>
      </trkpt>
      <trkpt lat="49.64235" lon="-1.61607">
        <ele>4.517427</ele>
        <time>2022-01-20T06:31:49.445Z</time>
      </trkpt>
      <trkpt lat="49.64237" lon="-1.61608">
        <ele>4.51046</ele>
        <time>2022-01-20T06:31:49.769Z</time>
      </trkpt>
      <trkpt lat="49.6424" lon="-1.61609">
        <ele>4.496093</ele>
        <time>2022-01-20T06:31:50.441Z</time>
      </trkpt>
      <trkpt lat="49.64241" lon="-1.61607">
        <ele>4.491821</ele>
        <time>2022-01-20T06:31:50.651Z</time>
      </trkpt>
      <trkpt lat="49.64241" lon="-1.61606">
        <ele>4.486976</ele>
        <time>2022-01-20T06:31:50.868Z</time>
      </trkpt>
      <trkpt lat="49.64242" lon="-1.61604">
        <ele>4.481605</ele>
        <time>2022-01-20T06:31:51.131Z</time>
      </trkpt>
      <trkpt lat="49.64245" lon="-1.61601">
        <ele>4.471066</ele>
        <time>2022-01-20T06:31:51.608Z</time>
      </trkpt>
      <trkpt lat="49.64249" lon="-1.616">
        <ele>4.454591</ele>
        <time>2022-01-20T06:31:52.359Z</time>
      </trkpt>
      <trkpt lat="49.64259" lon="-1.61596">
        <ele>4.417364</ele>
        <time>2022-01-20T06:31:54.171Z</time>
      </trkpt>
      <trkpt lat="49.64266" lon="-1.61585">
        <ele>4.380513</ele>
        <time>2022-01-20T06:31:55.983Z</time>
      </trkpt>
      <trkpt lat="49.64269" lon="-1.61578">
        <ele>4.360541</ele>
        <time>2022-01-20T06:31:56.951Z</time>
      </trkpt>
      <trkpt lat="49.64272" lon="-1.61558">
        <ele>4.31297</ele>
        <time>2022-01-20T06:31:59.150Z</time>
      </trkpt>
      <trkpt lat="49.64272" lon="-1.61549">
        <ele>4.290955</ele>
        <time>2022-01-20T06:32:00.204Z</time>
      </trkpt>
      <trkpt lat="49.64273" lon="-1.61542">
        <ele>4.275213</ele>
        <time>2022-01-20T06:32:00.989Z</time>
      </trkpt>
      <trkpt lat="49.64272" lon="-1.61493">
        <ele>4.158708</ele>
        <time>2022-01-20T06:32:06.403Z</time>
      </trkpt>
      <trkpt lat="49.64245" lon="-1.61358">
        <ele>3.848229</ele>
        <time>2022-01-20T06:32:21.944Z</time>
      </trkpt>
      <trkpt lat="49.64243" lon="-1.61295">
        <ele>3.709102</ele>
        <time>2022-01-20T06:32:29.112Z</time>
      </trkpt>
      <trkpt lat="49.64282" lon="-1.60775">
        <ele>3.707986</ele>
        <time>2022-01-20T06:33:29.182Z</time>
      </trkpt>
      <trkpt lat="49.6431" lon="-1.60566">
        <ele>3.929619</ele>
        <time>2022-01-20T06:33:53.861Z</time>
      </trkpt>
      <trkpt lat="49.6435" lon="-1.60321">
        <ele>4.318459</ele>
        <time>2022-01-20T06:34:24.172Z</time>
      </trkpt>
      <trkpt lat="49.64348" lon="-1.60316">
        <ele>4.325784</ele>
        <time>2022-01-20T06:34:24.928Z</time>
      </trkpt>
      <trkpt lat="49.64343" lon="-1.60306">
        <ele>4.342733</ele>
        <time>2022-01-20T06:34:26.461Z</time>
      </trkpt>
      <trkpt lat="49.64344" lon="-1.60296">
        <ele>4.354942</ele>
        <time>2022-01-20T06:34:27.516Z</time>
      </trkpt>
      <trkpt lat="49.64347" lon="-1.60283">
        <ele>4.373147</ele>
        <time>2022-01-20T06:34:29.105Z</time>
      </trkpt>
      <trkpt lat="49.64349" lon="-1.60272">
        <ele>4.388254</ele>
        <time>2022-01-20T06:34:30.463Z</time>
      </trkpt>
      <trkpt lat="49.64365" lon="-1.60211">
        <ele>4.473543</ele>
        <time>2022-01-20T06:34:38.232Z</time>
      </trkpt>
      <trkpt lat="49.64371" lon="-1.60162">
        <ele>4.53817</ele>
        <time>2022-01-20T06:34:43.865Z</time>
      </trkpt>
      <trkpt lat="49.64372" lon="-1.60155">
        <ele>4.547971</ele>
        <time>2022-01-20T06:34:44.842Z</time>
      </trkpt>
      <trkpt lat="49.64397" lon="-1.60057">
        <ele>4.359111</ele>
        <time>2022-01-20T06:34:56.684Z</time>
      </trkpt>
      <trkpt lat="49.64432" lon="-1.5992">
        <ele>3.984395</ele>
        <time>2022-01-20T06:35:13.070Z</time>
      </trkpt>
      <trkpt lat="49.64457" lon="-1.59854">
        <ele>3.814427</ele>
        <time>2022-01-20T06:35:21.568Z</time>
      </trkpt>
      <trkpt lat="49.64605" lon="-1.59536">
        <ele>3.22946</ele>
        <time>2022-01-20T06:36:05.732Z</time>
      </trkpt>
      <trkpt lat="49.64751" lon="-1.59266">
        <ele>3.036911</ele>
        <time>2022-01-20T06:36:45.624Z</time>
      </trkpt>
      <trkpt lat="49.64754" lon="-1.59262">
        <ele>3.035535</ele>
        <time>2022-01-20T06:36:46.350Z</time>
      </trkpt>
      <trkpt lat="49.64756" lon="-1.59262">
        <ele>3.034936</ele>
        <time>2022-01-20T06:36:46.653Z</time>
      </trkpt>
      <trkpt lat="49.6476" lon="-1.59262">
        <ele>3.03325</ele>
        <time>2022-01-20T06:36:47.495Z</time>
      </trkpt>
      <trkpt lat="49.64762" lon="-1.5926">
        <ele>3.032521</ele>
        <time>2022-01-20T06:36:47.874Z</time>
      </trkpt>
      <trkpt lat="49.64784" lon="-1.59216">
        <ele>3.060638</ele>
        <time>2022-01-20T06:36:54.339Z</time>
      </trkpt>
      <trkpt lat="49.64785" lon="-1.59214">
        <ele>3.069436</ele>
        <time>2022-01-20T06:36:54.775Z</time>
      </trkpt>
      <trkpt lat="49.64794" lon="-1.59193">
        <ele>3.129258</ele>
        <time>2022-01-20T06:36:57.635Z</time>
      </trkpt>
      <trkpt lat="49.64796" lon="-1.59183">
        <ele>3.153797</ele>
        <time>2022-01-20T06:36:58.892Z</time>
      </trkpt>
      <trkpt lat="49.64796" lon="-1.59179">
        <ele>3.163069</ele>
        <time>2022-01-20T06:36:59.364Z</time>
      </trkpt>
      <trkpt lat="49.64788" lon="-1.59154">
        <ele>3.231662</ele>
        <time>2022-01-20T06:37:02.621Z</time>
      </trkpt>
      <trkpt lat="49.64782" lon="-1.59156">
        <ele>3.253309</ele>
        <time>2022-01-20T06:37:03.674Z</time>
      </trkpt>
      <trkpt lat="49.6477" lon="-1.59159">
        <ele>3.298354</ele>
        <time>2022-01-20T06:37:05.966Z</time>
      </trkpt>
      <trkpt lat="49.64746" lon="-1.59144">
        <ele>3.397714</ele>
        <time>2022-01-20T06:37:10.761Z</time>
      </trkpt>
      <trkpt lat="49.64743" lon="-1.59139">
        <ele>3.413079</ele>
        <time>2022-01-20T06:37:11.570Z</time>
      </trkpt>
      <trkpt lat="49.64743" lon="-1.59123">
        <ele>3.451021</ele>
        <time>2022-01-20T06:37:13.434Z</time>
      </trkpt>
      <trkpt lat="49.64744" lon="-1.59111">
        <ele>3.481537</ele>
        <time>2022-01-20T06:37:14.933Z</time>
      </trkpt>
      <trkpt lat="49.64769" lon="-1.59078">
        <ele>3.606116</ele>
        <time>2022-01-20T06:37:21.183Z</time>
      </trkpt>
      <trkpt lat="49.64785" lon="-1.59068">
        <ele>3.670333</ele>
        <time>2022-01-20T06:37:24.350Z</time>
      </trkpt>
      <trkpt lat="49.6485" lon="-1.58949">
        <ele>3.793649</ele>
        <time>2022-01-20T06:37:42.879Z</time>
      </trkpt>
      <trkpt lat="49.64874" lon="-1.58903">
        <ele>3.833326</ele>
        <time>2022-01-20T06:37:49.701Z</time>
      </trkpt>
      <trkpt lat="49.64884" lon="-1.58898">
        <ele>3.843523</ele>
        <time>2022-01-20T06:37:51.423Z</time>
      </trkpt>
      <trkpt lat="49.65022" lon="-1.58581">
        <ele>3.466276</ele>
        <time>2022-01-20T06:38:34.354Z</time>
      </trkpt>
      <trkpt lat="49.65051" lon="-1.58529">
        <ele>3.551446</ele>
        <time>2022-01-20T06:38:42.186Z</time>
      </trkpt>
      <trkpt lat="49.65047" lon="-1.58524">
        <ele>3.561174</ele>
        <time>2022-01-20T06:38:43.091Z</time>
      </trkpt>
      <trkpt lat="49.65044" lon="-1.5852">
        <ele>3.568463</ele>
        <time>2022-01-20T06:38:43.805Z</time>
      </trkpt>
      <trkpt lat="49.65026" lon="-1.58507">
        <ele>3.607003</ele>
        <time>2022-01-20T06:38:47.429Z</time>
      </trkpt>
      <trkpt lat="49.64934" lon="-1.58392">
        <ele>3.960579</ele>
        <time>2022-01-20T06:39:09.705Z</time>
      </trkpt>
      <trkpt lat="49.64928" lon="-1.58384">
        <ele>3.996698</ele>
        <time>2022-01-20T06:39:11.073Z</time>
      </trkpt>
      <trkpt lat="49.64933" lon="-1.58373">
        <ele>4.038637</ele>
        <time>2022-01-20T06:39:12.588Z</time>
      </trkpt>
      <trkpt lat="49.64942" lon="-1.58341">
        <ele>4.154419</ele>
        <time>2022-01-20T06:39:16.807Z</time>
      </trkpt>
      <trkpt lat="49.64947" lon="-1.58314">
        <ele>4.243823</ele>
        <time>2022-01-20T06:39:20.041Z</time>
      </trkpt>
      <trkpt lat="49.6495" lon="-1.58294">
        <ele>4.309868</ele>
        <time>2022-01-20T06:39:22.447Z</time>
      </trkpt>
      <trkpt lat="49.64952" lon="-1.58258">
        <ele>4.426395</ele>
        <time>2022-01-20T06:39:26.664Z</time>
      </trkpt>
      <trkpt lat="49.64953" lon="-1.58126">
        <ele>4.721508</ele>
        <time>2022-01-20T06:39:42.003Z</time>
      </trkpt>
      <trkpt lat="49.64953" lon="-1.5811">
        <ele>4.739129</ele>
        <time>2022-01-20T06:39:43.761Z</time>
      </trkpt>
      <trkpt lat="49.6495" lon="-1.58017">
        <ele>4.841098</ele>
        <time>2022-01-20T06:39:53.979Z</time>
      </trkpt>
      <trkpt lat="49.64947" lon="-1.57997">
        <ele>4.864067</ele>
        <time>2022-01-20T06:39:56.271Z</time>
      </trkpt>
      <trkpt lat="49.64946" lon="-1.57991">
        <ele>4.87094</ele>
        <time>2022-01-20T06:39:56.961Z</time>
      </trkpt>
      <trkpt lat="49.64943" lon="-1.57975">
        <ele>4.888432</ele>
        <time>2022-01-20T06:39:58.714Z</time>
      </trkpt>
      <trkpt lat="49.64939" lon="-1.5796">
        <ele>4.906896</ele>
        <time>2022-01-20T06:40:00.633Z</time>
      </trkpt>
      <trkpt lat="49.64931" lon="-1.57925">
        <ele>4.946463</ele>
        <time>2022-01-20T06:40:04.643Z</time>
      </trkpt>
      <trkpt lat="49.64919" lon="-1.57874">
        <ele>5.175377</ele>
        <time>2022-01-20T06:40:10.955Z</time>
      </trkpt>
      <trkpt lat="49.64894" lon="-1.57772">
        <ele>5.711877</ele>
        <time>2022-01-20T06:40:23.689Z</time>
      </trkpt>
      <trkpt lat="49.64883" lon="-1.57726">
        <ele>5.951229</ele>
        <time>2022-01-20T06:40:29.525Z</time>
      </trkpt>
      <trkpt lat="49.64877" lon="-1.577">
        <ele>6.086806</ele>
        <time>2022-01-20T06:40:32.960Z</time>
      </trkpt>
      <trkpt lat="49.64872" lon="-1.57674">
        <ele>6.220536</ele>
        <time>2022-01-20T06:40:36.382Z</time>
      </trkpt>
      <trkpt lat="49.64861" lon="-1.57616">
        <ele>6.901283</ele>
        <time>2022-01-20T06:40:44.124Z</time>
      </trkpt>
      <trkpt lat="49.64861" lon="-1.57608">
        <ele>7.017526</ele>
        <time>2022-01-20T06:40:45.147Z</time>
      </trkpt>
      <trkpt lat="49.64862" lon="-1.57593">
        <ele>7.242192</ele>
        <time>2022-01-20T06:40:47.115Z</time>
      </trkpt>
      <trkpt lat="49.64863" lon="-1.57581">
        <ele>7.417522</ele>
        <time>2022-01-20T06:40:48.641Z</time>
      </trkpt>
      <trkpt lat="49.64863" lon="-1.57559">
        <ele>7.740755</ele>
        <time>2022-01-20T06:40:51.471Z</time>
      </trkpt>
      <trkpt lat="49.64864" lon="-1.57476">
        <ele>8.964531</ele>
        <time>2022-01-20T06:41:02.388Z</time>
      </trkpt>
      <trkpt lat="49.64849" lon="-1.57474">
        <ele>9.317659</ele>
        <time>2022-01-20T06:41:05.849Z</time>
      </trkpt>
      <trkpt lat="49.64833" lon="-1.57462">
        <ele>9.707142</ele>
        <time>2022-01-20T06:41:09.525Z</time>
      </trkpt>
      <trkpt lat="49.64783" lon="-1.57382">
        <ele>12.146752</ele>
        <time>2022-01-20T06:41:25.629Z</time>
      </trkpt>
      <trkpt lat="49.64763" lon="-1.57337">
        <ele>13.646931</ele>
        <time>2022-01-20T06:41:33.719Z</time>
      </trkpt>
      <trkpt lat="49.64742" lon="-1.573">
        <ele>14.989239</ele>
        <time>2022-01-20T06:41:41.562Z</time>
      </trkpt>
      <trkpt lat="49.64716" lon="-1.57232">
        <ele>17.148017</ele>
        <time>2022-01-20T06:41:53.754Z</time>
      </trkpt>
      <trkpt lat="49.64701" lon="-1.57162">
        <ele>19.39373</ele>
        <time>2022-01-20T06:42:05.831Z</time>
      </trkpt>
      <trkpt lat="49.64683" lon="-1.57132">
        <ele>20.751053</ele>
        <time>2022-01-20T06:42:11.983Z</time>
      </trkpt>
      <trkpt lat="49.6468" lon="-1.57118">
        <ele>21.230451</ele>
        <time>2022-01-20T06:42:14.710Z</time>
      </trkpt>
      <trkpt lat="49.64699" lon="-1.57108">
        <ele>22.252906</ele>
        <time>2022-01-20T06:42:19.200Z</time>
      </trkpt>
      <trkpt lat="49.64702" lon="-1.57104">
        <ele>22.463481</ele>
        <time>2022-01-20T06:42:20.086Z</time>
      </trkpt>
      <trkpt lat="49.64704" lon="-1.57098">
        <ele>22.676078</ele>
        <time>2022-01-20T06:42:21.122Z</time>
      </trkpt>
      <trkpt lat="49.64709" lon="-1.57082">
        <ele>23.27051</ele>
        <time>2022-01-20T06:42:24.148Z</time>
      </trkpt>
      <trkpt lat="49.64712" lon="-1.5707">
        <ele>23.680898</ele>
        <time>2022-01-20T06:42:26.044Z</time>
      </trkpt>
      <trkpt lat="49.64722" lon="-1.57032">
        <ele>25.00963</ele>
        <time>2022-01-20T06:42:32.364Z</time>
      </trkpt>
      <trkpt lat="49.6476" lon="-1.56987">
        <ele>27.602959</ele>
        <time>2022-01-20T06:42:44.769Z</time>
      </trkpt>
      <trkpt lat="49.64787" lon="-1.56931">
        <ele>31.141591</ele>
        <time>2022-01-20T06:42:57.024Z</time>
      </trkpt>
      <trkpt lat="49.64793" lon="-1.56909">
        <ele>32.344572</ele>
        <time>2022-01-20T06:43:01.228Z</time>
      </trkpt>
      <trkpt lat="49.64805" lon="-1.56844">
        <ele>35.726093</ele>
        <time>2022-01-20T06:43:13.998Z</time>
      </trkpt>
      <trkpt lat="49.64807" lon="-1.56831">
        <ele>36.430519</ele>
        <time>2022-01-20T06:43:16.944Z</time>
      </trkpt>
      <trkpt lat="49.64806" lon="-1.56815">
        <ele>37.202032</ele>
        <time>2022-01-20T06:43:21.015Z</time>
      </trkpt>
      <trkpt lat="49.64824" lon="-1.56785">
        <ele>39.272888</ele>
        <time>2022-01-20T06:43:30.781Z</time>
      </trkpt>
      <trkpt lat="49.64832" lon="-1.56745">
        <ele>41.47692</ele>
        <time>2022-01-20T06:43:41.197Z</time>
      </trkpt>
      <trkpt lat="49.64824" lon="-1.56703">
        <ele>44.305377</ele>
        <time>2022-01-20T06:43:52.682Z</time>
      </trkpt>
      <trkpt lat="49.64787" lon="-1.5674">
        <ele>48.704685</ele>
        <time>2022-01-20T06:44:10.816Z</time>
      </trkpt>
      <trkpt lat="49.647" lon="-1.56662">
        <ele>58.84978</ele>
        <time>2022-01-20T06:44:52.464Z</time>
      </trkpt>
      <trkpt lat="49.64668" lon="-1.56575">
        <ele>63.350915</ele>
        <time>2022-01-20T06:45:16.784Z</time>
      </trkpt>
      <trkpt lat="49.64657" lon="-1.56546">
        <ele>64.80532</ele>
        <time>2022-01-20T06:45:24.280Z</time>
      </trkpt>
      <trkpt lat="49.64525" lon="-1.56483">
        <ele>72.430481</ele>
        <time>2022-01-20T06:46:07.535Z</time>
      </trkpt>
      <trkpt lat="49.64508" lon="-1.56465">
        <ele>72.970291</ele>
        <time>2022-01-20T06:46:11.934Z</time>
      </trkpt>
      <trkpt lat="49.64471" lon="-1.56473">
        <ele>73.932555</ele>
        <time>2022-01-20T06:46:19.661Z</time>
      </trkpt>
      <trkpt lat="49.64472" lon="-1.56439">
        <ele>74.498203</ele>
        <time>2022-01-20T06:46:25.869Z</time>
      </trkpt>
      <trkpt lat="49.64467" lon="-1.56419">
        <ele>74.868103</ele>
        <time>2022-01-20T06:46:29.927Z</time>
      </trkpt>
      <trkpt lat="49.64395" lon="-1.56303">
        <ele>76.269142</ele>
        <time>2022-01-20T06:46:59.375Z</time>
      </trkpt>
      <trkpt lat="49.64376" lon="-1.56262">
        <ele>76.401693</ele>
        <time>2022-01-20T06:47:08.613Z</time>
      </trkpt>
      <trkpt lat="49.64337" lon="-1.56146">
        <ele>76.744031</ele>
        <time>2022-01-20T06:47:32.207Z</time>
      </trkpt>
      <trkpt lat="49.64253" lon="-1.55866">
        <ele>75.447185</ele>
        <time>2022-01-20T06:48:27.746Z</time>
      </trkpt>
      <trkpt lat="49.64209" lon="-1.55704">
        <ele>75.732379</ele>
        <time>2022-01-20T06:48:59.636Z</time>
      </trkpt>
      <trkpt lat="49.64141" lon="-1.55514">
        <ele>79.033893</ele>
        <time>2022-01-20T06:49:39.702Z</time>
      </trkpt>
      <trkpt lat="49.6413" lon="-1.55485">
        <ele>79.818332</ele>
        <time>2022-01-20T06:49:46.489Z</time>
      </trkpt>
      <trkpt lat="49.64155" lon="-1.55395">
        <ele>82.030277</ele>
        <time>2022-01-20T06:50:01.670Z</time>
      </trkpt>
      <trkpt lat="49.64122" lon="-1.55334">
        <ele>84.777856</ele>
        <time>2022-01-20T06:50:17.884Z</time>
      </trkpt>
      <trkpt lat="49.6409" lon="-1.55284">
        <ele>87.284676</ele>
        <time>2022-01-20T06:50:32.802Z</time>
      </trkpt>
      <trkpt lat="49.6403" lon="-1.55209">
        <ele>91.59642</ele>
        <time>2022-01-20T06:50:57.644Z</time>
      </trkpt>
      <trkpt lat="49.63991" lon="-1.55171">
        <ele>93.798839</ele>
        <time>2022-01-20T06:51:11.961Z</time>
      </trkpt>
      <trkpt lat="49.63943" lon="-1.55126">
        <ele>96.42918</ele>
        <time>2022-01-20T06:51:29.206Z</time>
      </trkpt>
      <trkpt lat="49.63931" lon="-1.55103">
        <ele>97.330971</ele>
        <time>2022-01-20T06:51:35.133Z</time>
      </trkpt>
      <trkpt lat="49.63937" lon="-1.55035">
        <ele>99.393847</ele>
        <time>2022-01-20T06:51:48.555Z</time>
      </trkpt>
      <trkpt lat="49.63981" lon="-1.54936">
        <ele>102.15538</ele>
        <time>2022-01-20T06:52:11.579Z</time>
      </trkpt>
      <trkpt lat="49.63973" lon="-1.54842">
        <ele>104.038907</ele>
        <time>2022-01-20T06:52:29.500Z</time>
      </trkpt>
      <trkpt lat="49.63977" lon="-1.54816">
        <ele>104.563591</ele>
        <time>2022-01-20T06:52:34.410Z</time>
      </trkpt>
      <trkpt lat="49.63991" lon="-1.54778">
        <ele>105.420013</ele>
        <time>2022-01-20T06:52:42.429Z</time>
      </trkpt>
      <trkpt lat="49.63983" lon="-1.54765">
        <ele>105.753876</ele>
        <time>2022-01-20T06:52:44.687Z</time>
      </trkpt>
      <trkpt lat="49.63963" lon="-1.54747">
        <ele>106.26222</ele>
        <time>2022-01-20T06:52:49.476Z</time>
      </trkpt>
      <trkpt lat="49.63971" lon="-1.54728">
        <ele>106.517198</ele>
        <time>2022-01-20T06:52:52.399Z</time>
      </trkpt>
      <trkpt lat="49.63977" lon="-1.54714">
        <ele>106.704077</ele>
        <time>2022-01-20T06:52:54.555Z</time>
      </trkpt>
      <trkpt lat="49.63971" lon="-1.54656">
        <ele>107.378403</ele>
        <time>2022-01-20T06:53:05.524Z</time>
      </trkpt>
      <trkpt lat="49.63965" lon="-1.54594">
        <ele>108.081254</ele>
        <time>2022-01-20T06:53:16.943Z</time>
      </trkpt>
      <trkpt lat="49.63941" lon="-1.54482">
        <ele>109.245896</ele>
        <time>2022-01-20T06:53:38.571Z</time>
      </trkpt>
      <trkpt lat="49.63938" lon="-1.54451">
        <ele>109.384311</ele>
        <time>2022-01-20T06:53:44.324Z</time>
      </trkpt>
      <trkpt lat="49.63938" lon="-1.54236">
        <ele>110.336169</ele>
        <time>2022-01-20T06:54:23.677Z</time>
      </trkpt>
      <trkpt lat="49.63935" lon="-1.54218">
        <ele>110.255923</ele>
        <time>2022-01-20T06:54:27.080Z</time>
      </trkpt>
      <trkpt lat="49.63944" lon="-1.54196">
        <ele>110.023225</ele>
        <time>2022-01-20T06:54:29.825Z</time>
      </trkpt>
      <trkpt lat="49.63941" lon="-1.54174">
        <ele>109.82203</ele>
        <time>2022-01-20T06:54:33.875Z</time>
      </trkpt>
      <trkpt lat="49.63937" lon="-1.53943">
        <ele>107.680765</ele>
        <time>2022-01-20T06:55:13.229Z</time>
      </trkpt>
      <trkpt lat="49.63947" lon="-1.53679">
        <ele>104.15947</ele>
        <time>2022-01-20T06:55:57.150Z</time>
      </trkpt>
      <trkpt lat="49.63961" lon="-1.53602">
        <ele>104.254898</ele>
        <time>2022-01-20T06:56:11.372Z</time>
      </trkpt>
      <trkpt lat="49.63963" lon="-1.53565">
        <ele>104.300061</ele>
        <time>2022-01-20T06:56:18.165Z</time>
      </trkpt>
      <trkpt lat="49.63957" lon="-1.53486">
        <ele>104.395631</ele>
        <time>2022-01-20T06:56:32.691Z</time>
      </trkpt>
      <trkpt lat="49.63956" lon="-1.53315">
        <ele>105.312325</ele>
        <time>2022-01-20T06:57:04.085Z</time>
      </trkpt>
      <trkpt lat="49.63956" lon="-1.53269">
        <ele>105.726081</ele>
        <time>2022-01-20T06:57:12.500Z</time>
      </trkpt>
      <trkpt lat="49.63947" lon="-1.53139">
        <ele>106.91443</ele>
        <time>2022-01-20T06:57:36.599Z</time>
      </trkpt>
      <trkpt lat="49.63953" lon="-1.53043">
        <ele>106.832668</ele>
        <time>2022-01-20T06:57:54.259Z</time>
      </trkpt>
      <trkpt lat="49.6395" lon="-1.52826">
        <ele>106.130039</ele>
        <time>2022-01-20T06:58:33.544Z</time>
      </trkpt>
      <trkpt lat="49.6397" lon="-1.52722">
        <ele>104.800581</ele>
        <time>2022-01-20T06:58:51.574Z</time>
      </trkpt>
      <trkpt lat="49.63978" lon="-1.52614">
        <ele>103.45767</ele>
        <time>2022-01-20T06:59:09.581Z</time>
      </trkpt>
      <trkpt lat="49.63989" lon="-1.52562">
        <ele>102.941304</ele>
        <time>2022-01-20T06:59:18.804Z</time>
      </trkpt>
      <trkpt lat="49.63997" lon="-1.52544">
        <ele>102.85314</ele>
        <time>2022-01-20T06:59:22.328Z</time>
      </trkpt>
      <trkpt lat="49.64003" lon="-1.52528">
        <ele>102.779745</ele>
        <time>2022-01-20T06:59:24.296Z</time>
      </trkpt>
      <trkpt lat="49.6403" lon="-1.52476">
        <ele>102.507833</ele>
        <time>2022-01-20T06:59:31.499Z</time>
      </trkpt>
      <trkpt lat="49.6403" lon="-1.52467">
        <ele>102.470555</ele>
        <time>2022-01-20T06:59:32.487Z</time>
      </trkpt>
      <trkpt lat="49.64033" lon="-1.52416">
        <ele>102.260069</ele>
        <time>2022-01-20T06:59:38.226Z</time>
      </trkpt>
      <trkpt lat="49.64039" lon="-1.52393">
        <ele>102.161789</ele>
        <time>2022-01-20T06:59:40.855Z</time>
      </trkpt>
      <trkpt lat="49.64046" lon="-1.52375">
        <ele>102.076379</ele>
        <time>2022-01-20T06:59:43.414Z</time>
      </trkpt>
      <trkpt lat="49.64057" lon="-1.52341">
        <ele>101.91955</ele>
        <time>2022-01-20T06:59:47.952Z</time>
      </trkpt>
      <trkpt lat="49.64084" lon="-1.52216">
        <ele>103.461924</ele>
        <time>2022-01-20T07:00:05.349Z</time>
      </trkpt>
      <trkpt lat="49.64097" lon="-1.52135">
        <ele>104.523917</ele>
        <time>2022-01-20T07:00:16.972Z</time>
      </trkpt>
      <trkpt lat="49.641" lon="-1.52119">
        <ele>104.730114</ele>
        <time>2022-01-20T07:00:19.219Z</time>
      </trkpt>
      <trkpt lat="49.64113" lon="-1.52045">
        <ele>105.768096</ele>
        <time>2022-01-20T07:00:29.643Z</time>
      </trkpt>
      <trkpt lat="49.64117" lon="-1.52021">
        <ele>106.170443</ele>
        <time>2022-01-20T07:00:34.413Z</time>
      </trkpt>
      <trkpt lat="49.64141" lon="-1.51922">
        <ele>107.848495</ele>
        <time>2022-01-20T07:00:54.072Z</time>
      </trkpt>
      <trkpt lat="49.64189" lon="-1.51674">
        <ele>111.330096</ele>
        <time>2022-01-20T07:01:41.931Z</time>
      </trkpt>
      <trkpt lat="49.64259" lon="-1.5135">
        <ele>114.798763</ele>
        <time>2022-01-20T07:02:25.891Z</time>
      </trkpt>
      <trkpt lat="49.64267" lon="-1.51339">
        <ele>114.953897</ele>
        <time>2022-01-20T07:02:28.051Z</time>
      </trkpt>
      <trkpt lat="49.6427" lon="-1.51284">
        <ele>115.47174</ele>
        <time>2022-01-20T07:02:35.174Z</time>
      </trkpt>
      <trkpt lat="49.64281" lon="-1.5124">
        <ele>116.117267</ele>
        <time>2022-01-20T07:02:44.034Z</time>
      </trkpt>
      <trkpt lat="49.64328" lon="-1.5105">
        <ele>118.994428</ele>
        <time>2022-01-20T07:03:21.501Z</time>
      </trkpt>
      <trkpt lat="49.64364" lon="-1.50954">
        <ele>120.621915</ele>
        <time>2022-01-20T07:03:42.077Z</time>
      </trkpt>
      <trkpt lat="49.64378" lon="-1.50857">
        <ele>122.087296</ele>
        <time>2022-01-20T07:04:00.410Z</time>
      </trkpt>
      <trkpt lat="49.6439" lon="-1.5083">
        <ele>122.581163</ele>
        <time>2022-01-20T07:04:06.571Z</time>
      </trkpt>
      <trkpt lat="49.64369" lon="-1.50804">
        <ele>123.198234</ele>
        <time>2022-01-20T07:04:12.118Z</time>
      </trkpt>
      <trkpt lat="49.64379" lon="-1.50761">
        <ele>123.924161</ele>
        <time>2022-01-20T07:04:20.539Z</time>
      </trkpt>
      <trkpt lat="49.64457" lon="-1.50526">
        <ele>128.615874</ele>
        <time>2022-01-20T07:05:09.837Z</time>
      </trkpt>
      <trkpt lat="49.64466" lon="-1.50481">
        <ele>129.632219</ele>
        <time>2022-01-20T07:05:18.574Z</time>
      </trkpt>
      <trkpt lat="49.64466" lon="-1.50461">
        <ele>130.078813</ele>
        <time>2022-01-20T07:05:22.428Z</time>
      </trkpt>
      <trkpt lat="49.64456" lon="-1.50418">
        <ele>131.068019</ele>
        <time>2022-01-20T07:05:30.989Z</time>
      </trkpt>
      <trkpt lat="49.64462" lon="-1.50368">
        <ele>132.190065</ele>
        <time>2022-01-20T07:05:40.732Z</time>
      </trkpt>
      <trkpt lat="49.64469" lon="-1.50214">
        <ele>135.747246</ele>
        <time>2022-01-20T07:06:10.119Z</time>
      </trkpt>
      <trkpt lat="49.64453" lon="-1.50003">
        <ele>141.283597</ele>
        <time>2022-01-20T07:06:51.239Z</time>
      </trkpt>
      <trkpt lat="49.64456" lon="-1.49863">
        <ele>143.758828</ele>
        <time>2022-01-20T07:07:18.374Z</time>
      </trkpt>
      <trkpt lat="49.64469" lon="-1.4968">
        <ele>146.044006</ele>
        <time>2022-01-20T07:07:42.667Z</time>
      </trkpt>
      <trkpt lat="49.64494" lon="-1.49669">
        <ele>145.599217</ele>
        <time>2022-01-20T07:07:50.088Z</time>
      </trkpt>
      <trkpt lat="49.64527" lon="-1.4966">
        <ele>145.041022</ele>
        <time>2022-01-20T07:07:59.132Z</time>
      </trkpt>
      <trkpt lat="49.64561" lon="-1.49666">
        <ele>144.4549</ele>
        <time>2022-01-20T07:08:08.186Z</time>
      </trkpt>
      <trkpt lat="49.64596" lon="-1.49695">
        <ele>143.798397</ele>
        <time>2022-01-20T07:08:17.858Z</time>
      </trkpt>
      <trkpt lat="49.64611" lon="-1.49718">
        <ele>143.434106</ele>
        <time>2022-01-20T07:08:23.087Z</time>
      </trkpt>
      <trkpt lat="49.64632" lon="-1.49725">
        <ele>142.787829</ele>
        <time>2022-01-20T07:08:28.099Z</time>
      </trkpt>
      <trkpt lat="49.6466" lon="-1.49674">
        <ele>141.110795</ele>
        <time>2022-01-20T07:08:38.614Z</time>
      </trkpt>
      <trkpt lat="49.64653" lon="-1.49661">
        <ele>140.684182</ele>
        <time>2022-01-20T07:08:41.284Z</time>
      </trkpt>
      <trkpt lat="49.64693" lon="-1.49599">
        <ele>138.512861</ele>
        <time>2022-01-20T07:08:54.616Z</time>
      </trkpt>
      <trkpt lat="49.64675" lon="-1.49533">
        <ele>136.717833</ele>
        <time>2022-01-20T07:09:05.660Z</time>
      </trkpt>
      <trkpt lat="49.64675" lon="-1.49519">
        <ele>136.368605</ele>
        <time>2022-01-20T07:09:07.768Z</time>
      </trkpt>
      <trkpt lat="49.64695" lon="-1.49483">
        <ele>135.269182</ele>
        <time>2022-01-20T07:09:14.856Z</time>
      </trkpt>
      <trkpt lat="49.64698" lon="-1.49471">
        <ele>134.955042</ele>
        <time>2022-01-20T07:09:16.900Z</time>
      </trkpt>
      <trkpt lat="49.64808" lon="-1.49408">
        <ele>130.716724</ele>
        <time>2022-01-20T07:09:33.435Z</time>
      </trkpt>
      <trkpt lat="49.64821" lon="-1.49391">
        <ele>130.099167</ele>
        <time>2022-01-20T07:09:35.861Z</time>
      </trkpt>
      <trkpt lat="49.64818" lon="-1.49381">
        <ele>129.841817</ele>
        <time>2022-01-20T07:09:37.644Z</time>
      </trkpt>
      <trkpt lat="49.64818" lon="-1.49359">
        <ele>129.594262</ele>
        <time>2022-01-20T07:09:41.269Z</time>
      </trkpt>
      <trkpt lat="49.64834" lon="-1.49264">
        <ele>128.513591</ele>
        <time>2022-01-20T07:09:57.578Z</time>
      </trkpt>
      <trkpt lat="49.6486" lon="-1.49178">
        <ele>127.464554</ele>
        <time>2022-01-20T07:10:13.996Z</time>
      </trkpt>
      <trkpt lat="49.64904" lon="-1.49032">
        <ele>126.435869</ele>
        <time>2022-01-20T07:10:43.157Z</time>
      </trkpt>
      <trkpt lat="49.64914" lon="-1.48976">
        <ele>126.235055</ele>
        <time>2022-01-20T07:10:53.728Z</time>
      </trkpt>
      <trkpt lat="49.64925" lon="-1.48945">
        <ele>126.113774</ele>
        <time>2022-01-20T07:11:00.132Z</time>
      </trkpt>
      <trkpt lat="49.65" lon="-1.48929">
        <ele>125.673597</ele>
        <time>2022-01-20T07:11:21.230Z</time>
      </trkpt>
      <trkpt lat="49.65032" lon="-1.48931">
        <ele>125.439146</ele>
        <time>2022-01-20T07:11:30.183Z</time>
      </trkpt>
      <trkpt lat="49.65055" lon="-1.48924">
        <ele>125.269624</ele>
        <time>2022-01-20T07:11:36.628Z</time>
      </trkpt>
      <trkpt lat="49.65146" lon="-1.49101">
        <ele>125.027472</ele>
        <time>2022-01-20T07:12:00.401Z</time>
      </trkpt>
      <trkpt lat="49.65178" lon="-1.49135">
        <ele>125.514466</ele>
        <time>2022-01-20T07:12:07.177Z</time>
      </trkpt>
      <trkpt lat="49.65206" lon="-1.49146">
        <ele>125.868356</ele>
        <time>2022-01-20T07:12:12.954Z</time>
      </trkpt>
      <trkpt lat="49.65321" lon="-1.49115">
        <ele>128.039727</ele>
        <time>2022-01-20T07:12:37.433Z</time>
      </trkpt>
      <trkpt lat="49.65327" lon="-1.49111">
        <ele>128.239669</ele>
        <time>2022-01-20T07:12:39.267Z</time>
      </trkpt>
      <trkpt lat="49.65344" lon="-1.491">
        <ele>128.762982</ele>
        <time>2022-01-20T07:12:43.189Z</time>
      </trkpt>
      <trkpt lat="49.65381" lon="-1.4905">
        <ele>130.150145</ele>
        <time>2022-01-20T07:12:53.887Z</time>
      </trkpt>
      <trkpt lat="49.65481" lon="-1.48911">
        <ele>132.416862</ele>
        <time>2022-01-20T07:13:21.706Z</time>
      </trkpt>
      <trkpt lat="49.65494" lon="-1.48886">
        <ele>132.580137</ele>
        <time>2022-01-20T07:13:25.478Z</time>
      </trkpt>
      <trkpt lat="49.655" lon="-1.48852">
        <ele>132.765296</ele>
        <time>2022-01-20T07:13:29.633Z</time>
      </trkpt>
      <trkpt lat="49.65503" lon="-1.48802">
        <ele>133.021342</ele>
        <time>2022-01-20T07:13:35.163Z</time>
      </trkpt>
      <trkpt lat="49.65462" lon="-1.48458">
        <ele>129.895826</ele>
        <time>2022-01-20T07:14:09.373Z</time>
      </trkpt>
      <trkpt lat="49.65466" lon="-1.48433">
        <ele>129.572407</ele>
        <time>2022-01-20T07:14:11.569Z</time>
      </trkpt>
      <trkpt lat="49.65477" lon="-1.48412">
        <ele>129.226852</ele>
        <time>2022-01-20T07:14:13.959Z</time>
      </trkpt>
      <trkpt lat="49.65495" lon="-1.48395">
        <ele>128.822697</ele>
        <time>2022-01-20T07:14:16.802Z</time>
      </trkpt>
      <trkpt lat="49.65504" lon="-1.48395">
        <ele>128.64359</ele>
        <time>2022-01-20T07:14:18.065Z</time>
      </trkpt>
      <trkpt lat="49.65601" lon="-1.48402">
        <ele>126.721106</ele>
        <time>2022-01-20T07:14:32.639Z</time>
      </trkpt>
      <trkpt lat="49.65611" lon="-1.48401">
        <ele>126.778426</ele>
        <time>2022-01-20T07:14:34.084Z</time>
      </trkpt>
      <trkpt lat="49.65575" lon="-1.48325">
        <ele>127.212317</ele>
        <time>2022-01-20T07:14:51.082Z</time>
      </trkpt>
      <trkpt lat="49.65543" lon="-1.48273">
        <ele>127.541765</ele>
        <time>2022-01-20T07:15:04.135Z</time>
      </trkpt>
      <trkpt lat="49.65449" lon="-1.48191">
        <ele>128.857281</ele>
        <time>2022-01-20T07:15:35.109Z</time>
      </trkpt>
      <trkpt lat="49.65436" lon="-1.48157">
        <ele>129.353315</ele>
        <time>2022-01-20T07:15:42.374Z</time>
      </trkpt>
      <trkpt lat="49.65439" lon="-1.48071">
        <ele>130.432118</ele>
        <time>2022-01-20T07:15:58.179Z</time>
      </trkpt>
      <trkpt lat="49.65427" lon="-1.47951">
        <ele>131.747134</ele>
        <time>2022-01-20T07:16:20.529Z</time>
      </trkpt>
      <trkpt lat="49.65435" lon="-1.47911">
        <ele>132.028467</ele>
        <time>2022-01-20T07:16:28.103Z</time>
      </trkpt>
      <trkpt lat="49.65446" lon="-1.47875">
        <ele>132.299912</ele>
        <time>2022-01-20T07:16:35.404Z</time>
      </trkpt>
      <trkpt lat="49.65409" lon="-1.47829">
        <ele>132.792836</ele>
        <time>2022-01-20T07:16:44.630Z</time>
      </trkpt>
      <trkpt lat="49.65334" lon="-1.47537">
        <ele>133.829084</ele>
        <time>2022-01-20T07:17:22.918Z</time>
      </trkpt>
      <trkpt lat="49.65323" lon="-1.47435">
        <ele>133.616704</ele>
        <time>2022-01-20T07:17:34.368Z</time>
      </trkpt>
      <trkpt lat="49.6536" lon="-1.47343">
        <ele>132.977184</ele>
        <time>2022-01-20T07:17:53.773Z</time>
      </trkpt>
      <trkpt lat="49.65412" lon="-1.47273">
        <ele>132.343726</ele>
        <time>2022-01-20T07:18:12.541Z</time>
      </trkpt>
      <trkpt lat="49.65488" lon="-1.47191">
        <ele>131.108918</ele>
        <time>2022-01-20T07:18:37.364Z</time>
      </trkpt>
      <trkpt lat="49.65585" lon="-1.4709">
        <ele>129.692186</ele>
        <time>2022-01-20T07:19:08.874Z</time>
      </trkpt>
      <trkpt lat="49.65594" lon="-1.47078">
        <ele>129.626513</ele>
        <time>2022-01-20T07:19:10.801Z</time>
      </trkpt>
      <trkpt lat="49.65625" lon="-1.47036">
        <ele>129.397694</ele>
        <time>2022-01-20T07:19:17.835Z</time>
      </trkpt>
      <trkpt lat="49.65633" lon="-1.46983">
        <ele>129.201754</ele>
        <time>2022-01-20T07:19:23.900Z</time>
      </trkpt>
      <trkpt lat="49.6564" lon="-1.46908">
        <ele>128.927768</ele>
        <time>2022-01-20T07:19:32.520Z</time>
      </trkpt>
      <trkpt lat="49.65646" lon="-1.46896">
        <ele>128.874723</ele>
        <time>2022-01-20T07:19:34.181Z</time>
      </trkpt>
      <trkpt lat="49.65668" lon="-1.46882">
        <ele>128.947501</ele>
        <time>2022-01-20T07:19:40.762Z</time>
      </trkpt>
      <trkpt lat="49.65696" lon="-1.46878">
        <ele>129.200793</ele>
        <time>2022-01-20T07:19:48.772Z</time>
      </trkpt>
      <trkpt lat="49.65782" lon="-1.4692">
        <ele>130.002858</ele>
        <time>2022-01-20T07:20:14.296Z</time>
      </trkpt>
      <trkpt lat="49.65792" lon="-1.46951">
        <ele>130.204281</ele>
        <time>2022-01-20T07:20:20.757Z</time>
      </trkpt>
      <trkpt lat="49.65836" lon="-1.47001">
        <ele>130.914413</ele>
        <time>2022-01-20T07:20:36.105Z</time>
      </trkpt>
      <trkpt lat="49.65862" lon="-1.46962">
        <ele>131.516462</ele>
        <time>2022-01-20T07:20:46.395Z</time>
      </trkpt>
      <trkpt lat="49.6587" lon="-1.46952">
        <ele>131.69075</ele>
        <time>2022-01-20T07:20:49.406Z</time>
      </trkpt>
      <trkpt lat="49.65871" lon="-1.46924">
        <ele>131.990614</ele>
        <time>2022-01-20T07:20:54.531Z</time>
      </trkpt>
      <trkpt lat="49.65866" lon="-1.46902">
        <ele>132.246983</ele>
        <time>2022-01-20T07:20:58.944Z</time>
      </trkpt>
      <trkpt lat="49.65871" lon="-1.46867">
        <ele>132.625551</ele>
        <time>2022-01-20T07:21:05.417Z</time>
      </trkpt>
      <trkpt lat="49.65867" lon="-1.46847">
        <ele>132.85279</ele>
        <time>2022-01-20T07:21:09.319Z</time>
      </trkpt>
      <trkpt lat="49.65886" lon="-1.468">
        <ele>133.415984</ele>
        <time>2022-01-20T07:21:19.536Z</time>
      </trkpt>
      <trkpt lat="49.65895" lon="-1.46752">
        <ele>133.504512</ele>
        <time>2022-01-20T07:21:28.841Z</time>
      </trkpt>
      <trkpt lat="49.65911" lon="-1.46733">
        <ele>133.559012</ele>
        <time>2022-01-20T07:21:34.535Z</time>
      </trkpt>
      <trkpt lat="49.65921" lon="-1.46721">
        <ele>133.593837</ele>
        <time>2022-01-20T07:21:38.182Z</time>
      </trkpt>
      <trkpt lat="49.65913" lon="-1.46705">
        <ele>133.629029</ele>
        <time>2022-01-20T07:21:41.830Z</time>
      </trkpt>
      <trkpt lat="49.6594" lon="-1.46669">
        <ele>133.724472</ele>
        <time>2022-01-20T07:21:51.705Z</time>
      </trkpt>
      <trkpt lat="49.65962" lon="-1.46653">
        <ele>133.790924</ele>
        <time>2022-01-20T07:21:58.557Z</time>
      </trkpt>
      <trkpt lat="49.6599" lon="-1.46615">
        <ele>133.890469</ele>
        <time>2022-01-20T07:22:08.904Z</time>
      </trkpt>
      <trkpt lat="49.65997" lon="-1.46551">
        <ele>133.338674</ele>
        <time>2022-01-20T07:22:20.564Z</time>
      </trkpt>
      <trkpt lat="49.66023" lon="-1.46557">
        <ele>132.977511</ele>
        <time>2022-01-20T07:22:24.877Z</time>
      </trkpt>
      <trkpt lat="49.66039" lon="-1.46553">
        <ele>132.7549</ele>
        <time>2022-01-20T07:22:29.105Z</time>
      </trkpt>
      <trkpt lat="49.66098" lon="-1.46428">
        <ele>131.382062</ele>
        <time>2022-01-20T07:22:55.803Z</time>
      </trkpt>
      <trkpt lat="49.66117" lon="-1.46405">
        <ele>131.079483</ele>
        <time>2022-01-20T07:23:02.076Z</time>
      </trkpt>
      <trkpt lat="49.6613" lon="-1.46357">
        <ele>130.634384</ele>
        <time>2022-01-20T07:23:11.213Z</time>
      </trkpt>
      <trkpt lat="49.66141" lon="-1.46341">
        <ele>130.441706</ele>
        <time>2022-01-20T07:23:15.205Z</time>
      </trkpt>
      <trkpt lat="49.66204" lon="-1.46258">
        <ele>129.363537</ele>
        <time>2022-01-20T07:23:37.664Z</time>
      </trkpt>
      <trkpt lat="49.66223" lon="-1.46251">
        <ele>129.103078</ele>
        <time>2022-01-20T07:23:43.154Z</time>
      </trkpt>
      <trkpt lat="49.66233" lon="-1.4623">
        <ele>128.933368</ele>
        <time>2022-01-20T07:23:47.544Z</time>
      </trkpt>
      <trkpt lat="49.66253" lon="-1.46221">
        <ele>128.70729</ele>
        <time>2022-01-20T07:23:53.592Z</time>
      </trkpt>
      <trkpt lat="49.6631" lon="-1.4617">
        <ele>128.024231</ele>
        <time>2022-01-20T07:24:11.724Z</time>
      </trkpt>
      <trkpt lat="49.66351" lon="-1.46123">
        <ele>127.497563</ele>
        <time>2022-01-20T07:24:25.684Z</time>
      </trkpt>
      <trkpt lat="49.66384" lon="-1.46089">
        <ele>127.024307</ele>
        <time>2022-01-20T07:24:36.725Z</time>
      </trkpt>
      <trkpt lat="49.66417" lon="-1.46052">
        <ele>126.435964</ele>
        <time>2022-01-20T07:24:47.713Z</time>
      </trkpt>
      <trkpt lat="49.66485" lon="-1.45971">
        <ele>125.170203</ele>
        <time>2022-01-20T07:25:11.061Z</time>
      </trkpt>
      <trkpt lat="49.66553" lon="-1.45925">
        <ele>123.842487</ele>
        <time>2022-01-20T07:25:30.186Z</time>
      </trkpt>
      <trkpt lat="49.66592" lon="-1.45886">
        <ele>122.827792</ele>
        <time>2022-01-20T07:25:42.316Z</time>
      </trkpt>
      <trkpt lat="49.66635" lon="-1.45854">
        <ele>121.788378</ele>
        <time>2022-01-20T07:25:54.888Z</time>
      </trkpt>
      <trkpt lat="49.66655" lon="-1.45843">
        <ele>121.323145</ele>
        <time>2022-01-20T07:26:00.463Z</time>
      </trkpt>
      <trkpt lat="49.66678" lon="-1.45833">
        <ele>120.821395</ele>
        <time>2022-01-20T07:26:06.225Z</time>
      </trkpt>
      <trkpt lat="49.66721" lon="-1.45831">
        <ele>119.253884</ele>
        <time>2022-01-20T07:26:17.229Z</time>
      </trkpt>
      <trkpt lat="49.66731" lon="-1.4584">
        <ele>118.823908</ele>
        <time>2022-01-20T07:26:19.871Z</time>
      </trkpt>
      <trkpt lat="49.6674" lon="-1.45887">
        <ele>117.598381</ele>
        <time>2022-01-20T07:26:27.731Z</time>
      </trkpt>
      <trkpt lat="49.66747" lon="-1.45939">
        <ele>116.275937</ele>
        <time>2022-01-20T07:26:36.025Z</time>
      </trkpt>
      <trkpt lat="49.66753" lon="-1.45938">
        <ele>116.037097</ele>
        <time>2022-01-20T07:26:37.385Z</time>
      </trkpt>
      <trkpt lat="49.66822" lon="-1.45932">
        <ele>113.112527</ele>
        <time>2022-01-20T07:26:53.562Z</time>
      </trkpt>
      <trkpt lat="49.66886" lon="-1.45913">
        <ele>108.701418</ele>
        <time>2022-01-20T07:27:08.177Z</time>
      </trkpt>
      <trkpt lat="49.67025" lon="-1.45891">
        <ele>99.093591</ele>
        <time>2022-01-20T07:27:38.064Z</time>
      </trkpt>
      <trkpt lat="49.67069" lon="-1.45888">
        <ele>95.928882</ele>
        <time>2022-01-20T07:27:47.628Z</time>
      </trkpt>
      <trkpt lat="49.67066" lon="-1.45851">
        <ele>94.21523</ele>
        <time>2022-01-20T07:27:52.706Z</time>
      </trkpt>
      <trkpt lat="49.67076" lon="-1.45744">
        <ele>89.154709</ele>
        <time>2022-01-20T07:28:07.943Z</time>
      </trkpt>
      <trkpt lat="49.67076" lon="-1.45652">
        <ele>85.908174</ele>
        <time>2022-01-20T07:28:21.358Z</time>
      </trkpt>
      <trkpt lat="49.67076" lon="-1.4565">
        <ele>85.851301</ele>
        <time>2022-01-20T07:28:21.561Z</time>
      </trkpt>
      <trkpt lat="49.671" lon="-1.45649">
        <ele>84.620098</ele>
        <time>2022-01-20T07:28:24.609Z</time>
      </trkpt>
      <trkpt lat="49.67142" lon="-1.45665">
        <ele>82.353824</ele>
        <time>2022-01-20T07:28:30.342Z</time>
      </trkpt>
      <trkpt lat="49.67184" lon="-1.45669">
        <ele>80.188018</ele>
        <time>2022-01-20T07:28:35.650Z</time>
      </trkpt>
      <trkpt lat="49.67246" lon="-1.45648">
        <ele>77.804976</ele>
        <time>2022-01-20T07:28:43.851Z</time>
      </trkpt>
      <trkpt lat="49.67295" lon="-1.45603">
        <ele>76.003642</ele>
        <time>2022-01-20T07:28:51.603Z</time>
      </trkpt>
      <trkpt lat="49.67327" lon="-1.45587">
        <ele>74.911216</ele>
        <time>2022-01-20T07:28:56.385Z</time>
      </trkpt>
      <trkpt lat="49.67339" lon="-1.45576">
        <ele>74.453108</ele>
        <time>2022-01-20T07:28:58.412Z</time>
      </trkpt>
      <trkpt lat="49.67354" lon="-1.45546">
        <ele>73.673111</ele>
        <time>2022-01-20T07:29:01.922Z</time>
      </trkpt>
      <trkpt lat="49.67383" lon="-1.45462">
        <ele>72.626813</ele>
        <time>2022-01-20T07:29:10.993Z</time>
      </trkpt>
      <trkpt lat="49.67405" lon="-1.45442">
        <ele>72.22348</ele>
        <time>2022-01-20T07:29:14.839Z</time>
      </trkpt>
      <trkpt lat="49.67606" lon="-1.45437">
        <ele>69.059831</ele>
        <time>2022-01-20T07:29:46.139Z</time>
      </trkpt>
      <trkpt lat="49.67684" lon="-1.45426">
        <ele>67.810933</ele>
        <time>2022-01-20T07:29:57.729Z</time>
      </trkpt>
      <trkpt lat="49.67685" lon="-1.4542">
        <ele>67.706206</ele>
        <time>2022-01-20T07:29:58.653Z</time>
      </trkpt>
      <trkpt lat="49.67681" lon="-1.45402">
        <ele>67.396536</ele>
        <time>2022-01-20T07:30:01.987Z</time>
      </trkpt>
      <trkpt lat="49.67686" lon="-1.45349">
        <ele>66.540346</ele>
        <time>2022-01-20T07:30:10.865Z</time>
      </trkpt>
      <trkpt lat="49.67714" lon="-1.45231">
        <ele>64.51708</ele>
        <time>2022-01-20T07:30:31.724Z</time>
      </trkpt>
      <trkpt lat="49.67819" lon="-1.45008">
        <ele>58.226292</ele>
        <time>2022-01-20T07:31:15.990Z</time>
      </trkpt>
      <trkpt lat="49.67845" lon="-1.45004">
        <ele>57.224893</ele>
        <time>2022-01-20T07:31:21.783Z</time>
      </trkpt>
      <trkpt lat="49.67844" lon="-1.45003">
        <ele>57.175442</ele>
        <time>2022-01-20T07:31:22.054Z</time>
      </trkpt>
      <trkpt lat="49.67832" lon="-1.45001">
        <ele>56.723938</ele>
        <time>2022-01-20T07:31:24.628Z</time>
      </trkpt>
      <trkpt lat="49.67787" lon="-1.44978">
        <ele>54.871651</ele>
        <time>2022-01-20T07:31:35.119Z</time>
      </trkpt>
      <trkpt lat="49.67741" lon="-1.44942">
        <ele>52.834666</ele>
        <time>2022-01-20T07:31:47.180Z</time>
      </trkpt>
      <trkpt lat="49.67691" lon="-1.44873">
        <ele>50.216977</ele>
        <time>2022-01-20T07:32:03.634Z</time>
      </trkpt>
      <trkpt lat="49.67666" lon="-1.44836">
        <ele>49.603622</ele>
        <time>2022-01-20T07:32:27.429Z</time>
      </trkpt>
      <trkpt lat="49.67646" lon="-1.44806">
        <ele>50.045428</ele>
        <time>2022-01-20T07:32:47.112Z</time>
      </trkpt>
      <trkpt lat="49.67578" lon="-1.44706">
        <ele>51.508583</ele>
        <time>2022-01-20T07:33:52.325Z</time>
      </trkpt>
      <trkpt lat="49.67545" lon="-1.44665">
        <ele>52.162844</ele>
        <time>2022-01-20T07:34:21.514Z</time>
      </trkpt>
      <trkpt lat="49.67508" lon="-1.44614">
        <ele>52.998997</ele>
        <time>2022-01-20T07:34:35.968Z</time>
      </trkpt>
      <trkpt lat="49.67492" lon="-1.44594">
        <ele>53.341471</ele>
        <time>2022-01-20T07:34:41.824Z</time>
      </trkpt>
      <trkpt lat="49.67457" lon="-1.44559">
        <ele>54.02477</ele>
        <time>2022-01-20T07:34:53.440Z</time>
      </trkpt>
      <trkpt lat="49.67372" lon="-1.44521">
        <ele>55.270226</ele>
        <time>2022-01-20T07:35:18.580Z</time>
      </trkpt>
      <trkpt lat="49.67321" lon="-1.44479">
        <ele>55.46589</ele>
        <time>2022-01-20T07:35:34.550Z</time>
      </trkpt>
      <trkpt lat="49.67246" lon="-1.44399">
        <ele>55.77951</ele>
        <time>2022-01-20T07:36:00.116Z</time>
      </trkpt>
      <trkpt lat="49.67203" lon="-1.4434">
        <ele>57.197709</ele>
        <time>2022-01-20T07:36:16.305Z</time>
      </trkpt>
      <trkpt lat="49.67152" lon="-1.44235">
        <ele>59.827912</ele>
        <time>2022-01-20T07:36:40.991Z</time>
      </trkpt>
      <trkpt lat="49.67138" lon="-1.44191">
        <ele>60.807017</ele>
        <time>2022-01-20T07:36:50.413Z</time>
      </trkpt>
      <trkpt lat="49.67145" lon="-1.44183">
        <ele>61.0986</ele>
        <time>2022-01-20T07:36:53.883Z</time>
      </trkpt>
      <trkpt lat="49.67125" lon="-1.44136">
        <ele>62.955973</ele>
        <time>2022-01-20T07:37:05.285Z</time>
      </trkpt>
      <trkpt lat="49.6713" lon="-1.44117">
        <ele>63.699029</ele>
        <time>2022-01-20T07:37:09.186Z</time>
      </trkpt>
      <trkpt lat="49.67221" lon="-1.44094">
        <ele>69.021836</ele>
        <time>2022-01-20T07:37:40.043Z</time>
      </trkpt>
      <trkpt lat="49.67328" lon="-1.44114">
        <ele>73.764878</ele>
        <time>2022-01-20T07:38:14.258Z</time>
      </trkpt>
      <trkpt lat="49.67338" lon="-1.44108">
        <ele>74.125354</ele>
        <time>2022-01-20T07:38:17.464Z</time>
      </trkpt>
      <trkpt lat="49.6734" lon="-1.44062">
        <ele>75.121423</ele>
        <time>2022-01-20T07:38:26.120Z</time>
      </trkpt>
      <trkpt lat="49.67338" lon="-1.4404">
        <ele>75.606812</ele>
        <time>2022-01-20T07:38:30.355Z</time>
      </trkpt>
      <trkpt lat="49.67334" lon="-1.44">
        <ele>76.470867</ele>
        <time>2022-01-20T07:38:37.651Z</time>
      </trkpt>
      <trkpt lat="49.67335" lon="-1.43942">
        <ele>77.732593</ele>
        <time>2022-01-20T07:38:48.310Z</time>
      </trkpt>
      <trkpt lat="49.6733" lon="-1.43904">
        <ele>77.600045</ele>
        <time>2022-01-20T07:38:55.446Z</time>
      </trkpt>
      <trkpt lat="49.67272" lon="-1.43835">
        <ele>77.062297</ele>
        <time>2022-01-20T07:39:15.896Z</time>
      </trkpt>
      <trkpt lat="49.67231" lon="-1.438">
        <ele>76.715153</ele>
        <time>2022-01-20T07:39:28.342Z</time>
      </trkpt>
      <trkpt lat="49.67194" lon="-1.43712">
        <ele>76.229354</ele>
        <time>2022-01-20T07:39:46.128Z</time>
      </trkpt>
      <trkpt lat="49.67178" lon="-1.43618">
        <ele>75.791892</ele>
        <time>2022-01-20T07:40:03.461Z</time>
      </trkpt>
      <trkpt lat="49.67178" lon="-1.43583">
        <ele>75.632896</ele>
        <time>2022-01-20T07:40:09.850Z</time>
      </trkpt>
      <trkpt lat="49.67186" lon="-1.43494">
        <ele>75.224719</ele>
        <time>2022-01-20T07:40:26.191Z</time>
      </trkpt>
      <trkpt lat="49.67189" lon="-1.43421">
        <ele>75.369799</ele>
        <time>2022-01-20T07:40:39.486Z</time>
      </trkpt>
      <trkpt lat="49.67192" lon="-1.43395">
        <ele>75.437503</ele>
        <time>2022-01-20T07:40:44.263Z</time>
      </trkpt>
      <trkpt lat="49.67175" lon="-1.43243">
        <ele>75.83646</ele>
        <time>2022-01-20T07:41:12.442Z</time>
      </trkpt>
      <trkpt lat="49.67091" lon="-1.43122">
        <ele>75.505678</ele>
        <time>2022-01-20T07:41:44.571Z</time>
      </trkpt>
      <trkpt lat="49.6706" lon="-1.43122">
        <ele>75.368062</ele>
        <time>2022-01-20T07:41:53.415Z</time>
      </trkpt>
      <trkpt lat="49.67061" lon="-1.43108">
        <ele>75.327372</ele>
        <time>2022-01-20T07:41:55.041Z</time>
      </trkpt>
      <trkpt lat="49.67061" lon="-1.43063">
        <ele>75.202047</ele>
        <time>2022-01-20T07:41:59.901Z</time>
      </trkpt>
      <trkpt lat="49.67067" lon="-1.43018">
        <ele>75.053415</ele>
        <time>2022-01-20T07:42:04.939Z</time>
      </trkpt>
      <trkpt lat="49.67087" lon="-1.42954">
        <ele>74.800309</ele>
        <time>2022-01-20T07:42:12.558Z</time>
      </trkpt>
      <trkpt lat="49.67189" lon="-1.42764">
        <ele>74.264917</ele>
        <time>2022-01-20T07:42:40.092Z</time>
      </trkpt>
      <trkpt lat="49.67256" lon="-1.42675">
        <ele>74.542721</ele>
        <time>2022-01-20T07:42:56.543Z</time>
      </trkpt>
      <trkpt lat="49.6726" lon="-1.42649">
        <ele>74.596719</ele>
        <time>2022-01-20T07:42:59.788Z</time>
      </trkpt>
      <trkpt lat="49.67245" lon="-1.42584">
        <ele>74.777682</ele>
        <time>2022-01-20T07:43:08.378Z</time>
      </trkpt>
      <trkpt lat="49.67277" lon="-1.42556">
        <ele>75.032692</ele>
        <time>2022-01-20T07:43:15.530Z</time>
      </trkpt>
      <trkpt lat="49.67302" lon="-1.42498">
        <ele>75.342093</ele>
        <time>2022-01-20T07:43:24.228Z</time>
      </trkpt>
      <trkpt lat="49.67416" lon="-1.42416">
        <ele>75.966657</ele>
        <time>2022-01-20T07:43:47.986Z</time>
      </trkpt>
      <trkpt lat="49.67433" lon="-1.42386">
        <ele>75.98107</ele>
        <time>2022-01-20T07:43:52.654Z</time>
      </trkpt>
      <trkpt lat="49.67444" lon="-1.42367">
        <ele>75.990025</ele>
        <time>2022-01-20T07:43:55.510Z</time>
      </trkpt>
      <trkpt lat="49.67449" lon="-1.42343">
        <ele>75.999262</ele>
        <time>2022-01-20T07:43:58.434Z</time>
      </trkpt>
      <trkpt lat="49.67455" lon="-1.42293">
        <ele>76.017168</ele>
        <time>2022-01-20T07:44:04.040Z</time>
      </trkpt>
      <trkpt lat="49.67491" lon="-1.42172">
        <ele>76.123614</ele>
        <time>2022-01-20T07:44:19.161Z</time>
      </trkpt>
      <trkpt lat="49.67529" lon="-1.42112">
        <ele>76.242874</ele>
        <time>2022-01-20T07:44:28.700Z</time>
      </trkpt>
      <trkpt lat="49.67505" lon="-1.42069">
        <ele>76.323118</ele>
        <time>2022-01-20T07:44:35.106Z</time>
      </trkpt>
      <trkpt lat="49.67472" lon="-1.4202">
        <ele>76.42318</ele>
        <time>2022-01-20T07:44:43.381Z</time>
      </trkpt>
      <trkpt lat="49.67446" lon="-1.41993">
        <ele>76.725844</ele>
        <time>2022-01-20T07:44:49.168Z</time>
      </trkpt>
      <trkpt lat="49.67374" lon="-1.41931">
        <ele>77.682054</ele>
        <time>2022-01-20T07:45:05.120Z</time>
      </trkpt>
      <trkpt lat="49.67248" lon="-1.41914">
        <ele>79.208937</ele>
        <time>2022-01-20T07:45:29.745Z</time>
      </trkpt>
      <trkpt lat="49.67236" lon="-1.41906">
        <ele>79.376052</ele>
        <time>2022-01-20T07:45:32.484Z</time>
      </trkpt>
      <trkpt lat="49.67226" lon="-1.41893">
        <ele>79.532729</ele>
        <time>2022-01-20T07:45:34.820Z</time>
      </trkpt>
      <trkpt lat="49.67157" lon="-1.41657">
        <ele>81.114389</ele>
        <time>2022-01-20T07:46:07.077Z</time>
      </trkpt>
      <trkpt lat="49.67066" lon="-1.41478">
        <ele>81.361197</ele>
        <time>2022-01-20T07:46:32.432Z</time>
      </trkpt>
      <trkpt lat="49.67117" lon="-1.4137">
        <ele>80.58802</ele>
        <time>2022-01-20T07:46:56.443Z</time>
      </trkpt>
      <trkpt lat="49.67161" lon="-1.41277">
        <ele>79.758796</ele>
        <time>2022-01-20T07:47:16.310Z</time>
      </trkpt>
      <trkpt lat="49.67149" lon="-1.41198">
        <ele>78.757077</ele>
        <time>2022-01-20T07:47:29.987Z</time>
      </trkpt>
      <trkpt lat="49.67083" lon="-1.4096">
        <ele>75.914647</ele>
        <time>2022-01-20T07:48:13.643Z</time>
      </trkpt>
      <trkpt lat="49.67065" lon="-1.40943">
        <ele>75.6468</ele>
        <time>2022-01-20T07:48:19.348Z</time>
      </trkpt>
      <trkpt lat="49.67047" lon="-1.40947">
        <ele>75.409</ele>
        <time>2022-01-20T07:48:24.307Z</time>
      </trkpt>
      <trkpt lat="49.6704" lon="-1.40888">
        <ele>74.912614</ele>
        <time>2022-01-20T07:48:34.968Z</time>
      </trkpt>
      <trkpt lat="49.67053" lon="-1.40852">
        <ele>74.574625</ele>
        <time>2022-01-20T07:48:42.242Z</time>
      </trkpt>
      <trkpt lat="49.67085" lon="-1.40819">
        <ele>74.176812</ele>
        <time>2022-01-20T07:48:52.933Z</time>
      </trkpt>
      <trkpt lat="49.67075" lon="-1.40802">
        <ele>74.054907</ele>
        <time>2022-01-20T07:48:55.718Z</time>
      </trkpt>
      <trkpt lat="49.67058" lon="-1.40746">
        <ele>73.735355</ele>
        <time>2022-01-20T07:49:02.647Z</time>
      </trkpt>
      <trkpt lat="49.67048" lon="-1.40614">
        <ele>73.051685</ele>
        <time>2022-01-20T07:49:17.118Z</time>
      </trkpt>
      <trkpt lat="49.67031" lon="-1.40556">
        <ele>72.385764</ele>
        <time>2022-01-20T07:49:23.951Z</time>
      </trkpt>
      <trkpt lat="49.6702" lon="-1.40514">
        <ele>71.699903</ele>
        <time>2022-01-20T07:49:28.473Z</time>
      </trkpt>
      <trkpt lat="49.67042" lon="-1.40497">
        <ele>71.111146</ele>
        <time>2022-01-20T07:49:32.074Z</time>
      </trkpt>
      <trkpt lat="49.67106" lon="-1.40455">
        <ele>69.471329</ele>
        <time>2022-01-20T07:49:41.819Z</time>
      </trkpt>
      <trkpt lat="49.6711" lon="-1.40439">
        <ele>69.204291</ele>
        <time>2022-01-20T07:49:43.400Z</time>
      </trkpt>
      <trkpt lat="49.6711" lon="-1.40377">
        <ele>68.216521</ele>
        <time>2022-01-20T07:49:49.206Z</time>
      </trkpt>
      <trkpt lat="49.67107" lon="-1.40331">
        <ele>67.446079</ele>
        <time>2022-01-20T07:49:53.501Z</time>
      </trkpt>
      <trkpt lat="49.67106" lon="-1.40295">
        <ele>66.84774</ele>
        <time>2022-01-20T07:49:56.953Z</time>
      </trkpt>
      <trkpt lat="49.67112" lon="-1.40246">
        <ele>66.020195</ele>
        <time>2022-01-20T07:50:01.685Z</time>
      </trkpt>
      <trkpt lat="49.67121" lon="-1.40212">
        <ele>65.40438</ele>
        <time>2022-01-20T07:50:05.230Z</time>
      </trkpt>
      <trkpt lat="49.67158" lon="-1.40107">
        <ele>63.495012</ele>
        <time>2022-01-20T07:50:17.116Z</time>
      </trkpt>
      <trkpt lat="49.6716" lon="-1.40097">
        <ele>63.346747</ele>
        <time>2022-01-20T07:50:18.114Z</time>
      </trkpt>
      <trkpt lat="49.67165" lon="-1.40072">
        <ele>62.962359</ele>
        <time>2022-01-20T07:50:20.788Z</time>
      </trkpt>
      <trkpt lat="49.67169" lon="-1.40019">
        <ele>62.201315</ele>
        <time>2022-01-20T07:50:26.036Z</time>
      </trkpt>
      <trkpt lat="49.67177" lon="-1.39931">
        <ele>60.912471</ele>
        <time>2022-01-20T07:50:34.763Z</time>
      </trkpt>
      <trkpt lat="49.67243" lon="-1.39874">
        <ele>58.975943</ele>
        <time>2022-01-20T07:50:46.003Z</time>
      </trkpt>
      <trkpt lat="49.67273" lon="-1.39848">
        <ele>57.940151</ele>
        <time>2022-01-20T07:50:51.162Z</time>
      </trkpt>
      <trkpt lat="49.674" lon="-1.39749">
        <ele>53.717156</ele>
        <time>2022-01-20T07:51:11.394Z</time>
      </trkpt>
      <trkpt lat="49.67418" lon="-1.39732">
        <ele>53.071261</ele>
        <time>2022-01-20T07:51:14.474Z</time>
      </trkpt>
      <trkpt lat="49.67448" lon="-1.39703">
        <ele>52.018976</ele>
        <time>2022-01-20T07:51:19.583Z</time>
      </trkpt>
      <trkpt lat="49.67492" lon="-1.39649">
        <ele>50.319248</ele>
        <time>2022-01-20T07:51:27.852Z</time>
      </trkpt>
      <trkpt lat="49.67562" lon="-1.39513">
        <ele>47.341734</ele>
        <time>2022-01-20T07:51:44.190Z</time>
      </trkpt>
      <trkpt lat="49.67583" lon="-1.39483">
        <ele>46.626905</ele>
        <time>2022-01-20T07:51:48.473Z</time>
      </trkpt>
      <trkpt lat="49.6763" lon="-1.39434">
        <ele>45.234411</ele>
        <time>2022-01-20T07:51:56.974Z</time>
      </trkpt>
      <trkpt lat="49.67647" lon="-1.39416">
        <ele>44.736381</ele>
        <time>2022-01-20T07:52:00.222Z</time>
      </trkpt>
      <trkpt lat="49.67661" lon="-1.39385">
        <ele>44.367285</ele>
        <time>2022-01-20T07:52:03.942Z</time>
      </trkpt>
      <trkpt lat="49.67686" lon="-1.39362">
        <ele>43.901329</ele>
        <time>2022-01-20T07:52:08.616Z</time>
      </trkpt>
      <trkpt lat="49.67687" lon="-1.39327">
        <ele>43.546231</ele>
        <time>2022-01-20T07:52:12.222Z</time>
      </trkpt>
      <trkpt lat="49.6769" lon="-1.393">
        <ele>43.275936</ele>
        <time>2022-01-20T07:52:14.984Z</time>
      </trkpt>
      <trkpt lat="49.67716" lon="-1.39271">
        <ele>42.778262</ele>
        <time>2022-01-20T07:52:20.097Z</time>
      </trkpt>
      <trkpt lat="49.67723" lon="-1.39252">
        <ele>42.563516</ele>
        <time>2022-01-20T07:52:22.352Z</time>
      </trkpt>
      <trkpt lat="49.67732" lon="-1.39213">
        <ele>42.143824</ele>
        <time>2022-01-20T07:52:26.822Z</time>
      </trkpt>
      <trkpt lat="49.67755" lon="-1.39178">
        <ele>41.656833</ele>
        <time>2022-01-20T07:52:35.634Z</time>
      </trkpt>
      <trkpt lat="49.67775" lon="-1.39127">
        <ele>41.088026</ele>
        <time>2022-01-20T07:52:46.207Z</time>
      </trkpt>
      <trkpt lat="49.67801" lon="-1.3909">
        <ele>40.555703</ele>
        <time>2022-01-20T07:52:55.910Z</time>
      </trkpt>
      <trkpt lat="49.67915" lon="-1.39001">
        <ele>38.7655</ele>
        <time>2022-01-20T07:53:29.480Z</time>
      </trkpt>
      <trkpt lat="49.67943" lon="-1.38854">
        <ele>37.519008</ele>
        <time>2022-01-20T07:53:56.194Z</time>
      </trkpt>
      <trkpt lat="49.67985" lon="-1.38854">
        <ele>37.073834</ele>
        <time>2022-01-20T07:54:08.092Z</time>
      </trkpt>
      <trkpt lat="49.67994" lon="-1.38845">
        <ele>37.0886</ele>
        <time>2022-01-20T07:54:11.056Z</time>
      </trkpt>
      <trkpt lat="49.68025" lon="-1.38778">
        <ele>37.162904</ele>
        <time>2022-01-20T07:54:26.093Z</time>
      </trkpt>
      <trkpt lat="49.68027" lon="-1.3877">
        <ele>37.169982</ele>
        <time>2022-01-20T07:54:27.551Z</time>
      </trkpt>
      <trkpt lat="49.68014" lon="-1.38685">
        <ele>37.247799</ele>
        <time>2022-01-20T07:54:43.373Z</time>
      </trkpt>
      <trkpt lat="49.68025" lon="-1.38485">
        <ele>37.324052</ele>
        <time>2022-01-20T07:55:20.117Z</time>
      </trkpt>
      <trkpt lat="49.68021" lon="-1.38402">
        <ele>37.330489</ele>
        <time>2022-01-20T07:55:35.113Z</time>
      </trkpt>
      <trkpt lat="49.68" lon="-1.38291">
        <ele>37.10558</ele>
        <time>2022-01-20T07:55:56.189Z</time>
      </trkpt>
      <trkpt lat="49.67991" lon="-1.38168">
        <ele>36.519043</ele>
        <time>2022-01-20T07:56:18.445Z</time>
      </trkpt>
      <trkpt lat="49.67981" lon="-1.38028">
        <ele>35.723144</ele>
        <time>2022-01-20T07:56:43.942Z</time>
      </trkpt>
      <trkpt lat="49.6798" lon="-1.37916">
        <ele>34.788317</ele>
        <time>2022-01-20T07:57:03.754Z</time>
      </trkpt>
      <trkpt lat="49.67981" lon="-1.37865">
        <ele>34.362385</ele>
        <time>2022-01-20T07:57:12.701Z</time>
      </trkpt>
      <trkpt lat="49.68031" lon="-1.3786">
        <ele>33.718895</ele>
        <time>2022-01-20T07:57:25.983Z</time>
      </trkpt>
      <trkpt lat="49.68077" lon="-1.37857">
        <ele>32.836363</ele>
        <time>2022-01-20T07:57:38.047Z</time>
      </trkpt>
      <trkpt lat="49.68116" lon="-1.37841">
        <ele>32.041238</ele>
        <time>2022-01-20T07:57:48.663Z</time>
      </trkpt>
      <trkpt lat="49.68252" lon="-1.37815">
        <ele>29.540275</ele>
        <time>2022-01-20T07:58:24.059Z</time>
      </trkpt>
      <trkpt lat="49.68457" lon="-1.37796">
        <ele>26.752039</ele>
        <time>2022-01-20T07:59:19.484Z</time>
      </trkpt>
      <trkpt lat="49.68537" lon="-1.37746">
        <ele>25.979131</ele>
        <time>2022-01-20T07:59:43.437Z</time>
      </trkpt>
      <trkpt lat="49.68538" lon="-1.37734">
        <ele>25.908363</ele>
        <time>2022-01-20T07:59:44.721Z</time>
      </trkpt>
      <trkpt lat="49.68554" lon="-1.37717">
        <ele>25.739373</ele>
        <time>2022-01-20T07:59:47.882Z</time>
      </trkpt>
      <trkpt lat="49.68549" lon="-1.3771">
        <ele>25.743671</ele>
        <time>2022-01-20T07:59:49.745Z</time>
      </trkpt>
      <trkpt lat="49.68539" lon="-1.37657">
        <ele>25.766358</ele>
        <time>2022-01-20T07:59:59.653Z</time>
      </trkpt>
      <trkpt lat="49.68505" lon="-1.37553">
        <ele>25.814991</ele>
        <time>2022-01-20T08:00:20.750Z</time>
      </trkpt>
      <trkpt lat="49.68489" lon="-1.37545">
        <ele>25.825836</ele>
        <time>2022-01-20T08:00:25.502Z</time>
      </trkpt>
      <trkpt lat="49.68467" lon="-1.3751">
        <ele>25.84593</ele>
        <time>2022-01-20T08:00:34.296Z</time>
      </trkpt>
      <trkpt lat="49.68434" lon="-1.37475">
        <ele>26.112508</ele>
        <time>2022-01-20T08:00:45.636Z</time>
      </trkpt>
      <trkpt lat="49.68337" lon="-1.37411">
        <ele>27.125126</ele>
        <time>2022-01-20T08:01:15.355Z</time>
      </trkpt>
      <trkpt lat="49.68317" lon="-1.3732">
        <ele>27.754063</ele>
        <time>2022-01-20T08:01:33.017Z</time>
      </trkpt>
      <trkpt lat="49.68313" lon="-1.3728">
        <ele>28.058923</ele>
        <time>2022-01-20T08:01:40.453Z</time>
      </trkpt>
      <trkpt lat="49.68314" lon="-1.37244">
        <ele>28.336079</ele>
        <time>2022-01-20T08:01:47.212Z</time>
      </trkpt>
      <trkpt lat="49.68323" lon="-1.37168">
        <ele>28.913397</ele>
        <time>2022-01-20T08:02:01.301Z</time>
      </trkpt>
      <trkpt lat="49.68337" lon="-1.37062">
        <ele>29.688536</ele>
        <time>2022-01-20T08:02:21.178Z</time>
      </trkpt>
      <trkpt lat="49.68332" lon="-1.36969">
        <ele>29.824579</ele>
        <time>2022-01-20T08:02:38.222Z</time>
      </trkpt>
      <trkpt lat="49.68329" lon="-1.3682">
        <ele>30.040323</ele>
        <time>2022-01-20T08:03:05.090Z</time>
      </trkpt>
      <trkpt lat="49.68337" lon="-1.36761">
        <ele>29.953031</ele>
        <time>2022-01-20T08:03:16.025Z</time>
      </trkpt>
      <trkpt lat="49.6832" lon="-1.36577">
        <ele>29.159266</ele>
        <time>2022-01-20T08:03:49.663Z</time>
      </trkpt>
      <trkpt lat="49.68316" lon="-1.36537">
        <ele>28.988205</ele>
        <time>2022-01-20T08:03:56.847Z</time>
      </trkpt>
      <trkpt lat="49.68307" lon="-1.36528">
        <ele>28.914714</ele>
        <time>2022-01-20T08:03:58.676Z</time>
      </trkpt>
      <trkpt lat="49.68307" lon="-1.36511">
        <ele>28.875114</ele>
        <time>2022-01-20T08:04:00.454Z</time>
      </trkpt>
      <trkpt lat="49.68287" lon="-1.36373">
        <ele>28.613478</ele>
        <time>2022-01-20T08:04:16.041Z</time>
      </trkpt>
      <trkpt lat="49.68272" lon="-1.36251">
        <ele>28.387029</ele>
        <time>2022-01-20T08:04:30.375Z</time>
      </trkpt>
      <trkpt lat="49.68277" lon="-1.36243">
        <ele>28.47351</ele>
        <time>2022-01-20T08:04:31.768Z</time>
      </trkpt>
      <trkpt lat="49.68273" lon="-1.3618">
        <ele>28.91967</ele>
        <time>2022-01-20T08:04:39.251Z</time>
      </trkpt>
      <trkpt lat="49.68292" lon="-1.36163">
        <ele>29.161443</ele>
        <time>2022-01-20T08:04:43.393Z</time>
      </trkpt>
      <trkpt lat="49.68304" lon="-1.36161">
        <ele>29.292216</ele>
        <time>2022-01-20T08:04:45.596Z</time>
      </trkpt>
      <trkpt lat="49.68307" lon="-1.36146">
        <ele>29.403472</ele>
        <time>2022-01-20T08:04:48.485Z</time>
      </trkpt>
      <trkpt lat="49.68298" lon="-1.36103">
        <ele>29.726119</ele>
        <time>2022-01-20T08:04:56.864Z</time>
      </trkpt>
      <trkpt lat="49.68289" lon="-1.36097">
        <ele>29.838713</ele>
        <time>2022-01-20T08:04:59.792Z</time>
      </trkpt>
      <trkpt lat="49.68081" lon="-1.3601">
        <ele>33.981562</ele>
        <time>2022-01-20T08:06:01.129Z</time>
      </trkpt>
      <trkpt lat="49.68096" lon="-1.35686">
        <ele>40.647856</ele>
        <time>2022-01-20T08:07:02.532Z</time>
      </trkpt>
      <trkpt lat="49.68109" lon="-1.35566">
        <ele>42.917177</ele>
        <time>2022-01-20T08:07:25.757Z</time>
      </trkpt>
      <trkpt lat="49.68123" lon="-1.35459">
        <ele>44.953555</ele>
        <time>2022-01-20T08:07:46.040Z</time>
      </trkpt>
      <trkpt lat="49.68109" lon="-1.35386">
        <ele>44.90649</ele>
        <time>2022-01-20T08:08:00.039Z</time>
      </trkpt>
      <trkpt lat="49.68096" lon="-1.35328">
        <ele>44.524425</ele>
        <time>2022-01-20T08:08:11.205Z</time>
      </trkpt>
      <trkpt lat="49.68103" lon="-1.35328">
        <ele>44.453581</ele>
        <time>2022-01-20T08:08:13.026Z</time>
      </trkpt>
      <trkpt lat="49.68174" lon="-1.35304">
        <ele>43.763428</ele>
        <time>2022-01-20T08:08:32.043Z</time>
      </trkpt>
      <trkpt lat="49.68257" lon="-1.35283">
        <ele>41.265985</ele>
        <time>2022-01-20T08:08:52.578Z</time>
      </trkpt>
      <trkpt lat="49.68413" lon="-1.35264">
        <ele>35.656846</ele>
        <time>2022-01-20T08:09:29.807Z</time>
      </trkpt>
      <trkpt lat="49.68423" lon="-1.35258">
        <ele>35.319827</ele>
        <time>2022-01-20T08:09:32.267Z</time>
      </trkpt>
      <trkpt lat="49.68429" lon="-1.35253">
        <ele>35.094489</ele>
        <time>2022-01-20T08:09:33.917Z</time>
      </trkpt>
      <trkpt lat="49.68501" lon="-1.35207">
        <ele>32.55045</ele>
        <time>2022-01-20T08:09:53.203Z</time>
      </trkpt>
      <trkpt lat="49.68605" lon="-1.35089">
        <ele>29.305644</ele>
        <time>2022-01-20T08:10:25.990Z</time>
      </trkpt>
      <trkpt lat="49.68735" lon="-1.35011">
        <ele>26.827711</ele>
        <time>2022-01-20T08:11:02.864Z</time>
      </trkpt>
      <trkpt lat="49.68781" lon="-1.34991">
        <ele>26.326973</ele>
        <time>2022-01-20T08:11:15.862Z</time>
      </trkpt>
      <trkpt lat="49.68791" lon="-1.34982">
        <ele>26.202929</ele>
        <time>2022-01-20T08:11:19.103Z</time>
      </trkpt>
      <trkpt lat="49.68795" lon="-1.34968">
        <ele>26.099128</ele>
        <time>2022-01-20T08:11:21.832Z</time>
      </trkpt>
      <trkpt lat="49.68831" lon="-1.34904">
        <ele>25.519715</ele>
        <time>2022-01-20T08:11:37.169Z</time>
      </trkpt>
      <trkpt lat="49.68857" lon="-1.34862">
        <ele>25.273507</ele>
        <time>2022-01-20T08:11:47.771Z</time>
      </trkpt>
      <trkpt lat="49.68907" lon="-1.3485">
        <ele>25.05259</ele>
        <time>2022-01-20T08:12:01.790Z</time>
      </trkpt>
      <trkpt lat="49.68957" lon="-1.34821">
        <ele>24.817468</ele>
        <time>2022-01-20T08:12:16.701Z</time>
      </trkpt>
      <trkpt lat="49.68975" lon="-1.34803">
        <ele>24.724195</ele>
        <time>2022-01-20T08:12:22.629Z</time>
      </trkpt>
      <trkpt lat="49.6899" lon="-1.34789">
        <ele>24.646552</ele>
        <time>2022-01-20T08:12:25.675Z</time>
      </trkpt>
      <trkpt lat="49.69025" lon="-1.34764">
        <ele>24.389007</ele>
        <time>2022-01-20T08:12:32.425Z</time>
      </trkpt>
      <trkpt lat="49.69044" lon="-1.3475">
        <ele>24.22644</ele>
        <time>2022-01-20T08:12:36.001Z</time>
      </trkpt>
      <trkpt lat="49.69058" lon="-1.34729">
        <ele>24.077238</ele>
        <time>2022-01-20T08:12:39.354Z</time>
      </trkpt>
      <trkpt lat="49.6907" lon="-1.34697">
        <ele>23.893674</ele>
        <time>2022-01-20T08:12:43.371Z</time>
      </trkpt>
      <trkpt lat="49.69099" lon="-1.34615">
        <ele>23.43129</ele>
        <time>2022-01-20T08:12:53.492Z</time>
      </trkpt>
      <trkpt lat="49.69124" lon="-1.34615">
        <ele>23.241851</ele>
        <time>2022-01-20T08:12:58.877Z</time>
      </trkpt>
      <trkpt lat="49.69127" lon="-1.34615">
        <ele>23.21615</ele>
        <time>2022-01-20T08:12:59.613Z</time>
      </trkpt>
      <trkpt lat="49.6913" lon="-1.34614">
        <ele>23.189589</ele>
        <time>2022-01-20T08:12:59.998Z</time>
      </trkpt>
      <trkpt lat="49.69282" lon="-1.34593">
        <ele>21.590643</ele>
        <time>2022-01-20T08:13:25.436Z</time>
      </trkpt>
      <trkpt lat="49.69469" lon="-1.34582">
        <ele>19.570916</ele>
        <time>2022-01-20T08:13:56.486Z</time>
      </trkpt>
      <trkpt lat="49.6948" lon="-1.34591">
        <ele>19.431998</ele>
        <time>2022-01-20T08:13:58.607Z</time>
      </trkpt>
      <trkpt lat="49.69488" lon="-1.34597">
        <ele>19.334563</ele>
        <time>2022-01-20T08:14:00.014Z</time>
      </trkpt>
      <trkpt lat="49.69507" lon="-1.34635">
        <ele>18.98526</ele>
        <time>2022-01-20T08:14:05.138Z</time>
      </trkpt>
      <trkpt lat="49.69515" lon="-1.34639">
        <ele>18.895837</ele>
        <time>2022-01-20T08:14:06.410Z</time>
      </trkpt>
      <trkpt lat="49.69521" lon="-1.3461">
        <ele>18.679862</ele>
        <time>2022-01-20T08:14:09.573Z</time>
      </trkpt>
      <trkpt lat="49.69522" lon="-1.34485">
        <ele>17.772748</ele>
        <time>2022-01-20T08:14:22.954Z</time>
      </trkpt>
      <trkpt lat="49.69521" lon="-1.34468">
        <ele>17.651437</ele>
        <time>2022-01-20T08:14:24.730Z</time>
      </trkpt>
      <trkpt lat="49.69519" lon="-1.34451">
        <ele>17.525232</ele>
        <time>2022-01-20T08:14:26.593Z</time>
      </trkpt>
      <trkpt lat="49.69514" lon="-1.3442">
        <ele>17.297629</ele>
        <time>2022-01-20T08:14:30.114Z</time>
      </trkpt>
      <trkpt lat="49.69526" lon="-1.34336">
        <ele>16.715402</ele>
        <time>2022-01-20T08:14:39.422Z</time>
      </trkpt>
      <trkpt lat="49.69507" lon="-1.34227">
        <ele>15.943767</ele>
        <time>2022-01-20T08:14:51.751Z</time>
      </trkpt>
      <trkpt lat="49.69507" lon="-1.34185">
        <ele>15.65967</ele>
        <time>2022-01-20T08:14:56.250Z</time>
      </trkpt>
      <trkpt lat="49.69512" lon="-1.34103">
        <ele>14.516382</ele>
        <time>2022-01-20T08:15:04.966Z</time>
      </trkpt>
      <trkpt lat="49.69525" lon="-1.34077">
        <ele>13.959957</ele>
        <time>2022-01-20T08:15:08.359Z</time>
      </trkpt>
      <trkpt lat="49.6955" lon="-1.34034">
        <ele>12.959468</ele>
        <time>2022-01-20T08:15:13.779Z</time>
      </trkpt>
      <trkpt lat="49.69561" lon="-1.34051">
        <ele>12.539032</ele>
        <time>2022-01-20T08:15:17.619Z</time>
      </trkpt>
      <trkpt lat="49.69581" lon="-1.34061">
        <ele>11.975726</ele>
        <time>2022-01-20T08:15:22.814Z</time>
      </trkpt>
      <trkpt lat="49.69643" lon="-1.34068">
        <ele>10.255788</ele>
        <time>2022-01-20T08:15:37.773Z</time>
      </trkpt>
      <trkpt lat="49.69668" lon="-1.34068">
        <ele>9.466095</ele>
        <time>2022-01-20T08:15:43.833Z</time>
      </trkpt>
      <trkpt lat="49.69677" lon="-1.3406">
        <ele>9.112885</ele>
        <time>2022-01-20T08:15:46.455Z</time>
      </trkpt>
      <trkpt lat="49.69811" lon="-1.33924">
        <ele>4.690018</ele>
        <time>2022-01-20T08:16:25.959Z</time>
      </trkpt>
      <trkpt lat="49.69819" lon="-1.33906">
        <ele>4.550953</ele>
        <time>2022-01-20T08:16:29.767Z</time>
      </trkpt>
      <trkpt lat="49.69892" lon="-1.33413">
        <ele>2.564504</ele>
        <time>2022-01-20T08:18:01.455Z</time>
      </trkpt>
      <trkpt lat="49.69911" lon="-1.33288">
        <ele>2.428739</ele>
        <time>2022-01-20T08:18:24.618Z</time>
      </trkpt>
      <trkpt lat="49.69908" lon="-1.3326">
        <ele>2.398956</ele>
        <time>2022-01-20T08:18:29.696Z</time>
      </trkpt>
      <trkpt lat="49.69887" lon="-1.33132">
        <ele>2.295044</ele>
        <time>2022-01-20T08:18:53.739Z</time>
      </trkpt>
      <trkpt lat="49.69811" lon="-1.32701">
        <ele>2.459635</ele>
        <time>2022-01-20T08:19:45.323Z</time>
      </trkpt>
      <trkpt lat="49.69806" lon="-1.32693">
        <ele>2.464929</ele>
        <time>2022-01-20T08:19:46.631Z</time>
      </trkpt>
      <trkpt lat="49.69821" lon="-1.32688">
        <ele>2.476061</ele>
        <time>2022-01-20T08:19:50.966Z</time>
      </trkpt>
      <trkpt lat="49.69867" lon="-1.32686">
        <ele>2.475544</ele>
        <time>2022-01-20T08:20:03.762Z</time>
      </trkpt>
      <trkpt lat="49.69873" lon="-1.3268">
        <ele>2.465432</ele>
        <time>2022-01-20T08:20:05.703Z</time>
      </trkpt>
      <trkpt lat="49.69871" lon="-1.32667">
        <ele>2.453048</ele>
        <time>2022-01-20T08:20:08.068Z</time>
      </trkpt>
      <trkpt lat="49.69851" lon="-1.32605">
        <ele>2.386974</ele>
        <time>2022-01-20T08:20:20.572Z</time>
      </trkpt>
      <trkpt lat="49.69847" lon="-1.32566">
        <ele>2.348528</ele>
        <time>2022-01-20T08:20:27.876Z</time>
      </trkpt>
      <trkpt lat="49.69849" lon="-1.325">
        <ele>2.285613</ele>
        <time>2022-01-20T08:20:39.805Z</time>
      </trkpt>
      <trkpt lat="49.69828" lon="-1.32357">
        <ele>2.212188</ele>
        <time>2022-01-20T08:21:06.264Z</time>
      </trkpt>
      <trkpt lat="49.69831" lon="-1.32331">
        <ele>2.206154</ele>
        <time>2022-01-20T08:21:11.058Z</time>
      </trkpt>
      <trkpt lat="49.6983" lon="-1.32121">
        <ele>2.187228</ele>
        <time>2022-01-20T08:21:48.970Z</time>
      </trkpt>
      <trkpt lat="49.69825" lon="-1.3209">
        <ele>2.198717</ele>
        <time>2022-01-20T08:21:54.824Z</time>
      </trkpt>
      <trkpt lat="49.69805" lon="-1.32042">
        <ele>2.218978</ele>
        <time>2022-01-20T08:22:05.066Z</time>
      </trkpt>
      <trkpt lat="49.69809" lon="-1.32029">
        <ele>2.224084</ele>
        <time>2022-01-20T08:22:07.648Z</time>
      </trkpt>
      <trkpt lat="49.69808" lon="-1.32001">
        <ele>2.234186</ele>
        <time>2022-01-20T08:22:12.779Z</time>
      </trkpt>
      <trkpt lat="49.69802" lon="-1.31962">
        <ele>2.2485</ele>
        <time>2022-01-20T08:22:20.030Z</time>
      </trkpt>
      <trkpt lat="49.698" lon="-1.31936">
        <ele>2.257982</ele>
        <time>2022-01-20T08:22:24.872Z</time>
      </trkpt>
      <trkpt lat="49.69768" lon="-1.31791">
        <ele>2.551526</ele>
        <time>2022-01-20T08:22:52.629Z</time>
      </trkpt>
      <trkpt lat="49.69768" lon="-1.31766">
        <ele>2.610174</ele>
        <time>2022-01-20T08:22:57.257Z</time>
      </trkpt>
      <trkpt lat="49.69744" lon="-1.31682">
        <ele>2.823258</ele>
        <time>2022-01-20T08:23:14.099Z</time>
      </trkpt>
      <trkpt lat="49.69734" lon="-1.31689">
        <ele>2.861636</ele>
        <time>2022-01-20T08:23:17.140Z</time>
      </trkpt>
      <trkpt lat="49.6973" lon="-1.31668">
        <ele>2.914126</ele>
        <time>2022-01-20T08:23:21.274Z</time>
      </trkpt>
      <trkpt lat="49.6963" lon="-1.31668">
        <ele>3.295067</ele>
        <time>2022-01-20T08:23:49.529Z</time>
      </trkpt>
      <trkpt lat="49.69506" lon="-1.31707">
        <ele>3.762012</ele>
        <time>2022-01-20T08:24:24.957Z</time>
      </trkpt>
      <trkpt lat="49.69441" lon="-1.31417">
        <ele>4.341788</ele>
        <time>2022-01-20T08:25:20.839Z</time>
      </trkpt>
      <trkpt lat="49.69411" lon="-1.31273">
        <ele>4.509167</ele>
        <time>2022-01-20T08:25:48.213Z</time>
      </trkpt>
      <trkpt lat="49.69362" lon="-1.31285">
        <ele>4.429373</ele>
        <time>2022-01-20T08:25:56.601Z</time>
      </trkpt>
      <trkpt lat="49.69326" lon="-1.31296">
        <ele>4.314451</ele>
        <time>2022-01-20T08:26:02.736Z</time>
      </trkpt>
      <trkpt lat="49.69331" lon="-1.31244">
        <ele>4.206398</ele>
        <time>2022-01-20T08:26:12.308Z</time>
      </trkpt>
      <trkpt lat="49.69341" lon="-1.3113">
        <ele>3.972122</ele>
        <time>2022-01-20T08:26:33.102Z</time>
      </trkpt>
      <trkpt lat="49.69362" lon="-1.31086">
        <ele>3.691794</ele>
        <time>2022-01-20T08:26:43.094Z</time>
      </trkpt>
      <trkpt lat="49.69427" lon="-1.30914">
        <ele>2.659045</ele>
        <time>2022-01-20T08:27:18.927Z</time>
      </trkpt>
      <trkpt lat="49.69439" lon="-1.30857">
        <ele>2.283149</ele>
        <time>2022-01-20T08:27:29.572Z</time>
      </trkpt>
      <trkpt lat="49.69436" lon="-1.30817">
        <ele>2.002665</ele>
        <time>2022-01-20T08:27:36.569Z</time>
      </trkpt>
      <trkpt lat="49.6942" lon="-1.30743">
        <ele>1.453292</ele>
        <time>2022-01-20T08:27:50.396Z</time>
      </trkpt>
      <trkpt lat="49.69416" lon="-1.30674">
        <ele>0.962577</ele>
        <time>2022-01-20T08:28:02.736Z</time>
      </trkpt>
      <trkpt lat="49.69413" lon="-1.3064">
        <ele>0.728133</ele>
        <time>2022-01-20T08:28:08.682Z</time>
      </trkpt>
      <trkpt lat="49.69413" lon="-1.30629">
        <ele>0.649567</ele>
        <time>2022-01-20T08:28:10.664Z</time>
      </trkpt>
      <trkpt lat="49.6942" lon="-1.30608">
        <ele>0.535857</ele>
        <time>2022-01-20T08:28:14.955Z</time>
      </trkpt>
      <trkpt lat="49.69419" lon="-1.30585">
        <ele>0.470748</ele>
        <time>2022-01-20T08:28:19.061Z</time>
      </trkpt>
      <trkpt lat="49.6941" lon="-1.30573">
        <ele>0.416651</ele>
        <time>2022-01-20T08:28:22.502Z</time>
      </trkpt>
      <trkpt lat="49.69401" lon="-1.3057">
        <ele>0.37763</ele>
        <time>2022-01-20T08:28:24.980Z</time>
      </trkpt>
      <trkpt lat="49.6939" lon="-1.30547">
        <ele>0.294031</ele>
        <time>2022-01-20T08:28:30.280Z</time>
      </trkpt>
      <trkpt lat="49.69352" lon="-1.30333">
        <ele>-0.213521</ele>
        <time>2022-01-20T08:29:10.554Z</time>
      </trkpt>
      <trkpt lat="49.69339" lon="-1.30279">
        <ele>-0.204077</ele>
        <time>2022-01-20T08:29:20.868Z</time>
      </trkpt>
      <trkpt lat="49.69328" lon="-1.30225">
        <ele>-0.19471</ele>
        <time>2022-01-20T08:29:31.117Z</time>
      </trkpt>
      <trkpt lat="49.69308" lon="-1.30054">
        <ele>-0.199013</ele>
        <time>2022-01-20T08:30:02.602Z</time>
      </trkpt>
      <trkpt lat="49.69279" lon="-1.29969">
        <ele>-0.245075</ele>
        <time>2022-01-20T08:30:19.981Z</time>
      </trkpt>
      <trkpt lat="49.69255" lon="-1.29914">
        <ele>-0.276955</ele>
        <time>2022-01-20T08:30:32.027Z</time>
      </trkpt>
      <trkpt lat="49.69244" lon="-1.29863">
        <ele>-0.302524</ele>
        <time>2022-01-20T08:30:41.710Z</time>
      </trkpt>
      <trkpt lat="49.69249" lon="-1.29823">
        <ele>-0.341893</ele>
        <time>2022-01-20T08:30:49.111Z</time>
      </trkpt>
      <trkpt lat="49.69247" lon="-1.29779">
        <ele>-0.391432</ele>
        <time>2022-01-20T08:30:57.052Z</time>
      </trkpt>
      <trkpt lat="49.69217" lon="-1.29609">
        <ele>-0.590715</ele>
        <time>2022-01-20T08:31:28.995Z</time>
      </trkpt>
      <trkpt lat="49.69223" lon="-1.2955">
        <ele>-0.499268</ele>
        <time>2022-01-20T08:31:39.811Z</time>
      </trkpt>
      <trkpt lat="49.69223" lon="-1.29488">
        <ele>-0.266276</ele>
        <time>2022-01-20T08:31:51.072Z</time>
      </trkpt>
      <trkpt lat="49.69217" lon="-1.29434">
        <ele>-0.059867</ele>
        <time>2022-01-20T08:32:01.068Z</time>
      </trkpt>
      <trkpt lat="49.69201" lon="-1.29379">
        <ele>0.166867</ele>
        <time>2022-01-20T08:32:12.078Z</time>
      </trkpt>
      <trkpt lat="49.69176" lon="-1.29191">
        <ele>1.810253</ele>
        <time>2022-01-20T08:32:47.244Z</time>
      </trkpt>
      <trkpt lat="49.69164" lon="-1.29142">
        <ele>2.400431</ele>
        <time>2022-01-20T08:32:56.932Z</time>
      </trkpt>
      <trkpt lat="49.69135" lon="-1.28956">
        <ele>4.576766</ele>
        <time>2022-01-20T08:33:32.287Z</time>
      </trkpt>
      <trkpt lat="49.69129" lon="-1.28936">
        <ele>4.822848</ele>
        <time>2022-01-20T08:33:36.256Z</time>
      </trkpt>
      <trkpt lat="49.69119" lon="-1.28933">
        <ele>5.012129</ele>
        <time>2022-01-20T08:33:38.487Z</time>
      </trkpt>
      <trkpt lat="49.69102" lon="-1.2891">
        <ele>5.400196</ele>
        <time>2022-01-20T08:33:43.003Z</time>
      </trkpt>
      <trkpt lat="49.68996" lon="-1.28809">
        <ele>6.759624</ele>
        <time>2022-01-20T08:34:07.897Z</time>
      </trkpt>
      <trkpt lat="49.68982" lon="-1.28779">
        <ele>6.764964</ele>
        <time>2022-01-20T08:34:12.098Z</time>
      </trkpt>
      <trkpt lat="49.69003" lon="-1.28755">
        <ele>6.770794</ele>
        <time>2022-01-20T08:34:16.678Z</time>
      </trkpt>
      <trkpt lat="49.69025" lon="-1.2875">
        <ele>6.775606</ele>
        <time>2022-01-20T08:34:20.404Z</time>
      </trkpt>
      <trkpt lat="49.69058" lon="-1.28696">
        <ele>6.78634</ele>
        <time>2022-01-20T08:34:28.730Z</time>
      </trkpt>
      <trkpt lat="49.69068" lon="-1.28677">
        <ele>6.743722</ele>
        <time>2022-01-20T08:34:33.158Z</time>
      </trkpt>
      <trkpt lat="49.69078" lon="-1.28644">
        <ele>6.560004</ele>
        <time>2022-01-20T08:34:39.707Z</time>
      </trkpt>
      <trkpt lat="49.69082" lon="-1.2855">
        <ele>6.081831</ele>
        <time>2022-01-20T08:34:56.653Z</time>
      </trkpt>
      <trkpt lat="49.69092" lon="-1.28485">
        <ele>5.744691</ele>
        <time>2022-01-20T08:35:08.612Z</time>
      </trkpt>
      <trkpt lat="49.69112" lon="-1.28404">
        <ele>5.307922</ele>
        <time>2022-01-20T08:35:24.130Z</time>
      </trkpt>
      <trkpt lat="49.69131" lon="-1.28343">
        <ele>4.958604</ele>
        <time>2022-01-20T08:35:36.417Z</time>
      </trkpt>
      <trkpt lat="49.69174" lon="-1.2824">
        <ele>4.326504</ele>
        <time>2022-01-20T08:35:58.583Z</time>
      </trkpt>
      <trkpt lat="49.69239" lon="-1.28113">
        <ele>3.648344</ele>
        <time>2022-01-20T08:36:27.691Z</time>
      </trkpt>
      <trkpt lat="49.69252" lon="-1.28064">
        <ele>3.46932</ele>
        <time>2022-01-20T08:36:37.289Z</time>
      </trkpt>
      <trkpt lat="49.69265" lon="-1.27963">
        <ele>3.121906</ele>
        <time>2022-01-20T08:36:55.971Z</time>
      </trkpt>
      <trkpt lat="49.6927" lon="-1.27942">
        <ele>3.047872</ele>
        <time>2022-01-20T08:36:59.939Z</time>
      </trkpt>
      <trkpt lat="49.69246" lon="-1.27925">
        <ele>3.064669</ele>
        <time>2022-01-20T08:37:04.792Z</time>
      </trkpt>
      <trkpt lat="49.69227" lon="-1.27847">
        <ele>3.221783</ele>
        <time>2022-01-20T08:37:14.762Z</time>
      </trkpt>
      <trkpt lat="49.69205" lon="-1.27758">
        <ele>3.399335</ele>
        <time>2022-01-20T08:37:26.111Z</time>
      </trkpt>
      <trkpt lat="49.69174" lon="-1.27771">
        <ele>3.4934</ele>
        <time>2022-01-20T08:37:32.102Z</time>
      </trkpt>
      <trkpt lat="49.69149" lon="-1.27773">
        <ele>3.514179</ele>
        <time>2022-01-20T08:37:36.509Z</time>
      </trkpt>
      <trkpt lat="49.69119" lon="-1.27773">
        <ele>3.478944</ele>
        <time>2022-01-20T08:37:41.756Z</time>
      </trkpt>
      <trkpt lat="49.69116" lon="-1.27726">
        <ele>3.44312</ele>
        <time>2022-01-20T08:37:50.202Z</time>
      </trkpt>
      <trkpt lat="49.69118" lon="-1.27676">
        <ele>3.404707</ele>
        <time>2022-01-20T08:37:59.250Z</time>
      </trkpt>
      <trkpt lat="49.69092" lon="-1.27513">
        <ele>3.133265</ele>
        <time>2022-01-20T08:38:29.757Z</time>
      </trkpt>
      <trkpt lat="49.69089" lon="-1.27467">
        <ele>2.971408</ele>
        <time>2022-01-20T08:38:38.095Z</time>
      </trkpt>
      <trkpt lat="49.69096" lon="-1.27405">
        <ele>2.750906</ele>
        <time>2022-01-20T08:38:49.492Z</time>
      </trkpt>
      <trkpt lat="49.69126" lon="-1.27305">
        <ele>2.364744</ele>
        <time>2022-01-20T08:39:09.471Z</time>
      </trkpt>
      <trkpt lat="49.69132" lon="-1.2726">
        <ele>2.278283</ele>
        <time>2022-01-20T08:39:17.706Z</time>
      </trkpt>
      <trkpt lat="49.69213" lon="-1.27243">
        <ele>2.073861</ele>
        <time>2022-01-20T08:39:40.596Z</time>
      </trkpt>
      <trkpt lat="49.69268" lon="-1.27239">
        <ele>1.936282</ele>
        <time>2022-01-20T08:39:55.982Z</time>
      </trkpt>
      <trkpt lat="49.69294" lon="-1.27267">
        <ele>1.861094</ele>
        <time>2022-01-20T08:40:04.916Z</time>
      </trkpt>
      <trkpt lat="49.69318" lon="-1.27275">
        <ele>1.808069</ele>
        <time>2022-01-20T08:40:11.771Z</time>
      </trkpt>
      <trkpt lat="49.69362" lon="-1.27269">
        <ele>1.71214</ele>
        <time>2022-01-20T08:40:24.209Z</time>
      </trkpt>
      <trkpt lat="49.69373" lon="-1.27272">
        <ele>1.689465</ele>
        <time>2022-01-20T08:40:27.135Z</time>
      </trkpt>
      <trkpt lat="49.69384" lon="-1.27244">
        <ele>1.64334</ele>
        <time>2022-01-20T08:40:30.650Z</time>
      </trkpt>
      <trkpt lat="49.69465" lon="-1.27155">
        <ele>1.400421</ele>
        <time>2022-01-20T08:40:47.153Z</time>
      </trkpt>
      <trkpt lat="49.69502" lon="-1.27082">
        <ele>1.218805</ele>
        <time>2022-01-20T08:40:57.108Z</time>
      </trkpt>
      <trkpt lat="49.69507" lon="-1.27055">
        <ele>1.163551</ele>
        <time>2022-01-20T08:41:00.146Z</time>
      </trkpt>
      <trkpt lat="49.69505" lon="-1.26898">
        <ele>0.864121</ele>
        <time>2022-01-20T08:41:17.022Z</time>
      </trkpt>
      <trkpt lat="49.69505" lon="-1.26891">
        <ele>0.851048</ele>
        <time>2022-01-20T08:41:17.777Z</time>
      </trkpt>
      <trkpt lat="49.69504" lon="-1.26812">
        <ele>0.705048</ele>
        <time>2022-01-20T08:41:26.332Z</time>
      </trkpt>
      <trkpt lat="49.69499" lon="-1.26788">
        <ele>0.658773</ele>
        <time>2022-01-20T08:41:29.055Z</time>
      </trkpt>
      <trkpt lat="49.69489" lon="-1.26767">
        <ele>0.611826</ele>
        <time>2022-01-20T08:41:31.796Z</time>
      </trkpt>
      <trkpt lat="49.69471" lon="-1.2675">
        <ele>0.550242</ele>
        <time>2022-01-20T08:41:35.406Z</time>
      </trkpt>
      <trkpt lat="49.69437" lon="-1.2672">
        <ele>0.439879</ele>
        <time>2022-01-20T08:41:41.876Z</time>
      </trkpt>
      <trkpt lat="49.69428" lon="-1.26721">
        <ele>0.418042</ele>
        <time>2022-01-20T08:41:44.241Z</time>
      </trkpt>
      <trkpt lat="49.694" lon="-1.26689">
        <ele>0.329017</ele>
        <time>2022-01-20T08:41:53.956Z</time>
      </trkpt>
      <trkpt lat="49.69321" lon="-1.26703">
        <ele>0.124507</ele>
        <time>2022-01-20T08:42:16.250Z</time>
      </trkpt>
      <trkpt lat="49.69301" lon="-1.267">
        <ele>0.071033</ele>
        <time>2022-01-20T08:42:22.076Z</time>
      </trkpt>
      <trkpt lat="49.69291" lon="-1.26697">
        <ele>0.046734</ele>
        <time>2022-01-20T08:42:24.737Z</time>
      </trkpt>
      <trkpt lat="49.69221" lon="-1.26645">
        <ele>-0.057939</ele>
        <time>2022-01-20T08:42:46.619Z</time>
      </trkpt>
      <trkpt lat="49.69187" lon="-1.26597">
        <ele>-0.094294</ele>
        <time>2022-01-20T08:42:59.377Z</time>
      </trkpt>
      <trkpt lat="49.69149" lon="-1.26597">
        <ele>-0.124957</ele>
        <time>2022-01-20T08:43:10.123Z</time>
      </trkpt>
      <trkpt lat="49.6911" lon="-1.26607">
        <ele>-0.156417</ele>
        <time>2022-01-20T08:43:21.148Z</time>
      </trkpt>
      <trkpt lat="49.69078" lon="-1.26626">
        <ele>-0.122439</ele>
        <time>2022-01-20T08:43:30.691Z</time>
      </trkpt>
      <trkpt lat="49.69045" lon="-1.26659">
        <ele>-0.079645</ele>
        <time>2022-01-20T08:43:41.613Z</time>
      </trkpt>
      <trkpt lat="49.69006" lon="-1.26684">
        <ele>-0.0329</ele>
        <time>2022-01-20T08:43:53.549Z</time>
      </trkpt>
      <trkpt lat="49.68952" lon="-1.2672">
        <ele>0.031735</ele>
        <time>2022-01-20T08:44:10.081Z</time>
      </trkpt>
      <trkpt lat="49.68926" lon="-1.26737">
        <ele>0.076294</ele>
        <time>2022-01-20T08:44:17.822Z</time>
      </trkpt>
      <trkpt lat="49.68896" lon="-1.26757">
        <ele>0.134591</ele>
        <time>2022-01-20T08:44:27.009Z</time>
      </trkpt>
      <trkpt lat="49.68891" lon="-1.26766">
        <ele>0.148949</ele>
        <time>2022-01-20T08:44:29.265Z</time>
      </trkpt>
      <trkpt lat="49.68863" lon="-1.26822">
        <ele>0.229732</ele>
        <time>2022-01-20T08:44:42.000Z</time>
      </trkpt>
      <trkpt lat="49.68803" lon="-1.26954">
        <ele>0.35692</ele>
        <time>2022-01-20T08:45:00.107Z</time>
      </trkpt>
      <trkpt lat="49.68758" lon="-1.27054">
        <ele>0.350144</ele>
        <time>2022-01-20T08:45:13.399Z</time>
      </trkpt>
      <trkpt lat="49.68743" lon="-1.27095">
        <ele>0.347512</ele>
        <time>2022-01-20T08:45:18.532Z</time>
      </trkpt>
      <trkpt lat="49.68736" lon="-1.27107">
        <ele>0.346551</ele>
        <time>2022-01-20T08:45:20.393Z</time>
      </trkpt>
      <trkpt lat="49.68689" lon="-1.2714">
        <ele>0.317196</ele>
        <time>2022-01-20T08:45:28.985Z</time>
      </trkpt>
      <trkpt lat="49.68647" lon="-1.27155">
        <ele>0.266338</ele>
        <time>2022-01-20T08:45:36.267Z</time>
      </trkpt>
      <trkpt lat="49.68615" lon="-1.27136">
        <ele>0.22624</ele>
        <time>2022-01-20T08:45:42.011Z</time>
      </trkpt>
      <trkpt lat="49.68588" lon="-1.2711">
        <ele>0.189299</ele>
        <time>2022-01-20T08:45:47.325Z</time>
      </trkpt>
      <trkpt lat="49.68555" lon="-1.27109">
        <ele>0.150904</ele>
        <time>2022-01-20T08:45:52.843Z</time>
      </trkpt>
      <trkpt lat="49.68548" lon="-1.27113">
        <ele>0.141397</ele>
        <time>2022-01-20T08:45:54.211Z</time>
      </trkpt>
      <trkpt lat="49.6853" lon="-1.27151">
        <ele>0.129328</ele>
        <time>2022-01-20T08:45:59.292Z</time>
      </trkpt>
      <trkpt lat="49.68483" lon="-1.27219">
        <ele>0.117578</ele>
        <time>2022-01-20T08:46:10.177Z</time>
      </trkpt>
      <trkpt lat="49.68476" lon="-1.27231">
        <ele>0.115633</ele>
        <time>2022-01-20T08:46:11.998Z</time>
      </trkpt>
      <trkpt lat="49.68467" lon="-1.27236">
        <ele>0.113915</ele>
        <time>2022-01-20T08:46:13.584Z</time>
      </trkpt>
      <trkpt lat="49.68449" lon="-1.27243">
        <ele>0.110464</ele>
        <time>2022-01-20T08:46:16.920Z</time>
      </trkpt>
      <trkpt lat="49.68425" lon="-1.27247">
        <ele>0.106097</ele>
        <time>2022-01-20T08:46:21.160Z</time>
      </trkpt>
      <trkpt lat="49.68327" lon="-1.27235">
        <ele>0.12785</ele>
        <time>2022-01-20T08:46:38.572Z</time>
      </trkpt>
      <trkpt lat="49.68182" lon="-1.27181">
        <ele>0.247996</ele>
        <time>2022-01-20T08:47:05.098Z</time>
      </trkpt>
      <trkpt lat="49.68153" lon="-1.27179">
        <ele>0.306799</ele>
        <time>2022-01-20T08:47:10.269Z</time>
      </trkpt>
      <trkpt lat="49.68101" lon="-1.27268">
        <ele>0.462642</ele>
        <time>2022-01-20T08:47:24.183Z</time>
      </trkpt>
      <trkpt lat="49.68055" lon="-1.27304">
        <ele>0.664495</ele>
        <time>2022-01-20T08:47:33.860Z</time>
      </trkpt>
      <trkpt lat="49.67999" lon="-1.27325">
        <ele>1.097819</ele>
        <time>2022-01-20T08:47:44.625Z</time>
      </trkpt>
      <trkpt lat="49.67987" lon="-1.27318">
        <ele>1.195626</ele>
        <time>2022-01-20T08:47:48.271Z</time>
      </trkpt>
      <trkpt lat="49.6793" lon="-1.27282">
        <ele>1.667381</ele>
        <time>2022-01-20T08:48:05.799Z</time>
      </trkpt>
      <trkpt lat="49.67925" lon="-1.27277">
        <ele>1.71282</ele>
        <time>2022-01-20T08:48:07.485Z</time>
      </trkpt>
      <trkpt lat="49.67916" lon="-1.27265">
        <ele>1.803918</ele>
        <time>2022-01-20T08:48:10.879Z</time>
      </trkpt>
      <trkpt lat="49.67913" lon="-1.27266">
        <ele>1.823451</ele>
        <time>2022-01-20T08:48:11.594Z</time>
      </trkpt>
      <trkpt lat="49.67913" lon="-1.27255">
        <ele>1.879221</ele>
        <time>2022-01-20T08:48:13.662Z</time>
      </trkpt>
      <trkpt lat="49.67905" lon="-1.27232">
        <ele>2.058421</ele>
        <time>2022-01-20T08:48:18.363Z</time>
      </trkpt>
      <trkpt lat="49.679" lon="-1.27217">
        <ele>2.184625</ele>
        <time>2022-01-20T08:48:21.451Z</time>
      </trkpt>
      <trkpt lat="49.67896" lon="-1.27221">
        <ele>2.241806</ele>
        <time>2022-01-20T08:48:22.842Z</time>
      </trkpt>
      <trkpt lat="49.67866" lon="-1.27221">
        <ele>2.589427</ele>
        <time>2022-01-20T08:48:31.413Z</time>
      </trkpt>
      <trkpt lat="49.67854" lon="-1.27235">
        <ele>2.760224</ele>
        <time>2022-01-20T08:48:35.610Z</time>
      </trkpt>
      <trkpt lat="49.67845" lon="-1.27228">
        <ele>2.874146</ele>
        <time>2022-01-20T08:48:37.949Z</time>
      </trkpt>
      <trkpt lat="49.67827" lon="-1.27221">
        <ele>3.096521</ele>
        <time>2022-01-20T08:48:42.515Z</time>
      </trkpt>
      <trkpt lat="49.67798" lon="-1.27221">
        <ele>3.426883</ele>
        <time>2022-01-20T08:48:49.295Z</time>
      </trkpt>
      <trkpt lat="49.67785" lon="-1.27225">
        <ele>3.582007</ele>
        <time>2022-01-20T08:48:52.502Z</time>
      </trkpt>
      <trkpt lat="49.67772" lon="-1.27224">
        <ele>3.734207</ele>
        <time>2022-01-20T08:48:54.954Z</time>
      </trkpt>
      <trkpt lat="49.67721" lon="-1.27223">
        <ele>4.356263</ele>
        <time>2022-01-20T08:49:04.632Z</time>
      </trkpt>
      <trkpt lat="49.67643" lon="-1.2722">
        <ele>5.377677</ele>
        <time>2022-01-20T08:49:19.729Z</time>
      </trkpt>
      <trkpt lat="49.67648" lon="-1.27234">
        <ele>5.514369</ele>
        <time>2022-01-20T08:49:22.702Z</time>
      </trkpt>
      <trkpt lat="49.67649" lon="-1.27238">
        <ele>5.549002</ele>
        <time>2022-01-20T08:49:23.460Z</time>
      </trkpt>
      <trkpt lat="49.67648" lon="-1.27234">
        <ele>5.583634</ele>
        <time>2022-01-20T08:49:24.219Z</time>
      </trkpt>
      <trkpt lat="49.67643" lon="-1.2722">
        <ele>5.720327</ele>
        <time>2022-01-20T08:49:27.198Z</time>
      </trkpt>
      <trkpt lat="49.67633" lon="-1.27259">
        <ele>6.071847</ele>
        <time>2022-01-20T08:49:33.595Z</time>
      </trkpt>
      <trkpt lat="49.67616" lon="-1.27349">
        <ele>6.819416</ele>
        <time>2022-01-20T08:49:48.126Z</time>
      </trkpt>
      <trkpt lat="49.67544" lon="-1.27396">
        <ele>7.761578</ele>
        <time>2022-01-20T08:50:06.718Z</time>
      </trkpt>
      <trkpt lat="49.67531" lon="-1.27409">
        <ele>7.946599</ele>
        <time>2022-01-20T08:50:10.418Z</time>
      </trkpt>
      <trkpt lat="49.67515" lon="-1.27433">
        <ele>8.214467</ele>
        <time>2022-01-20T08:50:16.743Z</time>
      </trkpt>
      <trkpt lat="49.67469" lon="-1.27476">
        <ele>8.653538</ele>
        <time>2022-01-20T08:50:31.978Z</time>
      </trkpt>
      <trkpt lat="49.67422" lon="-1.27596">
        <ele>9.174067</ele>
        <time>2022-01-20T08:50:57.637Z</time>
      </trkpt>
      <trkpt lat="49.67374" lon="-1.277">
        <ele>9.489667</ele>
        <time>2022-01-20T08:51:20.926Z</time>
      </trkpt>
      <trkpt lat="49.6727" lon="-1.27848">
        <ele>9.460499</ele>
        <time>2022-01-20T08:52:00.138Z</time>
      </trkpt>
      <trkpt lat="49.67123" lon="-1.27736">
        <ele>8.813317</ele>
        <time>2022-01-20T08:52:28.299Z</time>
      </trkpt>
      <trkpt lat="49.67064" lon="-1.27665">
        <ele>8.589765</ele>
        <time>2022-01-20T08:52:41.166Z</time>
      </trkpt>
      <trkpt lat="49.6705" lon="-1.27657">
        <ele>8.556147</ele>
        <time>2022-01-20T08:52:43.757Z</time>
      </trkpt>
      <trkpt lat="49.66994" lon="-1.27615">
        <ele>8.417375</ele>
        <time>2022-01-20T08:52:54.652Z</time>
      </trkpt>
      <trkpt lat="49.66928" lon="-1.27633">
        <ele>8.291723</ele>
        <time>2022-01-20T08:53:06.460Z</time>
      </trkpt>
      <trkpt lat="49.66787" lon="-1.27657">
        <ele>8.276349</ele>
        <time>2022-01-20T08:53:31.300Z</time>
      </trkpt>
      <trkpt lat="49.6667" lon="-1.27659">
        <ele>8.490786</ele>
        <time>2022-01-20T08:53:52.363Z</time>
      </trkpt>
      <trkpt lat="49.66643" lon="-1.27658">
        <ele>8.557714</ele>
        <time>2022-01-20T08:53:57.395Z</time>
      </trkpt>
      <trkpt lat="49.66602" lon="-1.2763">
        <ele>8.666641</ele>
        <time>2022-01-20T08:54:05.550Z</time>
      </trkpt>
      <trkpt lat="49.66567" lon="-1.27611">
        <ele>8.753878</ele>
        <time>2022-01-20T08:54:12.390Z</time>
      </trkpt>
      <trkpt lat="49.66532" lon="-1.27584">
        <ele>8.844137</ele>
        <time>2022-01-20T08:54:23.543Z</time>
      </trkpt>
      <trkpt lat="49.66503" lon="-1.27562">
        <ele>8.916344</ele>
        <time>2022-01-20T08:54:32.462Z</time>
      </trkpt>
      <trkpt lat="49.66418" lon="-1.27498">
        <ele>9.113152</ele>
        <time>2022-01-20T08:54:58.880Z</time>
      </trkpt>
      <trkpt lat="49.66329" lon="-1.27384">
        <ele>8.90869</ele>
        <time>2022-01-20T08:55:31.327Z</time>
      </trkpt>
      <trkpt lat="49.66252" lon="-1.27255">
        <ele>8.85442</ele>
        <time>2022-01-20T08:56:03.123Z</time>
      </trkpt>
      <trkpt lat="49.66179" lon="-1.27297">
        <ele>8.926165</ele>
        <time>2022-01-20T08:56:16.393Z</time>
      </trkpt>
      <trkpt lat="49.66179" lon="-1.27285">
        <ele>8.933904</ele>
        <time>2022-01-20T08:56:17.962Z</time>
      </trkpt>
      <trkpt lat="49.66185" lon="-1.27248">
        <ele>8.956675</ele>
        <time>2022-01-20T08:56:22.394Z</time>
      </trkpt>
      <trkpt lat="49.66175" lon="-1.2719">
        <ele>9.157832</ele>
        <time>2022-01-20T08:56:29.648Z</time>
      </trkpt>
      <trkpt lat="49.66179" lon="-1.27167">
        <ele>9.285749</ele>
        <time>2022-01-20T08:56:32.763Z</time>
      </trkpt>
      <trkpt lat="49.66167" lon="-1.27161">
        <ele>9.387024</ele>
        <time>2022-01-20T08:56:35.212Z</time>
      </trkpt>
      <trkpt lat="49.66123" lon="-1.27112">
        <ele>9.817955</ele>
        <time>2022-01-20T08:56:45.697Z</time>
      </trkpt>
      <trkpt lat="49.66098" lon="-1.27051">
        <ele>10.192119</ele>
        <time>2022-01-20T08:56:54.877Z</time>
      </trkpt>
      <trkpt lat="49.66065" lon="-1.27065">
        <ele>10.460754</ele>
        <time>2022-01-20T08:57:01.540Z</time>
      </trkpt>
      <trkpt lat="49.65982" lon="-1.27037">
        <ele>11.129999</ele>
        <time>2022-01-20T08:57:25.721Z</time>
      </trkpt>
      <trkpt lat="49.6597" lon="-1.27024">
        <ele>11.23844</ele>
        <time>2022-01-20T08:57:29.669Z</time>
      </trkpt>
      <trkpt lat="49.65953" lon="-1.26994">
        <ele>11.442157</ele>
        <time>2022-01-20T08:57:37.012Z</time>
      </trkpt>
      <trkpt lat="49.65931" lon="-1.26969">
        <ele>11.655862</ele>
        <time>2022-01-20T08:57:44.733Z</time>
      </trkpt>
      <trkpt lat="49.65873" lon="-1.26926">
        <ele>11.806556</ele>
        <time>2022-01-20T08:58:02.997Z</time>
      </trkpt>
      <trkpt lat="49.65747" lon="-1.2687">
        <ele>11.806453</ele>
        <time>2022-01-20T08:58:39.561Z</time>
      </trkpt>
      <trkpt lat="49.65738" lon="-1.26876">
        <ele>11.817951</ele>
        <time>2022-01-20T08:58:42.355Z</time>
      </trkpt>
      <trkpt lat="49.65724" lon="-1.26897">
        <ele>11.853598</ele>
        <time>2022-01-20T08:58:45.678Z</time>
      </trkpt>
      <trkpt lat="49.65676" lon="-1.26963">
        <ele>11.97097</ele>
        <time>2022-01-20T08:58:57.044Z</time>
      </trkpt>
      <trkpt lat="49.6565" lon="-1.26988">
        <ele>12.025986</ele>
        <time>2022-01-20T08:59:02.486Z</time>
      </trkpt>
      <trkpt lat="49.65635" lon="-1.27004">
        <ele>12.060336</ele>
        <time>2022-01-20T08:59:05.765Z</time>
      </trkpt>
      <trkpt lat="49.65611" lon="-1.27013">
        <ele>12.104151</ele>
        <time>2022-01-20T08:59:10.462Z</time>
      </trkpt>
      <trkpt lat="49.65605" lon="-1.2702">
        <ele>12.11749</ele>
        <time>2022-01-20T08:59:11.715Z</time>
      </trkpt>
      <trkpt lat="49.65587" lon="-1.27021">
        <ele>12.267541</ele>
        <time>2022-01-20T08:59:15.518Z</time>
      </trkpt>
      <trkpt lat="49.65547" lon="-1.27018">
        <ele>12.800856</ele>
        <time>2022-01-20T08:59:23.174Z</time>
      </trkpt>
      <trkpt lat="49.65487" lon="-1.26989">
        <ele>13.655628</ele>
        <time>2022-01-20T08:59:35.501Z</time>
      </trkpt>
      <trkpt lat="49.65482" lon="-1.26989">
        <ele>13.723855</ele>
        <time>2022-01-20T08:59:36.690Z</time>
      </trkpt>
      <trkpt lat="49.65478" lon="-1.26988">
        <ele>13.78529</ele>
        <time>2022-01-20T08:59:37.643Z</time>
      </trkpt>
      <trkpt lat="49.65421" lon="-1.2702">
        <ele>14.612899</ele>
        <time>2022-01-20T08:59:50.012Z</time>
      </trkpt>
      <trkpt lat="49.65414" lon="-1.27022">
        <ele>14.734759</ele>
        <time>2022-01-20T08:59:51.704Z</time>
      </trkpt>
      <trkpt lat="49.65412" lon="-1.27016">
        <ele>14.808159</ele>
        <time>2022-01-20T08:59:52.657Z</time>
      </trkpt>
      <trkpt lat="49.65406" lon="-1.2699">
        <ele>15.092267</ele>
        <time>2022-01-20T08:59:56.094Z</time>
      </trkpt>
      <trkpt lat="49.65402" lon="-1.26974">
        <ele>15.269667</ele>
        <time>2022-01-20T08:59:58.320Z</time>
      </trkpt>
      <trkpt lat="49.65402" lon="-1.26959">
        <ele>15.427975</ele>
        <time>2022-01-20T09:00:00.388Z</time>
      </trkpt>
      <trkpt lat="49.65392" lon="-1.26953">
        <ele>15.609721</ele>
        <time>2022-01-20T09:00:02.636Z</time>
      </trkpt>
      <trkpt lat="49.65378" lon="-1.26946">
        <ele>15.841538</ele>
        <time>2022-01-20T09:00:05.593Z</time>
      </trkpt>
      <trkpt lat="49.65326" lon="-1.26971">
        <ele>16.717973</ele>
        <time>2022-01-20T09:00:16.697Z</time>
      </trkpt>
      <trkpt lat="49.65305" lon="-1.26983">
        <ele>17.078547</ele>
        <time>2022-01-20T09:00:23.057Z</time>
      </trkpt>
      <trkpt lat="49.65231" lon="-1.27021">
        <ele>18.000762</ele>
        <time>2022-01-20T09:00:45.212Z</time>
      </trkpt>
      <trkpt lat="49.65087" lon="-1.27159">
        <ele>19.579212</ele>
        <time>2022-01-20T09:01:33.121Z</time>
      </trkpt>
      <trkpt lat="49.65014" lon="-1.27211">
        <ele>20.207676</ele>
        <time>2022-01-20T09:01:55.665Z</time>
      </trkpt>
      <trkpt lat="49.64985" lon="-1.27227">
        <ele>20.452507</ele>
        <time>2022-01-20T09:02:04.450Z</time>
      </trkpt>
      <trkpt lat="49.64833" lon="-1.27352">
        <ele>21.429891</ele>
        <time>2022-01-20T09:02:53.015Z</time>
      </trkpt>
      <trkpt lat="49.64767" lon="-1.27433">
        <ele>21.339063</ele>
        <time>2022-01-20T09:03:16.603Z</time>
      </trkpt>
      <trkpt lat="49.64726" lon="-1.27498">
        <ele>21.021211</ele>
        <time>2022-01-20T09:03:33.167Z</time>
      </trkpt>
      <trkpt lat="49.64686" lon="-1.27551">
        <ele>20.740145</ele>
        <time>2022-01-20T09:03:47.695Z</time>
      </trkpt>
      <trkpt lat="49.64654" lon="-1.27594">
        <ele>20.484216</ele>
        <time>2022-01-20T09:03:59.509Z</time>
      </trkpt>
      <trkpt lat="49.64609" lon="-1.27656">
        <ele>20.094427</ele>
        <time>2022-01-20T09:04:16.284Z</time>
      </trkpt>
      <trkpt lat="49.6457" lon="-1.27705">
        <ele>19.764488</ele>
        <time>2022-01-20T09:04:30.536Z</time>
      </trkpt>
      <trkpt lat="49.64551" lon="-1.27715">
        <ele>19.638682</ele>
        <time>2022-01-20T09:04:35.957Z</time>
      </trkpt>
      <trkpt lat="49.64543" lon="-1.2772">
        <ele>19.579219</ele>
        <time>2022-01-20T09:04:38.500Z</time>
      </trkpt>
      <trkpt lat="49.64485" lon="-1.27783">
        <ele>19.301709</ele>
        <time>2022-01-20T09:04:58.268Z</time>
      </trkpt>
      <trkpt lat="49.64369" lon="-1.27936">
        <ele>18.657091</ele>
        <time>2022-01-20T09:05:40.979Z</time>
      </trkpt>
      <trkpt lat="49.64264" lon="-1.28055">
        <ele>17.508787</ele>
        <time>2022-01-20T09:06:16.964Z</time>
      </trkpt>
      <trkpt lat="49.64242" lon="-1.28079">
        <ele>17.239796</ele>
        <time>2022-01-20T09:06:24.232Z</time>
      </trkpt>
      <trkpt lat="49.64191" lon="-1.28155">
        <ele>16.180251</ele>
        <time>2022-01-20T09:06:43.166Z</time>
      </trkpt>
      <trkpt lat="49.64046" lon="-1.28334">
        <ele>13.416933</ele>
        <time>2022-01-20T09:07:32.708Z</time>
      </trkpt>
      <trkpt lat="49.64001" lon="-1.28399">
        <ele>12.510124</ele>
        <time>2022-01-20T09:07:49.224Z</time>
      </trkpt>
      <trkpt lat="49.63991" lon="-1.28421">
        <ele>12.248635</ele>
        <time>2022-01-20T09:07:54.013Z</time>
      </trkpt>
      <trkpt lat="49.63991" lon="-1.28487">
        <ele>11.723571</ele>
        <time>2022-01-20T09:08:05.606Z</time>
      </trkpt>
      <trkpt lat="49.63933" lon="-1.28508">
        <ele>11.09964</ele>
        <time>2022-01-20T09:08:15.031Z</time>
      </trkpt>
      <trkpt lat="49.63778" lon="-1.28562">
        <ele>9.4036</ele>
        <time>2022-01-20T09:08:40.611Z</time>
      </trkpt>
      <trkpt lat="49.6376" lon="-1.28568">
        <ele>9.20805</ele>
        <time>2022-01-20T09:08:43.509Z</time>
      </trkpt>
      <trkpt lat="49.63753" lon="-1.28571">
        <ele>9.119527</ele>
        <time>2022-01-20T09:08:44.771Z</time>
      </trkpt>
      <trkpt lat="49.6372" lon="-1.28583">
        <ele>8.751391</ele>
        <time>2022-01-20T09:08:50.143Z</time>
      </trkpt>
      <trkpt lat="49.6372" lon="-1.28593">
        <ele>8.684186</ele>
        <time>2022-01-20T09:08:51.054Z</time>
      </trkpt>
      <trkpt lat="49.63678" lon="-1.28639">
        <ele>8.12094</ele>
        <time>2022-01-20T09:08:59.330Z</time>
      </trkpt>
      <trkpt lat="49.63629" lon="-1.28676">
        <ele>7.219065</ele>
        <time>2022-01-20T09:09:08.025Z</time>
      </trkpt>
      <trkpt lat="49.63595" lon="-1.28711">
        <ele>6.552295</ele>
        <time>2022-01-20T09:09:14.248Z</time>
      </trkpt>
      <trkpt lat="49.63579" lon="-1.28747">
        <ele>6.087004</ele>
        <time>2022-01-20T09:09:18.598Z</time>
      </trkpt>
      <trkpt lat="49.63574" lon="-1.28762">
        <ele>5.911147</ele>
        <time>2022-01-20T09:09:20.203Z</time>
      </trkpt>
      <trkpt lat="49.63573" lon="-1.28773">
        <ele>5.79083</ele>
        <time>2022-01-20T09:09:21.292Z</time>
      </trkpt>
      <trkpt lat="49.63575" lon="-1.28807">
        <ele>5.423706</ele>
        <time>2022-01-20T09:09:25.039Z</time>
      </trkpt>
      <trkpt lat="49.63585" lon="-1.28855">
        <ele>5.166037</ele>
        <time>2022-01-20T09:09:30.404Z</time>
      </trkpt>
      <trkpt lat="49.63584" lon="-1.28867">
        <ele>5.163097</ele>
        <time>2022-01-20T09:09:31.746Z</time>
      </trkpt>
      <trkpt lat="49.63562" lon="-1.28907">
        <ele>5.151148</ele>
        <time>2022-01-20T09:09:37.459Z</time>
      </trkpt>
      <trkpt lat="49.63544" lon="-1.28953">
        <ele>5.13878</ele>
        <time>2022-01-20T09:09:43.456Z</time>
      </trkpt>
      <trkpt lat="49.63541" lon="-1.28967">
        <ele>5.135331</ele>
        <time>2022-01-20T09:09:45.097Z</time>
      </trkpt>
      <trkpt lat="49.6353" lon="-1.29016">
        <ele>5.123389</ele>
        <time>2022-01-20T09:09:51.565Z</time>
      </trkpt>
      <trkpt lat="49.63534" lon="-1.29055">
        <ele>5.114061</ele>
        <time>2022-01-20T09:09:56.604Z</time>
      </trkpt>
      <trkpt lat="49.63519" lon="-1.29093">
        <ele>5.211052</ele>
        <time>2022-01-20T09:10:02.256Z</time>
      </trkpt>
      <trkpt lat="49.6345" lon="-1.29159">
        <ele>5.979106</ele>
        <time>2022-01-20T09:10:18.529Z</time>
      </trkpt>
      <trkpt lat="49.63442" lon="-1.29164">
        <ele>6.059121</ele>
        <time>2022-01-20T09:10:20.333Z</time>
      </trkpt>
      <trkpt lat="49.63434" lon="-1.29153">
        <ele>6.1574</ele>
        <time>2022-01-20T09:10:22.271Z</time>
      </trkpt>
      <trkpt lat="49.63421" lon="-1.29143">
        <ele>6.295576</ele>
        <time>2022-01-20T09:10:24.880Z</time>
      </trkpt>
      <trkpt lat="49.63401" lon="-1.29133">
        <ele>6.490057</ele>
        <time>2022-01-20T09:10:28.783Z</time>
      </trkpt>
      <trkpt lat="49.63365" lon="-1.29155">
        <ele>6.800559</ele>
        <time>2022-01-20T09:10:36.130Z</time>
      </trkpt>
      <trkpt lat="49.63302" lon="-1.29187">
        <ele>6.82389</ele>
        <time>2022-01-20T09:10:47.986Z</time>
      </trkpt>
      <trkpt lat="49.63197" lon="-1.29216">
        <ele>6.861887</ele>
        <time>2022-01-20T09:11:06.603Z</time>
      </trkpt>
      <trkpt lat="49.63163" lon="-1.29235">
        <ele>7.013331</ele>
        <time>2022-01-20T09:11:12.920Z</time>
      </trkpt>
      <trkpt lat="49.63125" lon="-1.29269">
        <ele>7.207087</ele>
        <time>2022-01-20T09:11:21.114Z</time>
      </trkpt>
      <trkpt lat="49.63111" lon="-1.29272">
        <ele>7.267008</ele>
        <time>2022-01-20T09:11:23.734Z</time>
      </trkpt>
      <trkpt lat="49.63065" lon="-1.29408">
        <ele>7.78146</ele>
        <time>2022-01-20T09:11:51.752Z</time>
      </trkpt>
      <trkpt lat="49.6305" lon="-1.29492">
        <ele>8.40292</ele>
        <time>2022-01-20T09:12:07.831Z</time>
      </trkpt>
      <trkpt lat="49.63042" lon="-1.29602">
        <ele>9.18789</ele>
        <time>2022-01-20T09:12:28.129Z</time>
      </trkpt>
      <trkpt lat="49.63004" lon="-1.29719">
        <ele>10.657608</ele>
        <time>2022-01-20T09:12:52.167Z</time>
      </trkpt>
      <trkpt lat="49.6297" lon="-1.29842">
        <ele>12.61967</ele>
        <time>2022-01-20T09:13:16.822Z</time>
      </trkpt>
      <trkpt lat="49.62961" lon="-1.29855">
        <ele>12.89978</ele>
        <time>2022-01-20T09:13:20.418Z</time>
      </trkpt>
      <trkpt lat="49.62928" lon="-1.29905">
        <ele>14.173211</ele>
        <time>2022-01-20T09:13:33.879Z</time>
      </trkpt>
      <trkpt lat="49.62905" lon="-1.29886">
        <ele>15.242781</ele>
        <time>2022-01-20T09:13:41.532Z</time>
      </trkpt>
      <trkpt lat="49.62894" lon="-1.29892">
        <ele>15.698146</ele>
        <time>2022-01-20T09:13:44.778Z</time>
      </trkpt>
      <trkpt lat="49.62847" lon="-1.29932">
        <ele>17.915685</ele>
        <time>2022-01-20T09:14:00.832Z</time>
      </trkpt>
      <trkpt lat="49.6281" lon="-1.29986">
        <ele>19.999782</ele>
        <time>2022-01-20T09:14:15.986Z</time>
      </trkpt>
      <trkpt lat="49.62758" lon="-1.30013">
        <ele>23.336875</ele>
        <time>2022-01-20T09:14:33.096Z</time>
      </trkpt>
      <trkpt lat="49.62729" lon="-1.30007">
        <ele>25.698305</ele>
        <time>2022-01-20T09:14:43.195Z</time>
      </trkpt>
      <trkpt lat="49.62685" lon="-1.29954">
        <ele>30.070632</ele>
        <time>2022-01-20T09:15:03.129Z</time>
      </trkpt>
      <trkpt lat="49.62677" lon="-1.29982">
        <ele>31.648808</ele>
        <time>2022-01-20T09:15:11.053Z</time>
      </trkpt>
      <trkpt lat="49.62661" lon="-1.2997">
        <ele>33.074687</ele>
        <time>2022-01-20T09:15:18.218Z</time>
      </trkpt>
      <trkpt lat="49.62652" lon="-1.29996">
        <ele>34.59383</ele>
        <time>2022-01-20T09:15:24.710Z</time>
      </trkpt>
      <trkpt lat="49.62642" lon="-1.30023">
        <ele>36.595219</ele>
        <time>2022-01-20T09:15:31.163Z</time>
      </trkpt>
      <trkpt lat="49.62622" lon="-1.30067">
        <ele>40.672868</ele>
        <time>2022-01-20T09:15:43.139Z</time>
      </trkpt>
      <trkpt lat="49.62595" lon="-1.30129">
        <ele>46.336116</ele>
        <time>2022-01-20T09:16:04.703Z</time>
      </trkpt>
      <trkpt lat="49.62592" lon="-1.30141">
        <ele>47.31154</ele>
        <time>2022-01-20T09:16:09.276Z</time>
      </trkpt>
      <trkpt lat="49.62545" lon="-1.30108">
        <ele>53.4066</ele>
        <time>2022-01-20T09:16:33.233Z</time>
      </trkpt>
      <trkpt lat="49.62523" lon="-1.30098">
        <ele>56.089252</ele>
        <time>2022-01-20T09:16:43.843Z</time>
      </trkpt>
      <trkpt lat="49.62464" lon="-1.30137">
        <ele>62.774614</ele>
        <time>2022-01-20T09:17:10.988Z</time>
      </trkpt>
      <trkpt lat="49.62424" lon="-1.30143">
        <ele>67.038164</ele>
        <time>2022-01-20T09:17:27.125Z</time>
      </trkpt>
      <trkpt lat="49.6237" lon="-1.30113">
        <ele>72.947695</ele>
        <time>2022-01-20T09:17:50.149Z</time>
      </trkpt>
      <trkpt lat="49.62314" lon="-1.30108">
        <ele>77.759549</ele>
        <time>2022-01-20T09:18:12.321Z</time>
      </trkpt>
      <trkpt lat="49.62266" lon="-1.30116">
        <ele>81.324779</ele>
        <time>2022-01-20T09:18:29.304Z</time>
      </trkpt>
      <trkpt lat="49.62306" lon="-1.30174">
        <ele>85.388795</ele>
        <time>2022-01-20T09:18:48.087Z</time>
      </trkpt>
      <trkpt lat="49.62309" lon="-1.30205">
        <ele>86.891525</ele>
        <time>2022-01-20T09:18:54.748Z</time>
      </trkpt>
      <trkpt lat="49.62302" lon="-1.30254">
        <ele>88.974221</ele>
        <time>2022-01-20T09:19:05.293Z</time>
      </trkpt>
      <trkpt lat="49.62115" lon="-1.30492">
        <ele>99.329966</ele>
        <time>2022-01-20T09:20:19.536Z</time>
      </trkpt>
      <trkpt lat="49.62073" lon="-1.30582">
        <ele>101.313558</ele>
        <time>2022-01-20T09:20:40.093Z</time>
      </trkpt>
      <trkpt lat="49.61964" lon="-1.30534">
        <ele>101.222425</ele>
        <time>2022-01-20T09:20:59.389Z</time>
      </trkpt>
      <trkpt lat="49.61947" lon="-1.30525">
        <ele>101.00134</ele>
        <time>2022-01-20T09:21:01.918Z</time>
      </trkpt>
      <trkpt lat="49.61771" lon="-1.30442">
        <ele>96.956255</ele>
        <time>2022-01-20T09:21:28.022Z</time>
      </trkpt>
      <trkpt lat="49.61755" lon="-1.30472">
        <ele>96.22849</ele>
        <time>2022-01-20T09:21:34.277Z</time>
      </trkpt>
      <trkpt lat="49.61718" lon="-1.30576">
        <ele>93.641222</ele>
        <time>2022-01-20T09:21:53.034Z</time>
      </trkpt>
      <trkpt lat="49.61701" lon="-1.30642">
        <ele>91.693521</ele>
        <time>2022-01-20T09:22:04.027Z</time>
      </trkpt>
      <trkpt lat="49.61692" lon="-1.30673">
        <ele>90.75423</ele>
        <time>2022-01-20T09:22:09.324Z</time>
      </trkpt>
      <trkpt lat="49.61645" lon="-1.30635">
        <ele>88.48699</ele>
        <time>2022-01-20T09:22:21.855Z</time>
      </trkpt>
      <trkpt lat="49.61596" lon="-1.30611">
        <ele>86.238136</ele>
        <time>2022-01-20T09:22:33.595Z</time>
      </trkpt>
      <trkpt lat="49.61552" lon="-1.30566">
        <ele>83.71693</ele>
        <time>2022-01-20T09:22:45.610Z</time>
      </trkpt>
      <trkpt lat="49.61513" lon="-1.30514">
        <ele>81.269883</ele>
        <time>2022-01-20T09:22:57.593Z</time>
      </trkpt>
      <trkpt lat="49.61473" lon="-1.30479">
        <ele>79.099767</ele>
        <time>2022-01-20T09:23:08.476Z</time>
      </trkpt>
      <trkpt lat="49.61434" lon="-1.30438">
        <ele>76.908019</ele>
        <time>2022-01-20T09:23:19.811Z</time>
      </trkpt>
      <trkpt lat="49.61424" lon="-1.30405">
        <ele>75.855341</ele>
        <time>2022-01-20T09:23:25.328Z</time>
      </trkpt>
      <trkpt lat="49.61418" lon="-1.30327">
        <ele>73.554308</ele>
        <time>2022-01-20T09:23:37.133Z</time>
      </trkpt>
      <trkpt lat="49.61396" lon="-1.30266">
        <ele>71.530693</ele>
        <time>2022-01-20T09:23:47.518Z</time>
      </trkpt>
      <trkpt lat="49.61386" lon="-1.30256">
        <ele>70.982314</ele>
        <time>2022-01-20T09:23:50.399Z</time>
      </trkpt>
      <trkpt lat="49.61368" lon="-1.30242">
        <ele>70.02281</ele>
        <time>2022-01-20T09:23:55.082Z</time>
      </trkpt>
      <trkpt lat="49.61227" lon="-1.30192">
        <ele>62.733761</ele>
        <time>2022-01-20T09:24:13.473Z</time>
      </trkpt>
      <trkpt lat="49.61157" lon="-1.30171">
        <ele>59.085414</ele>
        <time>2022-01-20T09:24:22.478Z</time>
      </trkpt>
      <trkpt lat="49.611" lon="-1.30175">
        <ele>56.125947</ele>
        <time>2022-01-20T09:24:29.685Z</time>
      </trkpt>
      <trkpt lat="49.60957" lon="-1.30206">
        <ele>49.98524</ele>
        <time>2022-01-20T09:24:47.845Z</time>
      </trkpt>
      <trkpt lat="49.60903" lon="-1.30253">
        <ele>48.051498</ele>
        <time>2022-01-20T09:24:56.589Z</time>
      </trkpt>
      <trkpt lat="49.60883" lon="-1.30258">
        <ele>47.408089</ele>
        <time>2022-01-20T09:24:59.440Z</time>
      </trkpt>
      <trkpt lat="49.60871" lon="-1.30261">
        <ele>47.045509</ele>
        <time>2022-01-20T09:25:01.669Z</time>
      </trkpt>
      <trkpt lat="49.60846" lon="-1.30276">
        <ele>46.357597</ele>
        <time>2022-01-20T09:25:05.712Z</time>
      </trkpt>
      <trkpt lat="49.60828" lon="-1.30294">
        <ele>46.260005</ele>
        <time>2022-01-20T09:25:09.280Z</time>
      </trkpt>
      <trkpt lat="49.60812" lon="-1.30318">
        <ele>46.156186</ele>
        <time>2022-01-20T09:25:13.060Z</time>
      </trkpt>
      <trkpt lat="49.6078" lon="-1.3034">
        <ele>45.995699</ele>
        <time>2022-01-20T09:25:18.849Z</time>
      </trkpt>
      <trkpt lat="49.60758" lon="-1.30347">
        <ele>45.89359</ele>
        <time>2022-01-20T09:25:22.479Z</time>
      </trkpt>
      <trkpt lat="49.60745" lon="-1.30353">
        <ele>45.830329</ele>
        <time>2022-01-20T09:25:25.129Z</time>
      </trkpt>
      <trkpt lat="49.60724" lon="-1.3036">
        <ele>45.730321</ele>
        <time>2022-01-20T09:25:29.292Z</time>
      </trkpt>
      <trkpt lat="49.60543" lon="-1.3034">
        <ele>43.667098</ele>
        <time>2022-01-20T09:25:57.904Z</time>
      </trkpt>
      <trkpt lat="49.60471" lon="-1.30302">
        <ele>42.164313</ele>
        <time>2022-01-20T09:26:08.774Z</time>
      </trkpt>
      <trkpt lat="49.60404" lon="-1.30289">
        <ele>40.441651</ele>
        <time>2022-01-20T09:26:18.388Z</time>
      </trkpt>
      <trkpt lat="49.60384" lon="-1.30287">
        <ele>39.935568</ele>
        <time>2022-01-20T09:26:21.247Z</time>
      </trkpt>
      <trkpt lat="49.6038" lon="-1.30255">
        <ele>39.407482</ele>
        <time>2022-01-20T09:26:26.434Z</time>
      </trkpt>
      <trkpt lat="49.60342" lon="-1.30192">
        <ele>37.639974</ele>
        <time>2022-01-20T09:26:40.470Z</time>
      </trkpt>
      <trkpt lat="49.60312" lon="-1.30071">
        <ele>34.38543</ele>
        <time>2022-01-20T09:27:00.616Z</time>
      </trkpt>
      <trkpt lat="49.603" lon="-1.30017">
        <ele>32.949305</ele>
        <time>2022-01-20T09:27:09.394Z</time>
      </trkpt>
      <trkpt lat="49.6024" lon="-1.30044">
        <ele>30.210474</ele>
        <time>2022-01-20T09:27:24.051Z</time>
      </trkpt>
      <trkpt lat="49.60182" lon="-1.30067">
        <ele>27.233933</ele>
        <time>2022-01-20T09:27:37.825Z</time>
      </trkpt>
      <trkpt lat="49.60134" lon="-1.30077">
        <ele>24.833028</ele>
        <time>2022-01-20T09:27:48.713Z</time>
      </trkpt>
      <trkpt lat="49.60039" lon="-1.3014">
        <ele>20.493035</ele>
        <time>2022-01-20T09:28:13.050Z</time>
      </trkpt>
      <trkpt lat="49.6003" lon="-1.30152">
        <ele>20.077137</ele>
        <time>2022-01-20T09:28:15.699Z</time>
      </trkpt>
      <trkpt lat="49.6" lon="-1.30155">
        <ele>19.008395</ele>
        <time>2022-01-20T09:28:19.721Z</time>
      </trkpt>
      <trkpt lat="49.59864" lon="-1.30222">
        <ele>15.339161</ele>
        <time>2022-01-20T09:28:40.055Z</time>
      </trkpt>
      <trkpt lat="49.59843" lon="-1.30242">
        <ele>15.007408</ele>
        <time>2022-01-20T09:28:46.838Z</time>
      </trkpt>
      <trkpt lat="49.59799" lon="-1.30267">
        <ele>14.368777</ele>
        <time>2022-01-20T09:28:59.842Z</time>
      </trkpt>
      <trkpt lat="49.59702" lon="-1.30296">
        <ele>13.78051</ele>
        <time>2022-01-20T09:29:27.580Z</time>
      </trkpt>
      <trkpt lat="49.59686" lon="-1.30311">
        <ele>13.783041</ele>
        <time>2022-01-20T09:29:32.896Z</time>
      </trkpt>
      <trkpt lat="49.59661" lon="-1.30339">
        <ele>13.787162</ele>
        <time>2022-01-20T09:29:38.515Z</time>
      </trkpt>
      <trkpt lat="49.59615" lon="-1.3038">
        <ele>13.794187</ele>
        <time>2022-01-20T09:29:48.249Z</time>
      </trkpt>
      <trkpt lat="49.59595" lon="-1.30386">
        <ele>13.796982</ele>
        <time>2022-01-20T09:29:52.111Z</time>
      </trkpt>
      <trkpt lat="49.59605" lon="-1.3043">
        <ele>13.94886</ele>
        <time>2022-01-20T09:29:57.900Z</time>
      </trkpt>
      <trkpt lat="49.59588" lon="-1.3047">
        <ele>14.109158</ele>
        <time>2022-01-20T09:30:03.853Z</time>
      </trkpt>
      <trkpt lat="49.59586" lon="-1.30475">
        <ele>14.126265</ele>
        <time>2022-01-20T09:30:04.519Z</time>
      </trkpt>
      <trkpt lat="49.59565" lon="-1.30502">
        <ele>14.264694</ele>
        <time>2022-01-20T09:30:09.703Z</time>
      </trkpt>
      <trkpt lat="49.59557" lon="-1.30509">
        <ele>14.312222</ele>
        <time>2022-01-20T09:30:11.526Z</time>
      </trkpt>
      <trkpt lat="49.59531" lon="-1.3053">
        <ele>14.461854</ele>
        <time>2022-01-20T09:30:17.123Z</time>
      </trkpt>
      <trkpt lat="49.5951" lon="-1.30521">
        <ele>14.571572</ele>
        <time>2022-01-20T09:30:21.241Z</time>
      </trkpt>
      <trkpt lat="49.59438" lon="-1.30509">
        <ele>14.617141</ele>
        <time>2022-01-20T09:30:34.329Z</time>
      </trkpt>
      <trkpt lat="49.59378" lon="-1.30496">
        <ele>14.492238</ele>
        <time>2022-01-20T09:30:44.836Z</time>
      </trkpt>
      <trkpt lat="49.59337" lon="-1.30477">
        <ele>14.403179</ele>
        <time>2022-01-20T09:30:52.264Z</time>
      </trkpt>
      <trkpt lat="49.59326" lon="-1.30471">
        <ele>14.378915</ele>
        <time>2022-01-20T09:30:54.299Z</time>
      </trkpt>
      <trkpt lat="49.59306" lon="-1.30447">
        <ele>14.32901</ele>
        <time>2022-01-20T09:30:58.570Z</time>
      </trkpt>
      <trkpt lat="49.59262" lon="-1.30466">
        <ele>14.248799</ele>
        <time>2022-01-20T09:31:06.409Z</time>
      </trkpt>
      <trkpt lat="49.5925" lon="-1.30472">
        <ele>14.226027</ele>
        <time>2022-01-20T09:31:08.526Z</time>
      </trkpt>
      <trkpt lat="49.59102" lon="-1.30579">
        <ele>14.033493</ele>
        <time>2022-01-20T09:31:36.139Z</time>
      </trkpt>
      <trkpt lat="49.59082" lon="-1.30591">
        <ele>14.038996</ele>
        <time>2022-01-20T09:31:39.976Z</time>
      </trkpt>
      <trkpt lat="49.59052" lon="-1.30606">
        <ele>14.047098</ele>
        <time>2022-01-20T09:31:45.614Z</time>
      </trkpt>
      <trkpt lat="49.58876" lon="-1.30672">
        <ele>13.550327</ele>
        <time>2022-01-20T09:32:15.909Z</time>
      </trkpt>
      <trkpt lat="49.58847" lon="-1.30677">
        <ele>13.397935</ele>
        <time>2022-01-20T09:32:20.760Z</time>
      </trkpt>
      <trkpt lat="49.58818" lon="-1.30681">
        <ele>13.250133</ele>
        <time>2022-01-20T09:32:25.357Z</time>
      </trkpt>
      <trkpt lat="49.58783" lon="-1.30688">
        <ele>13.019817</ele>
        <time>2022-01-20T09:32:30.846Z</time>
      </trkpt>
      <trkpt lat="49.58775" lon="-1.30687">
        <ele>12.948061</ele>
        <time>2022-01-20T09:32:32.139Z</time>
      </trkpt>
      <trkpt lat="49.58769" lon="-1.30681">
        <ele>12.882028</ele>
        <time>2022-01-20T09:32:33.303Z</time>
      </trkpt>
      <trkpt lat="49.58719" lon="-1.30579">
        <ele>12.161589</ele>
        <time>2022-01-20T09:32:46.487Z</time>
      </trkpt>
      <trkpt lat="49.5871" lon="-1.30568">
        <ele>12.065153</ele>
        <time>2022-01-20T09:32:48.230Z</time>
      </trkpt>
      <trkpt lat="49.58707" lon="-1.30566">
        <ele>12.033421</ele>
        <time>2022-01-20T09:32:48.803Z</time>
      </trkpt>
      <trkpt lat="49.58698" lon="-1.30562">
        <ele>11.949448</ele>
        <time>2022-01-20T09:32:50.321Z</time>
      </trkpt>
      <trkpt lat="49.58662" lon="-1.30562">
        <ele>11.641553</ele>
        <time>2022-01-20T09:32:56.048Z</time>
      </trkpt>
      <trkpt lat="49.58577" lon="-1.30589">
        <ele>11.799241</ele>
        <time>2022-01-20T09:33:10.729Z</time>
      </trkpt>
      <trkpt lat="49.58531" lon="-1.30617">
        <ele>11.929082</ele>
        <time>2022-01-20T09:33:19.568Z</time>
      </trkpt>
      <trkpt lat="49.58488" lon="-1.30644">
        <ele>12.049885</ele>
        <time>2022-01-20T09:33:28.039Z</time>
      </trkpt>
      <trkpt lat="49.58316" lon="-1.30784">
        <ele>14.630665</ele>
        <time>2022-01-20T09:34:05.999Z</time>
      </trkpt>
      <trkpt lat="49.58236" lon="-1.30847">
        <ele>15.856681</ele>
        <time>2022-01-20T09:34:23.893Z</time>
      </trkpt>
      <trkpt lat="49.58231" lon="-1.3085">
        <ele>15.933714</ele>
        <time>2022-01-20T09:34:24.999Z</time>
      </trkpt>
      <trkpt lat="49.5813" lon="-1.30908">
        <ele>16.885807</ele>
        <time>2022-01-20T09:34:45.685Z</time>
      </trkpt>
      <trkpt lat="49.58099" lon="-1.30938">
        <ele>16.837835</ele>
        <time>2022-01-20T09:34:52.063Z</time>
      </trkpt>
      <trkpt lat="49.58057" lon="-1.30951">
        <ele>16.780732</ele>
        <time>2022-01-20T09:34:59.280Z</time>
      </trkpt>
      <trkpt lat="49.58038" lon="-1.30944">
        <ele>16.755623</ele>
        <time>2022-01-20T09:35:02.361Z</time>
      </trkpt>
      <trkpt lat="49.58028" lon="-1.3094">
        <ele>16.741707</ele>
        <time>2022-01-20T09:35:04.013Z</time>
      </trkpt>
      <trkpt lat="49.58" lon="-1.30943">
        <ele>16.704585</ele>
        <time>2022-01-20T09:35:08.482Z</time>
      </trkpt>
      <trkpt lat="49.57972" lon="-1.3095">
        <ele>16.312659</ele>
        <time>2022-01-20T09:35:12.874Z</time>
      </trkpt>
      <trkpt lat="49.57938" lon="-1.30968">
        <ele>15.620401</ele>
        <time>2022-01-20T09:35:18.406Z</time>
      </trkpt>
      <trkpt lat="49.57921" lon="-1.30979">
        <ele>15.270914</ele>
        <time>2022-01-20T09:35:21.153Z</time>
      </trkpt>
      <trkpt lat="49.57886" lon="-1.31">
        <ele>14.563071</ele>
        <time>2022-01-20T09:35:26.558Z</time>
      </trkpt>
      <trkpt lat="49.57847" lon="-1.31019">
        <ele>13.780702</ele>
        <time>2022-01-20T09:35:32.365Z</time>
      </trkpt>
      <trkpt lat="49.57797" lon="-1.3103">
        <ele>12.885138</ele>
        <time>2022-01-20T09:35:39.637Z</time>
      </trkpt>
      <trkpt lat="49.57749" lon="-1.31025">
        <ele>12.097129</ele>
        <time>2022-01-20T09:35:46.604Z</time>
      </trkpt>
      <trkpt lat="49.57744" lon="-1.31019">
        <ele>11.986269</ele>
        <time>2022-01-20T09:35:47.488Z</time>
      </trkpt>
      <trkpt lat="49.57714" lon="-1.3104">
        <ele>11.453747</ele>
        <time>2022-01-20T09:35:52.561Z</time>
      </trkpt>
      <trkpt lat="49.57709" lon="-1.31043">
        <ele>11.373585</ele>
        <time>2022-01-20T09:35:53.238Z</time>
      </trkpt>
      <trkpt lat="49.57646" lon="-1.31098">
        <ele>10.41508</ele>
        <time>2022-01-20T09:36:04.902Z</time>
      </trkpt>
      <trkpt lat="49.57619" lon="-1.31112">
        <ele>10.622713</ele>
        <time>2022-01-20T09:36:09.873Z</time>
      </trkpt>
      <trkpt lat="49.57585" lon="-1.31129">
        <ele>10.87285</ele>
        <time>2022-01-20T09:36:15.909Z</time>
      </trkpt>
      <trkpt lat="49.5754" lon="-1.31147">
        <ele>11.199115</ele>
        <time>2022-01-20T09:36:24.647Z</time>
      </trkpt>
      <trkpt lat="49.57524" lon="-1.31154">
        <ele>11.318695</ele>
        <time>2022-01-20T09:36:27.938Z</time>
      </trkpt>
      <trkpt lat="49.57454" lon="-1.3118">
        <ele>11.882534</ele>
        <time>2022-01-20T09:36:42.532Z</time>
      </trkpt>
      <trkpt lat="49.57433" lon="-1.31189">
        <ele>12.075789</ele>
        <time>2022-01-20T09:36:46.910Z</time>
      </trkpt>
      <trkpt lat="49.57337" lon="-1.31244">
        <ele>12.978476</ele>
        <time>2022-01-20T09:37:05.848Z</time>
      </trkpt>
      <trkpt lat="49.57322" lon="-1.31249">
        <ele>13.11239</ele>
        <time>2022-01-20T09:37:08.498Z</time>
      </trkpt>
      <trkpt lat="49.57293" lon="-1.31255">
        <ele>12.952872</ele>
        <time>2022-01-20T09:37:13.475Z</time>
      </trkpt>
      <trkpt lat="49.57272" lon="-1.3126">
        <ele>12.63157</ele>
        <time>2022-01-20T09:37:17.173Z</time>
      </trkpt>
      <trkpt lat="49.57257" lon="-1.31265">
        <ele>12.398103</ele>
        <time>2022-01-20T09:37:19.737Z</time>
      </trkpt>
      <trkpt lat="49.57215" lon="-1.31289">
        <ele>11.728696</ele>
        <time>2022-01-20T09:37:26.628Z</time>
      </trkpt>
      <trkpt lat="49.57123" lon="-1.3136">
        <ele>9.865571</ele>
        <time>2022-01-20T09:37:41.111Z</time>
      </trkpt>
      <trkpt lat="49.57112" lon="-1.31336">
        <ele>9.290696</ele>
        <time>2022-01-20T09:37:43.753Z</time>
      </trkpt>
      <trkpt lat="49.57068" lon="-1.31037">
        <ele>4.043778</ele>
        <time>2022-01-20T09:38:11.140Z</time>
      </trkpt>
      <trkpt lat="49.57032" lon="-1.30788">
        <ele>1.534009</ele>
        <time>2022-01-20T09:38:36.641Z</time>
      </trkpt>
      <trkpt lat="49.5701" lon="-1.30627">
        <ele>0.990212</ele>
        <time>2022-01-20T09:38:54.475Z</time>
      </trkpt>
      <trkpt lat="49.56993" lon="-1.30616">
        <ele>0.899712</ele>
        <time>2022-01-20T09:38:59.455Z</time>
      </trkpt>
      <trkpt lat="49.56973" lon="-1.30617">
        <ele>0.844715</ele>
        <time>2022-01-20T09:39:05.089Z</time>
      </trkpt>
      <trkpt lat="49.56964" lon="-1.3061">
        <ele>0.839135</ele>
        <time>2022-01-20T09:39:07.854Z</time>
      </trkpt>
      <trkpt lat="49.5694" lon="-1.30608">
        <ele>0.825079</ele>
        <time>2022-01-20T09:39:14.755Z</time>
      </trkpt>
      <trkpt lat="49.56898" lon="-1.30617">
        <ele>0.80077</ele>
        <time>2022-01-20T09:39:26.643Z</time>
      </trkpt>
      <trkpt lat="49.56851" lon="-1.30632">
        <ele>0.773735</ele>
        <time>2022-01-20T09:39:39.883Z</time>
      </trkpt>
      <trkpt lat="49.56816" lon="-1.30642">
        <ele>0.753601</ele>
        <time>2022-01-20T09:39:49.752Z</time>
      </trkpt>
      <trkpt lat="49.56767" lon="-1.30656">
        <ele>0.667842</ele>
        <time>2022-01-20T09:40:03.794Z</time>
      </trkpt>
      <trkpt lat="49.56704" lon="-1.30669">
        <ele>0.542425</ele>
        <time>2022-01-20T09:40:21.631Z</time>
      </trkpt>
      <trkpt lat="49.56669" lon="-1.30677">
        <ele>0.473976</ele>
        <time>2022-01-20T09:40:31.371Z</time>
      </trkpt>
      <trkpt lat="49.56656" lon="-1.30675">
        <ele>0.447504</ele>
        <time>2022-01-20T09:40:35.142Z</time>
      </trkpt>
      <trkpt lat="49.5659" lon="-1.30692">
        <ele>0.337911</ele>
        <time>2022-01-20T09:40:53.767Z</time>
      </trkpt>
      <trkpt lat="49.56514" lon="-1.30707">
        <ele>0.228316</ele>
        <time>2022-01-20T09:41:15.252Z</time>
      </trkpt>
      <trkpt lat="49.5644" lon="-1.30721">
        <ele>0.135647</ele>
        <time>2022-01-20T09:41:36.039Z</time>
      </trkpt>
      <trkpt lat="49.56428" lon="-1.30726">
        <ele>0.13309</ele>
        <time>2022-01-20T09:41:39.422Z</time>
      </trkpt>
      <trkpt lat="49.56415" lon="-1.30734">
        <ele>0.130057</ele>
        <time>2022-01-20T09:41:43.438Z</time>
      </trkpt>
      <trkpt lat="49.56302" lon="-1.30753">
        <ele>0.106021</ele>
        <time>2022-01-20T09:42:15.236Z</time>
      </trkpt>
      <trkpt lat="49.56284" lon="-1.30753">
        <ele>0.102327</ele>
        <time>2022-01-20T09:42:20.113Z</time>
      </trkpt>
      <trkpt lat="49.56274" lon="-1.30754">
        <ele>0.100084</ele>
        <time>2022-01-20T09:42:23.072Z</time>
      </trkpt>
      <trkpt lat="49.56254" lon="-1.30765">
        <ele>0.1</ele>
        <time>2022-01-20T09:42:29.097Z</time>
      </trkpt>
      <trkpt lat="49.56051" lon="-1.30782">
        <ele>0.13726</ele>
        <time>2022-01-20T09:43:25.715Z</time>
      </trkpt>
      <trkpt lat="49.55986" lon="-1.30798">
        <ele>0.192234</ele>
        <time>2022-01-20T09:43:43.996Z</time>
      </trkpt>
      <trkpt lat="49.55905" lon="-1.30803">
        <ele>0.281169</ele>
        <time>2022-01-20T09:44:06.746Z</time>
      </trkpt>
      <trkpt lat="49.55875" lon="-1.30796">
        <ele>0.363507</ele>
        <time>2022-01-20T09:44:15.216Z</time>
      </trkpt>
      <trkpt lat="49.55839" lon="-1.30795">
        <ele>0.462847</ele>
        <time>2022-01-20T09:44:25.455Z</time>
      </trkpt>
      <trkpt lat="49.55808" lon="-1.30785">
        <ele>0.550753</ele>
        <time>2022-01-20T09:44:34.502Z</time>
      </trkpt>
      <trkpt lat="49.55785" lon="-1.3081">
        <ele>0.626644</ele>
        <time>2022-01-20T09:44:42.313Z</time>
      </trkpt>
      <trkpt lat="49.55743" lon="-1.30826">
        <ele>0.743795</ele>
        <time>2022-01-20T09:44:54.470Z</time>
      </trkpt>
      <trkpt lat="49.55712" lon="-1.30823">
        <ele>0.801075</ele>
        <time>2022-01-20T09:45:03.233Z</time>
      </trkpt>
      <trkpt lat="49.55673" lon="-1.30834">
        <ele>0.874353</ele>
        <time>2022-01-20T09:45:14.422Z</time>
      </trkpt>
      <trkpt lat="49.5565" lon="-1.30831">
        <ele>0.916519</ele>
        <time>2022-01-20T09:45:20.864Z</time>
      </trkpt>
      <trkpt lat="49.55616" lon="-1.30858">
        <ele>0.987295</ele>
        <time>2022-01-20T09:45:31.673Z</time>
      </trkpt>
      <trkpt lat="49.55518" lon="-1.30876">
        <ele>0.951162</ele>
        <time>2022-01-20T09:45:59.098Z</time>
      </trkpt>
      <trkpt lat="49.55489" lon="-1.30891">
        <ele>0.879567</ele>
        <time>2022-01-20T09:46:07.656Z</time>
      </trkpt>
      <trkpt lat="49.55476" lon="-1.30897">
        <ele>0.848345</ele>
        <time>2022-01-20T09:46:11.387Z</time>
      </trkpt>
      <trkpt lat="49.55418" lon="-1.30901">
        <ele>0.711814</ele>
        <time>2022-01-20T09:46:27.711Z</time>
      </trkpt>
      <trkpt lat="49.55406" lon="-1.30902">
        <ele>0.683195</ele>
        <time>2022-01-20T09:46:31.121Z</time>
      </trkpt>
      <trkpt lat="49.55387" lon="-1.30901">
        <ele>0.637044</ele>
        <time>2022-01-20T09:46:36.328Z</time>
      </trkpt>
      <trkpt lat="49.55371" lon="-1.30899">
        <ele>0.588638</ele>
        <time>2022-01-20T09:46:40.969Z</time>
      </trkpt>
      <trkpt lat="49.55323" lon="-1.30902">
        <ele>0.449325</ele>
        <time>2022-01-20T09:46:54.388Z</time>
      </trkpt>
      <trkpt lat="49.55264" lon="-1.30915">
        <ele>0.27546</ele>
        <time>2022-01-20T09:47:11.117Z</time>
      </trkpt>
      <trkpt lat="49.55212" lon="-1.30938">
        <ele>0.133694</ele>
        <time>2022-01-20T09:47:26.141Z</time>
      </trkpt>
      <trkpt lat="49.5515" lon="-1.30943">
        <ele>0.270901</ele>
        <time>2022-01-20T09:47:43.598Z</time>
      </trkpt>
      <trkpt lat="49.55011" lon="-1.30989">
        <ele>0.646816</ele>
        <time>2022-01-20T09:48:23.563Z</time>
      </trkpt>
      <trkpt lat="49.54918" lon="-1.30998">
        <ele>1.065172</ele>
        <time>2022-01-20T09:48:49.861Z</time>
      </trkpt>
      <trkpt lat="49.54905" lon="-1.30995">
        <ele>1.122064</ele>
        <time>2022-01-20T09:48:53.429Z</time>
      </trkpt>
      <trkpt lat="49.54893" lon="-1.30994">
        <ele>1.177351</ele>
        <time>2022-01-20T09:48:56.891Z</time>
      </trkpt>
      <trkpt lat="49.54841" lon="-1.3098">
        <ele>1.344699</ele>
        <time>2022-01-20T09:49:11.779Z</time>
      </trkpt>
      <trkpt lat="49.54794" lon="-1.30974">
        <ele>1.380496</ele>
        <time>2022-01-20T09:49:24.949Z</time>
      </trkpt>
      <trkpt lat="49.5475" lon="-1.30959">
        <ele>1.414942</ele>
        <time>2022-01-20T09:49:37.571Z</time>
      </trkpt>
      <trkpt lat="49.54639" lon="-1.3088">
        <ele>1.296765</ele>
        <time>2022-01-20T09:50:11.950Z</time>
      </trkpt>
      <trkpt lat="49.54556" lon="-1.3082">
        <ele>1.006209</ele>
        <time>2022-01-20T09:50:37.459Z</time>
      </trkpt>
      <trkpt lat="49.5452" lon="-1.30798">
        <ele>0.886619</ele>
        <time>2022-01-20T09:50:48.307Z</time>
      </trkpt>
      <trkpt lat="49.54506" lon="-1.30799">
        <ele>0.856631</ele>
        <time>2022-01-20T09:50:52.402Z</time>
      </trkpt>
      <trkpt lat="49.54461" lon="-1.30781">
        <ele>0.761749</ele>
        <time>2022-01-20T09:51:05.313Z</time>
      </trkpt>
      <trkpt lat="49.54412" lon="-1.30781">
        <ele>0.660708</ele>
        <time>2022-01-20T09:51:19.092Z</time>
      </trkpt>
      <trkpt lat="49.54358" lon="-1.30765">
        <ele>0.549008</ele>
        <time>2022-01-20T09:51:34.281Z</time>
      </trkpt>
      <trkpt lat="49.54319" lon="-1.3077">
        <ele>0.49697</ele>
        <time>2022-01-20T09:51:45.425Z</time>
      </trkpt>
      <trkpt lat="49.54303" lon="-1.30766">
        <ele>0.481383</ele>
        <time>2022-01-20T09:51:49.879Z</time>
      </trkpt>
      <trkpt lat="49.54293" lon="-1.30766">
        <ele>0.471744</ele>
        <time>2022-01-20T09:51:52.618Z</time>
      </trkpt>
      <trkpt lat="49.54174" lon="-1.30745">
        <ele>0.35338</ele>
        <time>2022-01-20T09:52:26.228Z</time>
      </trkpt>
      <trkpt lat="49.54163" lon="-1.30748">
        <ele>0.355776</ele>
        <time>2022-01-20T09:52:29.200Z</time>
      </trkpt>
      <trkpt lat="49.54151" lon="-1.30763">
        <ele>0.384089</ele>
        <time>2022-01-20T09:52:33.624Z</time>
      </trkpt>
      <trkpt lat="49.53942" lon="-1.30685">
        <ele>0.768369</ele>
        <time>2022-01-20T09:53:33.956Z</time>
      </trkpt>
      <trkpt lat="49.53894" lon="-1.30668">
        <ele>0.855115</ele>
        <time>2022-01-20T09:53:47.687Z</time>
      </trkpt>
      <trkpt lat="49.53859" lon="-1.30633">
        <ele>0.92902</ele>
        <time>2022-01-20T09:53:59.378Z</time>
      </trkpt>
      <trkpt lat="49.53792" lon="-1.30568">
        <ele>0.969603</ele>
        <time>2022-01-20T09:54:21.591Z</time>
      </trkpt>
      <trkpt lat="49.53789" lon="-1.30554">
        <ele>0.965733</ele>
        <time>2022-01-20T09:54:24.236Z</time>
      </trkpt>
      <trkpt lat="49.5377" lon="-1.30531">
        <ele>0.955529</ele>
        <time>2022-01-20T09:54:31.152Z</time>
      </trkpt>
      <trkpt lat="49.53757" lon="-1.30531">
        <ele>0.950541</ele>
        <time>2022-01-20T09:54:34.532Z</time>
      </trkpt>
      <trkpt lat="49.53754" lon="-1.30497">
        <ele>0.941265</ele>
        <time>2022-01-20T09:54:40.828Z</time>
      </trkpt>
      <trkpt lat="49.53752" lon="-1.30466">
        <ele>0.933127</ele>
        <time>2022-01-20T09:54:46.337Z</time>
      </trkpt>
      <trkpt lat="49.53732" lon="-1.30438">
        <ele>0.922182</ele>
        <time>2022-01-20T09:54:53.774Z</time>
      </trkpt>
      <trkpt lat="49.53594" lon="-1.30334">
        <ele>0.610423</ele>
        <time>2022-01-20T09:55:36.843Z</time>
      </trkpt>
      <trkpt lat="49.53525" lon="-1.30263">
        <ele>0.458193</ele>
        <time>2022-01-20T09:56:00.116Z</time>
      </trkpt>
      <trkpt lat="49.53508" lon="-1.30288">
        <ele>0.426983</ele>
        <time>2022-01-20T09:56:06.631Z</time>
      </trkpt>
      <trkpt lat="49.53495" lon="-1.30287">
        <ele>0.408497</ele>
        <time>2022-01-20T09:56:10.517Z</time>
      </trkpt>
      <trkpt lat="49.53465" lon="-1.30254">
        <ele>0.359664</ele>
        <time>2022-01-20T09:56:20.710Z</time>
      </trkpt>
      <trkpt lat="49.53427" lon="-1.30224">
        <ele>0.3027</ele>
        <time>2022-01-20T09:56:32.604Z</time>
      </trkpt>
      <trkpt lat="49.53335" lon="-1.30144">
        <ele>0.203796</ele>
        <time>2022-01-20T09:57:02.257Z</time>
      </trkpt>
      <trkpt lat="49.53268" lon="-1.30081">
        <ele>0.141149</ele>
        <time>2022-01-20T09:57:23.995Z</time>
      </trkpt>
      <trkpt lat="49.53223" lon="-1.30036">
        <ele>0.158226</ele>
        <time>2022-01-20T09:57:39.088Z</time>
      </trkpt>
      <trkpt lat="49.53208" lon="-1.30021">
        <ele>0.176103</ele>
        <time>2022-01-20T09:57:43.880Z</time>
      </trkpt>
      <trkpt lat="49.52994" lon="-1.29836">
        <ele>0.431035</ele>
        <time>2022-01-20T09:58:52.754Z</time>
      </trkpt>
      <trkpt lat="49.52877" lon="-1.29751">
        <ele>0.463613</ele>
        <time>2022-01-20T09:59:28.901Z</time>
      </trkpt>
      <trkpt lat="49.52861" lon="-1.29747">
        <ele>0.455716</ele>
        <time>2022-01-20T09:59:33.247Z</time>
      </trkpt>
      <trkpt lat="49.52848" lon="-1.29738">
        <ele>0.448303</ele>
        <time>2022-01-20T09:59:37.328Z</time>
      </trkpt>
      <trkpt lat="49.52614" lon="-1.29538">
        <ele>0.228211</ele>
        <time>2022-01-20T10:00:52.107Z</time>
      </trkpt>
      <trkpt lat="49.52608" lon="-1.29533">
        <ele>0.229896</ele>
        <time>2022-01-20T10:00:54.055Z</time>
      </trkpt>
      <trkpt lat="49.52591" lon="-1.29517">
        <ele>0.234592</ele>
        <time>2022-01-20T10:00:59.508Z</time>
      </trkpt>
      <trkpt lat="49.52542" lon="-1.29477">
        <ele>0.24811</ele>
        <time>2022-01-20T10:01:15.165Z</time>
      </trkpt>
      <trkpt lat="49.52426" lon="-1.29365">
        <ele>0.29851</ele>
        <time>2022-01-20T10:01:53.424Z</time>
      </trkpt>
      <trkpt lat="49.52356" lon="-1.29274">
        <ele>0.357143</ele>
        <time>2022-01-20T10:02:18.793Z</time>
      </trkpt>
      <trkpt lat="49.52285" lon="-1.29198">
        <ele>0.368212</ele>
        <time>2022-01-20T10:02:42.927Z</time>
      </trkpt>
      <trkpt lat="49.52204" lon="-1.29135">
        <ele>0.327092</ele>
        <time>2022-01-20T10:03:08.337Z</time>
      </trkpt>
      <trkpt lat="49.52154" lon="-1.291">
        <ele>0.305142</ele>
        <time>2022-01-20T10:03:23.647Z</time>
      </trkpt>
      <trkpt lat="49.52011" lon="-1.29022">
        <ele>0.300635</ele>
        <time>2022-01-20T10:04:05.976Z</time>
      </trkpt>
      <trkpt lat="49.51928" lon="-1.29006">
        <ele>0.319126</ele>
        <time>2022-01-20T10:04:29.381Z</time>
      </trkpt>
      <trkpt lat="49.51905" lon="-1.29022">
        <ele>0.326942</ele>
        <time>2022-01-20T10:04:36.525Z</time>
      </trkpt>
      <trkpt lat="49.51899" lon="-1.2903">
        <ele>0.329287</ele>
        <time>2022-01-20T10:04:38.654Z</time>
      </trkpt>
      <trkpt lat="49.5189" lon="-1.29033">
        <ele>0.332145</ele>
        <time>2022-01-20T10:04:40.401Z</time>
      </trkpt>
      <trkpt lat="49.51886" lon="-1.29038">
        <ele>0.333725</ele>
        <time>2022-01-20T10:04:41.418Z</time>
      </trkpt>
      <trkpt lat="49.51856" lon="-1.291">
        <ele>0.349137</ele>
        <time>2022-01-20T10:04:50.916Z</time>
      </trkpt>
      <trkpt lat="49.51838" lon="-1.29119">
        <ele>0.359999</ele>
        <time>2022-01-20T10:04:55.058Z</time>
      </trkpt>
      <trkpt lat="49.51818" lon="-1.29143">
        <ele>0.412035</ele>
        <time>2022-01-20T10:04:59.768Z</time>
      </trkpt>
      <trkpt lat="49.51783" lon="-1.29161">
        <ele>0.489745</ele>
        <time>2022-01-20T10:05:10.261Z</time>
      </trkpt>
      <trkpt lat="49.51765" lon="-1.29166">
        <ele>0.527638</ele>
        <time>2022-01-20T10:05:15.394Z</time>
      </trkpt>
      <trkpt lat="49.51731" lon="-1.29184">
        <ele>0.601189</ele>
        <time>2022-01-20T10:05:25.337Z</time>
      </trkpt>
      <trkpt lat="49.51712" lon="-1.29191">
        <ele>0.641691</ele>
        <time>2022-01-20T10:05:30.817Z</time>
      </trkpt>
      <trkpt lat="49.51682" lon="-1.29222">
        <ele>0.716854</ele>
        <time>2022-01-20T10:05:41.008Z</time>
      </trkpt>
      <trkpt lat="49.51671" lon="-1.29238">
        <ele>0.809326</ele>
        <time>2022-01-20T10:05:45.207Z</time>
      </trkpt>
      <trkpt lat="49.51668" lon="-1.29269">
        <ele>0.982434</ele>
        <time>2022-01-20T10:05:50.973Z</time>
      </trkpt>
      <trkpt lat="49.5166" lon="-1.29284">
        <ele>1.088792</ele>
        <time>2022-01-20T10:05:53.419Z</time>
      </trkpt>
      <trkpt lat="49.51645" lon="-1.29286">
        <ele>1.219311</ele>
        <time>2022-01-20T10:05:57.801Z</time>
      </trkpt>
      <trkpt lat="49.51625" lon="-1.29241">
        <ele>1.514355</ele>
        <time>2022-01-20T10:06:07.690Z</time>
      </trkpt>
      <trkpt lat="49.51619" lon="-1.29212">
        <ele>1.683719</ele>
        <time>2022-01-20T10:06:13.379Z</time>
      </trkpt>
      <trkpt lat="49.51618" lon="-1.29206">
        <ele>1.715135</ele>
        <time>2022-01-20T10:06:14.427Z</time>
      </trkpt>
      <trkpt lat="49.51621" lon="-1.29196">
        <ele>1.775383</ele>
        <time>2022-01-20T10:06:16.460Z</time>
      </trkpt>
      <trkpt lat="49.5163" lon="-1.29181">
        <ele>1.889418</ele>
        <time>2022-01-20T10:06:20.297Z</time>
      </trkpt>
      <trkpt lat="49.51648" lon="-1.29155">
        <ele>2.096204</ele>
        <time>2022-01-20T10:06:27.230Z</time>
      </trkpt>
      <trkpt lat="49.51659" lon="-1.29134">
        <ele>2.247249</ele>
        <time>2022-01-20T10:06:32.308Z</time>
      </trkpt>
      <trkpt lat="49.51658" lon="-1.29129">
        <ele>2.265839</ele>
        <time>2022-01-20T10:06:33.156Z</time>
      </trkpt>
      <trkpt lat="49.51665" lon="-1.29119">
        <ele>2.323439</ele>
        <time>2022-01-20T10:06:35.395Z</time>
      </trkpt>
      <trkpt lat="49.5169" lon="-1.29089">
        <ele>2.519151</ele>
        <time>2022-01-20T10:06:42.817Z</time>
      </trkpt>
      <trkpt lat="49.5168" lon="-1.29058">
        <ele>2.657692</ele>
        <time>2022-01-20T10:06:49.196Z</time>
      </trkpt>
      <trkpt lat="49.51653" lon="-1.2907">
        <ele>2.827433</ele>
        <time>2022-01-20T10:06:54.463Z</time>
      </trkpt>
      <trkpt lat="49.51625" lon="-1.29065">
        <ele>3.004219</ele>
        <time>2022-01-20T10:06:59.890Z</time>
      </trkpt>
      <trkpt lat="49.51605" lon="-1.29043">
        <ele>3.153986</ele>
        <time>2022-01-20T10:07:04.412Z</time>
      </trkpt>
      <trkpt lat="49.51591" lon="-1.2902">
        <ele>3.277727</ele>
        <time>2022-01-20T10:07:08.179Z</time>
      </trkpt>
      <trkpt lat="49.51582" lon="-1.29006">
        <ele>3.348335</ele>
        <time>2022-01-20T10:07:10.532Z</time>
      </trkpt>
      <trkpt lat="49.51558" lon="-1.28992">
        <ele>3.318245</ele>
        <time>2022-01-20T10:07:15.247Z</time>
      </trkpt>
      <trkpt lat="49.51501" lon="-1.28964">
        <ele>3.251172</ele>
        <time>2022-01-20T10:07:25.553Z</time>
      </trkpt>
      <trkpt lat="49.51477" lon="-1.28952">
        <ele>3.22222</ele>
        <time>2022-01-20T10:07:29.998Z</time>
      </trkpt>
      <trkpt lat="49.51471" lon="-1.28953">
        <ele>3.214821</ele>
        <time>2022-01-20T10:07:31.121Z</time>
      </trkpt>
      <trkpt lat="49.51459" lon="-1.28955">
        <ele>3.202113</ele>
        <time>2022-01-20T10:07:33.065Z</time>
      </trkpt>
      <trkpt lat="49.51459" lon="-1.28943">
        <ele>3.193028</ele>
        <time>2022-01-20T10:07:34.408Z</time>
      </trkpt>
      <trkpt lat="49.51461" lon="-1.28926">
        <ele>3.180673</ele>
        <time>2022-01-20T10:07:36.207Z</time>
      </trkpt>
      <trkpt lat="49.51487" lon="-1.28807">
        <ele>3.079365</ele>
        <time>2022-01-20T10:07:49.929Z</time>
      </trkpt>
      <trkpt lat="49.51492" lon="-1.28789">
        <ele>3.063221</ele>
        <time>2022-01-20T10:07:52.030Z</time>
      </trkpt>
      <trkpt lat="49.51477" lon="-1.28778">
        <ele>3.042601</ele>
        <time>2022-01-20T10:07:54.675Z</time>
      </trkpt>
      <trkpt lat="49.51438" lon="-1.28703">
        <ele>2.961457</ele>
        <time>2022-01-20T10:08:05.156Z</time>
      </trkpt>
      <trkpt lat="49.51362" lon="-1.28582">
        <ele>2.911862</ele>
        <time>2022-01-20T10:08:23.832Z</time>
      </trkpt>
      <trkpt lat="49.51325" lon="-1.28541">
        <ele>2.911862</ele>
        <time>2022-01-20T10:08:31.626Z</time>
      </trkpt>
      <trkpt lat="49.51318" lon="-1.28532">
        <ele>2.911862</ele>
        <time>2022-01-20T10:08:33.084Z</time>
      </trkpt>
      <trkpt lat="49.51318" lon="-1.28531">
        <ele>2.911862</ele>
        <time>2022-01-20T10:08:33.397Z</time>
      </trkpt>
      <trkpt lat="49.5131" lon="-1.28521">
        <ele>2.911862</ele>
        <time>2022-01-20T10:08:35.072Z</time>
      </trkpt>
      <trkpt lat="49.51278" lon="-1.28474">
        <ele>2.911862</ele>
        <time>2022-01-20T10:08:42.659Z</time>
      </trkpt>
    </trkseg>
  </trk>
</gpx>